<?xml version='1.0' encoding='UTF-8'?><gpx version="1.1" creator="JPX - https://github.com/jenetics/jpx" xmlns="http://www.topografix.com/GPX/1/1"><trk><trkseg><trkpt lat="43.58112818194927" lon="3.7496634893405"><ele>56.00000000000001</ele><time>2026-04-12T07:01:57.994Z</time></trkpt><trkpt lat="43.58114054468062" lon="3.749752129149603"><ele>56.0</ele><time>2026-04-12T07:02:47.995Z</time></trkpt><trkpt lat="43.581103692458505" lon="3.7496719183022065"><ele>56.0</ele><time>2026-04-12T07:03:02.995Z</time></trkpt><trkpt lat="43.58106505856989" lon="3.7495834282991725"><ele>56.0</ele><time>2026-04-12T07:03:05.995Z</time></trkpt><trkpt lat="43.58102494911893" lon="3.749481027400872"><ele>56.00000000000001</ele><time>2026-04-12T07:03:08.995Z</time></trkpt><trkpt lat="43.580976820800544" lon="3.7493749727737393"><ele>56.0</ele><time>2026-04-12T07:03:11.995Z</time></trkpt><trkpt lat="43.580934699313175" lon="3.7492698853835185"><ele>56.16666666666667</ele><time>2026-04-12T07:03:14.995Z</time></trkpt><trkpt lat="43.580888158862265" lon="3.7491665522716513"><ele>56.333333333333336</ele><time>2026-04-12T07:03:17.995Z</time></trkpt><trkpt lat="43.58083182473598" lon="3.7490657833526235"><ele>56.5</ele><time>2026-04-12T07:03:20.995Z</time></trkpt><trkpt lat="43.58078467824526" lon="3.748962491286246"><ele>56.66666666666667</ele><time>2026-04-12T07:03:23.995Z</time></trkpt><trkpt lat="43.58074452852275" lon="3.7488823646833254"><ele>56.833333333333336</ele><time>2026-04-12T07:03:25.995Z</time></trkpt><trkpt lat="43.5807002057857" lon="3.7488067767075424"><ele>57.0</ele><time>2026-04-12T07:03:27.995Z</time></trkpt><trkpt lat="43.5806649823367" lon="3.7487210133261817"><ele>57.0</ele><time>2026-04-12T07:03:29.994Z</time></trkpt><trkpt lat="43.58062647784627" lon="3.748646917056462"><ele>56.99999999999999</ele><time>2026-04-12T07:03:31.994Z</time></trkpt><trkpt lat="43.58057339971675" lon="3.748578818599246"><ele>57.0</ele><time>2026-04-12T07:03:33.994Z</time></trkpt><trkpt lat="43.58054268031798" lon="3.7484940803958904"><ele>57.0</ele><time>2026-04-12T07:03:35.994Z</time></trkpt><trkpt lat="43.580508137913746" lon="3.7484008276491396"><ele>56.99999999999999</ele><time>2026-04-12T07:03:37.994Z</time></trkpt><trkpt lat="43.5804699631466" lon="3.748326492497547"><ele>57.0</ele><time>2026-04-12T07:03:39.994Z</time></trkpt><trkpt lat="43.580430848709184" lon="3.7482435901635416"><ele>57.0</ele><time>2026-04-12T07:03:41.994Z</time></trkpt><trkpt lat="43.580379808504496" lon="3.748130237765558"><ele>57.14285714285714</ele><time>2026-04-12T07:03:44.994Z</time></trkpt><trkpt lat="43.5803390747961" lon="3.748059631562664"><ele>57.28571428571428</ele><time>2026-04-12T07:03:46.994Z</time></trkpt><trkpt lat="43.58030376565714" lon="3.7479841632641175"><ele>57.42857142857143</ele><time>2026-04-12T07:03:48.994Z</time></trkpt><trkpt lat="43.58026811586945" lon="3.747904158065183"><ele>57.57142857142857</ele><time>2026-04-12T07:03:50.994Z</time></trkpt><trkpt lat="43.58023233330026" lon="3.7478290932965774"><ele>57.714285714285715</ele><time>2026-04-12T07:03:52.994Z</time></trkpt><trkpt lat="43.58019746124153" lon="3.7477459923675833"><ele>57.85714285714286</ele><time>2026-04-12T07:03:54.994Z</time></trkpt><trkpt lat="43.58016683097816" lon="3.74766589192093"><ele>58.00000000000001</ele><time>2026-04-12T07:03:56.994Z</time></trkpt><trkpt lat="43.580115799138305" lon="3.747562534971117"><ele>57.99999999999999</ele><time>2026-04-12T07:03:59.994Z</time></trkpt><trkpt lat="43.580063422352794" lon="3.747448892538119"><ele>58.0</ele><time>2026-04-12T07:04:02.994Z</time></trkpt><trkpt lat="43.58003390029418" lon="3.7473711107289547"><ele>58.0</ele><time>2026-04-12T07:04:04.994Z</time></trkpt><trkpt lat="43.579986928796174" lon="3.747286943478434"><ele>58.0</ele><time>2026-04-12T07:04:06.994Z</time></trkpt><trkpt lat="43.579931338918094" lon="3.7471768927354248"><ele>57.99999999999999</ele><time>2026-04-12T07:04:09.994Z</time></trkpt><trkpt lat="43.57989213220227" lon="3.7471005630985554"><ele>58.0</ele><time>2026-04-12T07:04:11.994Z</time></trkpt><trkpt lat="43.57985280674508" lon="3.7470197142339274"><ele>57.99999999999999</ele><time>2026-04-12T07:04:13.994Z</time></trkpt><trkpt lat="43.57981310092877" lon="3.7469508852523368"><ele>58.0</ele><time>2026-04-12T07:04:15.994Z</time></trkpt><trkpt lat="43.57978550438034" lon="3.74685660111533"><ele>58.0</ele><time>2026-04-12T07:04:17.994Z</time></trkpt><trkpt lat="43.57971833754113" lon="3.746758355196233"><ele>58.0</ele><time>2026-04-12T07:04:20.994Z</time></trkpt><trkpt lat="43.57967553881825" lon="3.746648595100885"><ele>57.99999999999999</ele><time>2026-04-12T07:04:23.994Z</time></trkpt><trkpt lat="43.5796246893817" lon="3.7465437390895997"><ele>58.0</ele><time>2026-04-12T07:04:26.994Z</time></trkpt><trkpt lat="43.579586216924746" lon="3.7464731473530164"><ele>57.666666666666664</ele><time>2026-04-12T07:04:28.994Z</time></trkpt><trkpt lat="43.57956287453781" lon="3.746390089863001"><ele>57.33333333333333</ele><time>2026-04-12T07:04:30.994Z</time></trkpt><trkpt lat="43.57951110972912" lon="3.7462885454393575"><ele>57.0</ele><time>2026-04-12T07:04:33.994Z</time></trkpt><trkpt lat="43.57946689904309" lon="3.746168573703539"><ele>56.66666666666667</ele><time>2026-04-12T07:04:36.994Z</time></trkpt><trkpt lat="43.57940945962233" lon="3.7460517857036315"><ele>56.333333333333336</ele><time>2026-04-12T07:04:39.994Z</time></trkpt><trkpt lat="43.57935217861501" lon="3.7459496553948917"><ele>56.0</ele><time>2026-04-12T07:04:42.994Z</time></trkpt><trkpt lat="43.579319666722846" lon="3.7458713690181717"><ele>56.57142857142857</ele><time>2026-04-12T07:04:44.994Z</time></trkpt><trkpt lat="43.579292897099336" lon="3.745785681337636"><ele>57.14285714285714</ele><time>2026-04-12T07:04:46.994Z</time></trkpt><trkpt lat="43.579279302359794" lon="3.745686253563486"><ele>57.714285714285715</ele><time>2026-04-12T07:04:49.995Z</time></trkpt><trkpt lat="43.579249523528624" lon="3.7455963065654996"><ele>58.285714285714285</ele><time>2026-04-12T07:04:52.994Z</time></trkpt><trkpt lat="43.579221724598796" lon="3.74549357024757"><ele>58.857142857142854</ele><time>2026-04-12T07:04:55.994Z</time></trkpt><trkpt lat="43.57923083899959" lon="3.745403624978952"><ele>59.42857142857143</ele><time>2026-04-12T07:04:58.994Z</time></trkpt><trkpt lat="43.57928102366722" lon="3.745312926253058"><ele>60.0</ele><time>2026-04-12T07:05:01.994Z</time></trkpt><trkpt lat="43.579319750739955" lon="3.7452437877972065"><ele>60.0</ele><time>2026-04-12T07:05:04.994Z</time></trkpt><trkpt lat="43.579379117456746" lon="3.7451822926352816"><ele>60.0</ele><time>2026-04-12T07:05:08.994Z</time></trkpt><trkpt lat="43.579435521949826" lon="3.7452364601158976"><ele>60.0</ele><time>2026-04-12T07:05:12.994Z</time></trkpt><trkpt lat="43.579498850480796" lon="3.745213999384772"><ele>60.0</ele><time>2026-04-12T07:05:16.994Z</time></trkpt><trkpt lat="43.57953932333172" lon="3.745315203823795"><ele>60.0</ele><time>2026-04-12T07:05:20.994Z</time></trkpt><trkpt lat="43.5796057505579" lon="3.7453255977342748"><ele>60.0</ele><time>2026-04-12T07:05:36.994Z</time></trkpt><trkpt lat="43.579628858212644" lon="3.7452313073436714"><ele>60.0</ele><time>2026-04-12T07:06:31.993Z</time></trkpt><trkpt lat="43.579660848905284" lon="3.7451368426636016"><ele>62.142857142857146</ele><time>2026-04-12T07:06:50.993Z</time></trkpt><trkpt lat="43.57972823726744" lon="3.745107665906112"><ele>64.28571428571428</ele><time>2026-04-12T07:11:33.991Z</time></trkpt><trkpt lat="43.579795475459356" lon="3.7451010445087016"><ele>66.42857142857142</ele><time>2026-04-12T07:11:36.991Z</time></trkpt><trkpt lat="43.57986162028766" lon="3.7450753509061308"><ele>68.57142857142857</ele><time>2026-04-12T07:11:40.991Z</time></trkpt><trkpt lat="43.57983032619927" lon="3.744966251662976"><ele>70.71428571428571</ele><time>2026-04-12T07:11:44.991Z</time></trkpt><trkpt lat="43.57981040597365" lon="3.7448713876258934"><ele>72.85714285714285</ele><time>2026-04-12T07:11:48.991Z</time></trkpt><trkpt lat="43.57982851036229" lon="3.744777005861178"><ele>75.0</ele><time>2026-04-12T07:11:52.991Z</time></trkpt><trkpt lat="43.57985178296702" lon="3.744673549051497"><ele>74.99999999999999</ele><time>2026-04-12T07:11:56.991Z</time></trkpt><trkpt lat="43.57988320954247" lon="3.744577331916089"><ele>75.0</ele><time>2026-04-12T07:12:00.991Z</time></trkpt><trkpt lat="43.57991296395543" lon="3.744481431268865"><ele>75.0</ele><time>2026-04-12T07:12:04.991Z</time></trkpt><trkpt lat="43.57988448091684" lon="3.744396239100645"><ele>75.0</ele><time>2026-04-12T07:12:12.991Z</time></trkpt><trkpt lat="43.57985900385883" lon="3.744311196314066"><ele>75.0</ele><time>2026-04-12T07:12:16.991Z</time></trkpt><trkpt lat="43.57981772446771" lon="3.744233095923895"><ele>74.99999999999999</ele><time>2026-04-12T07:12:20.991Z</time></trkpt><trkpt lat="43.5797674798357" lon="3.744164237049196"><ele>75.0</ele><time>2026-04-12T07:12:22.991Z</time></trkpt><trkpt lat="43.57971983729935" lon="3.744106111587962"><ele>74.33333333333333</ele><time>2026-04-12T07:12:24.991Z</time></trkpt><trkpt lat="43.5796646250051" lon="3.7440486301857656"><ele>73.66666666666667</ele><time>2026-04-12T07:12:26.991Z</time></trkpt><trkpt lat="43.57961547173108" lon="3.7439779438390075"><ele>73.0</ele><time>2026-04-12T07:12:28.991Z</time></trkpt><trkpt lat="43.579564855274924" lon="3.743888068478148"><ele>72.33333333333334</ele><time>2026-04-12T07:12:30.991Z</time></trkpt><trkpt lat="43.57950579670483" lon="3.743824174609695"><ele>71.66666666666667</ele><time>2026-04-12T07:12:32.991Z</time></trkpt><trkpt lat="43.57944978383319" lon="3.7437512875130614"><ele>71.0</ele><time>2026-04-12T07:12:34.99Z</time></trkpt><trkpt lat="43.579416817885665" lon="3.7436409851177936"><ele>71.0</ele><time>2026-04-12T07:12:36.99Z</time></trkpt><trkpt lat="43.57937861977745" lon="3.743549160570357"><ele>71.0</ele><time>2026-04-12T07:12:39.99Z</time></trkpt><trkpt lat="43.579334230644825" lon="3.743474727394756"><ele>71.0</ele><time>2026-04-12T07:12:41.99Z</time></trkpt><trkpt lat="43.579323526525734" lon="3.7433873013307726"><ele>71.0</ele><time>2026-04-12T07:12:43.99Z</time></trkpt><trkpt lat="43.579387618835085" lon="3.7433296702996057"><ele>71.0</ele><time>2026-04-12T07:12:46.99Z</time></trkpt><trkpt lat="43.57945252173456" lon="3.743255396938199"><ele>71.0</ele><time>2026-04-12T07:12:50.99Z</time></trkpt><trkpt lat="43.57951171286795" lon="3.7431842072304877"><ele>72.57142857142857</ele><time>2026-04-12T07:12:53.99Z</time></trkpt><trkpt lat="43.57957492928384" lon="3.7431181778910827"><ele>74.14285714285714</ele><time>2026-04-12T07:12:56.99Z</time></trkpt><trkpt lat="43.57963323291485" lon="3.7430366924754166"><ele>75.71428571428571</ele><time>2026-04-12T07:13:00.99Z</time></trkpt><trkpt lat="43.57969995428639" lon="3.742988677404648"><ele>77.28571428571428</ele><time>2026-04-12T07:13:03.99Z</time></trkpt><trkpt lat="43.57976632441842" lon="3.742957147512554"><ele>78.85714285714286</ele><time>2026-04-12T07:13:07.99Z</time></trkpt><trkpt lat="43.57981788773596" lon="3.7429009082404114"><ele>80.42857142857142</ele><time>2026-04-12T07:13:11.991Z</time></trkpt><trkpt lat="43.57986909753862" lon="3.7428372770398033"><ele>82.0</ele><time>2026-04-12T07:13:14.991Z</time></trkpt><trkpt lat="43.579873833014766" lon="3.74272751201477"><ele>82.14285714285714</ele><time>2026-04-12T07:13:19.991Z</time></trkpt><trkpt lat="43.57983780880048" lon="3.742650898754749"><ele>82.28571428571428</ele><time>2026-04-12T07:13:22.991Z</time></trkpt><trkpt lat="43.579774755313004" lon="3.7426076381243023"><ele>82.42857142857142</ele><time>2026-04-12T07:13:27.991Z</time></trkpt><trkpt lat="43.57970509527192" lon="3.7425667433370133"><ele>82.57142857142857</ele><time>2026-04-12T07:13:31.991Z</time></trkpt><trkpt lat="43.57967618911153" lon="3.742471014001771"><ele>82.71428571428572</ele><time>2026-04-12T07:13:36.991Z</time></trkpt><trkpt lat="43.57961647831779" lon="3.7424132369682512"><ele>82.85714285714285</ele><time>2026-04-12T07:13:39.991Z</time></trkpt><trkpt lat="43.5795676871426" lon="3.742318646965028"><ele>83.0</ele><time>2026-04-12T07:13:42.991Z</time></trkpt><trkpt lat="43.579519207284434" lon="3.7422488037427875"><ele>82.16666666666667</ele><time>2026-04-12T07:13:45.99Z</time></trkpt><trkpt lat="43.57947495914655" lon="3.7421648688044256"><ele>81.33333333333334</ele><time>2026-04-12T07:13:48.99Z</time></trkpt><trkpt lat="43.57942317609722" lon="3.7420711947951126"><ele>80.5</ele><time>2026-04-12T07:13:51.99Z</time></trkpt><trkpt lat="43.579405491190464" lon="3.741970384119159"><ele>79.66666666666667</ele><time>2026-04-12T07:13:54.99Z</time></trkpt><trkpt lat="43.579392768905386" lon="3.741854464639007"><ele>78.83333333333333</ele><time>2026-04-12T07:13:57.99Z</time></trkpt><trkpt lat="43.57937592986536" lon="3.7417688685665422"><ele>78.0</ele><time>2026-04-12T07:14:00.99Z</time></trkpt><trkpt lat="43.57935200174124" lon="3.741681701648098"><ele>78.0</ele><time>2026-04-12T07:14:03.99Z</time></trkpt><trkpt lat="43.57930620149624" lon="3.7415826145170947"><ele>78.0</ele><time>2026-04-12T07:14:06.99Z</time></trkpt><trkpt lat="43.57926810818517" lon="3.7414854358790306"><ele>78.0</ele><time>2026-04-12T07:14:09.99Z</time></trkpt><trkpt lat="43.57928334658081" lon="3.741368068743236"><ele>78.0</ele><time>2026-04-12T07:14:12.99Z</time></trkpt><trkpt lat="43.579342197810334" lon="3.741298155834524"><ele>78.0</ele><time>2026-04-12T07:14:15.99Z</time></trkpt><trkpt lat="43.57942373588809" lon="3.7412755003128706"><ele>78.0</ele><time>2026-04-12T07:14:19.99Z</time></trkpt><trkpt lat="43.57949593517337" lon="3.7412347181869277"><ele>79.0</ele><time>2026-04-12T07:14:22.99Z</time></trkpt><trkpt lat="43.57955453828367" lon="3.741202058141154"><ele>80.0</ele><time>2026-04-12T07:14:24.99Z</time></trkpt><trkpt lat="43.57963917423204" lon="3.741151654485488"><ele>81.0</ele><time>2026-04-12T07:14:27.99Z</time></trkpt><trkpt lat="43.579718597824765" lon="3.7411373994905537"><ele>82.0</ele><time>2026-04-12T07:14:31.99Z</time></trkpt><trkpt lat="43.57978426837271" lon="3.7411212683774138"><ele>83.0</ele><time>2026-04-12T07:14:33.99Z</time></trkpt><trkpt lat="43.57987226756476" lon="3.7411114379291264"><ele>84.0</ele><time>2026-04-12T07:14:41.99Z</time></trkpt><trkpt lat="43.57993471445687" lon="3.741050034386578"><ele>83.66666666666667</ele><time>2026-04-12T07:14:45.99Z</time></trkpt><trkpt lat="43.58001277205429" lon="3.741022859696001"><ele>83.33333333333333</ele><time>2026-04-12T07:14:50.99Z</time></trkpt><trkpt lat="43.58007105014794" lon="3.7409573609903726"><ele>83.0</ele><time>2026-04-12T07:14:55.99Z</time></trkpt><trkpt lat="43.58010395221908" lon="3.7408800487692933"><ele>82.66666666666666</ele><time>2026-04-12T07:14:58.99Z</time></trkpt><trkpt lat="43.58015366941482" lon="3.7407908112023107"><ele>82.33333333333333</ele><time>2026-04-12T07:15:02.989Z</time></trkpt><trkpt lat="43.58021996085173" lon="3.7407340991863043"><ele>82.0</ele><time>2026-04-12T07:15:06.989Z</time></trkpt><trkpt lat="43.58028439083923" lon="3.740687554352722"><ele>82.0</ele><time>2026-04-12T07:15:10.989Z</time></trkpt><trkpt lat="43.580337339381124" lon="3.7406194732520035"><ele>82.0</ele><time>2026-04-12T07:15:13.991Z</time></trkpt><trkpt lat="43.58039509152626" lon="3.7405410382265902"><ele>82.0</ele><time>2026-04-12T07:15:17.99Z</time></trkpt><trkpt lat="43.58045060432809" lon="3.740478195587905"><ele>82.0</ele><time>2026-04-12T07:15:21.991Z</time></trkpt><trkpt lat="43.58050704934964" lon="3.7404053833141866"><ele>82.0</ele><time>2026-04-12T07:15:25.99Z</time></trkpt><trkpt lat="43.58055977876293" lon="3.7403541605208166"><ele>82.0</ele><time>2026-04-12T07:15:28.991Z</time></trkpt><trkpt lat="43.5806415084271" lon="3.7403021628726107"><ele>84.33333333333333</ele><time>2026-04-12T07:15:32.991Z</time></trkpt><trkpt lat="43.58069810048259" lon="3.7402509170539697"><ele>86.66666666666666</ele><time>2026-04-12T07:15:34.991Z</time></trkpt><trkpt lat="43.580786198989124" lon="3.740234510941515"><ele>89.0</ele><time>2026-04-12T07:15:37.991Z</time></trkpt><trkpt lat="43.58087422035348" lon="3.740217311978329"><ele>91.33333333333333</ele><time>2026-04-12T07:15:40.991Z</time></trkpt><trkpt lat="43.580946477352335" lon="3.7402347412895143"><ele>93.66666666666667</ele><time>2026-04-12T07:15:43.991Z</time></trkpt><trkpt lat="43.58101552003486" lon="3.740287325076737"><ele>96.0</ele><time>2026-04-12T07:15:46.991Z</time></trkpt><trkpt lat="43.58109168938739" lon="3.7402936948115304"><ele>95.99999999999999</ele><time>2026-04-12T07:15:49.991Z</time></trkpt><trkpt lat="43.581166423173485" lon="3.7403294298378422"><ele>96.0</ele><time>2026-04-12T07:15:52.991Z</time></trkpt><trkpt lat="43.581236258301324" lon="3.740347940952029"><ele>96.0</ele><time>2026-04-12T07:15:55.991Z</time></trkpt><trkpt lat="43.581302883744634" lon="3.740382502870863"><ele>96.0</ele><time>2026-04-12T07:15:58.991Z</time></trkpt><trkpt lat="43.58137796610914" lon="3.7403773935142937"><ele>96.0</ele><time>2026-04-12T07:16:01.991Z</time></trkpt><trkpt lat="43.581430248565496" lon="3.7404274573082263"><ele>95.99999999999999</ele><time>2026-04-12T07:16:04.991Z</time></trkpt><trkpt lat="43.58147868009204" lon="3.7404907481577556"><ele>96.0</ele><time>2026-04-12T07:16:07.991Z</time></trkpt><trkpt lat="43.581532237936386" lon="3.7405579728903815"><ele>96.5</ele><time>2026-04-12T07:16:10.991Z</time></trkpt><trkpt lat="43.581579482303624" lon="3.7406226674909937"><ele>97.0</ele><time>2026-04-12T07:16:13.991Z</time></trkpt><trkpt lat="43.581627672477" lon="3.740543419158514"><ele>97.5</ele><time>2026-04-12T07:16:17.991Z</time></trkpt><trkpt lat="43.58170012205229" lon="3.7405130377503504"><ele>98.0</ele><time>2026-04-12T07:16:21.991Z</time></trkpt><trkpt lat="43.58177066251502" lon="3.740554321080805"><ele>98.5</ele><time>2026-04-12T07:16:24.991Z</time></trkpt><trkpt lat="43.58184472075481" lon="3.740583788955349"><ele>99.0</ele><time>2026-04-12T07:16:27.991Z</time></trkpt><trkpt lat="43.581915630846" lon="3.740632216788375"><ele>99.0</ele><time>2026-04-12T07:16:30.991Z</time></trkpt><trkpt lat="43.58194262237156" lon="3.740730987018627"><ele>99.0</ele><time>2026-04-12T07:16:33.991Z</time></trkpt><trkpt lat="43.58198926685646" lon="3.7408200403631575"><ele>99.0</ele><time>2026-04-12T07:16:36.99Z</time></trkpt><trkpt lat="43.582043920016396" lon="3.740882860932419"><ele>99.0</ele><time>2026-04-12T07:16:39.99Z</time></trkpt><trkpt lat="43.58209959674206" lon="3.7409463391513"><ele>99.0</ele><time>2026-04-12T07:16:42.99Z</time></trkpt><trkpt lat="43.58216401328069" lon="3.7409885938548832"><ele>99.0</ele><time>2026-04-12T07:16:45.99Z</time></trkpt><trkpt lat="43.58222759579575" lon="3.7410593779681243"><ele>99.0</ele><time>2026-04-12T07:16:48.99Z</time></trkpt><trkpt lat="43.582294128987115" lon="3.7410446704630984"><ele>99.0</ele><time>2026-04-12T07:16:51.99Z</time></trkpt><trkpt lat="43.58234474733758" lon="3.7409832866271944"><ele>99.0</ele><time>2026-04-12T07:16:54.99Z</time></trkpt><trkpt lat="43.58241368831955" lon="3.740950517765558"><ele>99.0</ele><time>2026-04-12T07:16:57.99Z</time></trkpt><trkpt lat="43.58249602450157" lon="3.7409833285738263"><ele>99.0</ele><time>2026-04-12T07:17:00.99Z</time></trkpt><trkpt lat="43.582571244017096" lon="3.7410599811088794"><ele>99.0</ele><time>2026-04-12T07:17:03.99Z</time></trkpt><trkpt lat="43.58265453517659" lon="3.741090846552308"><ele>99.0</ele><time>2026-04-12T07:17:06.99Z</time></trkpt><trkpt lat="43.58271519392068" lon="3.7411621920845595"><ele>99.0</ele><time>2026-04-12T07:17:09.99Z</time></trkpt><trkpt lat="43.58279967687955" lon="3.7412161707894516"><ele>99.0</ele><time>2026-04-12T07:17:12.99Z</time></trkpt><trkpt lat="43.5828890952125" lon="3.741191062456972"><ele>99.0</ele><time>2026-04-12T07:17:15.99Z</time></trkpt><trkpt lat="43.58293656402595" lon="3.7411269159361544"><ele>99.0</ele><time>2026-04-12T07:17:18.99Z</time></trkpt><trkpt lat="43.58296426813509" lon="3.741017337348517"><ele>99.0</ele><time>2026-04-12T07:17:22.991Z</time></trkpt><trkpt lat="43.583005323295225" lon="3.7409462156038984"><ele>98.83333333333333</ele><time>2026-04-12T07:17:25.991Z</time></trkpt><trkpt lat="43.58305672523286" lon="3.740879593432266"><ele>98.66666666666666</ele><time>2026-04-12T07:17:28.991Z</time></trkpt><trkpt lat="43.58309197037249" lon="3.7407778937117286"><ele>98.5</ele><time>2026-04-12T07:17:31.991Z</time></trkpt><trkpt lat="43.58312612640599" lon="3.7406889299458297"><ele>98.33333333333333</ele><time>2026-04-12T07:17:34.99Z</time></trkpt><trkpt lat="43.583133647728324" lon="3.74056458309495"><ele>98.16666666666666</ele><time>2026-04-12T07:17:37.99Z</time></trkpt><trkpt lat="43.58315642458125" lon="3.740456968026916"><ele>98.0</ele><time>2026-04-12T07:17:39.99Z</time></trkpt><trkpt lat="43.583194847884364" lon="3.7403720188778142"><ele>98.0</ele><time>2026-04-12T07:17:42.99Z</time></trkpt><trkpt lat="43.583143712280524" lon="3.7403199615305343"><ele>98.0</ele><time>2026-04-12T07:17:45.99Z</time></trkpt><trkpt lat="43.583138760639926" lon="3.7402187803794584"><ele>98.0</ele><time>2026-04-12T07:17:49.99Z</time></trkpt><trkpt lat="43.5831765460427" lon="3.740141761982899"><ele>98.0</ele><time>2026-04-12T07:17:51.99Z</time></trkpt><trkpt lat="43.5832193404421" lon="3.740027817501582"><ele>98.0</ele><time>2026-04-12T07:17:54.99Z</time></trkpt><trkpt lat="43.58320251734232" lon="3.739942071348254"><ele>98.0</ele><time>2026-04-12T07:17:56.99Z</time></trkpt><trkpt lat="43.583139563977575" lon="3.7398782044514713"><ele>98.0</ele><time>2026-04-12T07:17:59.99Z</time></trkpt><trkpt lat="43.5831885249865" lon="3.7397993316747717"><ele>97.4</ele><time>2026-04-12T07:18:01.99Z</time></trkpt><trkpt lat="43.583203749952766" lon="3.7396823192215023"><ele>96.80000000000001</ele><time>2026-04-12T07:18:04.99Z</time></trkpt><trkpt lat="43.58318065404851" lon="3.739580616676867"><ele>96.2</ele><time>2026-04-12T07:18:06.99Z</time></trkpt><trkpt lat="43.58311874246731" lon="3.7394915263641026"><ele>95.6</ele><time>2026-04-12T07:18:08.99Z</time></trkpt><trkpt lat="43.58306230177695" lon="3.7393886692591156"><ele>95.0</ele><time>2026-04-12T07:18:10.99Z</time></trkpt><trkpt lat="43.58296865091011" lon="3.7393107828557874"><ele>94.66666666666667</ele><time>2026-04-12T07:18:12.99Z</time></trkpt><trkpt lat="43.58293328208204" lon="3.739229362037028"><ele>94.33333333333334</ele><time>2026-04-12T07:18:14.99Z</time></trkpt><trkpt lat="43.58286312286818" lon="3.7391763878878126"><ele>94.0</ele><time>2026-04-12T07:18:16.99Z</time></trkpt><trkpt lat="43.582776596944775" lon="3.739160832437312"><ele>93.66666666666667</ele><time>2026-04-12T07:18:18.99Z</time></trkpt><trkpt lat="43.582684010786615" lon="3.7391740378227865"><ele>93.33333333333333</ele><time>2026-04-12T07:18:20.99Z</time></trkpt><trkpt lat="43.582615813478625" lon="3.739095959749621"><ele>93.0</ele><time>2026-04-12T07:18:22.99Z</time></trkpt><trkpt lat="43.58254471915401" lon="3.7390010569017793"><ele>91.66666666666667</ele><time>2026-04-12T07:18:24.99Z</time></trkpt><trkpt lat="43.582503921065104" lon="3.7389143467500765"><ele>90.33333333333333</ele><time>2026-04-12T07:18:26.99Z</time></trkpt><trkpt lat="43.582440818509326" lon="3.738848791550071"><ele>89.0</ele><time>2026-04-12T07:18:35.989Z</time></trkpt><trkpt lat="43.58237460565784" lon="3.7387586047266774"><ele>87.66666666666666</ele><time>2026-04-12T07:18:38.989Z</time></trkpt><trkpt lat="43.58234967503061" lon="3.7386500857628358"><ele>86.33333333333333</ele><time>2026-04-12T07:18:40.989Z</time></trkpt><trkpt lat="43.58230008517718" lon="3.73855157640399"><ele>85.0</ele><time>2026-04-12T07:18:42.989Z</time></trkpt><trkpt lat="43.582236985835394" lon="3.738462352166208"><ele>84.71428571428572</ele><time>2026-04-12T07:18:44.989Z</time></trkpt><trkpt lat="43.582167406743466" lon="3.7384067356047717"><ele>84.42857142857142</ele><time>2026-04-12T07:18:46.989Z</time></trkpt><trkpt lat="43.5821111087687" lon="3.7383213410956793"><ele>84.14285714285714</ele><time>2026-04-12T07:18:48.989Z</time></trkpt><trkpt lat="43.582080143953014" lon="3.738245327836578"><ele>83.85714285714286</ele><time>2026-04-12T07:18:53.989Z</time></trkpt><trkpt lat="43.58203179437732" lon="3.738177214546921"><ele>83.57142857142858</ele><time>2026-04-12T07:18:58.989Z</time></trkpt><trkpt lat="43.58205325836684" lon="3.7380919015272207"><ele>83.28571428571428</ele><time>2026-04-12T07:19:01.989Z</time></trkpt><trkpt lat="43.58206199660159" lon="3.7379946669258732"><ele>83.0</ele><time>2026-04-12T07:19:06.989Z</time></trkpt><trkpt lat="43.58211403376583" lon="3.737896575159805"><ele>83.0</ele><time>2026-04-12T07:19:09.989Z</time></trkpt><trkpt lat="43.582187906523544" lon="3.7378262410446528"><ele>83.0</ele><time>2026-04-12T07:19:13.989Z</time></trkpt><trkpt lat="43.582226123969775" lon="3.7377470317153607"><ele>83.0</ele><time>2026-04-12T07:19:15.989Z</time></trkpt><trkpt lat="43.582285896227425" lon="3.737670969791021"><ele>83.0</ele><time>2026-04-12T07:19:17.989Z</time></trkpt><trkpt lat="43.582354227854" lon="3.7375841915495793"><ele>83.0</ele><time>2026-04-12T07:19:19.989Z</time></trkpt><trkpt lat="43.58243840080757" lon="3.7375100251256046"><ele>83.0</ele><time>2026-04-12T07:19:21.989Z</time></trkpt><trkpt lat="43.58248024630363" lon="3.7374410304483576"><ele>82.28571428571428</ele><time>2026-04-12T07:19:23.989Z</time></trkpt><trkpt lat="43.582466138597184" lon="3.7373510963359844"><ele>81.57142857142858</ele><time>2026-04-12T07:19:26.991Z</time></trkpt><trkpt lat="43.58244518412384" lon="3.7372576419956425"><ele>80.85714285714286</ele><time>2026-04-12T07:19:30.99Z</time></trkpt><trkpt lat="43.58242011120652" lon="3.737138079426757"><ele>80.14285714285714</ele><time>2026-04-12T07:19:33.99Z</time></trkpt><trkpt lat="43.582407564897714" lon="3.7370371850839237"><ele>79.42857142857142</ele><time>2026-04-12T07:19:37.991Z</time></trkpt><trkpt lat="43.58233769706506" lon="3.737026941893906"><ele>78.71428571428572</ele><time>2026-04-12T07:19:41.991Z</time></trkpt><trkpt lat="43.58226940982464" lon="3.737072865385886"><ele>78.0</ele><time>2026-04-12T07:19:44.991Z</time></trkpt><trkpt lat="43.58219999417199" lon="3.7371061393018827"><ele>78.0</ele><time>2026-04-12T07:19:47.991Z</time></trkpt><trkpt lat="43.582129781241846" lon="3.7371489912612663"><ele>78.0</ele><time>2026-04-12T07:19:50.991Z</time></trkpt><trkpt lat="43.58207129296987" lon="3.737198721492516"><ele>78.0</ele><time>2026-04-12T07:19:52.991Z</time></trkpt><trkpt lat="43.58200922181358" lon="3.737230019042952"><ele>78.0</ele><time>2026-04-12T07:19:54.991Z</time></trkpt><trkpt lat="43.58193349033631" lon="3.737272661964498"><ele>78.0</ele><time>2026-04-12T07:19:57.991Z</time></trkpt><trkpt lat="43.58186418316922" lon="3.737324715195332"><ele>78.0</ele><time>2026-04-12T07:20:00.991Z</time></trkpt><trkpt lat="43.58179357809304" lon="3.7373066428269106"><ele>78.0</ele><time>2026-04-12T07:20:02.99Z</time></trkpt><trkpt lat="43.581774416655485" lon="3.7372125640876703"><ele>78.0</ele><time>2026-04-12T07:20:04.99Z</time></trkpt><trkpt lat="43.58172621705648" lon="3.737118918008262"><ele>78.0</ele><time>2026-04-12T07:20:07.99Z</time></trkpt><trkpt lat="43.58171025839706" lon="3.73703110124585"><ele>78.0</ele><time>2026-04-12T07:20:10.99Z</time></trkpt><trkpt lat="43.58167085242217" lon="3.7369424640811326"><ele>78.0</ele><time>2026-04-12T07:20:36.99Z</time></trkpt><trkpt lat="43.58172149637482" lon="3.7368537770012993"><ele>78.0</ele><time>2026-04-12T07:20:40.99Z</time></trkpt><trkpt lat="43.58176726305092" lon="3.7367723918627993"><ele>78.0</ele><time>2026-04-12T07:20:44.99Z</time></trkpt><trkpt lat="43.58182759796715" lon="3.73672989530277"><ele>78.0</ele><time>2026-04-12T07:20:47.99Z</time></trkpt><trkpt lat="43.58188065725997" lon="3.7366748148535844"><ele>78.0</ele><time>2026-04-12T07:20:50.99Z</time></trkpt><trkpt lat="43.581960093006195" lon="3.736636410152771"><ele>78.0</ele><time>2026-04-12T07:20:53.99Z</time></trkpt><trkpt lat="43.58203950102886" lon="3.7366053934651053"><ele>78.0</ele><time>2026-04-12T07:20:56.99Z</time></trkpt><trkpt lat="43.58211247342145" lon="3.7365580176441497"><ele>78.0</ele><time>2026-04-12T07:20:59.99Z</time></trkpt><trkpt lat="43.58218990389686" lon="3.736492510167263"><ele>78.0</ele><time>2026-04-12T07:21:02.99Z</time></trkpt><trkpt lat="43.58225580517835" lon="3.736413245213572"><ele>78.0</ele><time>2026-04-12T07:21:05.99Z</time></trkpt><trkpt lat="43.58227210552877" lon="3.7363195501026087"><ele>78.0</ele><time>2026-04-12T07:21:09.99Z</time></trkpt><trkpt lat="43.58219792588742" lon="3.7363323815297993"><ele>78.0</ele><time>2026-04-12T07:21:13.99Z</time></trkpt><trkpt lat="43.582113743087874" lon="3.73633195219345"><ele>78.0</ele><time>2026-04-12T07:21:18.989Z</time></trkpt><trkpt lat="43.58207176493043" lon="3.7364067540094146"><ele>78.0</ele><time>2026-04-12T07:21:21.989Z</time></trkpt><trkpt lat="43.58203469109213" lon="3.736480128268029"><ele>78.0</ele><time>2026-04-12T07:21:23.989Z</time></trkpt><trkpt lat="43.581947112343045" lon="3.736478320944962"><ele>78.0</ele><time>2026-04-12T07:21:26.989Z</time></trkpt><trkpt lat="43.581879687245184" lon="3.7364692887198645"><ele>78.0</ele><time>2026-04-12T07:21:29.989Z</time></trkpt><trkpt lat="43.58184802249805" lon="3.736388782926329"><ele>78.0</ele><time>2026-04-12T07:21:33.99Z</time></trkpt><trkpt lat="43.5818909082403" lon="3.7362993126895976"><ele>78.0</ele><time>2026-04-12T07:21:37.99Z</time></trkpt><trkpt lat="43.5819632263179" lon="3.7362739464013823"><ele>78.0</ele><time>2026-04-12T07:21:40.99Z</time></trkpt><trkpt lat="43.581985669017286" lon="3.736185519169176"><ele>78.0</ele><time>2026-04-12T07:21:43.99Z</time></trkpt><trkpt lat="43.582036901656494" lon="3.7361228656845844"><ele>78.0</ele><time>2026-04-12T07:21:46.99Z</time></trkpt><trkpt lat="43.582074807675205" lon="3.736052862417904"><ele>78.0</ele><time>2026-04-12T07:21:49.99Z</time></trkpt><trkpt lat="43.58206932000845" lon="3.7359517414400503"><ele>78.0</ele><time>2026-04-12T07:21:52.99Z</time></trkpt><trkpt lat="43.58205663510415" lon="3.735850005297204"><ele>78.16666666666667</ele><time>2026-04-12T07:21:55.989Z</time></trkpt><trkpt lat="43.58205200115736" lon="3.7357345979250574"><ele>78.33333333333333</ele><time>2026-04-12T07:22:00.989Z</time></trkpt><trkpt lat="43.58202227576834" lon="3.7356319710128734"><ele>78.5</ele><time>2026-04-12T07:22:04.989Z</time></trkpt><trkpt lat="43.582028312170905" lon="3.735521359362207"><ele>78.66666666666666</ele><time>2026-04-12T07:22:09.989Z</time></trkpt><trkpt lat="43.58200840319967" lon="3.7354200650709033"><ele>78.83333333333333</ele><time>2026-04-12T07:22:13.989Z</time></trkpt><trkpt lat="43.58193527205836" lon="3.735384248140959"><ele>79.0</ele><time>2026-04-12T07:22:17.989Z</time></trkpt><trkpt lat="43.58185499230373" lon="3.735404279305037"><ele>80.42857142857143</ele><time>2026-04-12T07:22:21.989Z</time></trkpt><trkpt lat="43.58177966881926" lon="3.735411643572254"><ele>81.85714285714286</ele><time>2026-04-12T07:22:25.989Z</time></trkpt><trkpt lat="43.581723581312424" lon="3.7353534358489666"><ele>83.28571428571428</ele><time>2026-04-12T07:22:29.989Z</time></trkpt><trkpt lat="43.58166796218237" lon="3.7352914678660287"><ele>84.71428571428572</ele><time>2026-04-12T07:22:33.989Z</time></trkpt><trkpt lat="43.58160034999891" lon="3.7352504666708097"><ele>86.14285714285714</ele><time>2026-04-12T07:22:37.989Z</time></trkpt><trkpt lat="43.58152621490524" lon="3.735260056110071"><ele>87.57142857142857</ele><time>2026-04-12T07:22:41.989Z</time></trkpt><trkpt lat="43.581464014477575" lon="3.735226562095025"><ele>89.0</ele><time>2026-04-12T07:22:44.989Z</time></trkpt><trkpt lat="43.58139222140463" lon="3.7351903992307802"><ele>89.0</ele><time>2026-04-12T07:22:47.989Z</time></trkpt><trkpt lat="43.58134093353134" lon="3.735113232774719"><ele>89.0</ele><time>2026-04-12T07:22:50.989Z</time></trkpt><trkpt lat="43.58127826405528" lon="3.735063871989813"><ele>89.0</ele><time>2026-04-12T07:22:53.989Z</time></trkpt><trkpt lat="43.58120426249856" lon="3.7350320902642142"><ele>89.0</ele><time>2026-04-12T07:22:56.989Z</time></trkpt><trkpt lat="43.58115226260574" lon="3.7349543502513707"><ele>89.0</ele><time>2026-04-12T07:22:59.989Z</time></trkpt><trkpt lat="43.58107303601301" lon="3.7350202669188275"><ele>89.0</ele><time>2026-04-12T07:23:02.989Z</time></trkpt><trkpt lat="43.58101125982072" lon="3.734989779948637"><ele>89.83333333333334</ele><time>2026-04-12T07:23:04.989Z</time></trkpt><trkpt lat="43.58094129010655" lon="3.7350440785513777"><ele>90.66666666666667</ele><time>2026-04-12T07:23:07.989Z</time></trkpt><trkpt lat="43.580908265581314" lon="3.7349419125124332"><ele>91.5</ele><time>2026-04-12T07:23:10.988Z</time></trkpt><trkpt lat="43.58084914315778" lon="3.7348622590015172"><ele>92.33333333333333</ele><time>2026-04-12T07:23:13.988Z</time></trkpt><trkpt lat="43.580798588203855" lon="3.734798412295368"><ele>93.16666666666666</ele><time>2026-04-12T07:23:16.988Z</time></trkpt><trkpt lat="43.58072448372513" lon="3.7348097518163845"><ele>94.0</ele><time>2026-04-12T07:23:19.988Z</time></trkpt><trkpt lat="43.58068871060528" lon="3.7347169829730085"><ele>94.0</ele><time>2026-04-12T07:23:22.988Z</time></trkpt><trkpt lat="43.58061382167647" lon="3.734681552124405"><ele>94.0</ele><time>2026-04-12T07:23:26.988Z</time></trkpt><trkpt lat="43.58053915557757" lon="3.7346900579214615"><ele>94.0</ele><time>2026-04-12T07:23:30.988Z</time></trkpt><trkpt lat="43.58055729844242" lon="3.7345975812484875"><ele>94.0</ele><time>2026-04-12T07:23:33.988Z</time></trkpt><trkpt lat="43.58053282577375" lon="3.7344909243051974"><ele>94.0</ele><time>2026-04-12T07:23:36.988Z</time></trkpt><trkpt lat="43.580438033647496" lon="3.734465822271485"><ele>94.0</ele><time>2026-04-12T07:23:39.99Z</time></trkpt><trkpt lat="43.58038380199836" lon="3.7343779416805787"><ele>94.66666666666666</ele><time>2026-04-12T07:23:42.99Z</time></trkpt><trkpt lat="43.580331275953334" lon="3.734319622165204"><ele>95.33333333333333</ele><time>2026-04-12T07:23:44.99Z</time></trkpt><trkpt lat="43.5802558766443" lon="3.7342502772597608"><ele>96.0</ele><time>2026-04-12T07:23:47.99Z</time></trkpt><trkpt lat="43.58019266032524" lon="3.7341794872173857"><ele>96.66666666666666</ele><time>2026-04-12T07:23:50.99Z</time></trkpt><trkpt lat="43.58011613915931" lon="3.7341226240054533"><ele>97.33333333333333</ele><time>2026-04-12T07:23:53.99Z</time></trkpt><trkpt lat="43.58004840361806" lon="3.7340477300461603"><ele>98.0</ele><time>2026-04-12T07:23:56.99Z</time></trkpt><trkpt lat="43.579984427120216" lon="3.7339784592649665"><ele>97.99999999999999</ele><time>2026-04-12T07:23:59.99Z</time></trkpt><trkpt lat="43.57991796677349" lon="3.733924947847896"><ele>98.0</ele><time>2026-04-12T07:24:02.99Z</time></trkpt><trkpt lat="43.57983877897896" lon="3.733868055053472"><ele>98.0</ele><time>2026-04-12T07:24:05.99Z</time></trkpt><trkpt lat="43.579773576070615" lon="3.7338059092949125"><ele>98.0</ele><time>2026-04-12T07:24:08.99Z</time></trkpt><trkpt lat="43.579713999895866" lon="3.7337354467517194"><ele>97.99999999999999</ele><time>2026-04-12T07:24:11.99Z</time></trkpt><trkpt lat="43.579641812138625" lon="3.733671954830013"><ele>98.0</ele><time>2026-04-12T07:24:14.99Z</time></trkpt><trkpt lat="43.579578422399194" lon="3.7336700765814204"><ele>97.99999999999999</ele><time>2026-04-12T07:24:16.99Z</time></trkpt><trkpt lat="43.579520811476115" lon="3.7336064726205547"><ele>98.0</ele><time>2026-04-12T07:24:19.99Z</time></trkpt><trkpt lat="43.57946597029261" lon="3.7335117325380116"><ele>98.0</ele><time>2026-04-12T07:24:22.99Z</time></trkpt><trkpt lat="43.57939815021862" lon="3.733509244615224"><ele>98.0</ele><time>2026-04-12T07:24:25.989Z</time></trkpt><trkpt lat="43.57932637605373" lon="3.733450904175817"><ele>97.99999999999999</ele><time>2026-04-12T07:24:28.989Z</time></trkpt><trkpt lat="43.57926559640891" lon="3.733379984349746"><ele>98.0</ele><time>2026-04-12T07:24:31.989Z</time></trkpt><trkpt lat="43.579193276571544" lon="3.733334473742759"><ele>98.83333333333333</ele><time>2026-04-12T07:24:34.989Z</time></trkpt><trkpt lat="43.579123848871745" lon="3.7333210828678585"><ele>99.66666666666666</ele><time>2026-04-12T07:24:37.989Z</time></trkpt><trkpt lat="43.57903886613653" lon="3.733329296382167"><ele>100.5</ele><time>2026-04-12T07:24:40.989Z</time></trkpt><trkpt lat="43.578958438605085" lon="3.7333193698288647"><ele>101.33333333333334</ele><time>2026-04-12T07:24:43.989Z</time></trkpt><trkpt lat="43.57888277900406" lon="3.733344523399886"><ele>102.16666666666667</ele><time>2026-04-12T07:24:46.989Z</time></trkpt><trkpt lat="43.578822849285004" lon="3.733408921091937"><ele>103.0</ele><time>2026-04-12T07:24:49.989Z</time></trkpt><trkpt lat="43.57877918409892" lon="3.7333233078100343"><ele>102.99999999999999</ele><time>2026-04-12T07:24:53.989Z</time></trkpt><trkpt lat="43.57876517013289" lon="3.733236731829121"><ele>103.0</ele><time>2026-04-12T07:24:56.989Z</time></trkpt><trkpt lat="43.578730296709" lon="3.733148608990667"><ele>103.0</ele><time>2026-04-12T07:24:59.989Z</time></trkpt><trkpt lat="43.578709165034766" lon="3.7330365932129714"><ele>103.0</ele><time>2026-04-12T07:25:02.989Z</time></trkpt><trkpt lat="43.5786683798875" lon="3.7329326774966147"><ele>103.0</ele><time>2026-04-12T07:25:05.989Z</time></trkpt><trkpt lat="43.5786304738656" lon="3.732859086011835"><ele>102.99999999999999</ele><time>2026-04-12T07:25:07.989Z</time></trkpt><trkpt lat="43.57859559283412" lon="3.7327831198014088"><ele>103.0</ele><time>2026-04-12T07:25:09.989Z</time></trkpt><trkpt lat="43.5785397358234" lon="3.7326695881076217"><ele>102.99999999999999</ele><time>2026-04-12T07:25:12.989Z</time></trkpt><trkpt lat="43.578489848630426" lon="3.7326003218179817"><ele>103.0</ele><time>2026-04-12T07:25:14.989Z</time></trkpt><trkpt lat="43.578435022601006" lon="3.7325309902623367"><ele>103.0</ele><time>2026-04-12T07:25:16.989Z</time></trkpt><trkpt lat="43.578380601389185" lon="3.7324567196967373"><ele>103.0</ele><time>2026-04-12T07:25:18.989Z</time></trkpt><trkpt lat="43.57834424805377" lon="3.7323731209254647"><ele>103.0</ele><time>2026-04-12T07:25:20.989Z</time></trkpt><trkpt lat="43.578290033774856" lon="3.732300274119517"><ele>102.99999999999999</ele><time>2026-04-12T07:25:22.989Z</time></trkpt><trkpt lat="43.578235423670776" lon="3.73225652826862"><ele>103.0</ele><time>2026-04-12T07:25:24.989Z</time></trkpt><trkpt lat="43.57819676421281" lon="3.732184068679719"><ele>103.00000000000001</ele><time>2026-04-12T07:25:26.989Z</time></trkpt><trkpt lat="43.57819941939666" lon="3.732088565236659"><ele>103.0</ele><time>2026-04-12T07:25:28.989Z</time></trkpt><trkpt lat="43.578173686099404" lon="3.7319799159677753"><ele>103.0</ele><time>2026-04-12T07:25:30.989Z</time></trkpt><trkpt lat="43.57816048095397" lon="3.731858637186544"><ele>103.0</ele><time>2026-04-12T07:25:32.989Z</time></trkpt><trkpt lat="43.57814005229273" lon="3.7317363640014447"><ele>103.00000000000001</ele><time>2026-04-12T07:25:34.988Z</time></trkpt><trkpt lat="43.578097655806026" lon="3.7316399745670408"><ele>103.0</ele><time>2026-04-12T07:25:36.988Z</time></trkpt><trkpt lat="43.57813931338572" lon="3.7315603353122433"><ele>102.83333333333334</ele><time>2026-04-12T07:25:39.988Z</time></trkpt><trkpt lat="43.57822918117129" lon="3.731502727717006"><ele>102.66666666666667</ele><time>2026-04-12T07:25:42.988Z</time></trkpt><trkpt lat="43.57829384370068" lon="3.7314417085375964"><ele>102.5</ele><time>2026-04-12T07:25:44.989Z</time></trkpt><trkpt lat="43.57834122911095" lon="3.7313621254135736"><ele>102.33333333333334</ele><time>2026-04-12T07:25:46.99Z</time></trkpt><trkpt lat="43.57842407911574" lon="3.731321793273959"><ele>102.16666666666667</ele><time>2026-04-12T07:25:48.99Z</time></trkpt><trkpt lat="43.578471929950055" lon="3.731226034279052"><ele>102.0</ele><time>2026-04-12T07:25:50.989Z</time></trkpt><trkpt lat="43.57853227202218" lon="3.7311373018440515"><ele>101.83333333333333</ele><time>2026-04-12T07:25:52.989Z</time></trkpt><trkpt lat="43.578574965935935" lon="3.7310366740700642"><ele>101.66666666666666</ele><time>2026-04-12T07:25:54.989Z</time></trkpt><trkpt lat="43.57862487434283" lon="3.730933858250722"><ele>101.5</ele><time>2026-04-12T07:25:56.99Z</time></trkpt><trkpt lat="43.57866955516511" lon="3.730849872086928"><ele>101.33333333333333</ele><time>2026-04-12T07:25:58.99Z</time></trkpt><trkpt lat="43.57870802016694" lon="3.7307647596525726"><ele>101.16666666666666</ele><time>2026-04-12T07:26:00.99Z</time></trkpt><trkpt lat="43.57875362231664" lon="3.730673804465351"><ele>101.0</ele><time>2026-04-12T07:26:02.99Z</time></trkpt><trkpt lat="43.578788381696164" lon="3.730591851820962"><ele>101.42857142857143</ele><time>2026-04-12T07:26:04.99Z</time></trkpt><trkpt lat="43.57883074385218" lon="3.7305150039052863"><ele>101.85714285714286</ele><time>2026-04-12T07:26:06.99Z</time></trkpt><trkpt lat="43.578878470055216" lon="3.7304402735175315"><ele>102.28571428571428</ele><time>2026-04-12T07:26:08.99Z</time></trkpt><trkpt lat="43.57891612242245" lon="3.730358983028963"><ele>102.71428571428572</ele><time>2026-04-12T07:26:10.99Z</time></trkpt><trkpt lat="43.57897581926856" lon="3.7302621904417856"><ele>103.14285714285715</ele><time>2026-04-12T07:26:13.99Z</time></trkpt><trkpt lat="43.57901046829316" lon="3.7301873933572534"><ele>103.57142857142857</ele><time>2026-04-12T07:26:15.99Z</time></trkpt><trkpt lat="43.579062190072236" lon="3.730105862683526"><ele>104.0</ele><time>2026-04-12T07:26:18.989Z</time></trkpt><trkpt lat="43.57912990700791" lon="3.730016120987177"><ele>104.33333333333333</ele><time>2026-04-12T07:26:21.989Z</time></trkpt><trkpt lat="43.57919587186121" lon="3.7299452899056713"><ele>104.66666666666666</ele><time>2026-04-12T07:26:24.989Z</time></trkpt><trkpt lat="43.57922693382036" lon="3.729867113722703"><ele>105.0</ele><time>2026-04-12T07:26:26.989Z</time></trkpt><trkpt lat="43.57929037429571" lon="3.729789504111656"><ele>105.33333333333334</ele><time>2026-04-12T07:26:28.989Z</time></trkpt><trkpt lat="43.57934470104129" lon="3.729704830815786"><ele>105.66666666666667</ele><time>2026-04-12T07:26:30.989Z</time></trkpt><trkpt lat="43.579390164238205" lon="3.7295951216950316"><ele>106.0</ele><time>2026-04-12T07:26:32.989Z</time></trkpt><trkpt lat="43.57943793903696" lon="3.729537186617326"><ele>106.00000000000001</ele><time>2026-04-12T07:26:34.989Z</time></trkpt><trkpt lat="43.579499036435124" lon="3.729468163054448"><ele>106.0</ele><time>2026-04-12T07:26:36.989Z</time></trkpt><trkpt lat="43.579559407337825" lon="3.7294072669319114"><ele>106.0</ele><time>2026-04-12T07:26:38.989Z</time></trkpt><trkpt lat="43.57962196668844" lon="3.7293008281140723"><ele>106.0</ele><time>2026-04-12T07:26:41.989Z</time></trkpt><trkpt lat="43.57966576242361" lon="3.7292303704232026"><ele>106.00000000000001</ele><time>2026-04-12T07:26:43.989Z</time></trkpt><trkpt lat="43.57970905647765" lon="3.7291527346089324"><ele>106.0</ele><time>2026-04-12T07:26:45.989Z</time></trkpt><trkpt lat="43.579755208360865" lon="3.7290871273752675"><ele>106.42857142857143</ele><time>2026-04-12T07:26:47.989Z</time></trkpt><trkpt lat="43.579811382139916" lon="3.7290329156331645"><ele>106.85714285714285</ele><time>2026-04-12T07:26:49.989Z</time></trkpt><trkpt lat="43.579877148834065" lon="3.7290281303548847"><ele>107.28571428571428</ele><time>2026-04-12T07:26:53.989Z</time></trkpt><trkpt lat="43.57994494863938" lon="3.7289876273043467"><ele>107.71428571428572</ele><time>2026-04-12T07:26:56.989Z</time></trkpt><trkpt lat="43.580038682893736" lon="3.729018974897539"><ele>108.14285714285714</ele><time>2026-04-12T07:26:59.989Z</time></trkpt><trkpt lat="43.58010605663376" lon="3.729054979728741"><ele>108.57142857142857</ele><time>2026-04-12T07:27:01.989Z</time></trkpt><trkpt lat="43.5801715497922" lon="3.7290834418990273"><ele>109.0</ele><time>2026-04-12T07:27:03.989Z</time></trkpt><trkpt lat="43.58022189812367" lon="3.729155343410062"><ele>109.00000000000001</ele><time>2026-04-12T07:27:05.989Z</time></trkpt><trkpt lat="43.58025234705927" lon="3.7292465069833245"><ele>109.0</ele><time>2026-04-12T07:27:07.989Z</time></trkpt><trkpt lat="43.580307724549414" lon="3.7293238820663324"><ele>109.0</ele><time>2026-04-12T07:27:09.989Z</time></trkpt><trkpt lat="43.580378272695114" lon="3.7293738134645045"><ele>109.0</ele><time>2026-04-12T07:27:11.989Z</time></trkpt><trkpt lat="43.58043540535978" lon="3.7294284500709947"><ele>109.00000000000001</ele><time>2026-04-12T07:27:13.989Z</time></trkpt><trkpt lat="43.58049392153137" lon="3.729503831282518"><ele>109.0</ele><time>2026-04-12T07:27:15.989Z</time></trkpt><trkpt lat="43.58054651448015" lon="3.729577982143533"><ele>108.2</ele><time>2026-04-12T07:27:17.989Z</time></trkpt><trkpt lat="43.58061601265104" lon="3.729537496309775"><ele>107.4</ele><time>2026-04-12T07:27:19.989Z</time></trkpt><trkpt lat="43.58066153743397" lon="3.7296476927415685"><ele>106.6</ele><time>2026-04-12T07:27:22.989Z</time></trkpt><trkpt lat="43.580745018982284" lon="3.7297033634332792"><ele>105.8</ele><time>2026-04-12T07:27:25.989Z</time></trkpt><trkpt lat="43.580832451070705" lon="3.729766571228263"><ele>105.0</ele><time>2026-04-12T07:27:27.989Z</time></trkpt><trkpt lat="43.58091786946449" lon="3.7298167007455447"><ele>105.0</ele><time>2026-04-12T07:27:29.989Z</time></trkpt><trkpt lat="43.581000035669646" lon="3.729874460318992"><ele>105.0</ele><time>2026-04-12T07:27:31.989Z</time></trkpt><trkpt lat="43.58108158388489" lon="3.729906656986669"><ele>105.0</ele><time>2026-04-12T07:27:33.988Z</time></trkpt><trkpt lat="43.581175298699605" lon="3.7299157778555263"><ele>105.0</ele><time>2026-04-12T07:27:35.988Z</time></trkpt><trkpt lat="43.58121998671972" lon="3.730007207193421"><ele>105.0</ele><time>2026-04-12T07:27:37.988Z</time></trkpt><trkpt lat="43.58125866854846" lon="3.7301130927808894"><ele>105.0</ele><time>2026-04-12T07:27:39.988Z</time></trkpt><trkpt lat="43.5812960800499" lon="3.7302076593640954"><ele>103.8</ele><time>2026-04-12T07:27:41.988Z</time></trkpt><trkpt lat="43.581354371300314" lon="3.7303236640551023"><ele>102.6</ele><time>2026-04-12T07:27:43.988Z</time></trkpt><trkpt lat="43.58144790341561" lon="3.730387997437957"><ele>101.4</ele><time>2026-04-12T07:27:45.988Z</time></trkpt><trkpt lat="43.58154644926738" lon="3.730426992470884"><ele>100.2</ele><time>2026-04-12T07:27:47.988Z</time></trkpt><trkpt lat="43.581624287831396" lon="3.7304558787248494"><ele>99.0</ele><time>2026-04-12T07:27:49.99Z</time></trkpt><trkpt lat="43.58168751952122" lon="3.73054773700427"><ele>99.0</ele><time>2026-04-12T07:27:52.99Z</time></trkpt><trkpt lat="43.58171030182674" lon="3.730660406794626"><ele>99.0</ele><time>2026-04-12T07:27:54.989Z</time></trkpt><trkpt lat="43.58177928969327" lon="3.730687029353168"><ele>99.0</ele><time>2026-04-12T07:27:56.99Z</time></trkpt><trkpt lat="43.581814663036745" lon="3.7307606432398135"><ele>99.0</ele><time>2026-04-12T07:27:58.989Z</time></trkpt><trkpt lat="43.58185020146482" lon="3.7308578654527715"><ele>99.0</ele><time>2026-04-12T07:28:00.99Z</time></trkpt><trkpt lat="43.581921263248496" lon="3.7308986072920804"><ele>99.0</ele><time>2026-04-12T07:28:02.99Z</time></trkpt><trkpt lat="43.58198766337541" lon="3.73097082284546"><ele>98.66666666666667</ele><time>2026-04-12T07:28:04.989Z</time></trkpt><trkpt lat="43.58208435779777" lon="3.730993858986984"><ele>98.33333333333334</ele><time>2026-04-12T07:28:06.989Z</time></trkpt><trkpt lat="43.5821627934478" lon="3.7310073855961847"><ele>98.0</ele><time>2026-04-12T07:28:08.989Z</time></trkpt><trkpt lat="43.58223102247339" lon="3.7310035467628824"><ele>97.66666666666667</ele><time>2026-04-12T07:28:10.989Z</time></trkpt><trkpt lat="43.58226419588034" lon="3.730896287333699"><ele>97.33333333333334</ele><time>2026-04-12T07:28:13.989Z</time></trkpt><trkpt lat="43.582344833996814" lon="3.7308114111010204"><ele>97.0</ele><time>2026-04-12T07:28:16.989Z</time></trkpt><trkpt lat="43.58241086564553" lon="3.730858533223421"><ele>97.0</ele><time>2026-04-12T07:28:18.989Z</time></trkpt><trkpt lat="43.582439083602544" lon="3.7307620302580244"><ele>97.0</ele><time>2026-04-12T07:28:21.989Z</time></trkpt><trkpt lat="43.582477875318304" lon="3.730686378796435"><ele>97.0</ele><time>2026-04-12T07:28:23.989Z</time></trkpt><trkpt lat="43.58248581717894" lon="3.730583000283784"><ele>97.0</ele><time>2026-04-12T07:28:25.989Z</time></trkpt><trkpt lat="43.58255301029041" lon="3.730517840303062"><ele>97.0</ele><time>2026-04-12T07:28:28.989Z</time></trkpt><trkpt lat="43.582591972652914" lon="3.7304440092928317"><ele>97.0</ele><time>2026-04-12T07:28:30.989Z</time></trkpt><trkpt lat="43.582634049449716" lon="3.730374293938878"><ele>97.0</ele><time>2026-04-12T07:28:32.989Z</time></trkpt><trkpt lat="43.58269467999938" lon="3.7302777394092645"><ele>97.00000000000001</ele><time>2026-04-12T07:28:35.989Z</time></trkpt><trkpt lat="43.58275975067375" lon="3.730198285953425"><ele>97.0</ele><time>2026-04-12T07:28:37.989Z</time></trkpt><trkpt lat="43.58282975580305" lon="3.7302027608061423"><ele>97.0</ele><time>2026-04-12T07:28:39.989Z</time></trkpt><trkpt lat="43.582877119179045" lon="3.730122298718232"><ele>97.0</ele><time>2026-04-12T07:28:41.989Z</time></trkpt><trkpt lat="43.58289390786219" lon="3.7300379715688803"><ele>97.00000000000001</ele><time>2026-04-12T07:28:44.989Z</time></trkpt><trkpt lat="43.58288976279967" lon="3.729930361587699"><ele>97.0</ele><time>2026-04-12T07:28:47.989Z</time></trkpt><trkpt lat="43.5829048087611" lon="3.7298212590271786"><ele>97.0</ele><time>2026-04-12T07:28:50.989Z</time></trkpt><trkpt lat="43.582945975674434" lon="3.729746781673367"><ele>97.0</ele><time>2026-04-12T07:28:53.989Z</time></trkpt><trkpt lat="43.58301724429969" lon="3.729707284096615"><ele>97.0</ele><time>2026-04-12T07:28:57.989Z</time></trkpt><trkpt lat="43.58308927393305" lon="3.729675203500608"><ele>97.0</ele><time>2026-04-12T07:29:00.989Z</time></trkpt><trkpt lat="43.58313797427604" lon="3.729601982061531"><ele>97.0</ele><time>2026-04-12T07:29:03.989Z</time></trkpt><trkpt lat="43.58316342565447" lon="3.7295011772341984"><ele>97.0</ele><time>2026-04-12T07:29:06.989Z</time></trkpt><trkpt lat="43.58320930953181" lon="3.729424791147855"><ele>97.0</ele><time>2026-04-12T07:29:09.989Z</time></trkpt><trkpt lat="43.583253619246975" lon="3.7293532544687724"><ele>97.83333333333334</ele><time>2026-04-12T07:29:12.989Z</time></trkpt><trkpt lat="43.58330338037311" lon="3.729294572744783"><ele>98.66666666666667</ele><time>2026-04-12T07:29:15.989Z</time></trkpt><trkpt lat="43.583336511801626" lon="3.7292101043234456"><ele>99.5</ele><time>2026-04-12T07:29:19.988Z</time></trkpt><trkpt lat="43.583410300022756" lon="3.729119450273443"><ele>100.33333333333334</ele><time>2026-04-12T07:29:22.988Z</time></trkpt><trkpt lat="43.583486149129605" lon="3.7290384895170776"><ele>101.16666666666667</ele><time>2026-04-12T07:29:26.988Z</time></trkpt><trkpt lat="43.58356848613415" lon="3.72898792527461"><ele>102.0</ele><time>2026-04-12T07:29:29.988Z</time></trkpt><trkpt lat="43.583624733432536" lon="3.7289040767572375"><ele>102.0</ele><time>2026-04-12T07:29:32.988Z</time></trkpt><trkpt lat="43.583654100268085" lon="3.728807185854511"><ele>102.0</ele><time>2026-04-12T07:29:35.988Z</time></trkpt><trkpt lat="43.58371928873252" lon="3.728721667952544"><ele>102.0</ele><time>2026-04-12T07:29:38.988Z</time></trkpt><trkpt lat="43.58378800555928" lon="3.728668697869998"><ele>102.0</ele><time>2026-04-12T07:29:40.988Z</time></trkpt><trkpt lat="43.58381327213833" lon="3.7285768653979336"><ele>102.0</ele><time>2026-04-12T07:29:42.988Z</time></trkpt><trkpt lat="43.58386938959998" lon="3.728485084767192"><ele>102.0</ele><time>2026-04-12T07:29:45.988Z</time></trkpt><trkpt lat="43.58391411525519" lon="3.72842015164343"><ele>101.66666666666667</ele><time>2026-04-12T07:29:47.988Z</time></trkpt><trkpt lat="43.583941752942536" lon="3.728289643966359"><ele>101.33333333333334</ele><time>2026-04-12T07:29:50.988Z</time></trkpt><trkpt lat="43.58397830162111" lon="3.728215100156002"><ele>101.0</ele><time>2026-04-12T07:29:52.988Z</time></trkpt><trkpt lat="43.583940966058705" lon="3.7280922034233757"><ele>100.66666666666667</ele><time>2026-04-12T07:29:55.989Z</time></trkpt><trkpt lat="43.583898595506355" lon="3.7280042438622045"><ele>100.33333333333334</ele><time>2026-04-12T07:29:58.99Z</time></trkpt><trkpt lat="43.58390975719808" lon="3.7278918398778162"><ele>100.0</ele><time>2026-04-12T07:30:01.989Z</time></trkpt><trkpt lat="43.583958753614894" lon="3.7278096348971332"><ele>101.50000000000001</ele><time>2026-04-12T07:30:04.989Z</time></trkpt><trkpt lat="43.58401513229379" lon="3.7277111086915453"><ele>103.0</ele><time>2026-04-12T07:30:08.989Z</time></trkpt><trkpt lat="43.58407569011664" lon="3.7276371118854965"><ele>104.5</ele><time>2026-04-12T07:30:11.989Z</time></trkpt><trkpt lat="43.58412426525796" lon="3.7275413705136895"><ele>106.0</ele><time>2026-04-12T07:30:14.989Z</time></trkpt><trkpt lat="43.584181371085215" lon="3.727455140540891"><ele>107.50000000000001</ele><time>2026-04-12T07:30:17.989Z</time></trkpt><trkpt lat="43.58424649587066" lon="3.727410201737667"><ele>109.0</ele><time>2026-04-12T07:30:19.989Z</time></trkpt><trkpt lat="43.58428546633741" lon="3.727317992883312"><ele>109.00000000000001</ele><time>2026-04-12T07:30:22.989Z</time></trkpt><trkpt lat="43.584348747270006" lon="3.7272255186197643"><ele>109.0</ele><time>2026-04-12T07:30:25.989Z</time></trkpt><trkpt lat="43.58438977917587" lon="3.7271162365008688"><ele>109.0</ele><time>2026-04-12T07:30:28.989Z</time></trkpt><trkpt lat="43.58441676153551" lon="3.727036654151176"><ele>109.0</ele><time>2026-04-12T07:30:30.989Z</time></trkpt><trkpt lat="43.584469734166944" lon="3.7269367628825707"><ele>109.00000000000001</ele><time>2026-04-12T07:30:33.989Z</time></trkpt><trkpt lat="43.5845259781263" lon="3.7268944455298048"><ele>109.0</ele><time>2026-04-12T07:30:35.989Z</time></trkpt><trkpt lat="43.58458839332165" lon="3.7268199886784386"><ele>109.28571428571429</ele><time>2026-04-12T07:30:38.989Z</time></trkpt><trkpt lat="43.584654268341666" lon="3.726752565183766"><ele>109.57142857142858</ele><time>2026-04-12T07:30:41.989Z</time></trkpt><trkpt lat="43.58467363412726" lon="3.7266645111446635"><ele>109.85714285714286</ele><time>2026-04-12T07:30:44.989Z</time></trkpt><trkpt lat="43.5847140620053" lon="3.72659389126043"><ele>110.14285714285714</ele><time>2026-04-12T07:30:47.989Z</time></trkpt><trkpt lat="43.58474528536381" lon="3.7265157443938257"><ele>110.42857142857143</ele><time>2026-04-12T07:30:50.989Z</time></trkpt><trkpt lat="43.584774928858" lon="3.7264270147679768"><ele>110.71428571428571</ele><time>2026-04-12T07:30:55.989Z</time></trkpt><trkpt lat="43.58481774948199" lon="3.7263304679373808"><ele>111.0</ele><time>2026-04-12T07:30:59.989Z</time></trkpt><trkpt lat="43.584886360065035" lon="3.726286003204367"><ele>111.0</ele><time>2026-04-12T07:31:02.989Z</time></trkpt><trkpt lat="43.584966835232095" lon="3.7262429351087576"><ele>111.0</ele><time>2026-04-12T07:31:06.989Z</time></trkpt><trkpt lat="43.58498101302623" lon="3.7261316346495126"><ele>111.0</ele><time>2026-04-12T07:31:10.989Z</time></trkpt><trkpt lat="43.58492221602008" lon="3.7260489672514243"><ele>111.0</ele><time>2026-04-12T07:31:14.988Z</time></trkpt><trkpt lat="43.584889464029665" lon="3.7259700787492624"><ele>111.0</ele><time>2026-04-12T07:31:17.988Z</time></trkpt><trkpt lat="43.584930317699936" lon="3.725892881180052"><ele>111.0</ele><time>2026-04-12T07:31:21.988Z</time></trkpt><trkpt lat="43.584889669176" lon="3.725820925287888"><ele>111.83333333333333</ele><time>2026-04-12T07:31:24.988Z</time></trkpt><trkpt lat="43.58481878288942" lon="3.7257750174454407"><ele>112.66666666666666</ele><time>2026-04-12T07:31:29.988Z</time></trkpt><trkpt lat="43.58474644975828" lon="3.7257726376471263"><ele>113.5</ele><time>2026-04-12T07:31:32.988Z</time></trkpt><trkpt lat="43.5846763247817" lon="3.7257301292560245"><ele>114.33333333333333</ele><time>2026-04-12T07:31:36.988Z</time></trkpt><trkpt lat="43.58459572342436" lon="3.725747108011656"><ele>115.16666666666666</ele><time>2026-04-12T07:31:40.988Z</time></trkpt><trkpt lat="43.58453357250351" lon="3.7257864255739777"><ele>116.0</ele><time>2026-04-12T07:31:43.988Z</time></trkpt><trkpt lat="43.584458970118504" lon="3.725758072771224"><ele>116.57142857142858</ele><time>2026-04-12T07:31:47.988Z</time></trkpt><trkpt lat="43.584404898092004" lon="3.7257132714295316"><ele>117.14285714285714</ele><time>2026-04-12T07:31:49.988Z</time></trkpt><trkpt lat="43.584364813544546" lon="3.7256236166664505"><ele>117.71428571428572</ele><time>2026-04-12T07:31:52.988Z</time></trkpt><trkpt lat="43.58437752163399" lon="3.725527949734066"><ele>118.28571428571429</ele><time>2026-04-12T07:31:55.988Z</time></trkpt><trkpt lat="43.58434928025192" lon="3.725427070646798"><ele>118.85714285714286</ele><time>2026-04-12T07:31:58.988Z</time></trkpt><trkpt lat="43.584317543269535" lon="3.725320982595262"><ele>119.42857142857143</ele><time>2026-04-12T07:32:01.989Z</time></trkpt><trkpt lat="43.584254540977476" lon="3.7252965327288634"><ele>120.0</ele><time>2026-04-12T07:32:04.989Z</time></trkpt><trkpt lat="43.58419630139021" lon="3.725258760865458"><ele>119.83333333333333</ele><time>2026-04-12T07:32:07.99Z</time></trkpt><trkpt lat="43.58414757703529" lon="3.725183692674251"><ele>119.66666666666666</ele><time>2026-04-12T07:32:09.989Z</time></trkpt><trkpt lat="43.5841489636923" lon="3.7250848069497637"><ele>119.5</ele><time>2026-04-12T07:32:12.99Z</time></trkpt><trkpt lat="43.58419883775341" lon="3.7250269949905825"><ele>119.33333333333333</ele><time>2026-04-12T07:32:14.989Z</time></trkpt><trkpt lat="43.58428054559427" lon="3.7249763669568083"><ele>119.16666666666666</ele><time>2026-04-12T07:32:17.989Z</time></trkpt><trkpt lat="43.58433209442933" lon="3.724918542633434"><ele>119.0</ele><time>2026-04-12T07:32:19.989Z</time></trkpt><trkpt lat="43.58438905656296" lon="3.7248257717832676"><ele>118.99999999999999</ele><time>2026-04-12T07:32:22.989Z</time></trkpt><trkpt lat="43.58445566662869" lon="3.7247394923125436"><ele>119.0</ele><time>2026-04-12T07:32:25.989Z</time></trkpt><trkpt lat="43.58449314693544" lon="3.7246686622851"><ele>119.0</ele><time>2026-04-12T07:32:27.989Z</time></trkpt><trkpt lat="43.584542416540614" lon="3.724599958803298"><ele>119.0</ele><time>2026-04-12T07:32:29.989Z</time></trkpt><trkpt lat="43.584593283646235" lon="3.7245334609341874"><ele>118.99999999999999</ele><time>2026-04-12T07:32:31.989Z</time></trkpt><trkpt lat="43.584662338409814" lon="3.724461543155543"><ele>119.0</ele><time>2026-04-12T07:32:34.989Z</time></trkpt><trkpt lat="43.58471210077954" lon="3.7243913683898264"><ele>119.28571428571428</ele><time>2026-04-12T07:32:36.989Z</time></trkpt><trkpt lat="43.58476358689441" lon="3.7243279353045655"><ele>119.57142857142857</ele><time>2026-04-12T07:32:38.989Z</time></trkpt><trkpt lat="43.58481788773084" lon="3.7242654927522563"><ele>119.85714285714286</ele><time>2026-04-12T07:32:40.989Z</time></trkpt><trkpt lat="43.58488243331474" lon="3.7242218866731536"><ele>120.14285714285714</ele><time>2026-04-12T07:32:42.989Z</time></trkpt><trkpt lat="43.58494885656105" lon="3.724182602754495"><ele>120.42857142857142</ele><time>2026-04-12T07:32:44.989Z</time></trkpt><trkpt lat="43.585014343856436" lon="3.724133682491061"><ele>120.71428571428571</ele><time>2026-04-12T07:32:46.988Z</time></trkpt><trkpt lat="43.585076897052524" lon="3.7241043831679983"><ele>121.0</ele><time>2026-04-12T07:32:48.988Z</time></trkpt><trkpt lat="43.585145830607544" lon="3.7241005054051586"><ele>121.00000000000001</ele><time>2026-04-12T07:32:50.988Z</time></trkpt><trkpt lat="43.58522065631813" lon="3.7241084230886785"><ele>121.0</ele><time>2026-04-12T07:32:52.988Z</time></trkpt><trkpt lat="43.58530514944187" lon="3.724118577358271"><ele>121.0</ele><time>2026-04-12T07:32:54.988Z</time></trkpt><trkpt lat="43.58538502061227" lon="3.7241344337484636"><ele>121.0</ele><time>2026-04-12T07:32:56.988Z</time></trkpt><trkpt lat="43.58547116968731" lon="3.7241665270073896"><ele>121.00000000000001</ele><time>2026-04-12T07:32:58.988Z</time></trkpt><trkpt lat="43.58553876124082" lon="3.724238447294432"><ele>121.0</ele><time>2026-04-12T07:33:00.988Z</time></trkpt><trkpt lat="43.585604934871725" lon="3.724329012996795"><ele>120.4</ele><time>2026-04-12T07:33:02.988Z</time></trkpt><trkpt lat="43.585690809002415" lon="3.7244015364475787"><ele>119.8</ele><time>2026-04-12T07:33:04.988Z</time></trkpt><trkpt lat="43.585795904964485" lon="3.7243938664243883"><ele>119.20000000000002</ele><time>2026-04-12T07:33:06.988Z</time></trkpt><trkpt lat="43.585884220827985" lon="3.724406272379507"><ele>118.60000000000001</ele><time>2026-04-12T07:33:08.988Z</time></trkpt><trkpt lat="43.585980307552134" lon="3.7244152245059117"><ele>118.0</ele><time>2026-04-12T07:33:10.988Z</time></trkpt><trkpt lat="43.58608416936765" lon="3.724434056156026"><ele>117.80000000000001</ele><time>2026-04-12T07:33:12.988Z</time></trkpt><trkpt lat="43.586182515543555" lon="3.7244177112191066"><ele>117.60000000000001</ele><time>2026-04-12T07:33:14.988Z</time></trkpt><trkpt lat="43.58628945591425" lon="3.7244130803385542"><ele>117.39999999999999</ele><time>2026-04-12T07:33:16.988Z</time></trkpt><trkpt lat="43.58639998281956" lon="3.7244099111190883"><ele>117.19999999999999</ele><time>2026-04-12T07:33:18.988Z</time></trkpt><trkpt lat="43.58649911760403" lon="3.7243581397417103"><ele>117.0</ele><time>2026-04-12T07:33:20.988Z</time></trkpt><trkpt lat="43.58657912481996" lon="3.724304849598449"><ele>117.0</ele><time>2026-04-12T07:33:22.988Z</time></trkpt><trkpt lat="43.586667972724804" lon="3.724269583126158"><ele>117.0</ele><time>2026-04-12T07:33:24.988Z</time></trkpt><trkpt lat="43.58675969572579" lon="3.724233496026808"><ele>117.0</ele><time>2026-04-12T07:33:26.988Z</time></trkpt><trkpt lat="43.586795090814746" lon="3.7241316441991468"><ele>117.0</ele><time>2026-04-12T07:33:29.988Z</time></trkpt><trkpt lat="43.58680266610924" lon="3.7240315704236475"><ele>117.0</ele><time>2026-04-12T07:33:32.988Z</time></trkpt><trkpt lat="43.586817241033096" lon="3.723946294638178"><ele>117.0</ele><time>2026-04-12T07:33:34.988Z</time></trkpt><trkpt lat="43.58683359789024" lon="3.7238462184961696"><ele>117.0</ele><time>2026-04-12T07:33:36.988Z</time></trkpt><trkpt lat="43.58686325150517" lon="3.723757522494857"><ele>117.00000000000001</ele><time>2026-04-12T07:33:38.988Z</time></trkpt><trkpt lat="43.58693105832187" lon="3.723704906517046"><ele>117.0</ele><time>2026-04-12T07:33:40.988Z</time></trkpt><trkpt lat="43.58696185900507" lon="3.7236104867940294"><ele>117.0</ele><time>2026-04-12T07:33:42.988Z</time></trkpt><trkpt lat="43.586974512789524" lon="3.7235101499129577"><ele>117.00000000000001</ele><time>2026-04-12T07:33:44.988Z</time></trkpt><trkpt lat="43.58697116927016" lon="3.723411721374295"><ele>117.0</ele><time>2026-04-12T07:33:46.988Z</time></trkpt><trkpt lat="43.58696319526377" lon="3.7233207255087115"><ele>117.0</ele><time>2026-04-12T07:33:48.988Z</time></trkpt><trkpt lat="43.58697482075946" lon="3.7232243127948648"><ele>117.28571428571429</ele><time>2026-04-12T07:33:50.988Z</time></trkpt><trkpt lat="43.58696034393606" lon="3.7231396260264686"><ele>117.57142857142858</ele><time>2026-04-12T07:33:52.988Z</time></trkpt><trkpt lat="43.586900770721904" lon="3.7230714014689714"><ele>117.85714285714286</ele><time>2026-04-12T07:33:54.988Z</time></trkpt><trkpt lat="43.58683036689642" lon="3.723035330091039"><ele>118.14285714285714</ele><time>2026-04-12T07:33:56.988Z</time></trkpt><trkpt lat="43.586799961066255" lon="3.722937384374609"><ele>118.42857142857143</ele><time>2026-04-12T07:33:59.988Z</time></trkpt><trkpt lat="43.58682125785071" lon="3.7228474828747524"><ele>118.71428571428572</ele><time>2026-04-12T07:34:02.987Z</time></trkpt><trkpt lat="43.58682922498082" lon="3.722754854443848"><ele>119.0</ele><time>2026-04-12T07:34:04.987Z</time></trkpt><trkpt lat="43.58684045431855" lon="3.722654690577205"><ele>119.0</ele><time>2026-04-12T07:34:07.989Z</time></trkpt><trkpt lat="43.58680187118559" lon="3.722541400328321"><ele>119.0</ele><time>2026-04-12T07:34:10.989Z</time></trkpt><trkpt lat="43.586772761166614" lon="3.7224175811029085"><ele>119.0</ele><time>2026-04-12T07:34:13.99Z</time></trkpt><trkpt lat="43.5867510977661" lon="3.7223335993771567"><ele>119.0</ele><time>2026-04-12T07:34:15.99Z</time></trkpt><trkpt lat="43.586732807719045" lon="3.722247246288427"><ele>119.0</ele><time>2026-04-12T07:34:17.989Z</time></trkpt><trkpt lat="43.58673284078828" lon="3.7221596711965517"><ele>119.0</ele><time>2026-04-12T07:34:19.99Z</time></trkpt><trkpt lat="43.58676308475843" lon="3.7220759904560925"><ele>119.0</ele><time>2026-04-12T07:34:21.989Z</time></trkpt><trkpt lat="43.586757563261365" lon="3.7219687906440413"><ele>119.16666666666666</ele><time>2026-04-12T07:34:24.989Z</time></trkpt><trkpt lat="43.58672406106855" lon="3.721863066814053"><ele>119.33333333333333</ele><time>2026-04-12T07:34:27.989Z</time></trkpt><trkpt lat="43.58670229534906" lon="3.7217768669921893"><ele>119.5</ele><time>2026-04-12T07:34:29.989Z</time></trkpt><trkpt lat="43.58667759698245" lon="3.721647331113078"><ele>119.66666666666666</ele><time>2026-04-12T07:34:32.989Z</time></trkpt><trkpt lat="43.58668728352478" lon="3.7215536422002256"><ele>119.83333333333333</ele><time>2026-04-12T07:34:34.989Z</time></trkpt><trkpt lat="43.5867477739639" lon="3.7215155481017566"><ele>120.0</ele><time>2026-04-12T07:34:36.989Z</time></trkpt><trkpt lat="43.58683507051885" lon="3.7215274186187655"><ele>120.0</ele><time>2026-04-12T07:34:39.989Z</time></trkpt><trkpt lat="43.586913697232674" lon="3.7215775284375376"><ele>120.0</ele><time>2026-04-12T07:34:42.989Z</time></trkpt><trkpt lat="43.58697080478665" lon="3.7216191014377573"><ele>120.0</ele><time>2026-04-12T07:34:44.989Z</time></trkpt><trkpt lat="43.58704079429711" lon="3.7216464989565123"><ele>120.0</ele><time>2026-04-12T07:34:46.989Z</time></trkpt><trkpt lat="43.587111573808336" lon="3.7216666042527224"><ele>120.0</ele><time>2026-04-12T07:34:48.989Z</time></trkpt><trkpt lat="43.58718983521529" lon="3.7217083130406197"><ele>120.0</ele><time>2026-04-12T07:34:50.989Z</time></trkpt><trkpt lat="43.58727864340665" lon="3.7217216014979315"><ele>120.0</ele><time>2026-04-12T07:34:52.989Z</time></trkpt><trkpt lat="43.58737201514037" lon="3.7217476250453534"><ele>120.0</ele><time>2026-04-12T07:34:54.989Z</time></trkpt><trkpt lat="43.58747711199107" lon="3.721757000598101"><ele>120.0</ele><time>2026-04-12T07:34:56.989Z</time></trkpt><trkpt lat="43.587578124201926" lon="3.7217574219738854"><ele>120.0</ele><time>2026-04-12T07:34:58.989Z</time></trkpt><trkpt lat="43.587671753160386" lon="3.721722999802196"><ele>120.0</ele><time>2026-04-12T07:35:00.989Z</time></trkpt><trkpt lat="43.587761086719105" lon="3.721721108555416"><ele>119.8</ele><time>2026-04-12T07:35:02.989Z</time></trkpt><trkpt lat="43.58785194045113" lon="3.721701775440659"><ele>119.6</ele><time>2026-04-12T07:35:04.989Z</time></trkpt><trkpt lat="43.58794698873137" lon="3.721697984114065"><ele>119.4</ele><time>2026-04-12T07:35:06.989Z</time></trkpt><trkpt lat="43.5880396093923" lon="3.7217076670465303"><ele>119.2</ele><time>2026-04-12T07:35:08.988Z</time></trkpt><trkpt lat="43.58813449273891" lon="3.7217572953083686"><ele>119.0</ele><time>2026-04-12T07:35:10.988Z</time></trkpt><trkpt lat="43.58823361239971" lon="3.7218496508559453"><ele>118.4</ele><time>2026-04-12T07:35:12.988Z</time></trkpt><trkpt lat="43.58831429178528" lon="3.721947207419102"><ele>117.80000000000001</ele><time>2026-04-12T07:35:14.988Z</time></trkpt><trkpt lat="43.58841120470331" lon="3.722036709963406"><ele>117.19999999999999</ele><time>2026-04-12T07:35:16.988Z</time></trkpt><trkpt lat="43.58851258967982" lon="3.722116945983727"><ele>116.6</ele><time>2026-04-12T07:35:18.988Z</time></trkpt><trkpt lat="43.588556145885455" lon="3.7221806009376683"><ele>116.0</ele><time>2026-04-12T07:35:19.988Z</time></trkpt><trkpt lat="43.58866364572577" lon="3.722264185439667"><ele>116.0</ele><time>2026-04-12T07:35:21.988Z</time></trkpt><trkpt lat="43.58876557021951" lon="3.722358609575469"><ele>116.0</ele><time>2026-04-12T07:35:23.988Z</time></trkpt><trkpt lat="43.58885697031835" lon="3.7224767968291728"><ele>116.0</ele><time>2026-04-12T07:35:25.988Z</time></trkpt><trkpt lat="43.588913765392626" lon="3.722519340566711"><ele>116.0</ele><time>2026-04-12T07:35:26.988Z</time></trkpt><trkpt lat="43.589018591692216" lon="3.7225911322065293"><ele>116.0</ele><time>2026-04-12T07:35:28.988Z</time></trkpt><trkpt lat="43.58913172576696" lon="3.7226432189444303"><ele>116.0</ele><time>2026-04-12T07:35:30.988Z</time></trkpt><trkpt lat="43.58923433351605" lon="3.7226610767474217"><ele>116.0</ele><time>2026-04-12T07:35:32.988Z</time></trkpt><trkpt lat="43.589319497776266" lon="3.7226592856244203"><ele>116.0</ele><time>2026-04-12T07:35:34.988Z</time></trkpt><trkpt lat="43.58940000589829" lon="3.722687724941969"><ele>116.0</ele><time>2026-04-12T07:35:37.988Z</time></trkpt><trkpt lat="43.589490619959605" lon="3.722685199196318"><ele>116.0</ele><time>2026-04-12T07:35:39.988Z</time></trkpt><trkpt lat="43.5895918292344" lon="3.7227066235173196"><ele>116.19999999999999</ele><time>2026-04-12T07:35:41.988Z</time></trkpt><trkpt lat="43.58968526123267" lon="3.7227216863584283"><ele>116.39999999999999</ele><time>2026-04-12T07:35:43.988Z</time></trkpt><trkpt lat="43.58978310921649" lon="3.722733471991354"><ele>116.6</ele><time>2026-04-12T07:35:45.988Z</time></trkpt><trkpt lat="43.58987370491959" lon="3.722737037564747"><ele>116.8</ele><time>2026-04-12T07:35:47.988Z</time></trkpt><trkpt lat="43.589980864006094" lon="3.7227441319148613"><ele>117.0</ele><time>2026-04-12T07:35:49.988Z</time></trkpt><trkpt lat="43.59007390734326" lon="3.722736714296498"><ele>117.0</ele><time>2026-04-12T07:35:51.988Z</time></trkpt><trkpt lat="43.59016896797813" lon="3.7227332980338543"><ele>116.99999999999999</ele><time>2026-04-12T07:35:53.988Z</time></trkpt><trkpt lat="43.590262415993834" lon="3.722725079576221"><ele>116.99999999999999</ele><time>2026-04-12T07:35:55.988Z</time></trkpt><trkpt lat="43.590353237408394" lon="3.7227025158480207"><ele>117.0</ele><time>2026-04-12T07:35:57.988Z</time></trkpt><trkpt lat="43.59044422532031" lon="3.722701296629742"><ele>117.0</ele><time>2026-04-12T07:35:59.988Z</time></trkpt><trkpt lat="43.59054075494565" lon="3.7227414440314743"><ele>117.6</ele><time>2026-04-12T07:36:01.988Z</time></trkpt><trkpt lat="43.59063281242838" lon="3.722771347784838"><ele>118.19999999999999</ele><time>2026-04-12T07:36:03.988Z</time></trkpt><trkpt lat="43.59073264158632" lon="3.7227775880454845"><ele>118.8</ele><time>2026-04-12T07:36:05.988Z</time></trkpt><trkpt lat="43.590825103719304" lon="3.7228062832278157"><ele>119.4</ele><time>2026-04-12T07:36:07.988Z</time></trkpt><trkpt lat="43.59092077910916" lon="3.7228225711957905"><ele>120.0</ele><time>2026-04-12T07:36:09.988Z</time></trkpt><trkpt lat="43.591023269538226" lon="3.7228715246222683"><ele>120.0</ele><time>2026-04-12T07:36:11.988Z</time></trkpt><trkpt lat="43.59111416511265" lon="3.722919177756154"><ele>120.0</ele><time>2026-04-12T07:36:13.99Z</time></trkpt><trkpt lat="43.591205303785" lon="3.7229427269103654"><ele>120.0</ele><time>2026-04-12T07:36:15.99Z</time></trkpt><trkpt lat="43.591287272131154" lon="3.722992628923531"><ele>120.0</ele><time>2026-04-12T07:36:17.99Z</time></trkpt><trkpt lat="43.5913709463756" lon="3.723037622640289"><ele>120.0</ele><time>2026-04-12T07:36:19.989Z</time></trkpt><trkpt lat="43.59146463977858" lon="3.7230715042412608"><ele>121.0</ele><time>2026-04-12T07:36:21.99Z</time></trkpt><trkpt lat="43.59154858345121" lon="3.7231097504006656"><ele>122.0</ele><time>2026-04-12T07:36:23.99Z</time></trkpt><trkpt lat="43.59162460123825" lon="3.7231433058408365"><ele>123.0</ele><time>2026-04-12T07:36:25.99Z</time></trkpt><trkpt lat="43.591707719570955" lon="3.7231855124997004"><ele>124.0</ele><time>2026-04-12T07:36:27.989Z</time></trkpt><trkpt lat="43.591788844139614" lon="3.7232275831626245"><ele>125.0</ele><time>2026-04-12T07:36:29.989Z</time></trkpt><trkpt lat="43.59187685710849" lon="3.723267717911639"><ele>126.0</ele><time>2026-04-12T07:36:31.989Z</time></trkpt><trkpt lat="43.59195228196348" lon="3.723316789036613"><ele>126.33333333333333</ele><time>2026-04-12T07:36:33.989Z</time></trkpt><trkpt lat="43.592041267192734" lon="3.723361755455229"><ele>126.66666666666666</ele><time>2026-04-12T07:36:35.989Z</time></trkpt><trkpt lat="43.592112757094" lon="3.723395082520344"><ele>127.0</ele><time>2026-04-12T07:36:37.989Z</time></trkpt><trkpt lat="43.59219085740745" lon="3.7234570182652478"><ele>127.33333333333333</ele><time>2026-04-12T07:36:39.989Z</time></trkpt><trkpt lat="43.59226376149104" lon="3.7235097961530244"><ele>127.66666666666666</ele><time>2026-04-12T07:36:41.989Z</time></trkpt><trkpt lat="43.592359546207106" lon="3.7235579914724988"><ele>128.0</ele><time>2026-04-12T07:36:43.989Z</time></trkpt><trkpt lat="43.59243891395946" lon="3.723583759159817"><ele>127.99999999999999</ele><time>2026-04-12T07:36:45.989Z</time></trkpt><trkpt lat="43.592509892648295" lon="3.7236128607322225"><ele>128.0</ele><time>2026-04-12T07:36:47.989Z</time></trkpt><trkpt lat="43.59259074239523" lon="3.723642177955173"><ele>128.0</ele><time>2026-04-12T07:36:49.989Z</time></trkpt><trkpt lat="43.5926704846052" lon="3.7236721421163907"><ele>128.0</ele><time>2026-04-12T07:36:51.989Z</time></trkpt><trkpt lat="43.592736281220425" lon="3.723700833679935"><ele>127.99999999999999</ele><time>2026-04-12T07:36:53.989Z</time></trkpt><trkpt lat="43.59281380279004" lon="3.7237437030290965"><ele>128.0</ele><time>2026-04-12T07:36:55.989Z</time></trkpt><trkpt lat="43.592883812165766" lon="3.7237823174537636"><ele>129.14285714285714</ele><time>2026-04-12T07:36:57.989Z</time></trkpt><trkpt lat="43.59296666032188" lon="3.723819677997996"><ele>130.28571428571428</ele><time>2026-04-12T07:36:59.989Z</time></trkpt><trkpt lat="43.593037013282256" lon="3.7238512380145092"><ele>131.42857142857142</ele><time>2026-04-12T07:37:01.989Z</time></trkpt><trkpt lat="43.59309665799582" lon="3.7238969987306896"><ele>132.57142857142856</ele><time>2026-04-12T07:37:03.989Z</time></trkpt><trkpt lat="43.593157043926865" lon="3.7239371687906275"><ele>133.71428571428572</ele><time>2026-04-12T07:37:05.989Z</time></trkpt><trkpt lat="43.593229708958745" lon="3.7239720606513327"><ele>134.85714285714283</ele><time>2026-04-12T07:37:08.989Z</time></trkpt><trkpt lat="43.593288688528595" lon="3.7240137884233326"><ele>136.0</ele><time>2026-04-12T07:37:10.989Z</time></trkpt><trkpt lat="43.59337372751044" lon="3.724068410904985"><ele>136.0</ele><time>2026-04-12T07:37:13.989Z</time></trkpt><trkpt lat="43.593437112359084" lon="3.72409136879873"><ele>136.0</ele><time>2026-04-12T07:37:15.988Z</time></trkpt><trkpt lat="43.59352841417085" lon="3.7241185137662653"><ele>136.0</ele><time>2026-04-12T07:37:18.988Z</time></trkpt><trkpt lat="43.59361246549413" lon="3.7241500114379344"><ele>136.0</ele><time>2026-04-12T07:37:21.988Z</time></trkpt><trkpt lat="43.59369546099591" lon="3.7241760760046794"><ele>136.0</ele><time>2026-04-12T07:37:24.988Z</time></trkpt><trkpt lat="43.59377999154946" lon="3.7242183703737526"><ele>136.0</ele><time>2026-04-12T07:37:27.988Z</time></trkpt><trkpt lat="43.59386023752088" lon="3.7242517242166633"><ele>137.0</ele><time>2026-04-12T07:37:29.988Z</time></trkpt><trkpt lat="43.593922523134836" lon="3.7242832228809326"><ele>138.0</ele><time>2026-04-12T07:37:31.988Z</time></trkpt><trkpt lat="43.5939863969398" lon="3.724309907368264"><ele>139.0</ele><time>2026-04-12T07:37:33.988Z</time></trkpt><trkpt lat="43.594051002509886" lon="3.724337449076067"><ele>140.0</ele><time>2026-04-12T07:37:35.988Z</time></trkpt><trkpt lat="43.59414365255503" lon="3.7243327072825787"><ele>141.0</ele><time>2026-04-12T07:37:38.988Z</time></trkpt><trkpt lat="43.59420752831919" lon="3.724295356813576"><ele>142.0</ele><time>2026-04-12T07:37:40.988Z</time></trkpt><trkpt lat="43.59428928585586" lon="3.724240729820784"><ele>142.0</ele><time>2026-04-12T07:37:43.988Z</time></trkpt><trkpt lat="43.5943663130725" lon="3.724193993172735"><ele>142.0</ele><time>2026-04-12T07:37:46.988Z</time></trkpt><trkpt lat="43.594434494552374" lon="3.724237171813274"><ele>142.0</ele><time>2026-04-12T07:37:50.988Z</time></trkpt><trkpt lat="43.594461823020616" lon="3.7243303107776424"><ele>142.0</ele><time>2026-04-12T07:37:53.988Z</time></trkpt><trkpt lat="43.59448538379434" lon="3.7244122368623596"><ele>142.0</ele><time>2026-04-12T07:37:55.988Z</time></trkpt><trkpt lat="43.59450545267903" lon="3.7245001546731062"><ele>142.0</ele><time>2026-04-12T07:37:57.988Z</time></trkpt><trkpt lat="43.594530577716185" lon="3.7245917612974164"><ele>142.0</ele><time>2026-04-12T07:37:59.988Z</time></trkpt><trkpt lat="43.594557058994425" lon="3.7246814695820327"><ele>143.16666666666669</ele><time>2026-04-12T07:38:01.988Z</time></trkpt><trkpt lat="43.59458221005468" lon="3.724776238379255"><ele>144.33333333333334</ele><time>2026-04-12T07:38:03.988Z</time></trkpt><trkpt lat="43.59461353940469" lon="3.7248581663300437"><ele>145.5</ele><time>2026-04-12T07:38:05.988Z</time></trkpt><trkpt lat="43.5946496855342" lon="3.7249458939036724"><ele>146.66666666666666</ele><time>2026-04-12T07:38:07.988Z</time></trkpt><trkpt lat="43.594692199254446" lon="3.7250412193911795"><ele>147.83333333333331</ele><time>2026-04-12T07:38:09.988Z</time></trkpt><trkpt lat="43.59472812820492" lon="3.725150940760478"><ele>149.0</ele><time>2026-04-12T07:38:12.988Z</time></trkpt><trkpt lat="43.59476951841314" lon="3.725226198156675"><ele>148.33333333333331</ele><time>2026-04-12T07:38:14.988Z</time></trkpt><trkpt lat="43.5948083901852" lon="3.72531672430278"><ele>147.66666666666666</ele><time>2026-04-12T07:38:16.988Z</time></trkpt><trkpt lat="43.594852487074334" lon="3.7254164021674163"><ele>147.0</ele><time>2026-04-12T07:38:18.99Z</time></trkpt><trkpt lat="43.594901455348506" lon="3.725514251707054"><ele>146.33333333333334</ele><time>2026-04-12T07:38:20.99Z</time></trkpt><trkpt lat="43.59494695067007" lon="3.7256045340021258"><ele>145.66666666666669</ele><time>2026-04-12T07:38:22.99Z</time></trkpt><trkpt lat="43.594989663068404" lon="3.7256805721703827"><ele>145.0</ele><time>2026-04-12T07:38:24.99Z</time></trkpt><trkpt lat="43.59502347900325" lon="3.725759083200472"><ele>145.0</ele><time>2026-04-12T07:38:26.99Z</time></trkpt><trkpt lat="43.59507412223493" lon="3.725831363378718"><ele>145.0</ele><time>2026-04-12T07:38:28.99Z</time></trkpt><trkpt lat="43.59511631753052" lon="3.7259207536351617"><ele>145.0</ele><time>2026-04-12T07:38:30.99Z</time></trkpt><trkpt lat="43.59517562889982" lon="3.725999266363569"><ele>145.0</ele><time>2026-04-12T07:38:32.99Z</time></trkpt><trkpt lat="43.595228509091164" lon="3.726086828350464"><ele>145.0</ele><time>2026-04-12T07:38:34.99Z</time></trkpt><trkpt lat="43.59527505765462" lon="3.7261518268489113"><ele>145.0</ele><time>2026-04-12T07:38:36.99Z</time></trkpt><trkpt lat="43.5953315842038" lon="3.7262156688778005"><ele>144.85714285714286</ele><time>2026-04-12T07:38:38.99Z</time></trkpt><trkpt lat="43.595379306070036" lon="3.7262728881675513"><ele>144.71428571428572</ele><time>2026-04-12T07:38:40.99Z</time></trkpt><trkpt lat="43.59543958281354" lon="3.7263483899511765"><ele>144.57142857142858</ele><time>2026-04-12T07:38:42.99Z</time></trkpt><trkpt lat="43.59549717346238" lon="3.726424362096073"><ele>144.42857142857144</ele><time>2026-04-12T07:38:44.99Z</time></trkpt><trkpt lat="43.595559911170355" lon="3.726483441333282"><ele>144.28571428571428</ele><time>2026-04-12T07:38:46.99Z</time></trkpt><trkpt lat="43.595625179641345" lon="3.726537089473435"><ele>144.14285714285717</ele><time>2026-04-12T07:38:48.99Z</time></trkpt><trkpt lat="43.59568854994614" lon="3.7265805566929657"><ele>144.0</ele><time>2026-04-12T07:38:50.99Z</time></trkpt><trkpt lat="43.59575484901844" lon="3.7266039799929085"><ele>144.0</ele><time>2026-04-12T07:38:52.99Z</time></trkpt><trkpt lat="43.595827265918885" lon="3.7266295622887533"><ele>144.0</ele><time>2026-04-12T07:38:54.99Z</time></trkpt><trkpt lat="43.59591332133054" lon="3.7266427394654187"><ele>144.0</ele><time>2026-04-12T07:38:56.99Z</time></trkpt><trkpt lat="43.59599639239507" lon="3.7266441178100806"><ele>144.0</ele><time>2026-04-12T07:38:58.99Z</time></trkpt><trkpt lat="43.59607030435782" lon="3.726624052201695"><ele>144.0</ele><time>2026-04-12T07:39:00.99Z</time></trkpt><trkpt lat="43.59612551355883" lon="3.7265333684658795"><ele>144.0</ele><time>2026-04-12T07:39:03.99Z</time></trkpt><trkpt lat="43.59616865959528" lon="3.7264534234776066"><ele>143.83333333333334</ele><time>2026-04-12T07:39:05.99Z</time></trkpt><trkpt lat="43.596206451263775" lon="3.726346460272727"><ele>143.66666666666666</ele><time>2026-04-12T07:39:07.99Z</time></trkpt><trkpt lat="43.59622689486902" lon="3.7262462218663033"><ele>143.5</ele><time>2026-04-12T07:39:09.99Z</time></trkpt><trkpt lat="43.59623804316396" lon="3.7261382120065303"><ele>143.33333333333331</ele><time>2026-04-12T07:39:11.99Z</time></trkpt><trkpt lat="43.596229204082974" lon="3.7259975377734853"><ele>143.16666666666666</ele><time>2026-04-12T07:39:14.989Z</time></trkpt><trkpt lat="43.59622494466644" lon="3.7258602746891776"><ele>143.0</ele><time>2026-04-12T07:39:16.989Z</time></trkpt><trkpt lat="43.59623567349418" lon="3.7257413102120185"><ele>143.33333333333331</ele><time>2026-04-12T07:39:19.989Z</time></trkpt><trkpt lat="43.59637191642015" lon="3.725737181926755"><ele>143.66666666666666</ele><time>2026-04-12T07:39:24.989Z</time></trkpt><trkpt lat="43.59641624865148" lon="3.725652697791892"><ele>144.0</ele><time>2026-04-12T07:39:27.989Z</time></trkpt><trkpt lat="43.596491193198766" lon="3.7256485412101776"><ele>144.33333333333334</ele><time>2026-04-12T07:39:31.989Z</time></trkpt><trkpt lat="43.59651620798394" lon="3.7255605323080774"><ele>144.66666666666669</ele><time>2026-04-12T07:39:35.989Z</time></trkpt><trkpt lat="43.59655678504803" lon="3.725449712304038"><ele>145.0</ele><time>2026-04-12T07:39:38.989Z</time></trkpt><trkpt lat="43.59659643459988" lon="3.7253636839829523"><ele>145.0</ele><time>2026-04-12T07:39:40.989Z</time></trkpt><trkpt lat="43.596671937234504" lon="3.7253132181462068"><ele>145.0</ele><time>2026-04-12T07:39:43.989Z</time></trkpt><trkpt lat="43.59671882988856" lon="3.7252377623430726"><ele>145.0</ele><time>2026-04-12T07:39:45.989Z</time></trkpt><trkpt lat="43.59672794726838" lon="3.7251409086030827"><ele>145.0</ele><time>2026-04-12T07:39:47.989Z</time></trkpt><trkpt lat="43.59673151178587" lon="3.7250365412880813"><ele>145.0</ele><time>2026-04-12T07:39:50.989Z</time></trkpt><trkpt lat="43.596767551539834" lon="3.7249360323128693"><ele>145.0</ele><time>2026-04-12T07:39:53.989Z</time></trkpt><trkpt lat="43.59678170311426" lon="3.724821602530934"><ele>145.0</ele><time>2026-04-12T07:39:56.989Z</time></trkpt><trkpt lat="43.596760436021924" lon="3.7247382176263386"><ele>145.0</ele><time>2026-04-12T07:39:58.989Z</time></trkpt><trkpt lat="43.59678811800868" lon="3.72463335292659"><ele>145.0</ele><time>2026-04-12T07:40:01.989Z</time></trkpt><trkpt lat="43.596862789825835" lon="3.7245903759904126"><ele>145.0</ele><time>2026-04-12T07:40:04.989Z</time></trkpt><trkpt lat="43.59692879946221" lon="3.724556449966809"><ele>145.0</ele><time>2026-04-12T07:40:07.989Z</time></trkpt><trkpt lat="43.596956350084554" lon="3.7244469488929557"><ele>145.0</ele><time>2026-04-12T07:40:10.989Z</time></trkpt><trkpt lat="43.59696624394105" lon="3.724324612415762"><ele>145.66666666666669</ele><time>2026-04-12T07:40:13.989Z</time></trkpt><trkpt lat="43.59698264853003" lon="3.72420398369709"><ele>146.33333333333334</ele><time>2026-04-12T07:40:16.989Z</time></trkpt><trkpt lat="43.59697642455617" lon="3.7240799540180567"><ele>147.0</ele><time>2026-04-12T07:40:19.989Z</time></trkpt><trkpt lat="43.59698417467242" lon="3.7239786839074376"><ele>147.66666666666666</ele><time>2026-04-12T07:40:21.989Z</time></trkpt><trkpt lat="43.59699478416225" lon="3.723853271496004"><ele>148.33333333333331</ele><time>2026-04-12T07:40:24.99Z</time></trkpt><trkpt lat="43.597044376925275" lon="3.723794133050937"><ele>149.0</ele><time>2026-04-12T07:40:26.99Z</time></trkpt><trkpt lat="43.59711027586946" lon="3.723758179237402"><ele>149.14285714285714</ele><time>2026-04-12T07:40:28.99Z</time></trkpt><trkpt lat="43.59717342705831" lon="3.7237179117258856"><ele>149.28571428571428</ele><time>2026-04-12T07:40:30.99Z</time></trkpt><trkpt lat="43.59725031911587" lon="3.7236731784048898"><ele>149.42857142857142</ele><time>2026-04-12T07:40:33.99Z</time></trkpt><trkpt lat="43.59731630777023" lon="3.7236705478699705"><ele>149.57142857142856</ele><time>2026-04-12T07:40:36.99Z</time></trkpt><trkpt lat="43.59738324380694" lon="3.723716220613561"><ele>149.71428571428572</ele><time>2026-04-12T07:41:08.99Z</time></trkpt><trkpt lat="43.59740398855759" lon="3.7238172739897717"><ele>149.85714285714283</ele><time>2026-04-12T07:41:11.989Z</time></trkpt><trkpt lat="43.597428329446565" lon="3.723913360644903"><ele>150.0</ele><time>2026-04-12T07:41:13.989Z</time></trkpt><trkpt lat="43.597489107757994" lon="3.724064297087794"><ele>150.0</ele><time>2026-04-12T07:41:16.989Z</time></trkpt><trkpt lat="43.597531473106116" lon="3.724193631116251"><ele>150.0</ele><time>2026-04-12T07:41:18.989Z</time></trkpt><trkpt lat="43.5975869571428" lon="3.7243237536737204"><ele>150.0</ele><time>2026-04-12T07:41:20.989Z</time></trkpt><trkpt lat="43.59766816071407" lon="3.724440145328545"><ele>150.0</ele><time>2026-04-12T07:41:22.989Z</time></trkpt><trkpt lat="43.59773004777211" lon="3.7244762203576878"><ele>150.0</ele><time>2026-04-12T07:41:23.989Z</time></trkpt><trkpt lat="43.59778688818449" lon="3.724532170314821"><ele>148.99999999999997</ele><time>2026-04-12T07:41:24.989Z</time></trkpt><trkpt lat="43.59784138819663" lon="3.7245909257614223"><ele>148.0</ele><time>2026-04-12T07:41:25.989Z</time></trkpt><trkpt lat="43.59789986128257" lon="3.7246524764677753"><ele>147.0</ele><time>2026-04-12T07:41:26.989Z</time></trkpt><trkpt lat="43.59796138706338" lon="3.724713080318372"><ele>146.0</ele><time>2026-04-12T07:41:27.989Z</time></trkpt><trkpt lat="43.59801531849774" lon="3.7247815022270823"><ele>145.0</ele><time>2026-04-12T07:41:28.989Z</time></trkpt><trkpt lat="43.59806282813877" lon="3.724854208874083"><ele>143.99999999999997</ele><time>2026-04-12T07:41:29.989Z</time></trkpt><trkpt lat="43.59810909580588" lon="3.7249140804319403"><ele>143.0</ele><time>2026-04-12T07:41:30.989Z</time></trkpt><trkpt lat="43.598153623637046" lon="3.724978878896574"><ele>143.0</ele><time>2026-04-12T07:41:31.989Z</time></trkpt><trkpt lat="43.5982148628519" lon="3.7250213705980366"><ele>143.0</ele><time>2026-04-12T07:41:32.989Z</time></trkpt><trkpt lat="43.59826067201404" lon="3.725108631517681"><ele>143.0</ele><time>2026-04-12T07:41:33.989Z</time></trkpt><trkpt lat="43.59828717704298" lon="3.7252177533889137"><ele>143.0</ele><time>2026-04-12T07:41:34.989Z</time></trkpt><trkpt lat="43.59834711939356" lon="3.7252909601445356"><ele>143.0</ele><time>2026-04-12T07:41:35.989Z</time></trkpt><trkpt lat="43.59837809090527" lon="3.725387201720473"><ele>143.0</ele><time>2026-04-12T07:41:36.989Z</time></trkpt><trkpt lat="43.59843712437946" lon="3.725458470359676"><ele>142.83333333333331</ele><time>2026-04-12T07:41:37.989Z</time></trkpt><trkpt lat="43.598479257942756" lon="3.7255371765762475"><ele>142.66666666666666</ele><time>2026-04-12T07:41:38.989Z</time></trkpt><trkpt lat="43.59851706278626" lon="3.725615467589349"><ele>142.5</ele><time>2026-04-12T07:41:39.989Z</time></trkpt><trkpt lat="43.59856318959575" lon="3.7256801698645066"><ele>142.33333333333334</ele><time>2026-04-12T07:41:40.989Z</time></trkpt><trkpt lat="43.59860219957794" lon="3.7257579250575077"><ele>142.16666666666669</ele><time>2026-04-12T07:41:41.989Z</time></trkpt><trkpt lat="43.59866778484175" lon="3.7259014810666833"><ele>142.0</ele><time>2026-04-12T07:41:43.989Z</time></trkpt><trkpt lat="43.59869853866893" lon="3.7259792472271966"><ele>141.0</ele><time>2026-04-12T07:41:44.989Z</time></trkpt><trkpt lat="43.59874259539151" lon="3.726146413291387"><ele>140.0</ele><time>2026-04-12T07:41:46.989Z</time></trkpt><trkpt lat="43.5988238733694" lon="3.7261781197635213"><ele>139.0</ele><time>2026-04-12T07:41:47.989Z</time></trkpt><trkpt lat="43.59891466181821" lon="3.726281997062871"><ele>138.0</ele><time>2026-04-12T07:41:49.989Z</time></trkpt><trkpt lat="43.5990354269376" lon="3.7262300848655965"><ele>138.0</ele><time>2026-04-12T07:41:50.989Z</time></trkpt><trkpt lat="43.59910672933337" lon="3.7263323098363204"><ele>138.0</ele><time>2026-04-12T07:41:52.989Z</time></trkpt><trkpt lat="43.59917284801382" lon="3.726424663701585"><ele>138.0</ele><time>2026-04-12T07:41:54.989Z</time></trkpt><trkpt lat="43.59922571655954" lon="3.726553107785723"><ele>138.0</ele><time>2026-04-12T07:41:56.989Z</time></trkpt><trkpt lat="43.59929646045929" lon="3.726640363685535"><ele>138.0</ele><time>2026-04-12T07:41:58.989Z</time></trkpt><trkpt lat="43.59936330778712" lon="3.726716249999687"><ele>138.0</ele><time>2026-04-12T07:42:00.989Z</time></trkpt><trkpt lat="43.59942698598002" lon="3.726766051620899"><ele>138.0</ele><time>2026-04-12T07:42:02.989Z</time></trkpt><trkpt lat="43.59950125696825" lon="3.7268349759835986"><ele>138.0</ele><time>2026-04-12T07:42:05.989Z</time></trkpt><trkpt lat="43.599538591821286" lon="3.7269199626778895"><ele>138.0</ele><time>2026-04-12T07:42:07.989Z</time></trkpt><trkpt lat="43.5995616885831" lon="3.7270321685706276"><ele>138.0</ele><time>2026-04-12T07:42:09.989Z</time></trkpt><trkpt lat="43.599626433020475" lon="3.7270939123615885"><ele>138.0</ele><time>2026-04-12T07:42:11.989Z</time></trkpt><trkpt lat="43.59970074200601" lon="3.7271359851703414"><ele>137.4</ele><time>2026-04-12T07:42:13.989Z</time></trkpt><trkpt lat="43.599787635804326" lon="3.7271866261543436"><ele>136.8</ele><time>2026-04-12T07:42:15.989Z</time></trkpt><trkpt lat="43.59988727590877" lon="3.727210189814347"><ele>136.2</ele><time>2026-04-12T07:42:17.989Z</time></trkpt><trkpt lat="43.59999114355909" lon="3.727195566098592"><ele>135.6</ele><time>2026-04-12T07:42:19.989Z</time></trkpt><trkpt lat="43.60007272440702" lon="3.7271554247169196"><ele>135.0</ele><time>2026-04-12T07:42:21.989Z</time></trkpt><trkpt lat="43.60016082235492" lon="3.7271322178549893"><ele>135.0</ele><time>2026-04-12T07:42:23.989Z</time></trkpt><trkpt lat="43.60024240745811" lon="3.7271624960252283"><ele>135.0</ele><time>2026-04-12T07:42:25.989Z</time></trkpt><trkpt lat="43.60032352660395" lon="3.7272422681551425"><ele>135.0</ele><time>2026-04-12T07:42:27.988Z</time></trkpt><trkpt lat="43.60038015856795" lon="3.7273542508447073"><ele>135.0</ele><time>2026-04-12T07:42:29.99Z</time></trkpt><trkpt lat="43.60044388237672" lon="3.727461615933005"><ele>135.0</ele><time>2026-04-12T07:42:31.989Z</time></trkpt><trkpt lat="43.60049259036269" lon="3.7275599061366673"><ele>135.33333333333334</ele><time>2026-04-12T07:42:33.989Z</time></trkpt><trkpt lat="43.600546878442415" lon="3.7276443045430376"><ele>135.66666666666666</ele><time>2026-04-12T07:42:35.99Z</time></trkpt><trkpt lat="43.60063262579283" lon="3.72771324797206"><ele>136.0</ele><time>2026-04-12T07:42:37.99Z</time></trkpt><trkpt lat="43.60070145180412" lon="3.7276817261052084"><ele>136.33333333333331</ele><time>2026-04-12T07:42:39.99Z</time></trkpt><trkpt lat="43.600775335776994" lon="3.727632440057987"><ele>136.66666666666666</ele><time>2026-04-12T07:42:42.99Z</time></trkpt><trkpt lat="43.60085564856904" lon="3.7275698628007294"><ele>137.0</ele><time>2026-04-12T07:42:45.989Z</time></trkpt><trkpt lat="43.60091951147466" lon="3.7275033220367884"><ele>137.0</ele><time>2026-04-12T07:42:48.989Z</time></trkpt><trkpt lat="43.601002092249196" lon="3.727448812925593"><ele>137.0</ele><time>2026-04-12T07:42:51.989Z</time></trkpt><trkpt lat="43.601082248044506" lon="3.727398360697436"><ele>137.0</ele><time>2026-04-12T07:42:54.989Z</time></trkpt><trkpt lat="43.601149859935795" lon="3.7273178440868078"><ele>137.0</ele><time>2026-04-12T07:42:57.989Z</time></trkpt><trkpt lat="43.601207309942104" lon="3.7272445629002675"><ele>137.0</ele><time>2026-04-12T07:43:00.989Z</time></trkpt><trkpt lat="43.60125560916475" lon="3.727170615318587"><ele>137.0</ele><time>2026-04-12T07:43:03.989Z</time></trkpt><trkpt lat="43.60131678793684" lon="3.727096003783054"><ele>137.33333333333331</ele><time>2026-04-12T07:43:06.989Z</time></trkpt><trkpt lat="43.601374069930266" lon="3.7270051961895083"><ele>137.66666666666666</ele><time>2026-04-12T07:43:09.989Z</time></trkpt><trkpt lat="43.601435991958716" lon="3.726912617840921"><ele>138.0</ele><time>2026-04-12T07:43:12.989Z</time></trkpt><trkpt lat="43.60148085617413" lon="3.7268401548703847"><ele>138.33333333333334</ele><time>2026-04-12T07:43:14.989Z</time></trkpt><trkpt lat="43.601522161368806" lon="3.726769999202393"><ele>138.66666666666669</ele><time>2026-04-12T07:43:16.989Z</time></trkpt><trkpt lat="43.60157277827835" lon="3.7266999057869064"><ele>139.0</ele><time>2026-04-12T07:43:18.989Z</time></trkpt><trkpt lat="43.601619627957" lon="3.7266166385685953"><ele>139.28571428571428</ele><time>2026-04-12T07:43:20.989Z</time></trkpt><trkpt lat="43.60168478474743" lon="3.726531667885475"><ele>139.57142857142858</ele><time>2026-04-12T07:43:23.989Z</time></trkpt><trkpt lat="43.601752620483325" lon="3.726497882452129"><ele>139.85714285714286</ele><time>2026-04-12T07:43:25.989Z</time></trkpt><trkpt lat="43.60179672850661" lon="3.7264287481525185"><ele>140.14285714285714</ele><time>2026-04-12T07:43:27.989Z</time></trkpt><trkpt lat="43.601850261634574" lon="3.726377732039317"><ele>140.42857142857142</ele><time>2026-04-12T07:43:29.989Z</time></trkpt><trkpt lat="43.601899174570995" lon="3.7263184325604475"><ele>140.71428571428572</ele><time>2026-04-12T07:43:31.989Z</time></trkpt><trkpt lat="43.601957456368915" lon="3.7262689896443875"><ele>141.0</ele><time>2026-04-12T07:43:33.989Z</time></trkpt><trkpt lat="43.60203783118632" lon="3.7261876951798616"><ele>142.0</ele><time>2026-04-12T07:43:36.989Z</time></trkpt><trkpt lat="43.60209598545926" lon="3.7261021359378925"><ele>143.0</ele><time>2026-04-12T07:43:39.989Z</time></trkpt><trkpt lat="43.60219221597921" lon="3.7260354323573703"><ele>144.0</ele><time>2026-04-12T07:43:42.989Z</time></trkpt><trkpt lat="43.60225559249736" lon="3.725989198643285"><ele>145.0</ele><time>2026-04-12T07:43:44.989Z</time></trkpt><trkpt lat="43.60231353040765" lon="3.725934323524106"><ele>146.0</ele><time>2026-04-12T07:43:46.989Z</time></trkpt><trkpt lat="43.6024065999109" lon="3.7258691319184947"><ele>147.0</ele><time>2026-04-12T07:43:49.989Z</time></trkpt><trkpt lat="43.60248247768958" lon="3.725802238768675"><ele>147.0</ele><time>2026-04-12T07:43:52.989Z</time></trkpt><trkpt lat="43.6025427015937" lon="3.725763490452798"><ele>147.0</ele><time>2026-04-12T07:43:54.989Z</time></trkpt><trkpt lat="43.602605385795115" lon="3.725700152608864"><ele>147.0</ele><time>2026-04-12T07:43:56.989Z</time></trkpt><trkpt lat="43.602667285735855" lon="3.7256737904130683"><ele>147.0</ele><time>2026-04-12T07:43:58.989Z</time></trkpt><trkpt lat="43.60273428374084" lon="3.7256399849873305"><ele>147.0</ele><time>2026-04-12T07:44:00.988Z</time></trkpt><trkpt lat="43.602798442195756" lon="3.725604721413837"><ele>147.0</ele><time>2026-04-12T07:44:02.988Z</time></trkpt><trkpt lat="43.60285642530586" lon="3.7255682696191292"><ele>147.0</ele><time>2026-04-12T07:44:04.988Z</time></trkpt><trkpt lat="43.60292960884417" lon="3.725537757381326"><ele>148.33333333333334</ele><time>2026-04-12T07:44:07.988Z</time></trkpt><trkpt lat="43.60299489361199" lon="3.725496843881099"><ele>149.66666666666666</ele><time>2026-04-12T07:44:09.988Z</time></trkpt><trkpt lat="43.60306075219241" lon="3.725463933167222"><ele>151.0</ele><time>2026-04-12T07:44:11.988Z</time></trkpt><trkpt lat="43.60313114195409" lon="3.725391802074649"><ele>152.33333333333331</ele><time>2026-04-12T07:44:14.988Z</time></trkpt><trkpt lat="43.60320784828776" lon="3.7253551435665058"><ele>153.66666666666666</ele><time>2026-04-12T07:44:17.988Z</time></trkpt><trkpt lat="43.60325976934042" lon="3.725282048742344"><ele>155.0</ele><time>2026-04-12T07:44:19.988Z</time></trkpt><trkpt lat="43.60333404105791" lon="3.725232337028925"><ele>155.0</ele><time>2026-04-12T07:44:22.988Z</time></trkpt><trkpt lat="43.60340168545149" lon="3.7251726698511485"><ele>155.0</ele><time>2026-04-12T07:44:25.988Z</time></trkpt><trkpt lat="43.603452799824794" lon="3.725111211846753"><ele>155.0</ele><time>2026-04-12T07:44:27.988Z</time></trkpt><trkpt lat="43.60351543558288" lon="3.7250423653959888"><ele>155.0</ele><time>2026-04-12T07:44:30.988Z</time></trkpt><trkpt lat="43.60357406221325" lon="3.7249958687947538"><ele>155.0</ele><time>2026-04-12T07:44:32.988Z</time></trkpt><trkpt lat="43.60363670050671" lon="3.724960979654384"><ele>155.0</ele><time>2026-04-12T07:44:34.988Z</time></trkpt><trkpt lat="43.603686216767144" lon="3.724903334650439"><ele>155.0</ele><time>2026-04-12T07:44:36.991Z</time></trkpt><trkpt lat="43.603763645827996" lon="3.7248548098709278"><ele>155.0</ele><time>2026-04-12T07:44:39.991Z</time></trkpt><trkpt lat="43.60385062628707" lon="3.7248119486179196"><ele>155.0</ele><time>2026-04-12T07:44:42.99Z</time></trkpt><trkpt lat="43.60391006117347" lon="3.724779803185157"><ele>155.0</ele><time>2026-04-12T07:44:44.99Z</time></trkpt><trkpt lat="43.603985350244116" lon="3.7247566239962318"><ele>155.0</ele><time>2026-04-12T07:44:47.99Z</time></trkpt><trkpt lat="43.604056655520836" lon="3.7247494216809804"><ele>155.0</ele><time>2026-04-12T07:44:51.99Z</time></trkpt><trkpt lat="43.60411982699592" lon="3.7247164937189456"><ele>155.0</ele><time>2026-04-12T07:44:53.99Z</time></trkpt><trkpt lat="43.60421049403854" lon="3.724657453546343"><ele>155.0</ele><time>2026-04-12T07:44:56.99Z</time></trkpt><trkpt lat="43.604282353500395" lon="3.724588540973096"><ele>155.0</ele><time>2026-04-12T07:44:59.989Z</time></trkpt><trkpt lat="43.60435184516042" lon="3.72452496763497"><ele>155.0</ele><time>2026-04-12T07:45:02.989Z</time></trkpt><trkpt lat="43.60441101678699" lon="3.7244801558282643"><ele>155.0</ele><time>2026-04-12T07:45:04.989Z</time></trkpt><trkpt lat="43.6044649330154" lon="3.7244231272643513"><ele>155.0</ele><time>2026-04-12T07:45:06.989Z</time></trkpt><trkpt lat="43.604508990799445" lon="3.7243419966336226"><ele>155.0</ele><time>2026-04-12T07:45:09.989Z</time></trkpt><trkpt lat="43.604513234082724" lon="3.724246164769851"><ele>155.0</ele><time>2026-04-12T07:45:11.989Z</time></trkpt><trkpt lat="43.60453181829579" lon="3.7241547909247874"><ele>155.83333333333331</ele><time>2026-04-12T07:45:14.989Z</time></trkpt><trkpt lat="43.6046014645721" lon="3.724077736526689"><ele>156.66666666666666</ele><time>2026-04-12T07:45:17.989Z</time></trkpt><trkpt lat="43.60466907987621" lon="3.72400147470768"><ele>157.5</ele><time>2026-04-12T07:45:20.989Z</time></trkpt><trkpt lat="43.604702502869415" lon="3.723913694156542"><ele>158.33333333333334</ele><time>2026-04-12T07:45:22.989Z</time></trkpt><trkpt lat="43.60473394517846" lon="3.7238325916950608"><ele>159.16666666666669</ele><time>2026-04-12T07:45:24.989Z</time></trkpt><trkpt lat="43.60478893626486" lon="3.7237317012326416"><ele>160.0</ele><time>2026-04-12T07:45:27.989Z</time></trkpt><trkpt lat="43.60483109535033" lon="3.723660514665236"><ele>160.0</ele><time>2026-04-12T07:45:29.989Z</time></trkpt><trkpt lat="43.604864377506274" lon="3.723565107194722"><ele>160.0</ele><time>2026-04-12T07:45:32.989Z</time></trkpt><trkpt lat="43.604896168086974" lon="3.7234873116409406"><ele>160.0</ele><time>2026-04-12T07:45:34.989Z</time></trkpt><trkpt lat="43.6049364179091" lon="3.7233943580471895"><ele>160.0</ele><time>2026-04-12T07:45:36.989Z</time></trkpt><trkpt lat="43.60498980929133" lon="3.7233045734089094"><ele>160.0</ele><time>2026-04-12T07:45:39.989Z</time></trkpt><trkpt lat="43.6050454406852" lon="3.723192070185692"><ele>160.0</ele><time>2026-04-12T07:45:42.989Z</time></trkpt><trkpt lat="43.60509067615734" lon="3.723125860375696"><ele>159.83333333333334</ele><time>2026-04-12T07:45:44.989Z</time></trkpt><trkpt lat="43.605154934137566" lon="3.7230154508723987"><ele>159.66666666666669</ele><time>2026-04-12T07:45:47.989Z</time></trkpt><trkpt lat="43.60519927128762" lon="3.722943904549763"><ele>159.5</ele><time>2026-04-12T07:45:49.989Z</time></trkpt><trkpt lat="43.605248006334776" lon="3.7228371983279636"><ele>159.33333333333334</ele><time>2026-04-12T07:45:52.989Z</time></trkpt><trkpt lat="43.60530043357292" lon="3.7227373100187076"><ele>159.16666666666666</ele><time>2026-04-12T07:45:55.989Z</time></trkpt><trkpt lat="43.605330244717855" lon="3.7226552401760107"><ele>159.0</ele><time>2026-04-12T07:45:57.989Z</time></trkpt><trkpt lat="43.60537103243551" lon="3.722544532077858"><ele>160.16666666666666</ele><time>2026-04-12T07:46:00.989Z</time></trkpt><trkpt lat="43.60541169892539" lon="3.7224780971277958"><ele>161.33333333333334</ele><time>2026-04-12T07:46:02.989Z</time></trkpt><trkpt lat="43.605452045569656" lon="3.7223681978345153"><ele>162.5</ele><time>2026-04-12T07:46:05.989Z</time></trkpt><trkpt lat="43.60549199405993" lon="3.7222817705304245"><ele>163.66666666666669</ele><time>2026-04-12T07:46:08.989Z</time></trkpt><trkpt lat="43.605513616064435" lon="3.722173403751236"><ele>164.83333333333334</ele><time>2026-04-12T07:46:11.989Z</time></trkpt><trkpt lat="43.60553520944043" lon="3.7220674393358384"><ele>166.0</ele><time>2026-04-12T07:46:14.989Z</time></trkpt><trkpt lat="43.60555607477812" lon="3.721973532163692"><ele>166.33333333333334</ele><time>2026-04-12T07:46:16.988Z</time></trkpt><trkpt lat="43.6055981553431" lon="3.7218826371599967"><ele>166.66666666666669</ele><time>2026-04-12T07:46:19.988Z</time></trkpt><trkpt lat="43.60562261261482" lon="3.7217961128063446"><ele>167.0</ele><time>2026-04-12T07:46:22.988Z</time></trkpt><trkpt lat="43.60568032202228" lon="3.7217222000945576"><ele>167.33333333333334</ele><time>2026-04-12T07:46:26.988Z</time></trkpt><trkpt lat="43.60574625721917" lon="3.7216267288570437"><ele>167.66666666666666</ele><time>2026-04-12T07:46:29.988Z</time></trkpt><trkpt lat="43.60580313671281" lon="3.721566416398675"><ele>168.0</ele><time>2026-04-12T07:46:31.988Z</time></trkpt><trkpt lat="43.605876673459605" lon="3.7214964546511373"><ele>168.0</ele><time>2026-04-12T07:46:34.988Z</time></trkpt><trkpt lat="43.60590860107816" lon="3.7214155315849666"><ele>168.0</ele><time>2026-04-12T07:46:37.988Z</time></trkpt><trkpt lat="43.60595077758133" lon="3.721341387555659"><ele>168.0</ele><time>2026-04-12T07:46:40.988Z</time></trkpt><trkpt lat="43.60599352196228" lon="3.7212532465828256"><ele>168.0</ele><time>2026-04-12T07:46:43.991Z</time></trkpt><trkpt lat="43.60604606223036" lon="3.721184066244413"><ele>168.0</ele><time>2026-04-12T07:46:46.99Z</time></trkpt><trkpt lat="43.60611447317884" lon="3.721146098261384"><ele>168.0</ele><time>2026-04-12T07:46:49.99Z</time></trkpt><trkpt lat="43.60617810350762" lon="3.7211495659972327"><ele>168.0</ele><time>2026-04-12T07:46:51.991Z</time></trkpt><trkpt lat="43.606253347947344" lon="3.721173381172653"><ele>169.33333333333334</ele><time>2026-04-12T07:46:54.99Z</time></trkpt><trkpt lat="43.606342715296485" lon="3.7212084075549905"><ele>170.66666666666666</ele><time>2026-04-12T07:46:57.99Z</time></trkpt><trkpt lat="43.60641748542447" lon="3.7212668564739273"><ele>172.0</ele><time>2026-04-12T07:47:00.99Z</time></trkpt><trkpt lat="43.606458994440885" lon="3.7213332066543066"><ele>173.33333333333331</ele><time>2026-04-12T07:47:02.99Z</time></trkpt><trkpt lat="43.60651972117686" lon="3.7214228107641736"><ele>174.66666666666666</ele><time>2026-04-12T07:47:05.99Z</time></trkpt><trkpt lat="43.606559781714665" lon="3.721533368220034"><ele>176.0</ele><time>2026-04-12T07:47:08.99Z</time></trkpt><trkpt lat="43.606592085838734" lon="3.7216117784276026"><ele>176.0</ele><time>2026-04-12T07:47:10.99Z</time></trkpt><trkpt lat="43.60663517887113" lon="3.7216912378570517"><ele>176.0</ele><time>2026-04-12T07:47:12.99Z</time></trkpt><trkpt lat="43.60667958722787" lon="3.7217765495711275"><ele>176.0</ele><time>2026-04-12T07:47:14.99Z</time></trkpt><trkpt lat="43.606720177686825" lon="3.7218792540460903"><ele>176.0</ele><time>2026-04-12T07:47:17.99Z</time></trkpt><trkpt lat="43.60676997134601" lon="3.7219660027325707"><ele>176.0</ele><time>2026-04-12T07:47:20.99Z</time></trkpt><trkpt lat="43.60679962159598" lon="3.7220699131075605"><ele>176.0</ele><time>2026-04-12T07:47:23.99Z</time></trkpt><trkpt lat="43.60682156629547" lon="3.722152369909929"><ele>176.33333333333331</ele><time>2026-04-12T07:47:25.99Z</time></trkpt><trkpt lat="43.606827732558905" lon="3.7222679089969826"><ele>176.66666666666666</ele><time>2026-04-12T07:47:28.99Z</time></trkpt><trkpt lat="43.60681463592659" lon="3.7223544984263777"><ele>177.0</ele><time>2026-04-12T07:47:30.99Z</time></trkpt><trkpt lat="43.606807721756645" lon="3.722442286891523"><ele>177.33333333333334</ele><time>2026-04-12T07:47:32.99Z</time></trkpt><trkpt lat="43.60680265927617" lon="3.7225600761016744"><ele>177.66666666666669</ele><time>2026-04-12T07:47:35.99Z</time></trkpt><trkpt lat="43.60678375201178" lon="3.722679022725734"><ele>178.0</ele><time>2026-04-12T07:47:38.99Z</time></trkpt><trkpt lat="43.60676390281567" lon="3.722804224086406"><ele>178.33333333333334</ele><time>2026-04-12T07:47:41.99Z</time></trkpt><trkpt lat="43.60675412309682" lon="3.7229032999360143"><ele>178.66666666666669</ele><time>2026-04-12T07:47:43.99Z</time></trkpt><trkpt lat="43.60673178264889" lon="3.723022093350499"><ele>179.0</ele><time>2026-04-12T07:47:46.989Z</time></trkpt><trkpt lat="43.60674698455354" lon="3.7231203412211964"><ele>179.33333333333334</ele><time>2026-04-12T07:47:49.989Z</time></trkpt><trkpt lat="43.60682411695387" lon="3.72312587353847"><ele>179.66666666666666</ele><time>2026-04-12T07:47:54.989Z</time></trkpt><trkpt lat="43.60689878580739" lon="3.7231145694455434"><ele>180.0</ele><time>2026-04-12T07:47:58.989Z</time></trkpt><trkpt lat="43.606950612650124" lon="3.7230195892819573"><ele>180.0</ele><time>2026-04-12T07:48:02.989Z</time></trkpt><trkpt lat="43.60698671180467" lon="3.7229425041379702"><ele>180.0</ele><time>2026-04-12T07:48:05.989Z</time></trkpt><trkpt lat="43.60701690323903" lon="3.7228618408578344"><ele>180.0</ele><time>2026-04-12T07:48:08.989Z</time></trkpt><trkpt lat="43.60704882958323" lon="3.722748045955189"><ele>180.0</ele><time>2026-04-12T07:48:11.989Z</time></trkpt><trkpt lat="43.607103039076996" lon="3.722645656338826"><ele>180.0</ele><time>2026-04-12T07:48:14.989Z</time></trkpt><trkpt lat="43.60715088959695" lon="3.7225884293942535"><ele>180.0</ele><time>2026-04-12T07:48:16.989Z</time></trkpt><trkpt lat="43.6071806634525" lon="3.722492693817522"><ele>180.5</ele><time>2026-04-12T07:48:19.989Z</time></trkpt><trkpt lat="43.60719152700166" lon="3.722397073718338"><ele>181.0</ele><time>2026-04-12T07:48:21.989Z</time></trkpt><trkpt lat="43.60719713253016" lon="3.722271811804113"><ele>181.5</ele><time>2026-04-12T07:48:24.989Z</time></trkpt><trkpt lat="43.60720359023392" lon="3.7221827841482193"><ele>182.0</ele><time>2026-04-12T07:48:26.989Z</time></trkpt><trkpt lat="43.60719380601918" lon="3.722072583893915"><ele>182.5</ele><time>2026-04-12T07:48:29.989Z</time></trkpt><trkpt lat="43.60718447396913" lon="3.721965603799125"><ele>183.0</ele><time>2026-04-12T07:48:32.989Z</time></trkpt><trkpt lat="43.60717842763317" lon="3.721873339447801"><ele>184.83333333333334</ele><time>2026-04-12T07:48:34.989Z</time></trkpt><trkpt lat="43.60717087426058" lon="3.7217833810336005"><ele>186.66666666666669</ele><time>2026-04-12T07:48:36.989Z</time></trkpt><trkpt lat="43.60715680528299" lon="3.7216493228136263"><ele>188.5</ele><time>2026-04-12T07:48:39.989Z</time></trkpt><trkpt lat="43.60714577616939" lon="3.721555560680466"><ele>190.33333333333334</ele><time>2026-04-12T07:48:41.989Z</time></trkpt><trkpt lat="43.60713967309898" lon="3.7214483565600442"><ele>192.16666666666669</ele><time>2026-04-12T07:48:44.989Z</time></trkpt><trkpt lat="43.60713792785894" lon="3.721322306390391"><ele>194.0</ele><time>2026-04-12T07:48:47.99Z</time></trkpt><trkpt lat="43.60712767636295" lon="3.721210691094386"><ele>194.00000000000003</ele><time>2026-04-12T07:48:49.99Z</time></trkpt><trkpt lat="43.60713325397936" lon="3.721110520754099"><ele>194.0</ele><time>2026-04-12T07:48:51.989Z</time></trkpt><trkpt lat="43.60713995129261" lon="3.7210051206197683"><ele>194.0</ele><time>2026-04-12T07:48:53.99Z</time></trkpt><trkpt lat="43.60715265468051" lon="3.7209031944943938"><ele>194.0</ele><time>2026-04-12T07:48:55.99Z</time></trkpt><trkpt lat="43.60717225404889" lon="3.7208012277734372"><ele>194.00000000000003</ele><time>2026-04-12T07:48:57.989Z</time></trkpt><trkpt lat="43.607200487460474" lon="3.7207057292728383"><ele>194.0</ele><time>2026-04-12T07:48:59.99Z</time></trkpt><trkpt lat="43.6072163389358" lon="3.720578059891995"><ele>195.50000000000003</ele><time>2026-04-12T07:49:02.99Z</time></trkpt><trkpt lat="43.60721322914786" lon="3.7204596325650665"><ele>197.0</ele><time>2026-04-12T07:49:05.99Z</time></trkpt><trkpt lat="43.60719603122726" lon="3.7203647321331608"><ele>198.5</ele><time>2026-04-12T07:49:07.99Z</time></trkpt><trkpt lat="43.60717340949316" lon="3.720243890765149"><ele>200.0</ele><time>2026-04-12T07:49:09.99Z</time></trkpt><trkpt lat="43.60711310707126" lon="3.7201343848326562"><ele>201.50000000000003</ele><time>2026-04-12T07:49:12.99Z</time></trkpt><trkpt lat="43.60705793942702" lon="3.720076547555833"><ele>203.0</ele><time>2026-04-12T07:49:14.99Z</time></trkpt><trkpt lat="43.60701010348653" lon="3.72001200342798"><ele>202.14285714285714</ele><time>2026-04-12T07:49:16.99Z</time></trkpt><trkpt lat="43.606958714553535" lon="3.7199436678904902"><ele>201.28571428571428</ele><time>2026-04-12T07:49:18.99Z</time></trkpt><trkpt lat="43.60691007863472" lon="3.7198804278919675"><ele>200.42857142857144</ele><time>2026-04-12T07:49:20.99Z</time></trkpt><trkpt lat="43.6068645841468" lon="3.7198134940337737"><ele>199.57142857142856</ele><time>2026-04-12T07:49:22.99Z</time></trkpt><trkpt lat="43.60681254790353" lon="3.7197402089245886"><ele>198.71428571428572</ele><time>2026-04-12T07:49:24.99Z</time></trkpt><trkpt lat="43.60677762925495" lon="3.719663298253113"><ele>197.85714285714286</ele><time>2026-04-12T07:49:26.99Z</time></trkpt><trkpt lat="43.60674650621388" lon="3.719551739858245"><ele>197.0</ele><time>2026-04-12T07:49:29.99Z</time></trkpt><trkpt lat="43.60675291979309" lon="3.719446631696292"><ele>198.50000000000003</ele><time>2026-04-12T07:49:31.99Z</time></trkpt><trkpt lat="43.6067426351784" lon="3.719334574868842"><ele>200.0</ele><time>2026-04-12T07:49:34.99Z</time></trkpt><trkpt lat="43.606720350691084" lon="3.71921437253959"><ele>201.5</ele><time>2026-04-12T07:49:37.99Z</time></trkpt><trkpt lat="43.60670192234715" lon="3.719098147881775"><ele>203.0</ele><time>2026-04-12T07:49:40.99Z</time></trkpt><trkpt lat="43.60667611350678" lon="3.7190179997584463"><ele>204.50000000000003</ele><time>2026-04-12T07:49:42.99Z</time></trkpt><trkpt lat="43.606666785161636" lon="3.7189263001671837"><ele>206.0</ele><time>2026-04-12T07:49:44.99Z</time></trkpt><trkpt lat="43.606643402021355" lon="3.7188139685804966"><ele>206.00000000000003</ele><time>2026-04-12T07:49:47.99Z</time></trkpt><trkpt lat="43.6066294580683" lon="3.7186956929010653"><ele>206.0</ele><time>2026-04-12T07:49:50.989Z</time></trkpt><trkpt lat="43.606611917008905" lon="3.7186080525120384"><ele>206.0</ele><time>2026-04-12T07:49:52.989Z</time></trkpt><trkpt lat="43.60659701897462" lon="3.718513457993115"><ele>206.0</ele><time>2026-04-12T07:50:28.989Z</time></trkpt><trkpt lat="43.606593346289536" lon="3.718403770895252"><ele>206.00000000000003</ele><time>2026-04-12T07:50:32.989Z</time></trkpt><trkpt lat="43.60656914208222" lon="3.718292942281382"><ele>206.0</ele><time>2026-04-12T07:50:36.989Z</time></trkpt><trkpt lat="43.606544688963695" lon="3.718182702133578"><ele>205.8</ele><time>2026-04-12T07:50:39.989Z</time></trkpt><trkpt lat="43.60651659613455" lon="3.718089237582406"><ele>205.60000000000002</ele><time>2026-04-12T07:50:41.989Z</time></trkpt><trkpt lat="43.606472211737504" lon="3.71795555469537"><ele>205.4</ele><time>2026-04-12T07:50:43.989Z</time></trkpt><trkpt lat="43.606432813164325" lon="3.7178820665178445"><ele>205.2</ele><time>2026-04-12T07:50:44.989Z</time></trkpt><trkpt lat="43.60636027773098" lon="3.7177428259455456"><ele>205.0</ele><time>2026-04-12T07:50:46.989Z</time></trkpt><trkpt lat="43.6062962805833" lon="3.717591760135509"><ele>205.16666666666666</ele><time>2026-04-12T07:50:48.989Z</time></trkpt><trkpt lat="43.60625066533332" lon="3.717513369960015"><ele>205.33333333333331</ele><time>2026-04-12T07:50:49.989Z</time></trkpt><trkpt lat="43.606215038055936" lon="3.717440237189035"><ele>205.5</ele><time>2026-04-12T07:50:50.989Z</time></trkpt><trkpt lat="43.60616834509259" lon="3.717366299765731"><ele>205.66666666666669</ele><time>2026-04-12T07:50:51.989Z</time></trkpt><trkpt lat="43.606127121946294" lon="3.717293266291842"><ele>205.83333333333334</ele><time>2026-04-12T07:50:52.989Z</time></trkpt><trkpt lat="43.606086168650556" lon="3.7172124330814933"><ele>206.0</ele><time>2026-04-12T07:50:53.99Z</time></trkpt><trkpt lat="43.606084112368556" lon="3.7170519892851863"><ele>206.00000000000003</ele><time>2026-04-12T07:50:55.99Z</time></trkpt><trkpt lat="43.60611323565437" lon="3.7169732614049455"><ele>206.0</ele><time>2026-04-12T07:50:56.991Z</time></trkpt><trkpt lat="43.60618910847" lon="3.7169348407404033"><ele>206.0</ele><time>2026-04-12T07:50:58.99Z</time></trkpt><trkpt lat="43.606231506238636" lon="3.7168158220543863"><ele>206.0</ele><time>2026-04-12T07:51:00.99Z</time></trkpt><trkpt lat="43.60632857012514" lon="3.716764954614617"><ele>206.00000000000003</ele><time>2026-04-12T07:51:02.99Z</time></trkpt><trkpt lat="43.60643197561487" lon="3.716742822556472"><ele>206.0</ele><time>2026-04-12T07:51:04.99Z</time></trkpt><trkpt lat="43.606523628277955" lon="3.7166963862634805"><ele>203.8</ele><time>2026-04-12T07:51:06.99Z</time></trkpt><trkpt lat="43.606633912324746" lon="3.716671022661402"><ele>201.60000000000002</ele><time>2026-04-12T07:51:08.99Z</time></trkpt><trkpt lat="43.60673665121987" lon="3.71663730947798"><ele>199.4</ele><time>2026-04-12T07:51:10.99Z</time></trkpt><trkpt lat="43.60684661259854" lon="3.716600926477571"><ele>197.2</ele><time>2026-04-12T07:51:12.99Z</time></trkpt><trkpt lat="43.60693473819653" lon="3.71650172584443"><ele>195.0</ele><time>2026-04-12T07:51:14.99Z</time></trkpt><trkpt lat="43.60702376687551" lon="3.716414763723195"><ele>190.75</ele><time>2026-04-12T07:51:16.99Z</time></trkpt><trkpt lat="43.60709676646101" lon="3.716276066291435"><ele>186.5</ele><time>2026-04-12T07:51:18.99Z</time></trkpt><trkpt lat="43.607123126988654" lon="3.716122704028702"><ele>182.25</ele><time>2026-04-12T07:51:20.99Z</time></trkpt><trkpt lat="43.60714730685134" lon="3.7159787645823052"><ele>178.0</ele><time>2026-04-12T07:51:22.99Z</time></trkpt><trkpt lat="43.60714468773562" lon="3.7158206112834193"><ele>178.0</ele><time>2026-04-12T07:51:24.99Z</time></trkpt><trkpt lat="43.60712705521979" lon="3.7156719064283976"><ele>178.0</ele><time>2026-04-12T07:51:26.99Z</time></trkpt><trkpt lat="43.60709280958538" lon="3.715534077543327"><ele>178.0</ele><time>2026-04-12T07:51:28.99Z</time></trkpt><trkpt lat="43.60707656448242" lon="3.715430158881937"><ele>178.0</ele><time>2026-04-12T07:51:30.99Z</time></trkpt><trkpt lat="43.60705379480676" lon="3.7153093987971566"><ele>178.0</ele><time>2026-04-12T07:51:32.99Z</time></trkpt><trkpt lat="43.60701871734701" lon="3.715159256305042"><ele>179.16666666666669</ele><time>2026-04-12T07:51:34.99Z</time></trkpt><trkpt lat="43.606989361683134" lon="3.7150553936688016"><ele>180.33333333333334</ele><time>2026-04-12T07:51:36.99Z</time></trkpt><trkpt lat="43.60694700010229" lon="3.7149751749302578"><ele>181.5</ele><time>2026-04-12T07:51:38.99Z</time></trkpt><trkpt lat="43.60687951708463" lon="3.7148852421767073"><ele>182.66666666666666</ele><time>2026-04-12T07:51:42.99Z</time></trkpt><trkpt lat="43.60681149638298" lon="3.7148100940319186"><ele>183.83333333333331</ele><time>2026-04-12T07:51:44.99Z</time></trkpt><trkpt lat="43.60673760728458" lon="3.7147580204634965"><ele>185.0</ele><time>2026-04-12T07:51:46.99Z</time></trkpt><trkpt lat="43.60666173586676" lon="3.714711569570931"><ele>185.0</ele><time>2026-04-12T07:51:48.989Z</time></trkpt><trkpt lat="43.6065696042737" lon="3.714643828322141"><ele>185.0</ele><time>2026-04-12T07:51:50.989Z</time></trkpt><trkpt lat="43.60650015422368" lon="3.7145580134548593"><ele>185.0</ele><time>2026-04-12T07:51:52.989Z</time></trkpt><trkpt lat="43.606421560742334" lon="3.7144644082881455"><ele>185.0</ele><time>2026-04-12T07:51:54.989Z</time></trkpt><trkpt lat="43.60632462298318" lon="3.7144684703766813"><ele>185.0</ele><time>2026-04-12T07:51:56.989Z</time></trkpt><trkpt lat="43.60624517141275" lon="3.7143888035128545"><ele>185.0</ele><time>2026-04-12T07:51:58.989Z</time></trkpt><trkpt lat="43.60616788510173" lon="3.7143062502186055"><ele>185.0</ele><time>2026-04-12T07:52:00.989Z</time></trkpt><trkpt lat="43.60610407089303" lon="3.7142427813922296"><ele>185.0</ele><time>2026-04-12T07:52:02.989Z</time></trkpt><trkpt lat="43.606072266099645" lon="3.7141377046968493"><ele>185.0</ele><time>2026-04-12T07:52:04.989Z</time></trkpt><trkpt lat="43.606036103024024" lon="3.7140291793880804"><ele>185.0</ele><time>2026-04-12T07:52:06.989Z</time></trkpt><trkpt lat="43.60598613623886" lon="3.713921924032007"><ele>185.0</ele><time>2026-04-12T07:52:08.989Z</time></trkpt><trkpt lat="43.60593283035845" lon="3.7138153122116955"><ele>185.0</ele><time>2026-04-12T07:52:10.989Z</time></trkpt><trkpt lat="43.605899289642714" lon="3.713738816209546"><ele>185.0</ele><time>2026-04-12T07:52:11.989Z</time></trkpt><trkpt lat="43.60584683068765" lon="3.713613582748902"><ele>185.0</ele><time>2026-04-12T07:52:13.989Z</time></trkpt><trkpt lat="43.605796826886845" lon="3.7134897560968407"><ele>185.0</ele><time>2026-04-12T07:52:15.989Z</time></trkpt><trkpt lat="43.605781021896284" lon="3.7134043255876654"><ele>185.0</ele><time>2026-04-12T07:52:16.989Z</time></trkpt><trkpt lat="43.60575577435356" lon="3.713260885831209"><ele>185.0</ele><time>2026-04-12T07:52:18.989Z</time></trkpt><trkpt lat="43.60570772440122" lon="3.7131319867621597"><ele>183.33333333333331</ele><time>2026-04-12T07:52:20.989Z</time></trkpt><trkpt lat="43.60566949836739" lon="3.7130093505539454"><ele>181.66666666666666</ele><time>2026-04-12T07:52:21.989Z</time></trkpt><trkpt lat="43.60562828611456" lon="3.712912454057763"><ele>180.0</ele><time>2026-04-12T07:52:22.989Z</time></trkpt><trkpt lat="43.60559736688309" lon="3.71283361799913"><ele>178.33333333333334</ele><time>2026-04-12T07:52:23.989Z</time></trkpt><trkpt lat="43.60553612182748" lon="3.7127200878433007"><ele>176.66666666666669</ele><time>2026-04-12T07:52:25.989Z</time></trkpt><trkpt lat="43.60547741146157" lon="3.7126117844107958"><ele>175.0</ele><time>2026-04-12T07:52:27.989Z</time></trkpt><trkpt lat="43.6054266626474" lon="3.7125560494072145"><ele>175.8</ele><time>2026-04-12T07:52:28.989Z</time></trkpt><trkpt lat="43.60536526942001" lon="3.712468882662175"><ele>176.6</ele><time>2026-04-12T07:52:30.989Z</time></trkpt><trkpt lat="43.60533797862627" lon="3.7123506107028588"><ele>177.39999999999998</ele><time>2026-04-12T07:52:32.989Z</time></trkpt><trkpt lat="43.60526955237915" lon="3.7122473417286526"><ele>178.2</ele><time>2026-04-12T07:52:34.989Z</time></trkpt><trkpt lat="43.605225173009536" lon="3.712184821223876"><ele>179.0</ele><time>2026-04-12T07:52:35.989Z</time></trkpt><trkpt lat="43.60513690516962" lon="3.712051319002159"><ele>179.0</ele><time>2026-04-12T07:52:37.989Z</time></trkpt><trkpt lat="43.60505287613353" lon="3.7119586451694153"><ele>179.0</ele><time>2026-04-12T07:52:39.989Z</time></trkpt><trkpt lat="43.604986665626" lon="3.7118948988828593"><ele>179.0</ele><time>2026-04-12T07:52:41.989Z</time></trkpt><trkpt lat="43.604923173679495" lon="3.711802580646743"><ele>179.0</ele><time>2026-04-12T07:52:43.989Z</time></trkpt><trkpt lat="43.604833510064246" lon="3.711716149922968"><ele>179.0</ele><time>2026-04-12T07:52:45.989Z</time></trkpt><trkpt lat="43.60474912497069" lon="3.7116423338568385"><ele>175.79999999999998</ele><time>2026-04-12T07:52:47.989Z</time></trkpt><trkpt lat="43.60462942993704" lon="3.7115678801252994"><ele>172.6</ele><time>2026-04-12T07:52:49.989Z</time></trkpt><trkpt lat="43.60455164357879" lon="3.711514084231232"><ele>169.4</ele><time>2026-04-12T07:52:51.989Z</time></trkpt><trkpt lat="43.60449395148687" lon="3.7115595940409447"><ele>166.2</ele><time>2026-04-12T07:52:53.989Z</time></trkpt><trkpt lat="43.60444668818387" lon="3.7115008430621956"><ele>163.0</ele><time>2026-04-12T07:52:56.989Z</time></trkpt><trkpt lat="43.6043685936904" lon="3.7113965479875586"><ele>163.0</ele><time>2026-04-12T07:52:58.99Z</time></trkpt><trkpt lat="43.60430116492036" lon="3.7113444747519004"><ele>163.0</ele><time>2026-04-12T07:53:00.99Z</time></trkpt><trkpt lat="43.60421284610305" lon="3.711304707762815"><ele>163.0</ele><time>2026-04-12T07:53:02.99Z</time></trkpt><trkpt lat="43.604108632180754" lon="3.711057811672945"><ele>163.0</ele><time>2026-04-12T07:53:04.99Z</time></trkpt><trkpt lat="43.60403918576704" lon="3.71105993307776"><ele>163.0</ele><time>2026-04-12T07:53:06.99Z</time></trkpt><trkpt lat="43.60393371800431" lon="3.711049827668877"><ele>163.0</ele><time>2026-04-12T07:53:09.99Z</time></trkpt><trkpt lat="43.604000164625766" lon="3.711105258682461"><ele>163.0</ele><time>2026-04-12T07:53:14.991Z</time></trkpt><trkpt lat="43.60409278850244" lon="3.7111106311293915"><ele>163.0</ele><time>2026-04-12T07:53:16.991Z</time></trkpt><trkpt lat="43.60415487518933" lon="3.711075645176141"><ele>163.0</ele><time>2026-04-12T07:53:18.99Z</time></trkpt><trkpt lat="43.604217217570856" lon="3.7110588729823286"><ele>163.0</ele><time>2026-04-12T07:53:21.99Z</time></trkpt><trkpt lat="43.60430812125836" lon="3.711034182428206"><ele>163.0</ele><time>2026-04-12T07:53:24.99Z</time></trkpt><trkpt lat="43.604381410153266" lon="3.710988208189253"><ele>160.83333333333334</ele><time>2026-04-12T07:53:27.99Z</time></trkpt><trkpt lat="43.604446954089624" lon="3.7109178862163374"><ele>158.66666666666669</ele><time>2026-04-12T07:53:30.99Z</time></trkpt><trkpt lat="43.60448427562425" lon="3.7108185530092146"><ele>156.5</ele><time>2026-04-12T07:53:33.99Z</time></trkpt><trkpt lat="43.60453049379955" lon="3.7107178515662684"><ele>154.33333333333334</ele><time>2026-04-12T07:53:36.99Z</time></trkpt><trkpt lat="43.6045924804056" lon="3.7106405586141835"><ele>152.16666666666666</ele><time>2026-04-12T07:53:39.99Z</time></trkpt><trkpt lat="43.6046554197933" lon="3.7105734305756726"><ele>150.0</ele><time>2026-04-12T07:53:42.99Z</time></trkpt><trkpt lat="43.604714594906206" lon="3.71047503201604"><ele>149.99999999999997</ele><time>2026-04-12T07:53:45.99Z</time></trkpt><trkpt lat="43.604775116587184" lon="3.7103872753786264"><ele>150.0</ele><time>2026-04-12T07:54:22.99Z</time></trkpt><trkpt lat="43.60481816814921" lon="3.7103223326058896"><ele>150.0</ele><time>2026-04-12T07:54:24.99Z</time></trkpt><trkpt lat="43.604886899474735" lon="3.7102550950873328"><ele>150.0</ele><time>2026-04-12T07:54:27.99Z</time></trkpt><trkpt lat="43.60494620987186" lon="3.710197690797406"><ele>150.0</ele><time>2026-04-12T07:54:30.99Z</time></trkpt><trkpt lat="43.60500148972735" lon="3.7101495609749855"><ele>149.99999999999997</ele><time>2026-04-12T07:54:32.99Z</time></trkpt><trkpt lat="43.60505568814111" lon="3.710089990185427"><ele>150.0</ele><time>2026-04-12T07:54:35.989Z</time></trkpt><trkpt lat="43.60511825379133" lon="3.7100358572118264"><ele>149.66666666666666</ele><time>2026-04-12T07:54:38.989Z</time></trkpt><trkpt lat="43.6051867254305" lon="3.7099905800280766"><ele>149.33333333333334</ele><time>2026-04-12T07:54:41.989Z</time></trkpt><trkpt lat="43.60525328742782" lon="3.709984299851418"><ele>149.0</ele><time>2026-04-12T07:54:44.989Z</time></trkpt><trkpt lat="43.60534670400998" lon="3.7099805372641543"><ele>148.66666666666669</ele><time>2026-04-12T07:54:47.989Z</time></trkpt><trkpt lat="43.605418834056785" lon="3.709988612880528"><ele>148.33333333333334</ele><time>2026-04-12T07:54:49.989Z</time></trkpt><trkpt lat="43.60549586522126" lon="3.7100035865536074"><ele>148.0</ele><time>2026-04-12T07:54:51.989Z</time></trkpt><trkpt lat="43.605562792036174" lon="3.7100166627626523"><ele>148.0</ele><time>2026-04-12T07:54:53.989Z</time></trkpt><trkpt lat="43.6056271901166" lon="3.710010191651312"><ele>148.0</ele><time>2026-04-12T07:54:55.989Z</time></trkpt><trkpt lat="43.605700488542176" lon="3.7100105132841907"><ele>148.0</ele><time>2026-04-12T07:54:57.989Z</time></trkpt><trkpt lat="43.6057715571481" lon="3.7099976316471723"><ele>148.0</ele><time>2026-04-12T07:54:59.989Z</time></trkpt><trkpt lat="43.6058407944623" lon="3.7099531912361536"><ele>148.0</ele><time>2026-04-12T07:55:01.989Z</time></trkpt><trkpt lat="43.605916851242654" lon="3.7098999959238714"><ele>148.0</ele><time>2026-04-12T07:55:03.989Z</time></trkpt><trkpt lat="43.60599199073297" lon="3.7098535049755226"><ele>148.0</ele><time>2026-04-12T07:55:05.99Z</time></trkpt><trkpt lat="43.60607122768066" lon="3.7098386271353285"><ele>148.0</ele><time>2026-04-12T07:55:07.991Z</time></trkpt><trkpt lat="43.606151729085525" lon="3.709840650695052"><ele>148.0</ele><time>2026-04-12T07:55:09.99Z</time></trkpt><trkpt lat="43.606235356107" lon="3.709843057858301"><ele>148.0</ele><time>2026-04-12T07:55:11.99Z</time></trkpt><trkpt lat="43.60630689180962" lon="3.709844193693371"><ele>148.0</ele><time>2026-04-12T07:55:13.99Z</time></trkpt><trkpt lat="43.606384177245076" lon="3.709875944465347"><ele>148.0</ele><time>2026-04-12T07:55:15.99Z</time></trkpt><trkpt lat="43.606448557222265" lon="3.7099131533865632"><ele>148.83333333333334</ele><time>2026-04-12T07:55:17.99Z</time></trkpt><trkpt lat="43.60652184486255" lon="3.709948589480239"><ele>149.66666666666669</ele><time>2026-04-12T07:55:19.99Z</time></trkpt><trkpt lat="43.60659929158326" lon="3.709983356267861"><ele>150.5</ele><time>2026-04-12T07:55:21.99Z</time></trkpt><trkpt lat="43.60666835558642" lon="3.710035015512675"><ele>151.33333333333334</ele><time>2026-04-12T07:55:23.99Z</time></trkpt><trkpt lat="43.606752980573916" lon="3.7100852312554133"><ele>152.16666666666666</ele><time>2026-04-12T07:55:25.99Z</time></trkpt><trkpt lat="43.606820653055784" lon="3.7101314595437187"><ele>153.0</ele><time>2026-04-12T07:55:27.99Z</time></trkpt><trkpt lat="43.60688284224522" lon="3.710157641000246"><ele>153.0</ele><time>2026-04-12T07:55:29.99Z</time></trkpt><trkpt lat="43.60695964463819" lon="3.710186177760696"><ele>153.0</ele><time>2026-04-12T07:55:31.99Z</time></trkpt><trkpt lat="43.60704053589266" lon="3.7102364285608886"><ele>153.0</ele><time>2026-04-12T07:55:33.99Z</time></trkpt><trkpt lat="43.607118538229095" lon="3.710249893606059"><ele>153.0</ele><time>2026-04-12T07:55:35.99Z</time></trkpt><trkpt lat="43.607185196431054" lon="3.7102644086185927"><ele>153.0</ele><time>2026-04-12T07:55:37.99Z</time></trkpt><trkpt lat="43.607271444865454" lon="3.710266438949661"><ele>153.0</ele><time>2026-04-12T07:55:40.99Z</time></trkpt><trkpt lat="43.607347702280805" lon="3.710282898976033"><ele>154.83333333333334</ele><time>2026-04-12T07:55:42.99Z</time></trkpt><trkpt lat="43.607406763741636" lon="3.710318333611942"><ele>156.66666666666666</ele><time>2026-04-12T07:55:44.99Z</time></trkpt><trkpt lat="43.607475868670356" lon="3.710322675323684"><ele>158.5</ele><time>2026-04-12T07:55:46.99Z</time></trkpt><trkpt lat="43.60756431262896" lon="3.7103169004825634"><ele>160.33333333333331</ele><time>2026-04-12T07:55:48.99Z</time></trkpt><trkpt lat="43.60765452800866" lon="3.7103221224980385"><ele>162.16666666666666</ele><time>2026-04-12T07:55:50.99Z</time></trkpt><trkpt lat="43.60772110415024" lon="3.7102853242760463"><ele>164.0</ele><time>2026-04-12T07:55:52.99Z</time></trkpt><trkpt lat="43.60778751403754" lon="3.7102426568530302"><ele>163.83333333333331</ele><time>2026-04-12T07:55:54.99Z</time></trkpt><trkpt lat="43.6078722756669" lon="3.710189973620639"><ele>163.66666666666666</ele><time>2026-04-12T07:55:56.99Z</time></trkpt><trkpt lat="43.60794056897545" lon="3.7101342388865635"><ele>163.5</ele><time>2026-04-12T07:55:58.99Z</time></trkpt><trkpt lat="43.60800762334796" lon="3.710089801555487"><ele>163.33333333333334</ele><time>2026-04-12T07:56:00.989Z</time></trkpt><trkpt lat="43.60807821809909" lon="3.710041860105196"><ele>163.16666666666669</ele><time>2026-04-12T07:56:02.989Z</time></trkpt><trkpt lat="43.60817837742377" lon="3.7099786268241743"><ele>163.0</ele><time>2026-04-12T07:56:05.989Z</time></trkpt><trkpt lat="43.608269659685" lon="3.7099339176698414"><ele>163.0</ele><time>2026-04-12T07:56:08.989Z</time></trkpt><trkpt lat="43.60835122593663" lon="3.7099280449427563"><ele>163.0</ele><time>2026-04-12T07:56:10.989Z</time></trkpt><trkpt lat="43.60842998939939" lon="3.7098650083070566"><ele>163.0</ele><time>2026-04-12T07:56:13.989Z</time></trkpt><trkpt lat="43.608495089105915" lon="3.7098317046874"><ele>163.0</ele><time>2026-04-12T07:56:15.989Z</time></trkpt><trkpt lat="43.60856851394443" lon="3.7097909371272726"><ele>163.0</ele><time>2026-04-12T07:56:17.989Z</time></trkpt><trkpt lat="43.60866113333306" lon="3.709747283596313"><ele>163.0</ele><time>2026-04-12T07:56:20.989Z</time></trkpt><trkpt lat="43.608741721994086" lon="3.709695048391898"><ele>163.66666666666669</ele><time>2026-04-12T07:56:23.989Z</time></trkpt><trkpt lat="43.60881787514087" lon="3.7096507814637723"><ele>164.33333333333334</ele><time>2026-04-12T07:56:25.989Z</time></trkpt><trkpt lat="43.60890279466717" lon="3.7096228797240025"><ele>165.0</ele><time>2026-04-12T07:56:27.989Z</time></trkpt><trkpt lat="43.608978060290234" lon="3.7096119133249514"><ele>165.66666666666666</ele><time>2026-04-12T07:56:29.989Z</time></trkpt><trkpt lat="43.60904680523695" lon="3.709638587333986"><ele>166.33333333333331</ele><time>2026-04-12T07:56:31.989Z</time></trkpt><trkpt lat="43.60911032331429" lon="3.709672894561177"><ele>167.0</ele><time>2026-04-12T07:56:33.989Z</time></trkpt><trkpt lat="43.60918065884894" lon="3.709689480030759"><ele>167.0</ele><time>2026-04-12T07:56:35.989Z</time></trkpt><trkpt lat="43.60923818783187" lon="3.709742545861831"><ele>167.0</ele><time>2026-04-12T07:56:37.989Z</time></trkpt><trkpt lat="43.60931155453537" lon="3.7098102746287993"><ele>167.0</ele><time>2026-04-12T07:57:02.989Z</time></trkpt><trkpt lat="43.60935488095595" lon="3.7098798216559716"><ele>167.0</ele><time>2026-04-12T07:57:05.989Z</time></trkpt><trkpt lat="43.60938590104589" lon="3.709960973987637"><ele>167.0</ele><time>2026-04-12T07:57:09.989Z</time></trkpt><trkpt lat="43.60944279439049" lon="3.710004876888269"><ele>167.0</ele><time>2026-04-12T07:57:12.99Z</time></trkpt><trkpt lat="43.60950409558091" lon="3.7100486712244973"><ele>167.0</ele><time>2026-04-12T07:57:16.99Z</time></trkpt><trkpt lat="43.60957639530277" lon="3.710063319549343"><ele>167.83333333333331</ele><time>2026-04-12T07:57:20.99Z</time></trkpt><trkpt lat="43.609647294137275" lon="3.7100718180850976"><ele>168.66666666666666</ele><time>2026-04-12T07:57:23.99Z</time></trkpt><trkpt lat="43.609710184778756" lon="3.710105329113581"><ele>169.5</ele><time>2026-04-12T07:57:25.99Z</time></trkpt><trkpt lat="43.60976780859457" lon="3.7101775102317833"><ele>170.33333333333334</ele><time>2026-04-12T07:57:28.99Z</time></trkpt><trkpt lat="43.6098456558836" lon="3.710236914694926"><ele>171.16666666666669</ele><time>2026-04-12T07:57:32.99Z</time></trkpt><trkpt lat="43.609919539063384" lon="3.710270730642998"><ele>172.0</ele><time>2026-04-12T07:57:35.99Z</time></trkpt><trkpt lat="43.609990645459355" lon="3.710293237745233"><ele>173.00000000000003</ele><time>2026-04-12T07:57:38.989Z</time></trkpt><trkpt lat="43.61005755193859" lon="3.7103560025800366"><ele>174.0</ele><time>2026-04-12T07:57:41.989Z</time></trkpt><trkpt lat="43.610119769185545" lon="3.710400009801735"><ele>175.0</ele><time>2026-04-12T07:57:44.989Z</time></trkpt><trkpt lat="43.61015872307399" lon="3.7104774866137986"><ele>176.0</ele><time>2026-04-12T07:57:47.988Z</time></trkpt><trkpt lat="43.61020247679511" lon="3.710562717712483"><ele>177.0</ele><time>2026-04-12T07:57:51.988Z</time></trkpt><trkpt lat="43.61025214244243" lon="3.7106206364989136"><ele>178.00000000000003</ele><time>2026-04-12T07:57:54.988Z</time></trkpt><trkpt lat="43.61030347836816" lon="3.7107047789460026"><ele>179.0</ele><time>2026-04-12T07:57:57.988Z</time></trkpt><trkpt lat="43.610359833837194" lon="3.710772358903332"><ele>179.00000000000003</ele><time>2026-04-12T07:58:00.988Z</time></trkpt><trkpt lat="43.61041138024032" lon="3.710840698558199"><ele>179.0</ele><time>2026-04-12T07:58:03.988Z</time></trkpt><trkpt lat="43.61048314550133" lon="3.7108903029434748"><ele>179.0</ele><time>2026-04-12T07:58:06.988Z</time></trkpt><trkpt lat="43.61052666814263" lon="3.7109543338972637"><ele>179.0</ele><time>2026-04-12T07:58:08.987Z</time></trkpt><trkpt lat="43.61058552945542" lon="3.711025999764774"><ele>179.0</ele><time>2026-04-12T07:58:11.987Z</time></trkpt><trkpt lat="43.61063165332857" lon="3.711095710929359"><ele>179.00000000000003</ele><time>2026-04-12T07:58:13.987Z</time></trkpt><trkpt lat="43.61067421949724" lon="3.7111810917278167"><ele>179.0</ele><time>2026-04-12T07:58:16.987Z</time></trkpt><trkpt lat="43.61075400082311" lon="3.711245804040945"><ele>180.66666666666666</ele><time>2026-04-12T07:58:19.987Z</time></trkpt><trkpt lat="43.610801070646765" lon="3.7113048419306005"><ele>182.33333333333331</ele><time>2026-04-12T07:58:21.987Z</time></trkpt><trkpt lat="43.610850575075276" lon="3.7113690710902723"><ele>184.0</ele><time>2026-04-12T07:58:23.987Z</time></trkpt><trkpt lat="43.61092109248537" lon="3.7114570341668256"><ele>185.66666666666666</ele><time>2026-04-12T07:58:26.987Z</time></trkpt><trkpt lat="43.61097880645126" lon="3.7115702957724057"><ele>187.33333333333334</ele><time>2026-04-12T07:58:29.987Z</time></trkpt><trkpt lat="43.611042441160045" lon="3.7116473195995168"><ele>189.0</ele><time>2026-04-12T07:58:32.987Z</time></trkpt><trkpt lat="43.61108432987516" lon="3.711714130434866"><ele>189.0</ele><time>2026-04-12T07:58:34.987Z</time></trkpt><trkpt lat="43.611133521941085" lon="3.7117722758717018"><ele>189.0</ele><time>2026-04-12T07:58:36.987Z</time></trkpt><trkpt lat="43.61118129774927" lon="3.7118300318135846"><ele>189.0</ele><time>2026-04-12T07:58:38.987Z</time></trkpt><trkpt lat="43.61122479613794" lon="3.711913913321523"><ele>189.0</ele><time>2026-04-12T07:58:40.987Z</time></trkpt><trkpt lat="43.611260831203154" lon="3.7120118797129797"><ele>189.0</ele><time>2026-04-12T07:58:43.987Z</time></trkpt><trkpt lat="43.61133423042765" lon="3.71208198067951"><ele>189.0</ele><time>2026-04-12T07:58:46.987Z</time></trkpt><trkpt lat="43.61142083950854" lon="3.7120473573651727"><ele>188.79999999999998</ele><time>2026-04-12T07:58:49.987Z</time></trkpt><trkpt lat="43.611479925589805" lon="3.711953837261397"><ele>188.6</ele><time>2026-04-12T07:58:51.987Z</time></trkpt><trkpt lat="43.61153715553732" lon="3.711844498474535"><ele>188.4</ele><time>2026-04-12T07:58:53.987Z</time></trkpt><trkpt lat="43.611614235202744" lon="3.7117462478486565"><ele>188.2</ele><time>2026-04-12T07:58:55.987Z</time></trkpt><trkpt lat="43.61168573998029" lon="3.71162394453609"><ele>188.0</ele><time>2026-04-12T07:58:57.987Z</time></trkpt><trkpt lat="43.611767248381675" lon="3.7114961644435005"><ele>188.0</ele><time>2026-04-12T07:58:59.987Z</time></trkpt><trkpt lat="43.61180998200139" lon="3.7114292013695693"><ele>188.0</ele><time>2026-04-12T07:59:00.987Z</time></trkpt><trkpt lat="43.611916553678896" lon="3.7113191366944323"><ele>188.0</ele><time>2026-04-12T07:59:02.987Z</time></trkpt><trkpt lat="43.611964607182834" lon="3.7112515088741653"><ele>188.0</ele><time>2026-04-12T07:59:03.986Z</time></trkpt><trkpt lat="43.61201404891694" lon="3.711175708583544"><ele>188.0</ele><time>2026-04-12T07:59:04.986Z</time></trkpt><trkpt lat="43.61206432384393" lon="3.711101384209048"><ele>188.0</ele><time>2026-04-12T07:59:05.986Z</time></trkpt><trkpt lat="43.61211609929188" lon="3.7110143707258816"><ele>186.8</ele><time>2026-04-12T07:59:06.986Z</time></trkpt><trkpt lat="43.612171354281806" lon="3.710925332871384"><ele>185.60000000000002</ele><time>2026-04-12T07:59:07.986Z</time></trkpt><trkpt lat="43.61223285738754" lon="3.71085425719572"><ele>184.39999999999998</ele><time>2026-04-12T07:59:08.986Z</time></trkpt><trkpt lat="43.61228742070032" lon="3.7107879199366027"><ele>183.2</ele><time>2026-04-12T07:59:09.986Z</time></trkpt><trkpt lat="43.61237526589746" lon="3.7106425190776435"><ele>182.0</ele><time>2026-04-12T07:59:11.986Z</time></trkpt><trkpt lat="43.61246472894886" lon="3.7105239411921853"><ele>182.0</ele><time>2026-04-12T07:59:13.986Z</time></trkpt><trkpt lat="43.61250444124955" lon="3.710454186970557"><ele>182.0</ele><time>2026-04-12T07:59:14.986Z</time></trkpt><trkpt lat="43.61254620672587" lon="3.710377900898518"><ele>182.0</ele><time>2026-04-12T07:59:15.986Z</time></trkpt><trkpt lat="43.61259521644182" lon="3.7103082232065714"><ele>182.0</ele><time>2026-04-12T07:59:16.988Z</time></trkpt><trkpt lat="43.61264304073201" lon="3.7102357813469093"><ele>182.0</ele><time>2026-04-12T07:59:17.988Z</time></trkpt><trkpt lat="43.61271353859032" lon="3.7101227032941693"><ele>182.0</ele><time>2026-04-12T07:59:19.988Z</time></trkpt><trkpt lat="43.612770505807894" lon="3.7100789185359893"><ele>182.0</ele><time>2026-04-12T07:59:20.988Z</time></trkpt><trkpt lat="43.61281043393631" lon="3.7100104914076075"><ele>182.16666666666666</ele><time>2026-04-12T07:59:21.988Z</time></trkpt><trkpt lat="43.61285638203588" lon="3.709947431203849"><ele>182.33333333333331</ele><time>2026-04-12T07:59:22.988Z</time></trkpt><trkpt lat="43.61290885234902" lon="3.70989236463869"><ele>182.5</ele><time>2026-04-12T07:59:23.987Z</time></trkpt><trkpt lat="43.612976230725025" lon="3.7097703581637376"><ele>182.66666666666666</ele><time>2026-04-12T07:59:25.988Z</time></trkpt><trkpt lat="43.61302167386073" lon="3.7096888774204464"><ele>182.83333333333334</ele><time>2026-04-12T07:59:27.988Z</time></trkpt><trkpt lat="43.613078976896105" lon="3.709606452442071"><ele>183.0</ele><time>2026-04-12T07:59:29.988Z</time></trkpt><trkpt lat="43.61313768099682" lon="3.709516142387196"><ele>183.0</ele><time>2026-04-12T07:59:31.988Z</time></trkpt><trkpt lat="43.613197086635154" lon="3.7094419066275854"><ele>183.0</ele><time>2026-04-12T07:59:33.988Z</time></trkpt><trkpt lat="43.61323946692548" lon="3.709371675830705"><ele>183.0</ele><time>2026-04-12T07:59:35.988Z</time></trkpt><trkpt lat="43.61329671016767" lon="3.709292485028423"><ele>183.0</ele><time>2026-04-12T07:59:37.988Z</time></trkpt><trkpt lat="43.61335852544318" lon="3.7092200296255826"><ele>183.0</ele><time>2026-04-12T07:59:39.988Z</time></trkpt><trkpt lat="43.61339908649628" lon="3.7091102907412963"><ele>183.0</ele><time>2026-04-12T07:59:42.988Z</time></trkpt><trkpt lat="43.61346682279165" lon="3.709043264432958"><ele>182.66666666666666</ele><time>2026-04-12T07:59:45.988Z</time></trkpt><trkpt lat="43.6135311655286" lon="3.709000053462738"><ele>182.33333333333334</ele><time>2026-04-12T07:59:48.988Z</time></trkpt><trkpt lat="43.61354797889431" lon="3.7089145825348844"><ele>182.0</ele><time>2026-04-12T07:59:50.988Z</time></trkpt><trkpt lat="43.61360637309421" lon="3.7088164870086646"><ele>181.66666666666669</ele><time>2026-04-12T07:59:53.988Z</time></trkpt><trkpt lat="43.613675997766094" lon="3.708723820586559"><ele>181.33333333333334</ele><time>2026-04-12T07:59:56.988Z</time></trkpt><trkpt lat="43.613742930481386" lon="3.7086348102830167"><ele>181.0</ele><time>2026-04-12T07:59:59.988Z</time></trkpt><trkpt lat="43.61380595852837" lon="3.7085948242763043"><ele>182.14285714285714</ele><time>2026-04-12T08:00:01.988Z</time></trkpt><trkpt lat="43.613847270155766" lon="3.7085250049537426"><ele>183.28571428571428</ele><time>2026-04-12T08:00:03.988Z</time></trkpt><trkpt lat="43.613902008469736" lon="3.7084547815322035"><ele>184.42857142857144</ele><time>2026-04-12T08:00:05.988Z</time></trkpt><trkpt lat="43.61398852106983" lon="3.708458461219303"><ele>185.57142857142856</ele><time>2026-04-12T08:00:09.988Z</time></trkpt><trkpt lat="43.61404259818926" lon="3.7085251040480336"><ele>186.71428571428572</ele><time>2026-04-12T08:00:11.988Z</time></trkpt><trkpt lat="43.61410519643488" lon="3.708586500076334"><ele>187.85714285714286</ele><time>2026-04-12T08:00:13.988Z</time></trkpt><trkpt lat="43.61416417281586" lon="3.708623765538487"><ele>189.0</ele><time>2026-04-12T08:00:15.988Z</time></trkpt><trkpt lat="43.61424408301184" lon="3.708655267868057"><ele>189.0</ele><time>2026-04-12T08:00:18.988Z</time></trkpt><trkpt lat="43.614320750404616" lon="3.70866558281602"><ele>189.0</ele><time>2026-04-12T08:00:21.988Z</time></trkpt><trkpt lat="43.61439335877824" lon="3.708696584611683"><ele>189.0</ele><time>2026-04-12T08:00:24.988Z</time></trkpt><trkpt lat="43.61447009696643" lon="3.708712041747048"><ele>189.0</ele><time>2026-04-12T08:00:27.988Z</time></trkpt><trkpt lat="43.61454232146527" lon="3.7087293735856552"><ele>189.0</ele><time>2026-04-12T08:00:30.987Z</time></trkpt><trkpt lat="43.6146254080718" lon="3.7087416316824338"><ele>189.0</ele><time>2026-04-12T08:00:33.987Z</time></trkpt><trkpt lat="43.61470332207805" lon="3.708754500826204"><ele>189.33333333333334</ele><time>2026-04-12T08:00:36.987Z</time></trkpt><trkpt lat="43.61477029272258" lon="3.7087530730913283"><ele>189.66666666666666</ele><time>2026-04-12T08:00:39.987Z</time></trkpt><trkpt lat="43.61483241616975" lon="3.7087742210317014"><ele>190.0</ele><time>2026-04-12T08:00:41.987Z</time></trkpt><trkpt lat="43.614907971112395" lon="3.7088091421252427"><ele>190.33333333333331</ele><time>2026-04-12T08:00:44.987Z</time></trkpt><trkpt lat="43.61498391529832" lon="3.7088766410347644"><ele>190.66666666666666</ele><time>2026-04-12T08:00:47.987Z</time></trkpt><trkpt lat="43.61504480457995" lon="3.7089760018791185"><ele>191.0</ele><time>2026-04-12T08:00:50.987Z</time></trkpt><trkpt lat="43.615089929353296" lon="3.709056630139729"><ele>191.0</ele><time>2026-04-12T08:00:52.987Z</time></trkpt><trkpt lat="43.61510930828158" lon="3.709165498063753"><ele>191.0</ele><time>2026-04-12T08:00:54.987Z</time></trkpt><trkpt lat="43.61519252767309" lon="3.709171338184245"><ele>191.0</ele><time>2026-04-12T08:00:56.987Z</time></trkpt><trkpt lat="43.61527114620811" lon="3.709106687664471"><ele>191.0</ele><time>2026-04-12T08:00:58.987Z</time></trkpt><trkpt lat="43.6153254016802" lon="3.7090240255475737"><ele>191.0</ele><time>2026-04-12T08:01:00.987Z</time></trkpt><trkpt lat="43.61537143439926" lon="3.708947608051549"><ele>191.0</ele><time>2026-04-12T08:01:02.987Z</time></trkpt><trkpt lat="43.61541656800172" lon="3.708870275288491"><ele>190.66666666666666</ele><time>2026-04-12T08:01:04.987Z</time></trkpt><trkpt lat="43.615471724086305" lon="3.7087970962511907"><ele>190.33333333333331</ele><time>2026-04-12T08:01:06.987Z</time></trkpt><trkpt lat="43.61550775939677" lon="3.7087057307524853"><ele>190.0</ele><time>2026-04-12T08:01:08.987Z</time></trkpt><trkpt lat="43.61556101253257" lon="3.7086373260305012"><ele>189.66666666666666</ele><time>2026-04-12T08:01:10.987Z</time></trkpt><trkpt lat="43.6156373902399" lon="3.7085880532047657"><ele>189.33333333333334</ele><time>2026-04-12T08:01:12.987Z</time></trkpt><trkpt lat="43.615707381376" lon="3.708536360845228"><ele>189.0</ele><time>2026-04-12T08:01:14.987Z</time></trkpt><trkpt lat="43.61576093949461" lon="3.7084708406396407"><ele>189.0</ele><time>2026-04-12T08:01:16.987Z</time></trkpt><trkpt lat="43.61579664752727" lon="3.7083841870472423"><ele>189.0</ele><time>2026-04-12T08:01:18.987Z</time></trkpt><trkpt lat="43.61581099313348" lon="3.708276991136953"><ele>189.0</ele><time>2026-04-12T08:01:20.987Z</time></trkpt><trkpt lat="43.61581870839033" lon="3.708183136989288"><ele>189.0</ele><time>2026-04-12T08:01:22.988Z</time></trkpt><trkpt lat="43.615809760315955" lon="3.7080844233830916"><ele>189.0</ele><time>2026-04-12T08:01:24.988Z</time></trkpt><trkpt lat="43.61580387986055" lon="3.7079967114964125"><ele>189.0</ele><time>2026-04-12T08:01:26.988Z</time></trkpt><trkpt lat="43.61580922346532" lon="3.707875063890266"><ele>189.0</ele><time>2026-04-12T08:01:29.988Z</time></trkpt><trkpt lat="43.615835874158755" lon="3.7077466813148674"><ele>189.57142857142858</ele><time>2026-04-12T08:01:32.988Z</time></trkpt><trkpt lat="43.61586212833144" lon="3.707663893680149"><ele>190.14285714285714</ele><time>2026-04-12T08:01:34.988Z</time></trkpt><trkpt lat="43.61586921969539" lon="3.7075687466260954"><ele>190.71428571428572</ele><time>2026-04-12T08:01:36.988Z</time></trkpt><trkpt lat="43.61587311437043" lon="3.7074782626557665"><ele>191.28571428571428</ele><time>2026-04-12T08:01:38.988Z</time></trkpt><trkpt lat="43.61587900630436" lon="3.707385426245559"><ele>191.85714285714286</ele><time>2026-04-12T08:01:40.988Z</time></trkpt><trkpt lat="43.615885814987095" lon="3.7072872328344304"><ele>192.42857142857144</ele><time>2026-04-12T08:01:42.988Z</time></trkpt><trkpt lat="43.61588811951854" lon="3.707184336589764"><ele>193.0</ele><time>2026-04-12T08:01:44.988Z</time></trkpt><trkpt lat="43.61589791491722" lon="3.7070888817660017"><ele>193.00000000000003</ele><time>2026-04-12T08:01:46.988Z</time></trkpt><trkpt lat="43.61590384927815" lon="3.706994071230513"><ele>193.0</ele><time>2026-04-12T08:01:48.988Z</time></trkpt><trkpt lat="43.61592038915541" lon="3.70688986100586"><ele>193.0</ele><time>2026-04-12T08:01:50.988Z</time></trkpt><trkpt lat="43.61593341186042" lon="3.706793426073005"><ele>193.0</ele><time>2026-04-12T08:01:52.988Z</time></trkpt><trkpt lat="43.61594638552263" lon="3.706692432158968"><ele>193.0</ele><time>2026-04-12T08:01:54.988Z</time></trkpt><trkpt lat="43.61596056867328" lon="3.706583892715351"><ele>193.00000000000003</ele><time>2026-04-12T08:01:56.988Z</time></trkpt><trkpt lat="43.61596964877096" lon="3.706480489950479"><ele>193.0</ele><time>2026-04-12T08:01:58.988Z</time></trkpt><trkpt lat="43.61598697141363" lon="3.7063708329981733"><ele>192.66666666666666</ele><time>2026-04-12T08:02:00.988Z</time></trkpt><trkpt lat="43.61599964723088" lon="3.706251436125386"><ele>192.33333333333331</ele><time>2026-04-12T08:02:02.988Z</time></trkpt><trkpt lat="43.61601611202509" lon="3.706136393836369"><ele>192.0</ele><time>2026-04-12T08:02:04.988Z</time></trkpt><trkpt lat="43.61603244124421" lon="3.7060191982034008"><ele>191.66666666666666</ele><time>2026-04-12T08:02:06.988Z</time></trkpt><trkpt lat="43.61604516435616" lon="3.7058981317909656"><ele>191.33333333333331</ele><time>2026-04-12T08:02:08.988Z</time></trkpt><trkpt lat="43.61605557006753" lon="3.705772775060197"><ele>191.0</ele><time>2026-04-12T08:02:10.988Z</time></trkpt><trkpt lat="43.61607948713997" lon="3.7056507213604744"><ele>191.0</ele><time>2026-04-12T08:02:12.988Z</time></trkpt><trkpt lat="43.616125194673245" lon="3.7055492780239963"><ele>191.0</ele><time>2026-04-12T08:02:14.988Z</time></trkpt><trkpt lat="43.61619397932011" lon="3.7054976377572557"><ele>191.0</ele><time>2026-04-12T08:02:16.988Z</time></trkpt><trkpt lat="43.61627070103925" lon="3.705440474775248"><ele>191.0</ele><time>2026-04-12T08:02:18.988Z</time></trkpt><trkpt lat="43.61634530831976" lon="3.7053981599091346"><ele>191.0</ele><time>2026-04-12T08:02:20.988Z</time></trkpt><trkpt lat="43.61642147220754" lon="3.7053470429033406"><ele>191.0</ele><time>2026-04-12T08:02:22.988Z</time></trkpt><trkpt lat="43.61650660027203" lon="3.705321268331516"><ele>191.0</ele><time>2026-04-12T08:02:24.987Z</time></trkpt><trkpt lat="43.616586719528534" lon="3.7052803613250513"><ele>191.0</ele><time>2026-04-12T08:02:26.987Z</time></trkpt><trkpt lat="43.616661496968234" lon="3.7052395539497676"><ele>191.0</ele><time>2026-04-12T08:02:28.987Z</time></trkpt><trkpt lat="43.616733990202334" lon="3.7051980991743423"><ele>191.0</ele><time>2026-04-12T08:02:30.987Z</time></trkpt><trkpt lat="43.616808085009794" lon="3.705152823866425"><ele>191.0</ele><time>2026-04-12T08:02:32.987Z</time></trkpt><trkpt lat="43.61688848589121" lon="3.705116167133447"><ele>191.0</ele><time>2026-04-12T08:02:34.987Z</time></trkpt><trkpt lat="43.61696370043399" lon="3.705089027800282"><ele>191.33333333333331</ele><time>2026-04-12T08:02:36.987Z</time></trkpt><trkpt lat="43.617033685304094" lon="3.7050427506097128"><ele>191.66666666666666</ele><time>2026-04-12T08:02:38.987Z</time></trkpt><trkpt lat="43.61710262797241" lon="3.7049873719937043"><ele>192.0</ele><time>2026-04-12T08:02:40.987Z</time></trkpt><trkpt lat="43.61717024616065" lon="3.704935741652553"><ele>192.33333333333331</ele><time>2026-04-12T08:02:42.987Z</time></trkpt><trkpt lat="43.61723890817848" lon="3.7048721298907017"><ele>192.66666666666666</ele><time>2026-04-12T08:02:44.987Z</time></trkpt><trkpt lat="43.617313027884215" lon="3.7048352417381514"><ele>193.0</ele><time>2026-04-12T08:02:46.987Z</time></trkpt><trkpt lat="43.61738384674871" lon="3.7047942865306065"><ele>192.99999999999997</ele><time>2026-04-12T08:02:48.987Z</time></trkpt><trkpt lat="43.61745717043253" lon="3.704744773683341"><ele>193.0</ele><time>2026-04-12T08:02:50.987Z</time></trkpt><trkpt lat="43.617520022213526" lon="3.704688314014679"><ele>193.0</ele><time>2026-04-12T08:02:52.987Z</time></trkpt><trkpt lat="43.61759215845892" lon="3.7046456898422466"><ele>193.0</ele><time>2026-04-12T08:02:54.987Z</time></trkpt><trkpt lat="43.61766669206032" lon="3.70460415260212"><ele>192.99999999999997</ele><time>2026-04-12T08:02:56.987Z</time></trkpt><trkpt lat="43.61773703650964" lon="3.704547012536318"><ele>193.0</ele><time>2026-04-12T08:02:58.987Z</time></trkpt><trkpt lat="43.61781689433369" lon="3.7045018305403263"><ele>192.33333333333331</ele><time>2026-04-12T08:03:00.987Z</time></trkpt><trkpt lat="43.61789649170302" lon="3.70444953889788"><ele>191.66666666666666</ele><time>2026-04-12T08:03:02.987Z</time></trkpt><trkpt lat="43.617976256459976" lon="3.70438577444986"><ele>191.0</ele><time>2026-04-12T08:03:04.987Z</time></trkpt><trkpt lat="43.61805573390236" lon="3.704321967620385"><ele>190.33333333333331</ele><time>2026-04-12T08:03:06.987Z</time></trkpt><trkpt lat="43.6181080216858" lon="3.7042283406732857"><ele>189.66666666666666</ele><time>2026-04-12T08:03:08.987Z</time></trkpt><trkpt lat="43.61811918373745" lon="3.704115394517551"><ele>189.0</ele><time>2026-04-12T08:03:10.987Z</time></trkpt><trkpt lat="43.61811853996163" lon="3.7040203008677848"><ele>189.0</ele><time>2026-04-12T08:03:12.987Z</time></trkpt><trkpt lat="43.61812593551595" lon="3.70392270284114"><ele>189.0</ele><time>2026-04-12T08:03:14.987Z</time></trkpt><trkpt lat="43.6181341184345" lon="3.7038179622324514"><ele>189.0</ele><time>2026-04-12T08:03:16.987Z</time></trkpt><trkpt lat="43.618135585141275" lon="3.703713897584569"><ele>189.0</ele><time>2026-04-12T08:03:18.987Z</time></trkpt><trkpt lat="43.618148421749105" lon="3.7036236543041596"><ele>189.0</ele><time>2026-04-12T08:03:20.987Z</time></trkpt><trkpt lat="43.61816896134383" lon="3.7035227357295097"><ele>189.0</ele><time>2026-04-12T08:03:22.987Z</time></trkpt><trkpt lat="43.61817916414364" lon="3.703404024714682"><ele>189.16666666666666</ele><time>2026-04-12T08:03:24.987Z</time></trkpt><trkpt lat="43.618185686666735" lon="3.7032994253688587"><ele>189.33333333333334</ele><time>2026-04-12T08:03:26.987Z</time></trkpt><trkpt lat="43.61820200966845" lon="3.7031939901011066"><ele>189.5</ele><time>2026-04-12T08:03:28.988Z</time></trkpt><trkpt lat="43.61821928250443" lon="3.7030761563443506"><ele>189.66666666666669</ele><time>2026-04-12T08:03:30.988Z</time></trkpt><trkpt lat="43.61823006454098" lon="3.702962607078984"><ele>189.83333333333334</ele><time>2026-04-12T08:03:32.988Z</time></trkpt><trkpt lat="43.61825148525596" lon="3.702845535361922"><ele>190.0</ele><time>2026-04-12T08:03:34.988Z</time></trkpt><trkpt lat="43.61827482556678" lon="3.7027116979797565"><ele>190.0</ele><time>2026-04-12T08:03:36.988Z</time></trkpt><trkpt lat="43.61829379429322" lon="3.7025544908752237"><ele>190.0</ele><time>2026-04-12T08:03:38.988Z</time></trkpt><trkpt lat="43.618309054014" lon="3.7024016374725024"><ele>190.0</ele><time>2026-04-12T08:03:40.988Z</time></trkpt><trkpt lat="43.618330060713056" lon="3.702259575057674"><ele>190.0</ele><time>2026-04-12T08:03:42.988Z</time></trkpt><trkpt lat="43.61833794596296" lon="3.7021167272719286"><ele>190.0</ele><time>2026-04-12T08:03:44.988Z</time></trkpt><trkpt lat="43.61835334855856" lon="3.7019681069106594"><ele>189.6</ele><time>2026-04-12T08:03:46.988Z</time></trkpt><trkpt lat="43.618379615050614" lon="3.701826448193358"><ele>189.2</ele><time>2026-04-12T08:03:48.987Z</time></trkpt><trkpt lat="43.61847733003808" lon="3.701772841240786"><ele>188.8</ele><time>2026-04-12T08:03:50.987Z</time></trkpt><trkpt lat="43.61855082422938" lon="3.701664430395107"><ele>188.4</ele><time>2026-04-12T08:03:52.987Z</time></trkpt><trkpt lat="43.61858055996428" lon="3.7015826597281065"><ele>188.0</ele><time>2026-04-12T08:03:53.987Z</time></trkpt><trkpt lat="43.61863828227525" lon="3.701436683540629"><ele>187.14285714285714</ele><time>2026-04-12T08:03:55.987Z</time></trkpt><trkpt lat="43.61866651441178" lon="3.70135431721415"><ele>186.28571428571428</ele><time>2026-04-12T08:03:56.987Z</time></trkpt><trkpt lat="43.618705096939934" lon="3.7012742254789215"><ele>185.42857142857144</ele><time>2026-04-12T08:03:57.987Z</time></trkpt><trkpt lat="43.61874382776874" lon="3.701186664717952"><ele>184.57142857142856</ele><time>2026-04-12T08:03:58.987Z</time></trkpt><trkpt lat="43.61877976904665" lon="3.7011010039319907"><ele>183.71428571428572</ele><time>2026-04-12T08:03:59.987Z</time></trkpt><trkpt lat="43.61881847309734" lon="3.701012736985892"><ele>182.85714285714286</ele><time>2026-04-12T08:04:00.987Z</time></trkpt><trkpt lat="43.618856021893876" lon="3.7009239230164237"><ele>182.0</ele><time>2026-04-12T08:04:01.987Z</time></trkpt><trkpt lat="43.61889141926403" lon="3.700827893108081"><ele>181.5</ele><time>2026-04-12T08:04:02.987Z</time></trkpt><trkpt lat="43.61893501600645" lon="3.7007380222379034"><ele>181.0</ele><time>2026-04-12T08:04:03.987Z</time></trkpt><trkpt lat="43.61898912816767" lon="3.7006567322729578"><ele>180.5</ele><time>2026-04-12T08:04:04.987Z</time></trkpt><trkpt lat="43.61904651368869" lon="3.7005793561907074"><ele>180.0</ele><time>2026-04-12T08:04:05.987Z</time></trkpt><trkpt lat="43.61907330989604" lon="3.700476776398526"><ele>179.5</ele><time>2026-04-12T08:04:06.987Z</time></trkpt><trkpt lat="43.61908289114215" lon="3.7003742623697127"><ele>179.0</ele><time>2026-04-12T08:04:07.987Z</time></trkpt><trkpt lat="43.619096788984" lon="3.7002868692388833"><ele>178.83333333333331</ele><time>2026-04-12T08:04:08.987Z</time></trkpt><trkpt lat="43.619121158337514" lon="3.700197851012587"><ele>178.66666666666666</ele><time>2026-04-12T08:04:10.987Z</time></trkpt><trkpt lat="43.619176029151916" lon="3.7001224531421695"><ele>178.5</ele><time>2026-04-12T08:04:12.987Z</time></trkpt><trkpt lat="43.61921024097799" lon="3.6999989734781327"><ele>178.33333333333334</ele><time>2026-04-12T08:04:14.987Z</time></trkpt><trkpt lat="43.619252791827165" lon="3.699903122176891"><ele>178.16666666666669</ele><time>2026-04-12T08:04:16.987Z</time></trkpt><trkpt lat="43.61931368847741" lon="3.6998418999914064"><ele>178.0</ele><time>2026-04-12T08:04:18.987Z</time></trkpt><trkpt lat="43.619379405745555" lon="3.6998307799456085"><ele>178.0</ele><time>2026-04-12T08:04:20.987Z</time></trkpt><trkpt lat="43.61944638074762" lon="3.6998566173392784"><ele>178.0</ele><time>2026-04-12T08:04:22.987Z</time></trkpt><trkpt lat="43.619524644842166" lon="3.69990817547686"><ele>178.0</ele><time>2026-04-12T08:04:24.987Z</time></trkpt><trkpt lat="43.61959993553269" lon="3.6999547957366365"><ele>178.0</ele><time>2026-04-12T08:04:26.987Z</time></trkpt><trkpt lat="43.61969212008156" lon="3.7000171660967736"><ele>178.0</ele><time>2026-04-12T08:04:28.987Z</time></trkpt><trkpt lat="43.619787289048304" lon="3.7001040165006867"><ele>177.60000000000002</ele><time>2026-04-12T08:04:30.987Z</time></trkpt><trkpt lat="43.6198887655998" lon="3.700175211132197"><ele>177.20000000000002</ele><time>2026-04-12T08:04:32.987Z</time></trkpt><trkpt lat="43.61997144674902" lon="3.700290623295336"><ele>176.8</ele><time>2026-04-12T08:04:34.987Z</time></trkpt><trkpt lat="43.62005518803185" lon="3.7003584419350664"><ele>176.4</ele><time>2026-04-12T08:04:36.987Z</time></trkpt><trkpt lat="43.62016610130024" lon="3.700404554001571"><ele>176.0</ele><time>2026-04-12T08:04:38.987Z</time></trkpt><trkpt lat="43.62028354530322" lon="3.7003925666423827"><ele>175.5</ele><time>2026-04-12T08:04:40.987Z</time></trkpt><trkpt lat="43.6204037777647" lon="3.700347887059806"><ele>175.0</ele><time>2026-04-12T08:04:42.987Z</time></trkpt><trkpt lat="43.62051466616052" lon="3.7002852359081446"><ele>174.5</ele><time>2026-04-12T08:04:44.987Z</time></trkpt><trkpt lat="43.620633380913404" lon="3.7002423223720182"><ele>174.0</ele><time>2026-04-12T08:04:46.987Z</time></trkpt><trkpt lat="43.62075691451639" lon="3.700214423916188"><ele>173.42857142857142</ele><time>2026-04-12T08:04:48.987Z</time></trkpt><trkpt lat="43.62082019108444" lon="3.700198718709587"><ele>172.85714285714286</ele><time>2026-04-12T08:04:49.987Z</time></trkpt><trkpt lat="43.62088495600847" lon="3.7001746271283285"><ele>172.28571428571428</ele><time>2026-04-12T08:04:50.987Z</time></trkpt><trkpt lat="43.620947180316506" lon="3.700158620601748"><ele>171.71428571428572</ele><time>2026-04-12T08:04:51.987Z</time></trkpt><trkpt lat="43.62101297438849" lon="3.700139125068619"><ele>171.14285714285714</ele><time>2026-04-12T08:04:52.987Z</time></trkpt><trkpt lat="43.62107889103708" lon="3.700120769826948"><ele>170.57142857142858</ele><time>2026-04-12T08:04:53.987Z</time></trkpt><trkpt lat="43.62114912602664" lon="3.7001007745639707"><ele>170.0</ele><time>2026-04-12T08:04:54.987Z</time></trkpt><trkpt lat="43.62121170686811" lon="3.700065529839689"><ele>169.66666666666666</ele><time>2026-04-12T08:04:55.987Z</time></trkpt><trkpt lat="43.62132431561703" lon="3.6999865265240834"><ele>169.33333333333331</ele><time>2026-04-12T08:04:57.987Z</time></trkpt><trkpt lat="43.62139499850821" lon="3.6999660765815605"><ele>169.0</ele><time>2026-04-12T08:04:58.987Z</time></trkpt><trkpt lat="43.621457236210446" lon="3.699933704331912"><ele>168.66666666666666</ele><time>2026-04-12T08:04:59.987Z</time></trkpt><trkpt lat="43.62152028360726" lon="3.6999104791099042"><ele>168.33333333333334</ele><time>2026-04-12T08:05:00.986Z</time></trkpt><trkpt lat="43.62158754058767" lon="3.699888050244024"><ele>168.0</ele><time>2026-04-12T08:05:01.986Z</time></trkpt><trkpt lat="43.62165599807921" lon="3.6998539419751824"><ele>168.0</ele><time>2026-04-12T08:05:02.986Z</time></trkpt><trkpt lat="43.6217284807351" lon="3.699828516602334"><ele>168.0</ele><time>2026-04-12T08:05:03.986Z</time></trkpt><trkpt lat="43.62179680123906" lon="3.699791102069567"><ele>168.0</ele><time>2026-04-12T08:05:04.986Z</time></trkpt><trkpt lat="43.62187464281983" lon="3.699767828367757"><ele>168.0</ele><time>2026-04-12T08:05:05.986Z</time></trkpt><trkpt lat="43.621945808477975" lon="3.6997406975650735"><ele>168.0</ele><time>2026-04-12T08:05:06.986Z</time></trkpt><trkpt lat="43.62202314421308" lon="3.6997086166145117"><ele>168.0</ele><time>2026-04-12T08:05:07.986Z</time></trkpt><trkpt lat="43.62209976064111" lon="3.6996809909748016"><ele>167.57142857142858</ele><time>2026-04-12T08:05:08.986Z</time></trkpt><trkpt lat="43.622166739199834" lon="3.699644260121344"><ele>167.14285714285714</ele><time>2026-04-12T08:05:09.986Z</time></trkpt><trkpt lat="43.62223998823204" lon="3.699603731690398"><ele>166.71428571428572</ele><time>2026-04-12T08:05:10.986Z</time></trkpt><trkpt lat="43.62230968518606" lon="3.6995744369634185"><ele>166.28571428571428</ele><time>2026-04-12T08:05:11.986Z</time></trkpt><trkpt lat="43.62237869359305" lon="3.699544761434793"><ele>165.85714285714286</ele><time>2026-04-12T08:05:12.986Z</time></trkpt><trkpt lat="43.62244632691796" lon="3.699511620057228"><ele>165.42857142857144</ele><time>2026-04-12T08:05:13.986Z</time></trkpt><trkpt lat="43.6225157310634" lon="3.6994917263236013"><ele>165.0</ele><time>2026-04-12T08:05:14.986Z</time></trkpt><trkpt lat="43.62257710639422" lon="3.6994401792951086"><ele>164.16666666666666</ele><time>2026-04-12T08:05:15.986Z</time></trkpt><trkpt lat="43.62262702699422" lon="3.6993778630122627"><ele>163.33333333333334</ele><time>2026-04-12T08:05:16.986Z</time></trkpt><trkpt lat="43.62269253410015" lon="3.6993651405142454"><ele>162.5</ele><time>2026-04-12T08:05:17.986Z</time></trkpt><trkpt lat="43.6228045651251" lon="3.699316532466759"><ele>161.66666666666669</ele><time>2026-04-12T08:05:19.986Z</time></trkpt><trkpt lat="43.62286901914752" lon="3.6992901069036797"><ele>160.83333333333334</ele><time>2026-04-12T08:05:20.986Z</time></trkpt><trkpt lat="43.62297973529205" lon="3.699239100612768"><ele>160.0</ele><time>2026-04-12T08:05:22.986Z</time></trkpt><trkpt lat="43.6230425115039" lon="3.6992319255994874"><ele>159.8</ele><time>2026-04-12T08:05:23.986Z</time></trkpt><trkpt lat="43.62315707379632" lon="3.699203874349275"><ele>159.6</ele><time>2026-04-12T08:05:25.986Z</time></trkpt><trkpt lat="43.623276278653556" lon="3.699192968504856"><ele>159.4</ele><time>2026-04-12T08:05:27.986Z</time></trkpt><trkpt lat="43.6234060110841" lon="3.6991981370839873"><ele>159.2</ele><time>2026-04-12T08:05:29.986Z</time></trkpt><trkpt lat="43.62347786737221" lon="3.6991944275810935"><ele>159.0</ele><time>2026-04-12T08:05:30.986Z</time></trkpt><trkpt lat="43.623596250840535" lon="3.699147722606651"><ele>158.5</ele><time>2026-04-12T08:05:32.986Z</time></trkpt><trkpt lat="43.623662112747375" lon="3.6991097452868082"><ele>158.0</ele><time>2026-04-12T08:05:33.986Z</time></trkpt><trkpt lat="43.62372929876618" lon="3.699057919368372"><ele>157.5</ele><time>2026-04-12T08:05:34.988Z</time></trkpt><trkpt lat="43.623803024689735" lon="3.6990020387191893"><ele>157.0</ele><time>2026-04-12T08:05:35.988Z</time></trkpt><trkpt lat="43.623875827183895" lon="3.698964015907272"><ele>156.5</ele><time>2026-04-12T08:05:36.988Z</time></trkpt><trkpt lat="43.62395444660473" lon="3.698940273377918"><ele>156.0</ele><time>2026-04-12T08:05:37.988Z</time></trkpt><trkpt lat="43.6240376919977" lon="3.698930698037811"><ele>156.0</ele><time>2026-04-12T08:05:38.987Z</time></trkpt><trkpt lat="43.62412088033578" lon="3.6988964950309176"><ele>156.0</ele><time>2026-04-12T08:05:39.987Z</time></trkpt><trkpt lat="43.62419701817255" lon="3.6988583307550407"><ele>156.0</ele><time>2026-04-12T08:05:40.987Z</time></trkpt><trkpt lat="43.62427679871736" lon="3.6988147953729156"><ele>156.0</ele><time>2026-04-12T08:05:41.988Z</time></trkpt><trkpt lat="43.624358231814135" lon="3.698781782378111"><ele>156.0</ele><time>2026-04-12T08:05:42.988Z</time></trkpt><trkpt lat="43.62443343855932" lon="3.698746520238488"><ele>156.0</ele><time>2026-04-12T08:05:43.988Z</time></trkpt><trkpt lat="43.624524313471454" lon="3.698746580103028"><ele>155.83333333333334</ele><time>2026-04-12T08:05:44.988Z</time></trkpt><trkpt lat="43.624587875829725" lon="3.698778505168036"><ele>155.66666666666666</ele><time>2026-04-12T08:05:45.988Z</time></trkpt><trkpt lat="43.62466181891589" lon="3.698840060781712"><ele>155.5</ele><time>2026-04-12T08:05:46.987Z</time></trkpt><trkpt lat="43.624732809621975" lon="3.6988754259187475"><ele>155.33333333333331</ele><time>2026-04-12T08:05:47.988Z</time></trkpt><trkpt lat="43.624831026301415" lon="3.6988927766349233"><ele>155.16666666666666</ele><time>2026-04-12T08:05:49.988Z</time></trkpt><trkpt lat="43.6248737467978" lon="3.698813561180561"><ele>155.0</ele><time>2026-04-12T08:05:51.987Z</time></trkpt><trkpt lat="43.624911903717866" lon="3.6987099782312787"><ele>155.0</ele><time>2026-04-12T08:05:53.987Z</time></trkpt><trkpt lat="43.62495226362498" lon="3.698640070113926"><ele>155.0</ele><time>2026-04-12T08:05:55.987Z</time></trkpt><trkpt lat="43.62500112512624" lon="3.698581038558764"><ele>155.0</ele><time>2026-04-12T08:05:57.987Z</time></trkpt><trkpt lat="43.625054613541636" lon="3.698520757640029"><ele>155.0</ele><time>2026-04-12T08:05:59.987Z</time></trkpt><trkpt lat="43.62510201230711" lon="3.6984577134390353"><ele>155.0</ele><time>2026-04-12T08:06:01.987Z</time></trkpt><trkpt lat="43.6251411002833" lon="3.6983733985059115"><ele>155.0</ele><time>2026-04-12T08:06:03.987Z</time></trkpt><trkpt lat="43.62519122712816" lon="3.6982978725841384"><ele>155.0</ele><time>2026-04-12T08:06:05.987Z</time></trkpt><trkpt lat="43.62524016176528" lon="3.69822132684069"><ele>154.16666666666666</ele><time>2026-04-12T08:06:07.987Z</time></trkpt><trkpt lat="43.62528840911244" lon="3.6981467954996425"><ele>153.33333333333331</ele><time>2026-04-12T08:06:09.987Z</time></trkpt><trkpt lat="43.625367461091635" lon="3.6980740474583635"><ele>152.5</ele><time>2026-04-12T08:06:11.987Z</time></trkpt><trkpt lat="43.6254287276124" lon="3.69799951078567"><ele>151.66666666666666</ele><time>2026-04-12T08:06:13.987Z</time></trkpt><trkpt lat="43.62549438486435" lon="3.6979174431965496"><ele>150.83333333333334</ele><time>2026-04-12T08:06:15.987Z</time></trkpt><trkpt lat="43.625567352309545" lon="3.697847087748668"><ele>150.0</ele><time>2026-04-12T08:06:17.987Z</time></trkpt><trkpt lat="43.62563593767474" lon="3.697772383763854"><ele>149.2</ele><time>2026-04-12T08:06:19.987Z</time></trkpt><trkpt lat="43.625709787343276" lon="3.6976976350692468"><ele>148.4</ele><time>2026-04-12T08:06:21.987Z</time></trkpt><trkpt lat="43.6257855378346" lon="3.6976384576270194"><ele>147.6</ele><time>2026-04-12T08:06:23.987Z</time></trkpt><trkpt lat="43.62586265743526" lon="3.6975846003227613"><ele>146.8</ele><time>2026-04-12T08:06:25.987Z</time></trkpt><trkpt lat="43.62594132340008" lon="3.6975256984899594"><ele>146.0</ele><time>2026-04-12T08:06:27.987Z</time></trkpt><trkpt lat="43.626021577206565" lon="3.697453446218765"><ele>146.0</ele><time>2026-04-12T08:06:29.987Z</time></trkpt><trkpt lat="43.62611469149424" lon="3.6973820190471405"><ele>146.0</ele><time>2026-04-12T08:06:31.987Z</time></trkpt><trkpt lat="43.626210853082675" lon="3.6973125022629576"><ele>146.0</ele><time>2026-04-12T08:06:33.987Z</time></trkpt><trkpt lat="43.62629792915788" lon="3.6972290261054437"><ele>146.0</ele><time>2026-04-12T08:06:35.987Z</time></trkpt><trkpt lat="43.626395033095605" lon="3.697157413100357"><ele>146.0</ele><time>2026-04-12T08:06:37.987Z</time></trkpt><trkpt lat="43.62645530853878" lon="3.6971068968177327"><ele>145.6</ele><time>2026-04-12T08:06:38.987Z</time></trkpt><trkpt lat="43.62655527594675" lon="3.6970277772607174"><ele>145.2</ele><time>2026-04-12T08:06:40.987Z</time></trkpt><trkpt lat="43.62666368063776" lon="3.696943912415781"><ele>144.8</ele><time>2026-04-12T08:06:42.987Z</time></trkpt><trkpt lat="43.62672010476077" lon="3.69690069067449"><ele>144.4</ele><time>2026-04-12T08:06:43.987Z</time></trkpt><trkpt lat="43.62681183412343" lon="3.6968030455776435"><ele>144.0</ele><time>2026-04-12T08:06:45.987Z</time></trkpt><trkpt lat="43.626889790096335" lon="3.6967231256553115"><ele>143.5</ele><time>2026-04-12T08:06:47.987Z</time></trkpt><trkpt lat="43.62697640728042" lon="3.6966635097620824"><ele>143.0</ele><time>2026-04-12T08:06:49.987Z</time></trkpt><trkpt lat="43.627056392832685" lon="3.6967197727277177"><ele>142.5</ele><time>2026-04-12T08:06:51.987Z</time></trkpt><trkpt lat="43.62710375064608" lon="3.6967885051789464"><ele>142.0</ele><time>2026-04-12T08:06:53.987Z</time></trkpt><trkpt lat="43.62711596433638" lon="3.696914483758543"><ele>141.5</ele><time>2026-04-12T08:06:56.987Z</time></trkpt><trkpt lat="43.62712096730837" lon="3.6970508674228415"><ele>141.0</ele><time>2026-04-12T08:06:59.987Z</time></trkpt><trkpt lat="43.627104173673914" lon="3.6971759989523814"><ele>140.83333333333334</ele><time>2026-04-12T08:07:01.987Z</time></trkpt><trkpt lat="43.627100236351545" lon="3.697284349669205"><ele>140.66666666666666</ele><time>2026-04-12T08:07:03.986Z</time></trkpt><trkpt lat="43.62709953220249" lon="3.6974020012739643"><ele>140.5</ele><time>2026-04-12T08:07:05.986Z</time></trkpt><trkpt lat="43.627095933157534" lon="3.6975160344482654"><ele>140.33333333333331</ele><time>2026-04-12T08:07:07.986Z</time></trkpt><trkpt lat="43.62709340923236" lon="3.697621807751575"><ele>140.16666666666666</ele><time>2026-04-12T08:07:09.986Z</time></trkpt><trkpt lat="43.627106988373946" lon="3.6977322016587557"><ele>140.0</ele><time>2026-04-12T08:07:11.986Z</time></trkpt><trkpt lat="43.62711455682739" lon="3.6978304799731947"><ele>139.83333333333331</ele><time>2026-04-12T08:07:13.986Z</time></trkpt><trkpt lat="43.62711358375399" lon="3.6979324295898786"><ele>139.66666666666666</ele><time>2026-04-12T08:07:15.986Z</time></trkpt><trkpt lat="43.627113997532526" lon="3.6980380726126145"><ele>139.5</ele><time>2026-04-12T08:07:17.986Z</time></trkpt><trkpt lat="43.62711664484259" lon="3.698140066329755"><ele>139.33333333333334</ele><time>2026-04-12T08:07:19.986Z</time></trkpt><trkpt lat="43.627125549079814" lon="3.698251976583127"><ele>139.16666666666669</ele><time>2026-04-12T08:07:21.986Z</time></trkpt><trkpt lat="43.62714644686113" lon="3.698373327509383"><ele>139.0</ele><time>2026-04-12T08:07:23.986Z</time></trkpt><trkpt lat="43.62714062082274" lon="3.6985009186430426"><ele>139.2</ele><time>2026-04-12T08:07:25.986Z</time></trkpt><trkpt lat="43.62716309124089" lon="3.698621114031655"><ele>139.4</ele><time>2026-04-12T08:07:27.986Z</time></trkpt><trkpt lat="43.6271841989346" lon="3.698736787847698"><ele>139.6</ele><time>2026-04-12T08:07:29.986Z</time></trkpt><trkpt lat="43.62720281913513" lon="3.698856211968011"><ele>139.8</ele><time>2026-04-12T08:07:31.986Z</time></trkpt><trkpt lat="43.62720863032476" lon="3.6989881597818166"><ele>140.0</ele><time>2026-04-12T08:07:33.986Z</time></trkpt><trkpt lat="43.627208033373684" lon="3.6991120143933967"><ele>140.0</ele><time>2026-04-12T08:07:35.986Z</time></trkpt><trkpt lat="43.62721584674249" lon="3.6992152166037195"><ele>140.0</ele><time>2026-04-12T08:07:37.986Z</time></trkpt><trkpt lat="43.627218365469965" lon="3.6993331753533174"><ele>140.0</ele><time>2026-04-12T08:07:39.986Z</time></trkpt><trkpt lat="43.62721502510202" lon="3.6994418597931156"><ele>140.0</ele><time>2026-04-12T08:07:41.988Z</time></trkpt><trkpt lat="43.627214132998546" lon="3.6995531224733638"><ele>140.0</ele><time>2026-04-12T08:07:43.988Z</time></trkpt><trkpt lat="43.627203536678955" lon="3.699663913640552"><ele>140.0</ele><time>2026-04-12T08:07:45.988Z</time></trkpt><trkpt lat="43.627185884076404" lon="3.6997588301231326"><ele>140.33333333333331</ele><time>2026-04-12T08:07:47.988Z</time></trkpt><trkpt lat="43.62718166232515" lon="3.6998782407191575"><ele>140.66666666666666</ele><time>2026-04-12T08:07:49.988Z</time></trkpt><trkpt lat="43.62719879598429" lon="3.6999801355994304"><ele>141.0</ele><time>2026-04-12T08:07:51.988Z</time></trkpt><trkpt lat="43.627203884661" lon="3.700078456185997"><ele>141.33333333333334</ele><time>2026-04-12T08:07:53.988Z</time></trkpt><trkpt lat="43.62722140168763" lon="3.700218137551397"><ele>141.66666666666669</ele><time>2026-04-12T08:07:55.987Z</time></trkpt><trkpt lat="43.627230201361435" lon="3.7003323645620916"><ele>142.0</ele><time>2026-04-12T08:07:57.987Z</time></trkpt><trkpt lat="43.62724069535581" lon="3.700454827434547"><ele>142.0</ele><time>2026-04-12T08:07:59.987Z</time></trkpt><trkpt lat="43.62722717110605" lon="3.700571431824755"><ele>142.0</ele><time>2026-04-12T08:08:01.987Z</time></trkpt><trkpt lat="43.627222748267094" lon="3.7006960800960824"><ele>142.0</ele><time>2026-04-12T08:08:03.987Z</time></trkpt><trkpt lat="43.62722242959449" lon="3.7008309223006433"><ele>142.0</ele><time>2026-04-12T08:08:05.987Z</time></trkpt><trkpt lat="43.6272099140732" lon="3.700958047476202"><ele>142.0</ele><time>2026-04-12T08:08:07.987Z</time></trkpt><trkpt lat="43.62720013063442" lon="3.7010876891103224"><ele>142.16666666666669</ele><time>2026-04-12T08:08:09.987Z</time></trkpt><trkpt lat="43.62720495703188" lon="3.7012082031580023"><ele>142.33333333333334</ele><time>2026-04-12T08:08:11.987Z</time></trkpt><trkpt lat="43.62720091270165" lon="3.701314092181806"><ele>142.5</ele><time>2026-04-12T08:08:13.987Z</time></trkpt><trkpt lat="43.62720381978496" lon="3.701425070230555"><ele>142.66666666666666</ele><time>2026-04-12T08:08:15.987Z</time></trkpt><trkpt lat="43.627208233980824" lon="3.7015179101087488"><ele>142.83333333333331</ele><time>2026-04-12T08:08:17.987Z</time></trkpt><trkpt lat="43.62721680651303" lon="3.70163407335896"><ele>143.0</ele><time>2026-04-12T08:08:19.987Z</time></trkpt><trkpt lat="43.627212565689774" lon="3.7017549828624285"><ele>143.0</ele><time>2026-04-12T08:08:21.987Z</time></trkpt><trkpt lat="43.627224457550525" lon="3.701871773357736"><ele>143.0</ele><time>2026-04-12T08:08:23.987Z</time></trkpt><trkpt lat="43.62724321971752" lon="3.701983785036442"><ele>143.0</ele><time>2026-04-12T08:08:25.987Z</time></trkpt><trkpt lat="43.62722669512467" lon="3.7021293819952263"><ele>143.0</ele><time>2026-04-12T08:08:27.987Z</time></trkpt><trkpt lat="43.627191840311546" lon="3.7022478309865585"><ele>143.0</ele><time>2026-04-12T08:08:29.987Z</time></trkpt><trkpt lat="43.62717817330433" lon="3.702390935096304"><ele>142.8</ele><time>2026-04-12T08:08:31.987Z</time></trkpt><trkpt lat="43.6271672373152" lon="3.702536437285651"><ele>142.60000000000002</ele><time>2026-04-12T08:08:33.987Z</time></trkpt><trkpt lat="43.62715396305781" lon="3.702683591090003"><ele>142.39999999999998</ele><time>2026-04-12T08:08:35.987Z</time></trkpt><trkpt lat="43.62715996263594" lon="3.7028283577640106"><ele>142.2</ele><time>2026-04-12T08:08:37.987Z</time></trkpt><trkpt lat="43.62714183770761" lon="3.702952581673341"><ele>142.0</ele><time>2026-04-12T08:08:39.987Z</time></trkpt><trkpt lat="43.62715052278072" lon="3.703111520016313"><ele>142.4</ele><time>2026-04-12T08:08:41.987Z</time></trkpt><trkpt lat="43.627141413980915" lon="3.7032173034711664"><ele>142.79999999999998</ele><time>2026-04-12T08:08:43.987Z</time></trkpt><trkpt lat="43.62711966220136" lon="3.7033569006002396"><ele>143.2</ele><time>2026-04-12T08:08:45.987Z</time></trkpt><trkpt lat="43.62712502671965" lon="3.7034838243095862"><ele>143.6</ele><time>2026-04-12T08:08:47.987Z</time></trkpt><trkpt lat="43.62710711906216" lon="3.7036065551555284"><ele>144.0</ele><time>2026-04-12T08:08:49.987Z</time></trkpt><trkpt lat="43.627083203945304" lon="3.7037365449706434"><ele>144.66666666666666</ele><time>2026-04-12T08:08:51.987Z</time></trkpt><trkpt lat="43.627076874865224" lon="3.7038709088555364"><ele>145.33333333333334</ele><time>2026-04-12T08:08:53.987Z</time></trkpt><trkpt lat="43.627066709612464" lon="3.703976727658239"><ele>146.0</ele><time>2026-04-12T08:08:55.987Z</time></trkpt><trkpt lat="43.62703969485553" lon="3.7040872731462406"><ele>146.66666666666669</ele><time>2026-04-12T08:08:57.987Z</time></trkpt><trkpt lat="43.62700018868995" lon="3.7041768710606453"><ele>147.33333333333334</ele><time>2026-04-12T08:08:59.987Z</time></trkpt><trkpt lat="43.62693645634676" lon="3.70427112439883"><ele>148.0</ele><time>2026-04-12T08:09:01.987Z</time></trkpt><trkpt lat="43.626895192161214" lon="3.704363138515206"><ele>148.28571428571428</ele><time>2026-04-12T08:09:03.987Z</time></trkpt><trkpt lat="43.62686608600465" lon="3.7044429771827354"><ele>148.57142857142856</ele><time>2026-04-12T08:09:05.987Z</time></trkpt><trkpt lat="43.62686514561709" lon="3.704531243366979"><ele>148.85714285714283</ele><time>2026-04-12T08:09:08.986Z</time></trkpt><trkpt lat="43.62691297153348" lon="3.704591713020304"><ele>149.14285714285714</ele><time>2026-04-12T08:09:35.986Z</time></trkpt><trkpt lat="43.62699106827785" lon="3.704567962344905"><ele>149.42857142857142</ele><time>2026-04-12T08:09:37.986Z</time></trkpt><trkpt lat="43.62705121176958" lon="3.7045304576675506"><ele>149.7142857142857</ele><time>2026-04-12T08:09:39.986Z</time></trkpt><trkpt lat="43.62710776709767" lon="3.7044850482893823"><ele>150.0</ele><time>2026-04-12T08:09:41.986Z</time></trkpt><trkpt lat="43.62717270334607" lon="3.7044502199691385"><ele>150.0</ele><time>2026-04-12T08:09:43.986Z</time></trkpt><trkpt lat="43.62724469688062" lon="3.704413427223322"><ele>150.0</ele><time>2026-04-12T08:09:45.986Z</time></trkpt><trkpt lat="43.62731193602945" lon="3.7043637710258475"><ele>150.0</ele><time>2026-04-12T08:09:47.988Z</time></trkpt><trkpt lat="43.627374442787946" lon="3.704317126049177"><ele>150.0</ele><time>2026-04-12T08:09:49.989Z</time></trkpt><trkpt lat="43.62744759034708" lon="3.7042824733387802"><ele>150.0</ele><time>2026-04-12T08:09:51.988Z</time></trkpt><trkpt lat="43.627514244170435" lon="3.7042360212918193"><ele>150.0</ele><time>2026-04-12T08:09:53.988Z</time></trkpt><trkpt lat="43.6275868345874" lon="3.7041949852785927"><ele>149.66666666666666</ele><time>2026-04-12T08:09:55.988Z</time></trkpt><trkpt lat="43.6276543638544" lon="3.7041506713140464"><ele>149.33333333333334</ele><time>2026-04-12T08:09:57.988Z</time></trkpt><trkpt lat="43.6277331881502" lon="3.704093731388138"><ele>149.0</ele><time>2026-04-12T08:09:59.988Z</time></trkpt><trkpt lat="43.627810091440416" lon="3.704050511054978"><ele>148.66666666666669</ele><time>2026-04-12T08:10:01.988Z</time></trkpt><trkpt lat="43.627882655462926" lon="3.704002196691219"><ele>148.33333333333334</ele><time>2026-04-12T08:10:03.988Z</time></trkpt><trkpt lat="43.62795722339239" lon="3.7039534240813934"><ele>148.0</ele><time>2026-04-12T08:10:05.988Z</time></trkpt><trkpt lat="43.62804272487994" lon="3.7039033344080172"><ele>147.8</ele><time>2026-04-12T08:10:07.988Z</time></trkpt><trkpt lat="43.62812678597979" lon="3.703845397428259"><ele>147.60000000000002</ele><time>2026-04-12T08:10:09.988Z</time></trkpt><trkpt lat="43.62821547980751" lon="3.7037924102847746"><ele>147.39999999999998</ele><time>2026-04-12T08:10:11.988Z</time></trkpt><trkpt lat="43.6283090998734" lon="3.703733269635952"><ele>147.2</ele><time>2026-04-12T08:10:13.988Z</time></trkpt><trkpt lat="43.628404592388364" lon="3.7036700145943295"><ele>147.0</ele><time>2026-04-12T08:10:15.988Z</time></trkpt><trkpt lat="43.62850701065818" lon="3.703609662282261"><ele>146.33333333333334</ele><time>2026-04-12T08:10:17.988Z</time></trkpt><trkpt lat="43.62862633714673" lon="3.7035436198048797"><ele>145.66666666666666</ele><time>2026-04-12T08:10:19.988Z</time></trkpt><trkpt lat="43.62868861686025" lon="3.7035133318451434"><ele>145.0</ele><time>2026-04-12T08:10:20.988Z</time></trkpt><trkpt lat="43.628749530709264" lon="3.7034819524824294"><ele>144.33333333333331</ele><time>2026-04-12T08:10:21.988Z</time></trkpt><trkpt lat="43.628815694925635" lon="3.70345027377935"><ele>143.66666666666666</ele><time>2026-04-12T08:10:22.988Z</time></trkpt><trkpt lat="43.62888772562035" lon="3.703417267092043"><ele>143.0</ele><time>2026-04-12T08:10:23.988Z</time></trkpt><trkpt lat="43.62895682410071" lon="3.7033863137334895"><ele>142.66666666666666</ele><time>2026-04-12T08:10:24.988Z</time></trkpt><trkpt lat="43.62903069553326" lon="3.7033577078798814"><ele>142.33333333333331</ele><time>2026-04-12T08:10:25.988Z</time></trkpt><trkpt lat="43.629108753402186" lon="3.703325801901187"><ele>142.0</ele><time>2026-04-12T08:10:26.988Z</time></trkpt><trkpt lat="43.62918975596017" lon="3.703301927344063"><ele>141.66666666666666</ele><time>2026-04-12T08:10:27.988Z</time></trkpt><trkpt lat="43.62926903850301" lon="3.70327383258716"><ele>141.33333333333334</ele><time>2026-04-12T08:10:28.988Z</time></trkpt><trkpt lat="43.62935851603692" lon="3.7032463442614105"><ele>141.0</ele><time>2026-04-12T08:10:29.988Z</time></trkpt><trkpt lat="43.62943944287943" lon="3.703218213104466"><ele>140.2</ele><time>2026-04-12T08:10:30.987Z</time></trkpt><trkpt lat="43.62952366812193" lon="3.7032008052151815"><ele>139.39999999999998</ele><time>2026-04-12T08:10:31.987Z</time></trkpt><trkpt lat="43.62961483997168" lon="3.70318454324646"><ele>138.6</ele><time>2026-04-12T08:10:32.987Z</time></trkpt><trkpt lat="43.6297056597987" lon="3.703178454103576"><ele>137.79999999999998</ele><time>2026-04-12T08:10:33.987Z</time></trkpt><trkpt lat="43.629799927863765" lon="3.7031656684603287"><ele>137.0</ele><time>2026-04-12T08:10:34.987Z</time></trkpt><trkpt lat="43.62989617479867" lon="3.703155414409758"><ele>137.0</ele><time>2026-04-12T08:10:35.987Z</time></trkpt><trkpt lat="43.6299938234932" lon="3.703143792266334"><ele>137.0</ele><time>2026-04-12T08:10:36.987Z</time></trkpt><trkpt lat="43.63009278620002" lon="3.7031274123981435"><ele>137.0</ele><time>2026-04-12T08:10:37.987Z</time></trkpt><trkpt lat="43.63018936503396" lon="3.7031084190909693"><ele>137.0</ele><time>2026-04-12T08:10:38.987Z</time></trkpt><trkpt lat="43.63028442471927" lon="3.703107205286981"><ele>137.0</ele><time>2026-04-12T08:10:39.987Z</time></trkpt><trkpt lat="43.630374534890684" lon="3.703123364953667"><ele>136.83333333333331</ele><time>2026-04-12T08:10:40.987Z</time></trkpt><trkpt lat="43.63046758138199" lon="3.7031409866164053"><ele>136.66666666666666</ele><time>2026-04-12T08:10:41.987Z</time></trkpt><trkpt lat="43.63056042966515" lon="3.7031427693420436"><ele>136.5</ele><time>2026-04-12T08:10:42.987Z</time></trkpt><trkpt lat="43.630649329332606" lon="3.703139515340426"><ele>136.33333333333334</ele><time>2026-04-12T08:10:43.987Z</time></trkpt><trkpt lat="43.63073398111661" lon="3.703134725343608"><ele>136.16666666666669</ele><time>2026-04-12T08:10:44.987Z</time></trkpt><trkpt lat="43.63081470449731" lon="3.70313631507298"><ele>136.0</ele><time>2026-04-12T08:10:45.987Z</time></trkpt><trkpt lat="43.6308983113982" lon="3.703136846338905"><ele>136.0</ele><time>2026-04-12T08:10:46.987Z</time></trkpt><trkpt lat="43.63097855721834" lon="3.7031328712636764"><ele>136.0</ele><time>2026-04-12T08:10:47.987Z</time></trkpt><trkpt lat="43.63105796016892" lon="3.7031311297505596"><ele>136.0</ele><time>2026-04-12T08:10:48.987Z</time></trkpt><trkpt lat="43.63115211591126" lon="3.7031091628678108"><ele>136.0</ele><time>2026-04-12T08:10:50.987Z</time></trkpt><trkpt lat="43.63119920019739" lon="3.7030508436930636"><ele>136.0</ele><time>2026-04-12T08:10:53.987Z</time></trkpt><trkpt lat="43.631222225430726" lon="3.70290782241629"><ele>136.0</ele><time>2026-04-12T08:10:57.987Z</time></trkpt><trkpt lat="43.631196179747356" lon="3.7028221422117227"><ele>136.0</ele><time>2026-04-12T08:10:59.987Z</time></trkpt><trkpt lat="43.631169256255106" lon="3.702719554146847"><ele>136.0</ele><time>2026-04-12T08:11:01.987Z</time></trkpt><trkpt lat="43.63114309676198" lon="3.7026230701418643"><ele>136.0</ele><time>2026-04-12T08:11:03.987Z</time></trkpt><trkpt lat="43.63111337513847" lon="3.7025138338655417"><ele>136.0</ele><time>2026-04-12T08:11:05.987Z</time></trkpt><trkpt lat="43.63108964988318" lon="3.7024044305257338"><ele>136.0</ele><time>2026-04-12T08:11:07.987Z</time></trkpt><trkpt lat="43.631065356608886" lon="3.70228151239418"><ele>136.0</ele><time>2026-04-12T08:11:09.987Z</time></trkpt><trkpt lat="43.63103834170267" lon="3.7021616549570298"><ele>136.2</ele><time>2026-04-12T08:11:11.987Z</time></trkpt><trkpt lat="43.63101250120794" lon="3.7020467519041476"><ele>136.39999999999998</ele><time>2026-04-12T08:11:13.987Z</time></trkpt><trkpt lat="43.63098303931927" lon="3.7019242474870064"><ele>136.6</ele><time>2026-04-12T08:11:15.987Z</time></trkpt><trkpt lat="43.630961130951796" lon="3.701803246992515"><ele>136.79999999999998</ele><time>2026-04-12T08:11:17.987Z</time></trkpt><trkpt lat="43.63093478848887" lon="3.7016719610478135"><ele>137.0</ele><time>2026-04-12T08:11:19.987Z</time></trkpt><trkpt lat="43.630901806145914" lon="3.7015461924736974"><ele>136.6</ele><time>2026-04-12T08:11:21.987Z</time></trkpt><trkpt lat="43.63087608539767" lon="3.701423140596174"><ele>136.2</ele><time>2026-04-12T08:11:23.987Z</time></trkpt><trkpt lat="43.63088772666133" lon="3.701329710808832"><ele>135.8</ele><time>2026-04-12T08:11:25.987Z</time></trkpt><trkpt lat="43.63097268541322" lon="3.701294568878601"><ele>135.4</ele><time>2026-04-12T08:11:26.987Z</time></trkpt><trkpt lat="43.631075389324465" lon="3.7013303430055657"><ele>135.0</ele><time>2026-04-12T08:11:28.987Z</time></trkpt><trkpt lat="43.63117875467645" lon="3.7013390813897096"><ele>135.0</ele><time>2026-04-12T08:11:30.987Z</time></trkpt><trkpt lat="43.63130000765949" lon="3.7013008456316108"><ele>135.0</ele><time>2026-04-12T08:11:32.987Z</time></trkpt><trkpt lat="43.63137034204861" lon="3.7011625005486417"><ele>135.0</ele><time>2026-04-12T08:11:34.987Z</time></trkpt><trkpt lat="43.631441971219964" lon="3.7010265061308263"><ele>135.0</ele><time>2026-04-12T08:11:36.987Z</time></trkpt><trkpt lat="43.63150052186954" lon="3.7009743829512067"><ele>135.0</ele><time>2026-04-12T08:11:37.987Z</time></trkpt><trkpt lat="43.631611330979425" lon="3.7009177993956524"><ele>134.4</ele><time>2026-04-12T08:11:39.987Z</time></trkpt><trkpt lat="43.63164259823301" lon="3.7007784686285934"><ele>133.8</ele><time>2026-04-12T08:11:41.987Z</time></trkpt><trkpt lat="43.63164255470889" lon="3.7006395278130646"><ele>133.2</ele><time>2026-04-12T08:11:43.986Z</time></trkpt><trkpt lat="43.631631932948174" lon="3.7005035388528005"><ele>132.6</ele><time>2026-04-12T08:11:45.986Z</time></trkpt><trkpt lat="43.63167183060971" lon="3.700384329668677"><ele>132.0</ele><time>2026-04-12T08:11:47.986Z</time></trkpt><trkpt lat="43.63175323414228" lon="3.700331963330085"><ele>132.0</ele><time>2026-04-12T08:11:49.986Z</time></trkpt><trkpt lat="43.63182792932859" lon="3.7002778759700017"><ele>132.0</ele><time>2026-04-12T08:11:51.986Z</time></trkpt><trkpt lat="43.631882783440204" lon="3.700228496985786"><ele>132.0</ele><time>2026-04-12T08:11:53.988Z</time></trkpt><trkpt lat="43.63193823308467" lon="3.700166081804955"><ele>132.0</ele><time>2026-04-12T08:11:55.988Z</time></trkpt><trkpt lat="43.632000848914856" lon="3.700114396103383"><ele>132.0</ele><time>2026-04-12T08:11:57.989Z</time></trkpt><trkpt lat="43.63206780978055" lon="3.700055899276325"><ele>132.0</ele><time>2026-04-12T08:11:59.989Z</time></trkpt><trkpt lat="43.63212154617763" lon="3.7000097499751345"><ele>132.0</ele><time>2026-04-12T08:12:01.989Z</time></trkpt><trkpt lat="43.632184501564524" lon="3.6999551184224955"><ele>133.14285714285714</ele><time>2026-04-12T08:12:03.989Z</time></trkpt><trkpt lat="43.632239782449815" lon="3.699905584794693"><ele>134.28571428571428</ele><time>2026-04-12T08:12:05.988Z</time></trkpt><trkpt lat="43.63229607589363" lon="3.69984983107546"><ele>135.42857142857144</ele><time>2026-04-12T08:12:07.988Z</time></trkpt><trkpt lat="43.63236161040447" lon="3.699796683642221"><ele>136.57142857142856</ele><time>2026-04-12T08:12:09.988Z</time></trkpt><trkpt lat="43.632387401442095" lon="3.6997143114442306"><ele>137.71428571428572</ele><time>2026-04-12T08:12:11.988Z</time></trkpt><trkpt lat="43.63242276650114" lon="3.6996265762185176"><ele>138.85714285714286</ele><time>2026-04-12T08:12:13.988Z</time></trkpt><trkpt lat="43.63245532106028" lon="3.6995426790789816"><ele>140.0</ele><time>2026-04-12T08:12:15.988Z</time></trkpt><trkpt lat="43.63251399023275" lon="3.6994778699564934"><ele>139.5</ele><time>2026-04-12T08:12:17.988Z</time></trkpt><trkpt lat="43.6325649228651" lon="3.6994157419641676"><ele>139.0</ele><time>2026-04-12T08:12:19.988Z</time></trkpt><trkpt lat="43.63264267670049" lon="3.699344245635428"><ele>138.5</ele><time>2026-04-12T08:12:22.988Z</time></trkpt><trkpt lat="43.63273135154247" lon="3.6993007986902278"><ele>138.0</ele><time>2026-04-12T08:12:25.987Z</time></trkpt><trkpt lat="43.632806746889514" lon="3.6992810012013426"><ele>137.5</ele><time>2026-04-12T08:12:27.987Z</time></trkpt><trkpt lat="43.63286830197669" lon="3.69925979668474"><ele>137.0</ele><time>2026-04-12T08:12:29.987Z</time></trkpt><trkpt lat="43.63295510220747" lon="3.699214133377678"><ele>138.0</ele><time>2026-04-12T08:12:32.987Z</time></trkpt><trkpt lat="43.63301394481796" lon="3.6991512824708037"><ele>139.0</ele><time>2026-04-12T08:12:34.987Z</time></trkpt><trkpt lat="43.633093364922466" lon="3.6990895851096686"><ele>140.0</ele><time>2026-04-12T08:12:36.987Z</time></trkpt><trkpt lat="43.633144940688354" lon="3.699002577976667"><ele>141.0</ele><time>2026-04-12T08:12:38.987Z</time></trkpt><trkpt lat="43.63321735284215" lon="3.69895145632556"><ele>142.0</ele><time>2026-04-12T08:12:40.987Z</time></trkpt><trkpt lat="43.63328701367308" lon="3.698924119086845"><ele>143.0</ele><time>2026-04-12T08:12:42.987Z</time></trkpt><trkpt lat="43.633351194198994" lon="3.69890357029877"><ele>143.0</ele><time>2026-04-12T08:12:44.987Z</time></trkpt><trkpt lat="43.63344223196134" lon="3.6988719289740457"><ele>143.0</ele><time>2026-04-12T08:12:47.987Z</time></trkpt><trkpt lat="43.633519657774265" lon="3.698868459737468"><ele>143.0</ele><time>2026-04-12T08:12:50.987Z</time></trkpt><trkpt lat="43.63341228091487" lon="3.6990858264588047"><ele>143.0</ele><time>2026-04-12T08:12:51.987Z</time></trkpt><trkpt lat="43.633404196138535" lon="3.6992099743551807"><ele>143.0</ele><time>2026-04-12T08:12:54.987Z</time></trkpt><trkpt lat="43.63339490076468" lon="3.6993319699557023"><ele>143.0</ele><time>2026-04-12T08:12:57.987Z</time></trkpt><trkpt lat="43.633496272392975" lon="3.6994257753970423"><ele>143.0</ele><time>2026-04-12T08:13:01.987Z</time></trkpt><trkpt lat="43.63351297964501" lon="3.699518403723412"><ele>143.0</ele><time>2026-04-12T08:13:03.987Z</time></trkpt><trkpt lat="43.633548680497704" lon="3.699608347407065"><ele>143.0</ele><time>2026-04-12T08:13:05.987Z</time></trkpt><trkpt lat="43.63355215051169" lon="3.6997275290435385"><ele>143.0</ele><time>2026-04-12T08:13:07.987Z</time></trkpt><trkpt lat="43.63356515315493" lon="3.6998309088664363"><ele>143.66666666666666</ele><time>2026-04-12T08:13:09.987Z</time></trkpt><trkpt lat="43.63355759165037" lon="3.6999498016298435"><ele>144.33333333333331</ele><time>2026-04-12T08:13:11.987Z</time></trkpt><trkpt lat="43.633541399677995" lon="3.700050983286083"><ele>145.0</ele><time>2026-04-12T08:13:13.987Z</time></trkpt><trkpt lat="43.63352927761682" lon="3.700156830415726"><ele>145.66666666666666</ele><time>2026-04-12T08:13:15.987Z</time></trkpt><trkpt lat="43.63354761808354" lon="3.7002710950111033"><ele>146.33333333333334</ele><time>2026-04-12T08:13:17.987Z</time></trkpt><trkpt lat="43.63354645727183" lon="3.700385156676921"><ele>147.0</ele><time>2026-04-12T08:13:19.987Z</time></trkpt><trkpt lat="43.63355195409797" lon="3.7004826093816705"><ele>147.16666666666666</ele><time>2026-04-12T08:13:21.987Z</time></trkpt><trkpt lat="43.6335425070986" lon="3.7005876094353884"><ele>147.33333333333334</ele><time>2026-04-12T08:13:23.987Z</time></trkpt><trkpt lat="43.63355415326256" lon="3.7006966064330102"><ele>147.5</ele><time>2026-04-12T08:13:25.987Z</time></trkpt><trkpt lat="43.633577714833656" lon="3.7007905388379627"><ele>147.66666666666669</ele><time>2026-04-12T08:13:27.987Z</time></trkpt><trkpt lat="43.63358917565015" lon="3.700897330245713"><ele>147.83333333333334</ele><time>2026-04-12T08:13:29.987Z</time></trkpt><trkpt lat="43.63359201354786" lon="3.70101243552545"><ele>148.0</ele><time>2026-04-12T08:13:31.987Z</time></trkpt><trkpt lat="43.633601128239576" lon="3.701106633552465"><ele>148.42857142857144</ele><time>2026-04-12T08:13:33.987Z</time></trkpt><trkpt lat="43.63360039769763" lon="3.7012050915239123"><ele>148.85714285714286</ele><time>2026-04-12T08:13:35.986Z</time></trkpt><trkpt lat="43.633608452134794" lon="3.701295284600879"><ele>149.28571428571428</ele><time>2026-04-12T08:13:37.986Z</time></trkpt><trkpt lat="43.63360975568386" lon="3.701388374536457"><ele>149.71428571428572</ele><time>2026-04-12T08:13:39.985Z</time></trkpt><trkpt lat="43.63363171023561" lon="3.7015069641546816"><ele>150.14285714285714</ele><time>2026-04-12T08:13:42.985Z</time></trkpt><trkpt lat="43.63362941836281" lon="3.701610592189176"><ele>150.57142857142858</ele><time>2026-04-12T08:13:44.984Z</time></trkpt><trkpt lat="43.63364008240533" lon="3.7017047885775862"><ele>151.0</ele><time>2026-04-12T08:13:46.984Z</time></trkpt><trkpt lat="43.63362624900811" lon="3.701807950102063"><ele>151.33333333333334</ele><time>2026-04-12T08:13:48.984Z</time></trkpt><trkpt lat="43.63362359446803" lon="3.701926318345325"><ele>151.66666666666669</ele><time>2026-04-12T08:13:50.984Z</time></trkpt><trkpt lat="43.63359237501718" lon="3.7020322363499787"><ele>152.0</ele><time>2026-04-12T08:13:52.983Z</time></trkpt><trkpt lat="43.63361087459306" lon="3.7021427404423823"><ele>152.33333333333334</ele><time>2026-04-12T08:13:54.983Z</time></trkpt><trkpt lat="43.63362081299796" lon="3.7022286718760102"><ele>152.66666666666666</ele><time>2026-04-12T08:13:56.983Z</time></trkpt><trkpt lat="43.63358774082062" lon="3.7023338106909014"><ele>153.0</ele><time>2026-04-12T08:13:58.985Z</time></trkpt><trkpt lat="43.633510582845666" lon="3.7024082848355873"><ele>153.0</ele><time>2026-04-12T08:14:00.985Z</time></trkpt><trkpt lat="43.633480138005005" lon="3.7025095868477655"><ele>153.0</ele><time>2026-04-12T08:14:02.984Z</time></trkpt><trkpt lat="43.63353923470435" lon="3.7025928046825154"><ele>153.0</ele><time>2026-04-12T08:14:05.985Z</time></trkpt><trkpt lat="43.63357934702387" lon="3.7027027588541186"><ele>153.0</ele><time>2026-04-12T08:14:09.984Z</time></trkpt><trkpt lat="43.63359562255748" lon="3.7027889087208776"><ele>153.0</ele><time>2026-04-12T08:14:11.984Z</time></trkpt><trkpt lat="43.63360828324968" lon="3.7028926433296587"><ele>153.0</ele><time>2026-04-12T08:14:13.984Z</time></trkpt><trkpt lat="43.63363963441563" lon="3.7030208231386763"><ele>153.0</ele><time>2026-04-12T08:14:16.984Z</time></trkpt><trkpt lat="43.633661365538806" lon="3.7031066237816908"><ele>153.0</ele><time>2026-04-12T08:14:18.984Z</time></trkpt><trkpt lat="43.63368214187755" lon="3.7032116380709104"><ele>153.0</ele><time>2026-04-12T08:14:20.984Z</time></trkpt><trkpt lat="43.63367675171729" lon="3.703302810966721"><ele>153.0</ele><time>2026-04-12T08:14:22.984Z</time></trkpt><trkpt lat="43.63365861277495" lon="3.7034052382127847"><ele>153.0</ele><time>2026-04-12T08:14:24.984Z</time></trkpt><trkpt lat="43.63365529798471" lon="3.7035110937932214"><ele>153.0</ele><time>2026-04-12T08:14:26.984Z</time></trkpt><trkpt lat="43.63365471936681" lon="3.7036261469859886"><ele>153.0</ele><time>2026-04-12T08:14:28.984Z</time></trkpt><trkpt lat="43.633635996901745" lon="3.7037375965601247"><ele>153.0</ele><time>2026-04-12T08:14:30.984Z</time></trkpt><trkpt lat="43.63360672954106" lon="3.703850448077087"><ele>153.0</ele><time>2026-04-12T08:14:32.984Z</time></trkpt><trkpt lat="43.63356597828575" lon="3.7039713164286465"><ele>153.0</ele><time>2026-04-12T08:14:34.984Z</time></trkpt><trkpt lat="43.63359889290404" lon="3.704082932628399"><ele>153.0</ele><time>2026-04-12T08:14:36.984Z</time></trkpt><trkpt lat="43.633609909543004" lon="3.7042002955171296"><ele>153.0</ele><time>2026-04-12T08:14:38.983Z</time></trkpt><trkpt lat="43.63361037703625" lon="3.7043107274657254"><ele>153.0</ele><time>2026-04-12T08:14:40.983Z</time></trkpt><trkpt lat="43.63362117609711" lon="3.704403061666669"><ele>153.16666666666666</ele><time>2026-04-12T08:14:42.983Z</time></trkpt><trkpt lat="43.633648120970655" lon="3.7045306844567207"><ele>153.33333333333334</ele><time>2026-04-12T08:14:45.983Z</time></trkpt><trkpt lat="43.63367805464311" lon="3.704642196637195"><ele>153.5</ele><time>2026-04-12T08:14:47.983Z</time></trkpt><trkpt lat="43.63371084910379" lon="3.7047472266860493"><ele>153.66666666666669</ele><time>2026-04-12T08:14:49.983Z</time></trkpt><trkpt lat="43.63374831361833" lon="3.7048731252302907"><ele>153.83333333333334</ele><time>2026-04-12T08:14:52.983Z</time></trkpt><trkpt lat="43.63377398431866" lon="3.7049725537863716"><ele>154.0</ele><time>2026-04-12T08:14:54.983Z</time></trkpt><trkpt lat="43.63378840066261" lon="3.7050740363095844"><ele>154.0</ele><time>2026-04-12T08:14:56.983Z</time></trkpt><trkpt lat="43.63379454439735" lon="3.705166952275485"><ele>154.0</ele><time>2026-04-12T08:14:58.983Z</time></trkpt><trkpt lat="43.63380677372869" lon="3.7053114652619876"><ele>154.0</ele><time>2026-04-12T08:15:01.983Z</time></trkpt><trkpt lat="43.63381706661454" lon="3.7054355373247927"><ele>154.0</ele><time>2026-04-12T08:15:03.983Z</time></trkpt><trkpt lat="43.63385083249265" lon="3.705579017807056"><ele>154.0</ele><time>2026-04-12T08:15:05.983Z</time></trkpt><trkpt lat="43.63386326422912" lon="3.7057119459302386"><ele>153.8</ele><time>2026-04-12T08:15:07.983Z</time></trkpt><trkpt lat="43.633855040000746" lon="3.705853065330437"><ele>153.60000000000002</ele><time>2026-04-12T08:15:09.983Z</time></trkpt><trkpt lat="43.63391434304535" lon="3.7059554056244717"><ele>153.4</ele><time>2026-04-12T08:15:11.983Z</time></trkpt><trkpt lat="43.63400703535763" lon="3.7059937457882004"><ele>153.20000000000002</ele><time>2026-04-12T08:15:13.983Z</time></trkpt><trkpt lat="43.634076949368634" lon="3.706112449984045"><ele>153.0</ele><time>2026-04-12T08:15:15.983Z</time></trkpt><trkpt lat="43.63410397860369" lon="3.706259202855154"><ele>153.0</ele><time>2026-04-12T08:15:17.983Z</time></trkpt><trkpt lat="43.634133814679025" lon="3.706411227475167"><ele>153.0</ele><time>2026-04-12T08:15:19.983Z</time></trkpt><trkpt lat="43.634146740806116" lon="3.7065380795962213"><ele>153.0</ele><time>2026-04-12T08:15:21.983Z</time></trkpt><trkpt lat="43.6341395844548" lon="3.706687713117166"><ele>153.0</ele><time>2026-04-12T08:15:23.983Z</time></trkpt><trkpt lat="43.63414655532733" lon="3.7068236099386986"><ele>153.0</ele><time>2026-04-12T08:15:25.983Z</time></trkpt><trkpt lat="43.63419167519913" lon="3.7069531611856035"><ele>152.8</ele><time>2026-04-12T08:15:27.983Z</time></trkpt><trkpt lat="43.634219136320844" lon="3.7070710359521297"><ele>152.60000000000002</ele><time>2026-04-12T08:15:29.983Z</time></trkpt><trkpt lat="43.63424003641729" lon="3.7072081108074375"><ele>152.39999999999998</ele><time>2026-04-12T08:15:31.983Z</time></trkpt><trkpt lat="43.63427088183599" lon="3.707355851042247"><ele>152.2</ele><time>2026-04-12T08:15:33.983Z</time></trkpt><trkpt lat="43.634301032115005" lon="3.7074880285809813"><ele>152.0</ele><time>2026-04-12T08:15:35.983Z</time></trkpt><trkpt lat="43.63433528005783" lon="3.707646947124716"><ele>152.0</ele><time>2026-04-12T08:15:37.983Z</time></trkpt><trkpt lat="43.634334884401795" lon="3.707805595012641"><ele>152.0</ele><time>2026-04-12T08:15:39.983Z</time></trkpt><trkpt lat="43.63436357185453" lon="3.707889971945478"><ele>152.0</ele><time>2026-04-12T08:15:40.983Z</time></trkpt><trkpt lat="43.63438072028557" lon="3.7079777479943785"><ele>152.0</ele><time>2026-04-12T08:15:41.983Z</time></trkpt><trkpt lat="43.63440420429717" lon="3.708147699839336"><ele>152.0</ele><time>2026-04-12T08:15:43.982Z</time></trkpt><trkpt lat="43.63443154938133" lon="3.708321650244158"><ele>152.0</ele><time>2026-04-12T08:15:45.982Z</time></trkpt><trkpt lat="43.63444500778303" lon="3.7084079690429697"><ele>152.0</ele><time>2026-04-12T08:15:46.982Z</time></trkpt><trkpt lat="43.63446098937441" lon="3.7085812752701046"><ele>152.0</ele><time>2026-04-12T08:15:48.982Z</time></trkpt><trkpt lat="43.634470781703236" lon="3.70867530483038"><ele>152.0</ele><time>2026-04-12T08:15:49.982Z</time></trkpt><trkpt lat="43.63449451028703" lon="3.7088410557287586"><ele>152.0</ele><time>2026-04-12T08:15:51.982Z</time></trkpt><trkpt lat="43.63452832166644" lon="3.7089148095888174"><ele>152.0</ele><time>2026-04-12T08:15:52.982Z</time></trkpt><trkpt lat="43.634602607687114" lon="3.7089493635428568"><ele>152.2</ele><time>2026-04-12T08:15:53.982Z</time></trkpt><trkpt lat="43.6347104695912" lon="3.7089419061865465"><ele>152.39999999999998</ele><time>2026-04-12T08:15:55.982Z</time></trkpt><trkpt lat="43.63482140948973" lon="3.7089044283452735"><ele>152.60000000000002</ele><time>2026-04-12T08:15:57.982Z</time></trkpt><trkpt lat="43.63488537318742" lon="3.7089706059842493"><ele>152.8</ele><time>2026-04-12T08:15:59.982Z</time></trkpt><trkpt lat="43.63498836462172" lon="3.709074172020191"><ele>153.0</ele><time>2026-04-12T08:16:01.982Z</time></trkpt><trkpt lat="43.635039233867055" lon="3.7091267000730532"><ele>153.0</ele><time>2026-04-12T08:16:02.982Z</time></trkpt><trkpt lat="43.635121187107515" lon="3.709169698358198"><ele>153.0</ele><time>2026-04-12T08:16:04.984Z</time></trkpt><trkpt lat="43.63518074588626" lon="3.709089813976763"><ele>153.0</ele><time>2026-04-12T08:16:06.984Z</time></trkpt><trkpt lat="43.63526450413115" lon="3.709106099020528"><ele>153.0</ele><time>2026-04-12T08:16:08.984Z</time></trkpt><trkpt lat="43.63531696335508" lon="3.7089831003795792"><ele>153.0</ele><time>2026-04-12T08:16:10.984Z</time></trkpt><trkpt lat="43.635384057281755" lon="3.708907809093967"><ele>153.0</ele><time>2026-04-12T08:16:12.984Z</time></trkpt><trkpt lat="43.63542171618055" lon="3.7088227371759404"><ele>153.0</ele><time>2026-04-12T08:16:15.984Z</time></trkpt><trkpt lat="43.63548489390756" lon="3.7087620984617407"><ele>153.0</ele><time>2026-04-12T08:16:17.985Z</time></trkpt><trkpt lat="43.635530108212336" lon="3.708681733562777"><ele>153.0</ele><time>2026-04-12T08:16:19.985Z</time></trkpt><trkpt lat="43.63556041400038" lon="3.7085792481323256"><ele>153.0</ele><time>2026-04-12T08:16:21.985Z</time></trkpt><trkpt lat="43.63560989720084" lon="3.708476548676236"><ele>153.0</ele><time>2026-04-12T08:16:23.984Z</time></trkpt><trkpt lat="43.63569006799847" lon="3.708481497621991"><ele>153.0</ele><time>2026-04-12T08:16:25.984Z</time></trkpt><trkpt lat="43.63571663511386" lon="3.7085910648729272"><ele>153.0</ele><time>2026-04-12T08:16:27.984Z</time></trkpt><trkpt lat="43.63571853590855" lon="3.708698101363509"><ele>153.0</ele><time>2026-04-12T08:16:29.984Z</time></trkpt><trkpt lat="43.63573614923722" lon="3.7087816496610433"><ele>153.0</ele><time>2026-04-12T08:16:31.984Z</time></trkpt><trkpt lat="43.63577146788977" lon="3.708864854055146"><ele>153.0</ele><time>2026-04-12T08:16:33.984Z</time></trkpt><trkpt lat="43.635780548477015" lon="3.708962503028357"><ele>153.0</ele><time>2026-04-12T08:16:35.984Z</time></trkpt><trkpt lat="43.635777247180286" lon="3.7090523683226477"><ele>153.0</ele><time>2026-04-12T08:16:37.984Z</time></trkpt><trkpt lat="43.63578676097334" lon="3.709141794221894"><ele>153.0</ele><time>2026-04-12T08:16:39.984Z</time></trkpt><trkpt lat="43.63579635404635" lon="3.7092401042915095"><ele>153.0</ele><time>2026-04-12T08:16:41.984Z</time></trkpt><trkpt lat="43.63581441066214" lon="3.709336690910102"><ele>153.0</ele><time>2026-04-12T08:16:43.984Z</time></trkpt><trkpt lat="43.635830866393924" lon="3.709423218607296"><ele>153.0</ele><time>2026-04-12T08:16:45.984Z</time></trkpt><trkpt lat="43.63584407420832" lon="3.7095222299710207"><ele>153.0</ele><time>2026-04-12T08:16:48.984Z</time></trkpt><trkpt lat="43.63586222543267" lon="3.7096163557235653"><ele>153.0</ele><time>2026-04-12T08:16:51.984Z</time></trkpt><trkpt lat="43.63589293198822" lon="3.7097179215283083"><ele>153.0</ele><time>2026-04-12T08:16:54.984Z</time></trkpt><trkpt lat="43.63590398119117" lon="3.709828084820484"><ele>153.0</ele><time>2026-04-12T08:16:57.984Z</time></trkpt><trkpt lat="43.635930150795694" lon="3.7099213962484736"><ele>153.33333333333334</ele><time>2026-04-12T08:17:00.984Z</time></trkpt><trkpt lat="43.63596326130107" lon="3.7100183254981403"><ele>153.66666666666666</ele><time>2026-04-12T08:17:04.984Z</time></trkpt><trkpt lat="43.636016815747766" lon="3.710095314159413"><ele>154.0</ele><time>2026-04-12T08:17:07.984Z</time></trkpt><trkpt lat="43.63608743848852" lon="3.7101310477206515"><ele>154.33333333333331</ele><time>2026-04-12T08:17:10.984Z</time></trkpt><trkpt lat="43.63617396655103" lon="3.7101901374378596"><ele>154.66666666666666</ele><time>2026-04-12T08:17:15.984Z</time></trkpt><trkpt lat="43.63619328691816" lon="3.7103115530839466"><ele>155.0</ele><time>2026-04-12T08:17:19.984Z</time></trkpt><trkpt lat="43.63618989674866" lon="3.710447061122296"><ele>154.16666666666666</ele><time>2026-04-12T08:17:22.984Z</time></trkpt><trkpt lat="43.636194473417326" lon="3.7105560761138268"><ele>153.33333333333331</ele><time>2026-04-12T08:17:24.984Z</time></trkpt><trkpt lat="43.63617697532466" lon="3.7106403212019496"><ele>152.5</ele><time>2026-04-12T08:17:26.984Z</time></trkpt><trkpt lat="43.63617872717995" lon="3.7107570903370006"><ele>151.66666666666666</ele><time>2026-04-12T08:17:28.984Z</time></trkpt><trkpt lat="43.636165059057085" lon="3.7108788763603417"><ele>150.83333333333334</ele><time>2026-04-12T08:17:30.984Z</time></trkpt><trkpt lat="43.63615868192371" lon="3.71100027983634"><ele>150.0</ele><time>2026-04-12T08:17:32.983Z</time></trkpt><trkpt lat="43.636155734262836" lon="3.7111190428204734"><ele>150.0</ele><time>2026-04-12T08:17:34.983Z</time></trkpt><trkpt lat="43.636169258824445" lon="3.7112268707700355"><ele>150.0</ele><time>2026-04-12T08:17:36.983Z</time></trkpt><trkpt lat="43.636166839429556" lon="3.711333146018629"><ele>150.0</ele><time>2026-04-12T08:17:38.983Z</time></trkpt><trkpt lat="43.636179513351514" lon="3.7114426808053285"><ele>150.0</ele><time>2026-04-12T08:17:40.983Z</time></trkpt><trkpt lat="43.63619181350847" lon="3.711599984495781"><ele>150.0</ele><time>2026-04-12T08:17:43.983Z</time></trkpt><trkpt lat="43.6362081557986" lon="3.711699850818843"><ele>150.0</ele><time>2026-04-12T08:17:45.983Z</time></trkpt><trkpt lat="43.636199382598726" lon="3.711826509317404"><ele>150.0</ele><time>2026-04-12T08:17:47.983Z</time></trkpt><trkpt lat="43.63623524451683" lon="3.7119090993893877"><ele>150.0</ele><time>2026-04-12T08:17:50.983Z</time></trkpt><trkpt lat="43.636302433932165" lon="3.7118830085726997"><ele>150.0</ele><time>2026-04-12T08:17:56.983Z</time></trkpt><trkpt lat="43.63634569933097" lon="3.7118022873254017"><ele>150.0</ele><time>2026-04-12T08:17:59.983Z</time></trkpt><trkpt lat="43.636407486210366" lon="3.7117115695936076"><ele>150.0</ele><time>2026-04-12T08:18:02.983Z</time></trkpt><trkpt lat="43.63646280297847" lon="3.711644850544258"><ele>150.0</ele><time>2026-04-12T08:18:04.983Z</time></trkpt><trkpt lat="43.63652633407978" lon="3.711590369999234"><ele>150.0</ele><time>2026-04-12T08:18:06.983Z</time></trkpt><trkpt lat="43.63658790437667" lon="3.7115346304010925"><ele>150.0</ele><time>2026-04-12T08:18:08.983Z</time></trkpt><trkpt lat="43.63661536293215" lon="3.7114442226844897"><ele>150.0</ele><time>2026-04-12T08:18:10.984Z</time></trkpt><trkpt lat="43.63661338993761" lon="3.7112982884169274"><ele>150.0</ele><time>2026-04-12T08:18:13.984Z</time></trkpt><trkpt lat="43.63664886237357" lon="3.711180068040622"><ele>150.0</ele><time>2026-04-12T08:18:15.984Z</time></trkpt><trkpt lat="43.63671249609792" lon="3.7110736296595044"><ele>150.0</ele><time>2026-04-12T08:18:17.984Z</time></trkpt><trkpt lat="43.63675270315037" lon="3.710954400861225"><ele>149.66666666666666</ele><time>2026-04-12T08:18:19.984Z</time></trkpt><trkpt lat="43.63679891308439" lon="3.7108374679411167"><ele>149.33333333333334</ele><time>2026-04-12T08:18:21.984Z</time></trkpt><trkpt lat="43.636820512417486" lon="3.710718182763682"><ele>149.0</ele><time>2026-04-12T08:18:23.984Z</time></trkpt><trkpt lat="43.63686824614708" lon="3.7106131752738993"><ele>148.66666666666669</ele><time>2026-04-12T08:18:25.983Z</time></trkpt><trkpt lat="43.63688213965791" lon="3.7105161666308306"><ele>148.33333333333334</ele><time>2026-04-12T08:18:27.983Z</time></trkpt><trkpt lat="43.63693400185778" lon="3.710430722444617"><ele>148.0</ele><time>2026-04-12T08:18:28.983Z</time></trkpt><trkpt lat="43.637002904420235" lon="3.710327743287222"><ele>146.83333333333334</ele><time>2026-04-12T08:18:30.983Z</time></trkpt><trkpt lat="43.63702402230465" lon="3.7102284296031316"><ele>145.66666666666669</ele><time>2026-04-12T08:18:32.983Z</time></trkpt><trkpt lat="43.63704077508148" lon="3.7100972147227904"><ele>144.5</ele><time>2026-04-12T08:18:34.983Z</time></trkpt><trkpt lat="43.63703464105549" lon="3.7099896678715294"><ele>143.33333333333334</ele><time>2026-04-12T08:18:36.983Z</time></trkpt><trkpt lat="43.63700646568751" lon="3.7098631139128893"><ele>142.16666666666666</ele><time>2026-04-12T08:18:39.983Z</time></trkpt><trkpt lat="43.63700376089728" lon="3.709768966468166"><ele>141.0</ele><time>2026-04-12T08:18:42.983Z</time></trkpt><trkpt lat="43.63703811945465" lon="3.7096641624060136"><ele>141.0</ele><time>2026-04-12T08:18:44.983Z</time></trkpt><trkpt lat="43.637080833328184" lon="3.709558042410262"><ele>141.0</ele><time>2026-04-12T08:18:47.983Z</time></trkpt><trkpt lat="43.63709800728567" lon="3.7094353059648544"><ele>141.0</ele><time>2026-04-12T08:18:51.983Z</time></trkpt><trkpt lat="43.63712597810611" lon="3.709284362088237"><ele>141.0</ele><time>2026-04-12T08:18:54.983Z</time></trkpt><trkpt lat="43.63713801204465" lon="3.7091757892005566"><ele>141.0</ele><time>2026-04-12T08:18:56.983Z</time></trkpt><trkpt lat="43.63714192824141" lon="3.7090314773643978"><ele>140.6</ele><time>2026-04-12T08:18:58.983Z</time></trkpt><trkpt lat="43.63713938038424" lon="3.7088916004437302"><ele>140.2</ele><time>2026-04-12T08:19:00.983Z</time></trkpt><trkpt lat="43.63715611066493" lon="3.708766282894551"><ele>139.8</ele><time>2026-04-12T08:19:02.983Z</time></trkpt><trkpt lat="43.63719373882154" lon="3.7086345748640843"><ele>139.4</ele><time>2026-04-12T08:19:04.983Z</time></trkpt><trkpt lat="43.63722736684757" lon="3.7085269433079198"><ele>139.0</ele><time>2026-04-12T08:19:06.983Z</time></trkpt><trkpt lat="43.637244228585104" lon="3.7084260599029397"><ele>138.66666666666669</ele><time>2026-04-12T08:19:08.983Z</time></trkpt><trkpt lat="43.63726335408853" lon="3.7083372368275027"><ele>138.33333333333334</ele><time>2026-04-12T08:19:10.983Z</time></trkpt><trkpt lat="43.637290347351346" lon="3.7082436505813283"><ele>138.0</ele><time>2026-04-12T08:19:12.983Z</time></trkpt><trkpt lat="43.63730056679368" lon="3.708122096315117"><ele>137.66666666666666</ele><time>2026-04-12T08:19:14.983Z</time></trkpt><trkpt lat="43.63732230748713" lon="3.707995233992708"><ele>137.33333333333331</ele><time>2026-04-12T08:19:17.983Z</time></trkpt><trkpt lat="43.637327317131536" lon="3.707891473114987"><ele>137.0</ele><time>2026-04-12T08:19:20.983Z</time></trkpt><trkpt lat="43.637349736632004" lon="3.707803081454538"><ele>137.0</ele><time>2026-04-12T08:19:22.983Z</time></trkpt><trkpt lat="43.63734347156931" lon="3.7076856619978984"><ele>137.0</ele><time>2026-04-12T08:19:24.983Z</time></trkpt><trkpt lat="43.63730792125952" lon="3.7075913993807106"><ele>137.0</ele><time>2026-04-12T08:19:26.983Z</time></trkpt><trkpt lat="43.637288007872684" lon="3.7074679320177246"><ele>137.0</ele><time>2026-04-12T08:19:29.983Z</time></trkpt><trkpt lat="43.63733978882043" lon="3.7074054610664113"><ele>137.0</ele><time>2026-04-12T08:19:30.983Z</time></trkpt><trkpt lat="43.63743375399839" lon="3.707347265662572"><ele>137.0</ele><time>2026-04-12T08:19:32.982Z</time></trkpt><trkpt lat="43.63749040982238" lon="3.7072254388762773"><ele>137.0</ele><time>2026-04-12T08:19:34.982Z</time></trkpt><trkpt lat="43.63752522725529" lon="3.7071127510220085"><ele>137.0</ele><time>2026-04-12T08:19:35.982Z</time></trkpt><trkpt lat="43.63761820110711" lon="3.7069919611614006"><ele>137.0</ele><time>2026-04-12T08:19:37.982Z</time></trkpt><trkpt lat="43.637658442984105" lon="3.706837343065551"><ele>137.0</ele><time>2026-04-12T08:19:39.982Z</time></trkpt><trkpt lat="43.63766464051905" lon="3.706736276019481"><ele>137.0</ele><time>2026-04-12T08:19:40.982Z</time></trkpt><trkpt lat="43.63766766247859" lon="3.7066372816984217"><ele>137.66666666666666</ele><time>2026-04-12T08:19:41.982Z</time></trkpt><trkpt lat="43.63767001521133" lon="3.7065280603576283"><ele>138.33333333333331</ele><time>2026-04-12T08:19:42.982Z</time></trkpt><trkpt lat="43.637669837941424" lon="3.7064342462989655"><ele>139.0</ele><time>2026-04-12T08:19:43.982Z</time></trkpt><trkpt lat="43.63767501004084" lon="3.7063361700844535"><ele>139.66666666666666</ele><time>2026-04-12T08:19:44.982Z</time></trkpt><trkpt lat="43.637687893206866" lon="3.70624387473371"><ele>140.33333333333334</ele><time>2026-04-12T08:19:45.982Z</time></trkpt><trkpt lat="43.63772059495648" lon="3.7060716340854145"><ele>141.0</ele><time>2026-04-12T08:19:47.982Z</time></trkpt><trkpt lat="43.63773109971901" lon="3.705973177279854"><ele>141.0</ele><time>2026-04-12T08:19:48.982Z</time></trkpt><trkpt lat="43.63774917179593" lon="3.705883912745466"><ele>141.0</ele><time>2026-04-12T08:19:49.982Z</time></trkpt><trkpt lat="43.63776167707366" lon="3.7057977073829877"><ele>141.0</ele><time>2026-04-12T08:19:50.982Z</time></trkpt><trkpt lat="43.63776335771203" lon="3.705637523240145"><ele>141.0</ele><time>2026-04-12T08:19:52.982Z</time></trkpt><trkpt lat="43.63782272382835" lon="3.705493176633615"><ele>141.0</ele><time>2026-04-12T08:19:54.982Z</time></trkpt><trkpt lat="43.63786673028009" lon="3.7053456944191896"><ele>138.5</ele><time>2026-04-12T08:19:56.982Z</time></trkpt><trkpt lat="43.637940663970646" lon="3.7052143353963998"><ele>136.0</ele><time>2026-04-12T08:19:58.982Z</time></trkpt><trkpt lat="43.63800596025428" lon="3.7050846390917656"><ele>133.5</ele><time>2026-04-12T08:20:00.982Z</time></trkpt><trkpt lat="43.638066652069696" lon="3.7049474817455033"><ele>131.0</ele><time>2026-04-12T08:20:02.982Z</time></trkpt><trkpt lat="43.63813245659856" lon="3.7048334385013053"><ele>131.0</ele><time>2026-04-12T08:20:04.982Z</time></trkpt><trkpt lat="43.63823497456748" lon="3.704844176047641"><ele>131.0</ele><time>2026-04-12T08:20:06.982Z</time></trkpt><trkpt lat="43.63832486639519" lon="3.7049495148605995"><ele>131.0</ele><time>2026-04-12T08:20:08.982Z</time></trkpt><trkpt lat="43.63841536652623" lon="3.705030248122072"><ele>131.0</ele><time>2026-04-12T08:20:10.982Z</time></trkpt><trkpt lat="43.638507045682566" lon="3.7051005610909438"><ele>131.0</ele><time>2026-04-12T08:20:12.982Z</time></trkpt><trkpt lat="43.638594340902" lon="3.70517164920737"><ele>131.0</ele><time>2026-04-12T08:20:14.982Z</time></trkpt><trkpt lat="43.63869870823603" lon="3.705207683077497"><ele>131.0</ele><time>2026-04-12T08:20:16.984Z</time></trkpt><trkpt lat="43.63878035412142" lon="3.70521648731803"><ele>131.0</ele><time>2026-04-12T08:20:18.985Z</time></trkpt><trkpt lat="43.63887278973844" lon="3.7052459689969934"><ele>131.0</ele><time>2026-04-12T08:20:20.984Z</time></trkpt><trkpt lat="43.63895856552411" lon="3.7052967908891303"><ele>131.0</ele><time>2026-04-12T08:20:22.984Z</time></trkpt><trkpt lat="43.63905173325033" lon="3.705329314457557"><ele>131.14285714285714</ele><time>2026-04-12T08:20:24.984Z</time></trkpt><trkpt lat="43.639119885203264" lon="3.7053706952165264"><ele>131.2857142857143</ele><time>2026-04-12T08:20:26.984Z</time></trkpt><trkpt lat="43.63915752390508" lon="3.705461185250053"><ele>131.42857142857144</ele><time>2026-04-12T08:20:30.984Z</time></trkpt><trkpt lat="43.63916565625974" lon="3.7055487514639447"><ele>131.57142857142858</ele><time>2026-04-12T08:20:35.984Z</time></trkpt><trkpt lat="43.63916009620603" lon="3.705642344356118"><ele>131.71428571428572</ele><time>2026-04-12T08:20:38.984Z</time></trkpt><trkpt lat="43.63916902671163" lon="3.705745683260412"><ele>131.85714285714286</ele><time>2026-04-12T08:20:41.984Z</time></trkpt><trkpt lat="43.63917520327807" lon="3.705850946647365"><ele>132.0</ele><time>2026-04-12T08:20:44.984Z</time></trkpt><trkpt lat="43.63917303911694" lon="3.705967665059362"><ele>132.0</ele><time>2026-04-12T08:20:47.984Z</time></trkpt><trkpt lat="43.63916536080096" lon="3.7060712770156674"><ele>132.0</ele><time>2026-04-12T08:20:51.983Z</time></trkpt><trkpt lat="43.63917916456627" lon="3.705957014323493"><ele>132.0</ele><time>2026-04-12T08:21:08.983Z</time></trkpt><trkpt lat="43.6391863947046" lon="3.70583593548415"><ele>132.0</ele><time>2026-04-12T08:21:11.983Z</time></trkpt><trkpt lat="43.63918122661416" lon="3.7057403110524976"><ele>132.0</ele><time>2026-04-12T08:21:13.983Z</time></trkpt><trkpt lat="43.639176861220676" lon="3.705648616323631"><ele>132.0</ele><time>2026-04-12T08:21:15.983Z</time></trkpt><trkpt lat="43.639168601758996" lon="3.7055504457928863"><ele>132.0</ele><time>2026-04-12T08:21:17.983Z</time></trkpt><trkpt lat="43.63916850104511" lon="3.7054513485441483"><ele>132.0</ele><time>2026-04-12T08:21:19.983Z</time></trkpt><trkpt lat="43.63915950150891" lon="3.705349958107211"><ele>132.0</ele><time>2026-04-12T08:21:21.983Z</time></trkpt><trkpt lat="43.639154118524225" lon="3.705242507490089"><ele>132.0</ele><time>2026-04-12T08:21:23.983Z</time></trkpt><trkpt lat="43.63914639193531" lon="3.7051322924337002"><ele>132.0</ele><time>2026-04-12T08:21:25.983Z</time></trkpt><trkpt lat="43.63915119157666" lon="3.7050113188793024"><ele>132.0</ele><time>2026-04-12T08:21:27.983Z</time></trkpt><trkpt lat="43.639144635836885" lon="3.7049063153717388"><ele>131.83333333333334</ele><time>2026-04-12T08:21:29.983Z</time></trkpt><trkpt lat="43.639165351024936" lon="3.704782595066769"><ele>131.66666666666666</ele><time>2026-04-12T08:21:31.983Z</time></trkpt><trkpt lat="43.639181152173656" lon="3.704666479387768"><ele>131.5</ele><time>2026-04-12T08:21:33.983Z</time></trkpt><trkpt lat="43.63921967879677" lon="3.7045508871385042"><ele>131.33333333333331</ele><time>2026-04-12T08:21:35.983Z</time></trkpt><trkpt lat="43.639254314960006" lon="3.7044530237877766"><ele>131.16666666666666</ele><time>2026-04-12T08:21:37.983Z</time></trkpt><trkpt lat="43.639283591761085" lon="3.7043575310590517"><ele>131.0</ele><time>2026-04-12T08:21:39.983Z</time></trkpt><trkpt lat="43.63935811003179" lon="3.7043251800292136"><ele>131.0</ele><time>2026-04-12T08:21:42.983Z</time></trkpt><trkpt lat="43.63940737252429" lon="3.7043959555840815"><ele>131.0</ele><time>2026-04-12T08:21:45.983Z</time></trkpt><trkpt lat="43.6394432280319" lon="3.704496197954385"><ele>131.0</ele><time>2026-04-12T08:21:49.983Z</time></trkpt><trkpt lat="43.63947216141613" lon="3.7045739852661264"><ele>131.0</ele><time>2026-04-12T08:21:52.983Z</time></trkpt><trkpt lat="43.639451992590885" lon="3.704668824592418"><ele>131.0</ele><time>2026-04-12T08:21:54.983Z</time></trkpt><trkpt lat="43.639448821175016" lon="3.7047686168568528"><ele>131.0</ele><time>2026-04-12T08:21:56.983Z</time></trkpt><trkpt lat="43.63945169793299" lon="3.704869114761658"><ele>131.0</ele><time>2026-04-12T08:21:58.982Z</time></trkpt><trkpt lat="43.63947679044562" lon="3.705003326072605"><ele>132.0</ele><time>2026-04-12T08:22:01.982Z</time></trkpt><trkpt lat="43.639489116614335" lon="3.7051029497444725"><ele>133.0</ele><time>2026-04-12T08:22:03.982Z</time></trkpt><trkpt lat="43.6394982628156" lon="3.705190487085417"><ele>134.0</ele><time>2026-04-12T08:22:05.982Z</time></trkpt><trkpt lat="43.639533812539064" lon="3.705274230154881"><ele>135.0</ele><time>2026-04-12T08:22:07.982Z</time></trkpt><trkpt lat="43.63955228843862" lon="3.7053745965693707"><ele>136.0</ele><time>2026-04-12T08:22:10.982Z</time></trkpt><trkpt lat="43.63958512856994" lon="3.7054502144479207"><ele>137.0</ele><time>2026-04-12T08:22:13.982Z</time></trkpt><trkpt lat="43.639654678816015" lon="3.705474521988428"><ele>138.0</ele><time>2026-04-12T08:22:17.982Z</time></trkpt><trkpt lat="43.63969038848297" lon="3.705552224492502"><ele>138.16666666666666</ele><time>2026-04-12T08:22:20.982Z</time></trkpt><trkpt lat="43.63972611449937" lon="3.705653469224894"><ele>138.33333333333334</ele><time>2026-04-12T08:22:22.984Z</time></trkpt><trkpt lat="43.639759707362686" lon="3.7057526215987693"><ele>138.5</ele><time>2026-04-12T08:22:24.984Z</time></trkpt><trkpt lat="43.639805199326744" lon="3.7058499530911653"><ele>138.66666666666669</ele><time>2026-04-12T08:22:26.984Z</time></trkpt><trkpt lat="43.63983370561064" lon="3.70595431745922"><ele>138.83333333333334</ele><time>2026-04-12T08:22:28.984Z</time></trkpt><trkpt lat="43.63984002771807" lon="3.7060477735768034"><ele>139.0</ele><time>2026-04-12T08:22:30.984Z</time></trkpt><trkpt lat="43.63989012377663" lon="3.706125675573646"><ele>139.33333333333334</ele><time>2026-04-12T08:22:32.983Z</time></trkpt><trkpt lat="43.63992068923641" lon="3.7062484633314736"><ele>139.66666666666669</ele><time>2026-04-12T08:22:34.984Z</time></trkpt><trkpt lat="43.63997328513016" lon="3.706322362427132"><ele>140.0</ele><time>2026-04-12T08:22:36.984Z</time></trkpt><trkpt lat="43.63998707859091" lon="3.7064239015870086"><ele>140.33333333333334</ele><time>2026-04-12T08:22:38.984Z</time></trkpt><trkpt lat="43.63998856516212" lon="3.7065327314065115"><ele>140.66666666666666</ele><time>2026-04-12T08:22:40.984Z</time></trkpt><trkpt lat="43.63998747695401" lon="3.7066362260187806"><ele>141.0</ele><time>2026-04-12T08:22:42.984Z</time></trkpt><trkpt lat="43.6399901203975" lon="3.7067455508330998"><ele>141.0</ele><time>2026-04-12T08:22:44.984Z</time></trkpt><trkpt lat="43.639994156162594" lon="3.706858699268813"><ele>141.0</ele><time>2026-04-12T08:22:46.984Z</time></trkpt><trkpt lat="43.639989346365795" lon="3.7069737700541996"><ele>141.0</ele><time>2026-04-12T08:22:48.984Z</time></trkpt><trkpt lat="43.639988992091" lon="3.707077650475612"><ele>141.0</ele><time>2026-04-12T08:22:50.984Z</time></trkpt><trkpt lat="43.63997709830653" lon="3.7071860819783464"><ele>141.0</ele><time>2026-04-12T08:22:52.984Z</time></trkpt><trkpt lat="43.639966277966096" lon="3.7072781155619436"><ele>141.0</ele><time>2026-04-12T08:22:54.984Z</time></trkpt><trkpt lat="43.63997343004028" lon="3.707364848209206"><ele>141.0</ele><time>2026-04-12T08:22:56.984Z</time></trkpt><trkpt lat="43.63996021890636" lon="3.707450784144416"><ele>141.0</ele><time>2026-04-12T08:22:58.984Z</time></trkpt><trkpt lat="43.63994018495805" lon="3.7075612270781866"><ele>141.0</ele><time>2026-04-12T08:23:01.984Z</time></trkpt><trkpt lat="43.63991662127653" lon="3.7076726660210095"><ele>141.0</ele><time>2026-04-12T08:23:04.984Z</time></trkpt><trkpt lat="43.63989665358083" lon="3.707760466858723"><ele>141.0</ele><time>2026-04-12T08:23:07.984Z</time></trkpt><trkpt lat="43.639882777119304" lon="3.707878235170846"><ele>141.0</ele><time>2026-04-12T08:23:12.984Z</time></trkpt><trkpt lat="43.63987059431754" lon="3.7079687349765824"><ele>141.0</ele><time>2026-04-12T08:23:15.984Z</time></trkpt><trkpt lat="43.63987913460554" lon="3.7080640217514027"><ele>141.0</ele><time>2026-04-12T08:23:21.984Z</time></trkpt><trkpt lat="43.639886196922724" lon="3.7081731242834133"><ele>141.0</ele><time>2026-04-12T08:23:25.983Z</time></trkpt><trkpt lat="43.639882029242045" lon="3.7082880562343514"><ele>141.0</ele><time>2026-04-12T08:23:29.983Z</time></trkpt><trkpt lat="43.63986846063601" lon="3.708383833782044"><ele>141.0</ele><time>2026-04-12T08:23:32.983Z</time></trkpt><trkpt lat="43.6398624968859" lon="3.7084981595027195"><ele>141.0</ele><time>2026-04-12T08:23:35.983Z</time></trkpt><trkpt lat="43.639843327241984" lon="3.708594498803272"><ele>140.66666666666666</ele><time>2026-04-12T08:23:37.983Z</time></trkpt><trkpt lat="43.639808211948626" lon="3.708688521040162"><ele>140.33333333333334</ele><time>2026-04-12T08:23:39.983Z</time></trkpt><trkpt lat="43.639765123987964" lon="3.708819039431496"><ele>140.0</ele><time>2026-04-12T08:23:42.983Z</time></trkpt><trkpt lat="43.63973010930361" lon="3.7089361827494174"><ele>139.66666666666669</ele><time>2026-04-12T08:23:44.983Z</time></trkpt><trkpt lat="43.63971606412279" lon="3.7090479714147704"><ele>139.33333333333334</ele><time>2026-04-12T08:23:46.983Z</time></trkpt><trkpt lat="43.63970309638069" lon="3.7091390127446275"><ele>139.0</ele><time>2026-04-12T08:23:48.983Z</time></trkpt><trkpt lat="43.639705685747124" lon="3.7092665826005304"><ele>139.0</ele><time>2026-04-12T08:23:51.983Z</time></trkpt><trkpt lat="43.639698552930255" lon="3.709367941087143"><ele>139.0</ele><time>2026-04-12T08:23:53.983Z</time></trkpt><trkpt lat="43.639687381529725" lon="3.70947878335465"><ele>139.0</ele><time>2026-04-12T08:23:55.983Z</time></trkpt><trkpt lat="43.63962903489135" lon="3.7095335690977183"><ele>139.0</ele><time>2026-04-12T08:23:56.983Z</time></trkpt><trkpt lat="43.63959111044405" lon="3.709612452041519"><ele>139.0</ele><time>2026-04-12T08:23:57.983Z</time></trkpt><trkpt lat="43.63957029585902" lon="3.709729928393998"><ele>139.0</ele><time>2026-04-12T08:23:58.983Z</time></trkpt><trkpt lat="43.63952474800621" lon="3.709862776392115"><ele>139.0</ele><time>2026-04-12T08:24:00.983Z</time></trkpt><trkpt lat="43.63949188271642" lon="3.7099421788661013"><ele>139.0</ele><time>2026-04-12T08:24:01.983Z</time></trkpt><trkpt lat="43.63944211699461" lon="3.710062764952009"><ele>139.0</ele><time>2026-04-12T08:24:03.983Z</time></trkpt><trkpt lat="43.639391168587416" lon="3.7101811747959212"><ele>139.0</ele><time>2026-04-12T08:24:05.983Z</time></trkpt><trkpt lat="43.63934045375403" lon="3.7102414559962877"><ele>139.0</ele><time>2026-04-12T08:24:07.983Z</time></trkpt><trkpt lat="43.63928332260713" lon="3.710318636514311"><ele>139.0</ele><time>2026-04-12T08:24:09.983Z</time></trkpt><trkpt lat="43.639221693843865" lon="3.710420903886053"><ele>139.6</ele><time>2026-04-12T08:24:11.983Z</time></trkpt><trkpt lat="43.63924011347278" lon="3.7105477172949977"><ele>140.2</ele><time>2026-04-12T08:24:13.983Z</time></trkpt><trkpt lat="43.63920400855609" lon="3.710693960348068"><ele>140.79999999999998</ele><time>2026-04-12T08:24:15.983Z</time></trkpt><trkpt lat="43.639163929310946" lon="3.710824872012819"><ele>141.4</ele><time>2026-04-12T08:24:17.983Z</time></trkpt><trkpt lat="43.63913038122919" lon="3.7109569323696454"><ele>142.0</ele><time>2026-04-12T08:24:19.983Z</time></trkpt><trkpt lat="43.63920036578614" lon="3.7110897646169576"><ele>142.0</ele><time>2026-04-12T08:24:21.983Z</time></trkpt><trkpt lat="43.63926200956455" lon="3.7111656373347754"><ele>142.0</ele><time>2026-04-12T08:24:23.983Z</time></trkpt><trkpt lat="43.63928836844442" lon="3.7113355835424113"><ele>142.0</ele><time>2026-04-12T08:24:25.983Z</time></trkpt><trkpt lat="43.63932257674277" lon="3.7114825342140225"><ele>142.0</ele><time>2026-04-12T08:24:27.984Z</time></trkpt><trkpt lat="43.6394119973156" lon="3.711551450792544"><ele>142.0</ele><time>2026-04-12T08:24:29.983Z</time></trkpt><trkpt lat="43.63951904130037" lon="3.711524008015006"><ele>140.5</ele><time>2026-04-12T08:24:31.984Z</time></trkpt><trkpt lat="43.63957974254396" lon="3.71155708541161"><ele>139.0</ele><time>2026-04-12T08:24:32.984Z</time></trkpt><trkpt lat="43.6397076692532" lon="3.7115950712582615"><ele>137.5</ele><time>2026-04-12T08:24:34.984Z</time></trkpt><trkpt lat="43.63976967455935" lon="3.7115678416413123"><ele>136.0</ele><time>2026-04-12T08:24:35.984Z</time></trkpt><trkpt lat="43.63983849783283" lon="3.7115263869288486"><ele>134.5</ele><time>2026-04-12T08:24:37.984Z</time></trkpt><trkpt lat="43.63991221115131" lon="3.711516705956755"><ele>133.0</ele><time>2026-04-12T08:24:39.984Z</time></trkpt><trkpt lat="43.639988991535034" lon="3.7115511306339073"><ele>133.0</ele><time>2026-04-12T08:24:41.984Z</time></trkpt><trkpt lat="43.640067100867896" lon="3.7115921076641807"><ele>133.0</ele><time>2026-04-12T08:24:43.984Z</time></trkpt><trkpt lat="43.640124770213056" lon="3.7116926920701707"><ele>133.0</ele><time>2026-04-12T08:24:45.984Z</time></trkpt><trkpt lat="43.640173524041785" lon="3.7117887966882064"><ele>133.0</ele><time>2026-04-12T08:24:47.984Z</time></trkpt><trkpt lat="43.640235611216596" lon="3.7118388986909143"><ele>133.0</ele><time>2026-04-12T08:24:49.984Z</time></trkpt><trkpt lat="43.64031734683039" lon="3.711772323145955"><ele>133.0</ele><time>2026-04-12T08:24:52.984Z</time></trkpt><trkpt lat="43.64039372407412" lon="3.7117203987006673"><ele>133.0</ele><time>2026-04-12T08:24:55.984Z</time></trkpt><trkpt lat="43.64048206238647" lon="3.7116989886984886"><ele>133.0</ele><time>2026-04-12T08:24:58.984Z</time></trkpt><trkpt lat="43.64052884658254" lon="3.7117740317894565"><ele>133.0</ele><time>2026-04-12T08:25:00.984Z</time></trkpt><trkpt lat="43.64056036214605" lon="3.711883661168452"><ele>133.0</ele><time>2026-04-12T08:25:03.984Z</time></trkpt><trkpt lat="43.64053651320501" lon="3.711974152279093"><ele>133.0</ele><time>2026-04-12T08:25:06.984Z</time></trkpt><trkpt lat="43.64050420424065" lon="3.712049878591477"><ele>133.0</ele><time>2026-04-12T08:25:09.984Z</time></trkpt><trkpt lat="43.64044337150848" lon="3.712112889919503"><ele>133.57142857142858</ele><time>2026-04-12T08:25:11.984Z</time></trkpt><trkpt lat="43.64045283514036" lon="3.7122171668271733"><ele>134.14285714285714</ele><time>2026-04-12T08:25:13.984Z</time></trkpt><trkpt lat="43.640469694784215" lon="3.712312071187762"><ele>134.71428571428572</ele><time>2026-04-12T08:25:15.984Z</time></trkpt><trkpt lat="43.64048159457162" lon="3.712407934232581"><ele>135.28571428571428</ele><time>2026-04-12T08:25:17.984Z</time></trkpt><trkpt lat="43.6404746559694" lon="3.71253352941567"><ele>135.85714285714286</ele><time>2026-04-12T08:25:20.984Z</time></trkpt><trkpt lat="43.64045220795106" lon="3.712624171751052"><ele>136.42857142857144</ele><time>2026-04-12T08:25:22.984Z</time></trkpt><trkpt lat="43.640432391709886" lon="3.712708856678097"><ele>137.0</ele><time>2026-04-12T08:25:24.984Z</time></trkpt><trkpt lat="43.64038812460248" lon="3.7128149973226328"><ele>137.5</ele><time>2026-04-12T08:25:27.983Z</time></trkpt><trkpt lat="43.64036958518676" lon="3.7129229411780544"><ele>138.0</ele><time>2026-04-12T08:25:30.983Z</time></trkpt><trkpt lat="43.64035981438364" lon="3.7130206669118646"><ele>138.5</ele><time>2026-04-12T08:25:32.983Z</time></trkpt><trkpt lat="43.6402766936583" lon="3.7130394350881617"><ele>139.0</ele><time>2026-04-12T08:25:37.983Z</time></trkpt><trkpt lat="43.64022670160605" lon="3.7129847271440206"><ele>139.5</ele><time>2026-04-12T08:25:39.983Z</time></trkpt><trkpt lat="43.64014582756898" lon="3.7129756069079156"><ele>140.0</ele><time>2026-04-12T08:25:42.983Z</time></trkpt><trkpt lat="43.640069289201904" lon="3.71305481119586"><ele>140.0</ele><time>2026-04-12T08:25:45.983Z</time></trkpt><trkpt lat="43.639994494529155" lon="3.713116505324702"><ele>140.0</ele><time>2026-04-12T08:25:47.983Z</time></trkpt><trkpt lat="43.63994018673308" lon="3.7131605386079385"><ele>140.0</ele><time>2026-04-12T08:25:49.983Z</time></trkpt><trkpt lat="43.63989338582659" lon="3.7132314555584833"><ele>140.0</ele><time>2026-04-12T08:25:51.983Z</time></trkpt><trkpt lat="43.63985064659608" lon="3.713322159890846"><ele>140.0</ele><time>2026-04-12T08:25:53.983Z</time></trkpt><trkpt lat="43.63981824895698" lon="3.7134099334875224"><ele>140.0</ele><time>2026-04-12T08:25:55.983Z</time></trkpt><trkpt lat="43.639754481810726" lon="3.713455477846721"><ele>140.0</ele><time>2026-04-12T08:25:57.983Z</time></trkpt><trkpt lat="43.63968171689291" lon="3.713533112818628"><ele>140.0</ele><time>2026-04-12T08:25:59.983Z</time></trkpt><trkpt lat="43.639582999142185" lon="3.7135602227541686"><ele>140.0</ele><time>2026-04-12T08:26:01.983Z</time></trkpt><trkpt lat="43.639516807237854" lon="3.713631116336166"><ele>140.0</ele><time>2026-04-12T08:26:03.983Z</time></trkpt><trkpt lat="43.63945504371606" lon="3.7137032148072864"><ele>140.0</ele><time>2026-04-12T08:26:06.983Z</time></trkpt><trkpt lat="43.63945158984743" lon="3.7138258127094073"><ele>140.0</ele><time>2026-04-12T08:26:09.983Z</time></trkpt><trkpt lat="43.6394476926746" lon="3.7139307397809085"><ele>140.0</ele><time>2026-04-12T08:26:11.983Z</time></trkpt><trkpt lat="43.63944748255876" lon="3.714023067930148"><ele>140.28571428571428</ele><time>2026-04-12T08:26:13.983Z</time></trkpt><trkpt lat="43.63944123768353" lon="3.7141212538808515"><ele>140.57142857142856</ele><time>2026-04-12T08:26:15.983Z</time></trkpt><trkpt lat="43.63943541152352" lon="3.714229930584803"><ele>140.85714285714286</ele><time>2026-04-12T08:26:18.983Z</time></trkpt><trkpt lat="43.63944581371492" lon="3.71432369752983"><ele>141.14285714285714</ele><time>2026-04-12T08:26:20.983Z</time></trkpt><trkpt lat="43.6394514476512" lon="3.7144284627242685"><ele>141.42857142857142</ele><time>2026-04-12T08:26:22.983Z</time></trkpt><trkpt lat="43.639431218867365" lon="3.7145182329540316"><ele>141.71428571428572</ele><time>2026-04-12T08:26:24.983Z</time></trkpt><trkpt lat="43.63941286699421" lon="3.7146104539906846"><ele>142.0</ele><time>2026-04-12T08:26:26.983Z</time></trkpt><trkpt lat="43.639426629590446" lon="3.714704110725386"><ele>142.33333333333334</ele><time>2026-04-12T08:26:28.983Z</time></trkpt><trkpt lat="43.63946710795653" lon="3.714781843743438"><ele>142.66666666666669</ele><time>2026-04-12T08:26:30.983Z</time></trkpt><trkpt lat="43.639531729736646" lon="3.7148613599126126"><ele>143.0</ele><time>2026-04-12T08:26:33.984Z</time></trkpt><trkpt lat="43.639563266778126" lon="3.7149394896133225"><ele>143.33333333333334</ele><time>2026-04-12T08:26:35.984Z</time></trkpt><trkpt lat="43.639585694762715" lon="3.71505965951891"><ele>143.66666666666666</ele><time>2026-04-12T08:26:38.984Z</time></trkpt><trkpt lat="43.63958868365978" lon="3.7151760936195797"><ele>144.0</ele><time>2026-04-12T08:26:40.984Z</time></trkpt><trkpt lat="43.639595503270414" lon="3.7152803818622275"><ele>143.85714285714286</ele><time>2026-04-12T08:26:43.984Z</time></trkpt><trkpt lat="43.639604771241444" lon="3.715379628074186"><ele>143.71428571428572</ele><time>2026-04-12T08:26:54.984Z</time></trkpt><trkpt lat="43.63958796740951" lon="3.715481673270346"><ele>143.57142857142856</ele><time>2026-04-12T08:26:57.984Z</time></trkpt><trkpt lat="43.639541740835384" lon="3.7155794877429424"><ele>143.42857142857144</ele><time>2026-04-12T08:27:00.984Z</time></trkpt><trkpt lat="43.6394747555519" lon="3.7156140196291187"><ele>143.28571428571428</ele><time>2026-04-12T08:27:02.984Z</time></trkpt><trkpt lat="43.639447013476875" lon="3.715697455511437"><ele>143.14285714285714</ele><time>2026-04-12T08:27:04.984Z</time></trkpt><trkpt lat="43.6394554027589" lon="3.715798353020864"><ele>143.0</ele><time>2026-04-12T08:27:07.984Z</time></trkpt><trkpt lat="43.639460691318966" lon="3.715885849886982"><ele>143.0</ele><time>2026-04-12T08:27:09.984Z</time></trkpt><trkpt lat="43.63939218872956" lon="3.715978690566372"><ele>143.0</ele><time>2026-04-12T08:27:11.984Z</time></trkpt><trkpt lat="43.639312844896374" lon="3.7159284423553993"><ele>143.0</ele><time>2026-04-12T08:27:13.984Z</time></trkpt><trkpt lat="43.63925890574695" lon="3.7158425151634136"><ele>143.0</ele><time>2026-04-12T08:27:16.984Z</time></trkpt><trkpt lat="43.63919296252056" lon="3.715781227452674"><ele>143.0</ele><time>2026-04-12T08:27:19.984Z</time></trkpt><trkpt lat="43.639142425867355" lon="3.7157141047580886"><ele>143.0</ele><time>2026-04-12T08:27:22.984Z</time></trkpt><trkpt lat="43.63908048925772" lon="3.7156520314093147"><ele>142.99999999999997</ele><time>2026-04-12T08:27:25.984Z</time></trkpt><trkpt lat="43.63901964350792" lon="3.7155913474030746"><ele>143.0</ele><time>2026-04-12T08:27:28.984Z</time></trkpt><trkpt lat="43.63896489807705" lon="3.715543118094961"><ele>143.0</ele><time>2026-04-12T08:27:31.983Z</time></trkpt><trkpt lat="43.63891164416517" lon="3.7154703668432907"><ele>143.0</ele><time>2026-04-12T08:27:35.983Z</time></trkpt><trkpt lat="43.63886380648787" lon="3.715412578219785"><ele>143.0</ele><time>2026-04-12T08:27:38.983Z</time></trkpt><trkpt lat="43.63878795784024" lon="3.7153531982664214"><ele>142.99999999999997</ele><time>2026-04-12T08:27:42.983Z</time></trkpt><trkpt lat="43.638722128457076" lon="3.7152861823553396"><ele>143.0</ele><time>2026-04-12T08:27:45.983Z</time></trkpt><trkpt lat="43.63864534216476" lon="3.715210493870399"><ele>143.33333333333331</ele><time>2026-04-12T08:27:48.983Z</time></trkpt><trkpt lat="43.63858199222333" lon="3.7151230463458176"><ele>143.66666666666666</ele><time>2026-04-12T08:27:51.983Z</time></trkpt><trkpt lat="43.638523995405684" lon="3.715065482444562"><ele>144.0</ele><time>2026-04-12T08:27:54.983Z</time></trkpt><trkpt lat="43.63845774725514" lon="3.7149884820595376"><ele>144.33333333333334</ele><time>2026-04-12T08:27:57.983Z</time></trkpt><trkpt lat="43.638415438008245" lon="3.714915319053052"><ele>144.66666666666669</ele><time>2026-04-12T08:27:59.983Z</time></trkpt><trkpt lat="43.63835203198939" lon="3.7148473594599"><ele>145.0</ele><time>2026-04-12T08:28:02.983Z</time></trkpt><trkpt lat="43.63829289898331" lon="3.7148060870549733"><ele>145.0</ele><time>2026-04-12T08:28:05.983Z</time></trkpt><trkpt lat="43.638218914142456" lon="3.714768515891884"><ele>145.0</ele><time>2026-04-12T08:28:08.983Z</time></trkpt><trkpt lat="43.638152986325395" lon="3.7147304571770072"><ele>145.0</ele><time>2026-04-12T08:28:11.983Z</time></trkpt><trkpt lat="43.63809006402558" lon="3.7146924424451946"><ele>145.0</ele><time>2026-04-12T08:28:13.983Z</time></trkpt><trkpt lat="43.6380095199499" lon="3.7146550306169885"><ele>145.0</ele><time>2026-04-12T08:28:16.983Z</time></trkpt><trkpt lat="43.63793211540479" lon="3.714606524917781"><ele>145.0</ele><time>2026-04-12T08:28:19.983Z</time></trkpt><trkpt lat="43.637876439300555" lon="3.7145619744939373"><ele>146.16666666666669</ele><time>2026-04-12T08:28:21.983Z</time></trkpt><trkpt lat="43.63778854516582" lon="3.7145383721182057"><ele>147.33333333333334</ele><time>2026-04-12T08:28:24.983Z</time></trkpt><trkpt lat="43.63769475282422" lon="3.714486833584008"><ele>148.5</ele><time>2026-04-12T08:28:27.983Z</time></trkpt><trkpt lat="43.63762283277883" lon="3.7144855304068325"><ele>149.66666666666666</ele><time>2026-04-12T08:28:29.983Z</time></trkpt><trkpt lat="43.63755496608004" lon="3.7144942273958357"><ele>150.83333333333331</ele><time>2026-04-12T08:28:31.983Z</time></trkpt><trkpt lat="43.63748119967695" lon="3.7145006374912977"><ele>152.0</ele><time>2026-04-12T08:28:33.983Z</time></trkpt><trkpt lat="43.637408298718675" lon="3.714507929153938"><ele>152.0</ele><time>2026-04-12T08:28:35.983Z</time></trkpt><trkpt lat="43.63732811187246" lon="3.714513951365245"><ele>152.0</ele><time>2026-04-12T08:28:37.983Z</time></trkpt><trkpt lat="43.637251632220476" lon="3.7145200179332867"><ele>152.0</ele><time>2026-04-12T08:28:39.985Z</time></trkpt><trkpt lat="43.63717810356162" lon="3.7145266216971207"><ele>152.0</ele><time>2026-04-12T08:28:41.984Z</time></trkpt><trkpt lat="43.63710443555664" lon="3.714538721018082"><ele>152.0</ele><time>2026-04-12T08:28:43.984Z</time></trkpt><trkpt lat="43.637030031318496" lon="3.7145453176121426"><ele>152.0</ele><time>2026-04-12T08:28:45.983Z</time></trkpt><trkpt lat="43.63695145536798" lon="3.71455594620435"><ele>151.42857142857142</ele><time>2026-04-12T08:28:47.984Z</time></trkpt><trkpt lat="43.63687367241703" lon="3.714564913250578"><ele>150.85714285714286</ele><time>2026-04-12T08:28:49.983Z</time></trkpt><trkpt lat="43.636801003755586" lon="3.7145766690864526"><ele>150.28571428571428</ele><time>2026-04-12T08:28:51.984Z</time></trkpt><trkpt lat="43.6367273974304" lon="3.714612453666875"><ele>149.71428571428572</ele><time>2026-04-12T08:28:53.984Z</time></trkpt><trkpt lat="43.63665688464322" lon="3.7146339664527135"><ele>149.14285714285714</ele><time>2026-04-12T08:28:55.984Z</time></trkpt><trkpt lat="43.63659362156393" lon="3.714664048767148"><ele>148.57142857142858</ele><time>2026-04-12T08:28:57.984Z</time></trkpt><trkpt lat="43.63652546197676" lon="3.7147123047041544"><ele>148.0</ele><time>2026-04-12T08:28:59.984Z</time></trkpt><trkpt lat="43.63646692775762" lon="3.714772301819256"><ele>148.0</ele><time>2026-04-12T08:29:01.984Z</time></trkpt><trkpt lat="43.636403780628996" lon="3.714827561907794"><ele>148.0</ele><time>2026-04-12T08:29:03.984Z</time></trkpt><trkpt lat="43.63635867666658" lon="3.7149044438280936"><ele>148.0</ele><time>2026-04-12T08:29:05.984Z</time></trkpt><trkpt lat="43.63631487161521" lon="3.7149836372440923"><ele>148.0</ele><time>2026-04-12T08:29:07.984Z</time></trkpt><trkpt lat="43.6362724737376" lon="3.7150601604002054"><ele>148.0</ele><time>2026-04-12T08:29:09.984Z</time></trkpt><trkpt lat="43.636233108335155" lon="3.715146589546798"><ele>148.0</ele><time>2026-04-12T08:29:11.984Z</time></trkpt><trkpt lat="43.63618829074051" lon="3.715213339605585"><ele>148.0</ele><time>2026-04-12T08:29:13.984Z</time></trkpt><trkpt lat="43.63614416370418" lon="3.7152861323845867"><ele>148.28571428571428</ele><time>2026-04-12T08:29:15.984Z</time></trkpt><trkpt lat="43.63609665503629" lon="3.7153433978651353"><ele>148.57142857142856</ele><time>2026-04-12T08:29:17.984Z</time></trkpt><trkpt lat="43.63605869547954" lon="3.7154129402233504"><ele>148.85714285714283</ele><time>2026-04-12T08:29:19.984Z</time></trkpt><trkpt lat="43.636015543520976" lon="3.7154788347737195"><ele>149.14285714285714</ele><time>2026-04-12T08:29:21.984Z</time></trkpt><trkpt lat="43.63596963741765" lon="3.715544259917654"><ele>149.42857142857142</ele><time>2026-04-12T08:29:23.984Z</time></trkpt><trkpt lat="43.63592467724158" lon="3.715623561404344"><ele>149.7142857142857</ele><time>2026-04-12T08:29:25.984Z</time></trkpt><trkpt lat="43.63587968175742" lon="3.715693599795365"><ele>150.0</ele><time>2026-04-12T08:29:27.984Z</time></trkpt><trkpt lat="43.635831847665095" lon="3.7157670420581335"><ele>149.99999999999997</ele><time>2026-04-12T08:29:29.984Z</time></trkpt><trkpt lat="43.63579685942507" lon="3.7158508977702325"><ele>150.0</ele><time>2026-04-12T08:29:31.983Z</time></trkpt><trkpt lat="43.635763416185256" lon="3.715937401680761"><ele>150.0</ele><time>2026-04-12T08:29:33.983Z</time></trkpt><trkpt lat="43.63573504662793" lon="3.7160285062988576"><ele>150.0</ele><time>2026-04-12T08:29:35.983Z</time></trkpt><trkpt lat="43.635712080650244" lon="3.716112246617835"><ele>150.0</ele><time>2026-04-12T08:29:37.983Z</time></trkpt><trkpt lat="43.63567923475039" lon="3.7162101360505804"><ele>149.99999999999997</ele><time>2026-04-12T08:29:39.983Z</time></trkpt><trkpt lat="43.635658982505625" lon="3.7163059769877016"><ele>150.0</ele><time>2026-04-12T08:29:41.983Z</time></trkpt><trkpt lat="43.63562398865481" lon="3.7163963565899225"><ele>150.0</ele><time>2026-04-12T08:29:43.983Z</time></trkpt><trkpt lat="43.63559992825709" lon="3.716511477927628"><ele>150.0</ele><time>2026-04-12T08:29:45.983Z</time></trkpt><trkpt lat="43.63557189457241" lon="3.7166100045031314"><ele>150.0</ele><time>2026-04-12T08:29:47.983Z</time></trkpt><trkpt lat="43.635535005632164" lon="3.7167101037391737"><ele>150.0</ele><time>2026-04-12T08:29:49.983Z</time></trkpt><trkpt lat="43.63551630809985" lon="3.7168292208381737"><ele>150.0</ele><time>2026-04-12T08:29:51.983Z</time></trkpt><trkpt lat="43.63548243714427" lon="3.716974738143974"><ele>150.0</ele><time>2026-04-12T08:29:54.983Z</time></trkpt><trkpt lat="43.635456126478786" lon="3.7170987759171856"><ele>150.0</ele><time>2026-04-12T08:29:57.983Z</time></trkpt><trkpt lat="43.6354421981615" lon="3.717188075566043"><ele>150.0</ele><time>2026-04-12T08:29:59.983Z</time></trkpt><trkpt lat="43.635529746056015" lon="3.7172552793093816"><ele>150.0</ele><time>2026-04-12T08:30:03.983Z</time></trkpt><trkpt lat="43.635619354758866" lon="3.71731579620339"><ele>150.0</ele><time>2026-04-12T08:30:05.983Z</time></trkpt><trkpt lat="43.63571430827671" lon="3.7173833844191524"><ele>150.0</ele><time>2026-04-12T08:30:07.983Z</time></trkpt><trkpt lat="43.63579577559464" lon="3.717488474939474"><ele>150.0</ele><time>2026-04-12T08:30:09.983Z</time></trkpt><trkpt lat="43.63590954070484" lon="3.7175380294234395"><ele>150.0</ele><time>2026-04-12T08:30:11.983Z</time></trkpt><trkpt lat="43.63597306072776" lon="3.717561466071451"><ele>150.0</ele><time>2026-04-12T08:30:12.983Z</time></trkpt><trkpt lat="43.63608435839521" lon="3.717624678715192"><ele>150.0</ele><time>2026-04-12T08:30:14.983Z</time></trkpt><trkpt lat="43.636187995238494" lon="3.717698542958438"><ele>150.0</ele><time>2026-04-12T08:30:16.983Z</time></trkpt><trkpt lat="43.63624802399004" lon="3.717746480368714"><ele>149.6</ele><time>2026-04-12T08:30:17.983Z</time></trkpt><trkpt lat="43.63636253863659" lon="3.717800984270926"><ele>149.2</ele><time>2026-04-12T08:30:19.983Z</time></trkpt><trkpt lat="43.63645294186017" lon="3.7178353418312673"><ele>148.8</ele><time>2026-04-12T08:30:21.983Z</time></trkpt><trkpt lat="43.63651357033611" lon="3.71793775479315"><ele>148.4</ele><time>2026-04-12T08:30:23.983Z</time></trkpt><trkpt lat="43.63649427577813" lon="3.718038407442249"><ele>148.0</ele><time>2026-04-12T08:30:25.983Z</time></trkpt><trkpt lat="43.636415637416206" lon="3.7180798706896945"><ele>148.0</ele><time>2026-04-12T08:30:27.983Z</time></trkpt><trkpt lat="43.63640963602842" lon="3.7181815014033552"><ele>148.0</ele><time>2026-04-12T08:30:31.983Z</time></trkpt><trkpt lat="43.63643386045689" lon="3.71826356392352"><ele>148.0</ele><time>2026-04-12T08:30:33.983Z</time></trkpt><trkpt lat="43.63639472234554" lon="3.718347049608545"><ele>148.0</ele><time>2026-04-12T08:30:35.983Z</time></trkpt><trkpt lat="43.63639005180287" lon="3.718513170652013"><ele>148.0</ele><time>2026-04-12T08:30:38.982Z</time></trkpt><trkpt lat="43.63640888100948" lon="3.7186054726148123"><ele>148.0</ele><time>2026-04-12T08:30:40.983Z</time></trkpt><trkpt lat="43.636440956764964" lon="3.71868811004799"><ele>148.57142857142858</ele><time>2026-04-12T08:30:42.983Z</time></trkpt><trkpt lat="43.63649315222049" lon="3.7187467665455087"><ele>149.14285714285714</ele><time>2026-04-12T08:30:44.984Z</time></trkpt><trkpt lat="43.636536249876016" lon="3.718814187688697"><ele>149.71428571428572</ele><time>2026-04-12T08:30:46.984Z</time></trkpt><trkpt lat="43.636585716872034" lon="3.718888773034795"><ele>150.28571428571428</ele><time>2026-04-12T08:30:48.985Z</time></trkpt><trkpt lat="43.63663421270773" lon="3.718964878554419"><ele>150.85714285714286</ele><time>2026-04-12T08:30:50.985Z</time></trkpt><trkpt lat="43.63665276347127" lon="3.719059188000759"><ele>151.42857142857142</ele><time>2026-04-12T08:30:52.985Z</time></trkpt><trkpt lat="43.636687314943146" lon="3.719143039941794"><ele>152.0</ele><time>2026-04-12T08:30:54.985Z</time></trkpt><trkpt lat="43.63672291018594" lon="3.7192166082506857"><ele>152.0</ele><time>2026-04-12T08:30:56.984Z</time></trkpt><trkpt lat="43.63676424274146" lon="3.719282806600707"><ele>152.0</ele><time>2026-04-12T08:30:58.985Z</time></trkpt><trkpt lat="43.636819423647246" lon="3.719347924439388"><ele>152.0</ele><time>2026-04-12T08:31:00.985Z</time></trkpt><trkpt lat="43.63683765000265" lon="3.7194426315144202"><ele>152.0</ele><time>2026-04-12T08:31:02.985Z</time></trkpt><trkpt lat="43.6368688385505" lon="3.719541402647563"><ele>152.0</ele><time>2026-04-12T08:31:04.985Z</time></trkpt><trkpt lat="43.63695086339182" lon="3.71960968110967"><ele>152.0</ele><time>2026-04-12T08:31:07.985Z</time></trkpt><trkpt lat="43.636971930056376" lon="3.7197027204894826"><ele>151.0</ele><time>2026-04-12T08:31:09.985Z</time></trkpt><trkpt lat="43.63703970413309" lon="3.719809196926543"><ele>150.0</ele><time>2026-04-12T08:31:12.985Z</time></trkpt><trkpt lat="43.63709472716076" lon="3.71991402731198"><ele>149.0</ele><time>2026-04-12T08:31:14.985Z</time></trkpt><trkpt lat="43.63715753887674" lon="3.7200216380086624"><ele>148.0</ele><time>2026-04-12T08:31:16.985Z</time></trkpt><trkpt lat="43.637215780358645" lon="3.7201271449932602"><ele>147.0</ele><time>2026-04-12T08:31:18.985Z</time></trkpt><trkpt lat="43.637249059362766" lon="3.720263703312306"><ele>147.0</ele><time>2026-04-12T08:31:20.985Z</time></trkpt><trkpt lat="43.63732040620945" lon="3.720367608346289"><ele>147.0</ele><time>2026-04-12T08:31:22.985Z</time></trkpt><trkpt lat="43.637383898827736" lon="3.720536893683157"><ele>147.0</ele><time>2026-04-12T08:31:24.985Z</time></trkpt><trkpt lat="43.637413646840535" lon="3.720688504417259"><ele>147.0</ele><time>2026-04-12T08:31:26.985Z</time></trkpt><trkpt lat="43.63745041582805" lon="3.720813887372617"><ele>147.0</ele><time>2026-04-12T08:31:28.985Z</time></trkpt><trkpt lat="43.637475847089824" lon="3.72094636283882"><ele>147.0</ele><time>2026-04-12T08:31:30.985Z</time></trkpt><trkpt lat="43.637498794883584" lon="3.721046441325864"><ele>147.0</ele><time>2026-04-12T08:31:32.985Z</time></trkpt><trkpt lat="43.63748634027665" lon="3.7211422444917486"><ele>147.0</ele><time>2026-04-12T08:31:34.985Z</time></trkpt><trkpt lat="43.637470664346885" lon="3.7212346351480354"><ele>147.0</ele><time>2026-04-12T08:31:36.985Z</time></trkpt><trkpt lat="43.637480792572156" lon="3.7213292830977807"><ele>147.0</ele><time>2026-04-12T08:31:38.985Z</time></trkpt><trkpt lat="43.63749193918972" lon="3.7214521237692884"><ele>147.66666666666666</ele><time>2026-04-12T08:31:41.985Z</time></trkpt><trkpt lat="43.63748645295192" lon="3.7215434691062543"><ele>148.33333333333334</ele><time>2026-04-12T08:31:43.985Z</time></trkpt><trkpt lat="43.63750162638831" lon="3.721673304537569"><ele>149.0</ele><time>2026-04-12T08:31:46.984Z</time></trkpt><trkpt lat="43.63753363382304" lon="3.721765082914276"><ele>149.66666666666669</ele><time>2026-04-12T08:31:48.984Z</time></trkpt><trkpt lat="43.63757061997556" lon="3.721870740234078"><ele>150.33333333333334</ele><time>2026-04-12T08:31:50.984Z</time></trkpt><trkpt lat="43.6376226294996" lon="3.7219601166118905"><ele>151.0</ele><time>2026-04-12T08:31:52.984Z</time></trkpt><trkpt lat="43.63769649225655" lon="3.722011314934777"><ele>151.16666666666669</ele><time>2026-04-12T08:31:54.984Z</time></trkpt><trkpt lat="43.63772826981983" lon="3.7221181628093922"><ele>151.33333333333334</ele><time>2026-04-12T08:31:56.984Z</time></trkpt><trkpt lat="43.6377332638341" lon="3.7222112438583546"><ele>151.5</ele><time>2026-04-12T08:31:58.984Z</time></trkpt><trkpt lat="43.637748559106164" lon="3.722317048446045"><ele>151.66666666666666</ele><time>2026-04-12T08:32:00.984Z</time></trkpt><trkpt lat="43.63773725055672" lon="3.722461942710552"><ele>151.83333333333331</ele><time>2026-04-12T08:32:02.984Z</time></trkpt><trkpt lat="43.6377231718054" lon="3.7226092505101076"><ele>152.0</ele><time>2026-04-12T08:32:04.984Z</time></trkpt><trkpt lat="43.637697335067706" lon="3.7227257464974106"><ele>152.33333333333331</ele><time>2026-04-12T08:32:06.984Z</time></trkpt><trkpt lat="43.637696282242544" lon="3.7228572502485844"><ele>152.66666666666666</ele><time>2026-04-12T08:32:08.984Z</time></trkpt><trkpt lat="43.637717195659725" lon="3.722981884257752"><ele>153.0</ele><time>2026-04-12T08:32:10.984Z</time></trkpt><trkpt lat="43.637728407371945" lon="3.723070789470128"><ele>153.33333333333334</ele><time>2026-04-12T08:32:11.984Z</time></trkpt><trkpt lat="43.63776200100454" lon="3.72318902053859"><ele>153.66666666666669</ele><time>2026-04-12T08:32:13.984Z</time></trkpt><trkpt lat="43.637797453358374" lon="3.7232884953726333"><ele>154.0</ele><time>2026-04-12T08:32:15.984Z</time></trkpt><trkpt lat="43.63778060931758" lon="3.7234249496408074"><ele>154.6</ele><time>2026-04-12T08:32:17.984Z</time></trkpt><trkpt lat="43.63779186245215" lon="3.723578899737593"><ele>155.2</ele><time>2026-04-12T08:32:19.984Z</time></trkpt><trkpt lat="43.63779568553953" lon="3.723715108716427"><ele>155.79999999999998</ele><time>2026-04-12T08:32:21.984Z</time></trkpt><trkpt lat="43.637792055818466" lon="3.723858788904864"><ele>156.4</ele><time>2026-04-12T08:32:23.984Z</time></trkpt><trkpt lat="43.63782828582958" lon="3.72398239731193"><ele>157.0</ele><time>2026-04-12T08:32:25.984Z</time></trkpt><trkpt lat="43.637873108125255" lon="3.7241455888576245"><ele>157.16666666666669</ele><time>2026-04-12T08:32:28.984Z</time></trkpt><trkpt lat="43.637882382449625" lon="3.724243563584663"><ele>157.33333333333334</ele><time>2026-04-12T08:32:31.984Z</time></trkpt><trkpt lat="43.63786578932379" lon="3.7243366578902277"><ele>157.5</ele><time>2026-04-12T08:32:33.984Z</time></trkpt><trkpt lat="43.637871215306454" lon="3.724440085947652"><ele>157.66666666666666</ele><time>2026-04-12T08:32:35.984Z</time></trkpt><trkpt lat="43.637846190440946" lon="3.7245422883080903"><ele>157.83333333333331</ele><time>2026-04-12T08:32:37.984Z</time></trkpt><trkpt lat="43.63781920371047" lon="3.7246552083245903"><ele>158.0</ele><time>2026-04-12T08:32:39.984Z</time></trkpt><trkpt lat="43.637784794821215" lon="3.724751485187742"><ele>158.0</ele><time>2026-04-12T08:32:41.984Z</time></trkpt><trkpt lat="43.63775836693166" lon="3.7248533427802197"><ele>158.0</ele><time>2026-04-12T08:32:43.984Z</time></trkpt><trkpt lat="43.63774661966302" lon="3.724977810618054"><ele>158.0</ele><time>2026-04-12T08:32:46.984Z</time></trkpt><trkpt lat="43.63774860604075" lon="3.7250923935732985"><ele>158.0</ele><time>2026-04-12T08:32:49.984Z</time></trkpt><trkpt lat="43.6377888690637" lon="3.725175920109327"><ele>158.0</ele><time>2026-04-12T08:32:51.985Z</time></trkpt><trkpt lat="43.63778838499776" lon="3.7252803875904377"><ele>158.0</ele><time>2026-04-12T08:32:54.985Z</time></trkpt><trkpt lat="43.637802321920944" lon="3.7253941731870355"><ele>158.16666666666666</ele><time>2026-04-12T08:32:58.986Z</time></trkpt><trkpt lat="43.63776888512962" lon="3.725482628220802"><ele>158.33333333333331</ele><time>2026-04-12T08:33:00.985Z</time></trkpt><trkpt lat="43.63773060660119" lon="3.72556885637707"><ele>158.5</ele><time>2026-04-12T08:33:02.986Z</time></trkpt><trkpt lat="43.63770306080044" lon="3.7256513207472803"><ele>158.66666666666666</ele><time>2026-04-12T08:33:04.985Z</time></trkpt><trkpt lat="43.637667275808404" lon="3.725749350115105"><ele>158.83333333333334</ele><time>2026-04-12T08:33:07.985Z</time></trkpt><trkpt lat="43.6376245405568" lon="3.7258498189707794"><ele>159.0</ele><time>2026-04-12T08:33:10.985Z</time></trkpt><trkpt lat="43.63758757495884" lon="3.725942825163005"><ele>159.0</ele><time>2026-04-12T08:33:13.985Z</time></trkpt><trkpt lat="43.637545936759466" lon="3.7260397853604963"><ele>159.0</ele><time>2026-04-12T08:33:16.985Z</time></trkpt><trkpt lat="43.63750671324832" lon="3.7261501662510317"><ele>159.0</ele><time>2026-04-12T08:33:19.985Z</time></trkpt><trkpt lat="43.637445943038244" lon="3.7262369015545014"><ele>159.0</ele><time>2026-04-12T08:33:22.985Z</time></trkpt><trkpt lat="43.63739879010888" lon="3.7263341718889875"><ele>159.0</ele><time>2026-04-12T08:33:25.985Z</time></trkpt><trkpt lat="43.63735615336316" lon="3.7264288915058414"><ele>159.0</ele><time>2026-04-12T08:33:28.985Z</time></trkpt><trkpt lat="43.637325753130156" lon="3.7265194422546735"><ele>158.66666666666666</ele><time>2026-04-12T08:33:31.985Z</time></trkpt><trkpt lat="43.63728322659389" lon="3.7266054553583756"><ele>158.33333333333334</ele><time>2026-04-12T08:33:34.985Z</time></trkpt><trkpt lat="43.63724633651306" lon="3.7267055719162143"><ele>158.0</ele><time>2026-04-12T08:33:37.985Z</time></trkpt><trkpt lat="43.637194456621486" lon="3.7268060226737143"><ele>157.66666666666669</ele><time>2026-04-12T08:33:40.985Z</time></trkpt><trkpt lat="43.6371467341164" lon="3.726911925299219"><ele>157.33333333333334</ele><time>2026-04-12T08:33:43.985Z</time></trkpt><trkpt lat="43.63709531605819" lon="3.727001775020207"><ele>157.0</ele><time>2026-04-12T08:33:46.985Z</time></trkpt><trkpt lat="43.63705340139842" lon="3.7271035204396394"><ele>156.16666666666669</ele><time>2026-04-12T08:33:49.985Z</time></trkpt><trkpt lat="43.6370092255889" lon="3.72719605696069"><ele>155.33333333333334</ele><time>2026-04-12T08:33:52.985Z</time></trkpt><trkpt lat="43.63696169377882" lon="3.7272991379464337"><ele>154.5</ele><time>2026-04-12T08:33:55.985Z</time></trkpt><trkpt lat="43.63692081870665" lon="3.727365349097651"><ele>153.66666666666666</ele><time>2026-04-12T08:33:57.985Z</time></trkpt><trkpt lat="43.63687467592181" lon="3.7274503643719132"><ele>152.83333333333331</ele><time>2026-04-12T08:34:00.985Z</time></trkpt><trkpt lat="43.63682801678569" lon="3.7275599949973524"><ele>152.0</ele><time>2026-04-12T08:34:03.985Z</time></trkpt><trkpt lat="43.6367752735285" lon="3.7276555888842453"><ele>153.57142857142856</ele><time>2026-04-12T08:34:06.984Z</time></trkpt><trkpt lat="43.63673354423869" lon="3.7277223719570927"><ele>155.14285714285717</ele><time>2026-04-12T08:34:08.984Z</time></trkpt><trkpt lat="43.63669112050912" lon="3.727801059649002"><ele>156.71428571428572</ele><time>2026-04-12T08:34:10.984Z</time></trkpt><trkpt lat="43.636661524410236" lon="3.727880329702301"><ele>158.28571428571428</ele><time>2026-04-12T08:34:14.984Z</time></trkpt><trkpt lat="43.6366724170739" lon="3.7279676927281704"><ele>159.85714285714283</ele><time>2026-04-12T08:34:36.984Z</time></trkpt><trkpt lat="43.63667805940414" lon="3.728055679971134"><ele>161.42857142857144</ele><time>2026-04-12T08:34:56.985Z</time></trkpt><trkpt lat="43.63666169990908" lon="3.7281618465811577"><ele>163.0</ele><time>2026-04-12T08:34:58.986Z</time></trkpt><trkpt lat="43.63664239966703" lon="3.728284694938067"><ele>163.2</ele><time>2026-04-12T08:35:00.985Z</time></trkpt><trkpt lat="43.63662146981717" lon="3.728401412721639"><ele>163.4</ele><time>2026-04-12T08:35:02.985Z</time></trkpt><trkpt lat="43.636604798589936" lon="3.7285255318815054"><ele>163.6</ele><time>2026-04-12T08:35:04.986Z</time></trkpt><trkpt lat="43.636592329731165" lon="3.728663075598584"><ele>163.79999999999998</ele><time>2026-04-12T08:35:06.985Z</time></trkpt><trkpt lat="43.63657815551792" lon="3.728797853206105"><ele>164.0</ele><time>2026-04-12T08:35:08.985Z</time></trkpt><trkpt lat="43.636548510300386" lon="3.728943489255357"><ele>164.5</ele><time>2026-04-12T08:35:10.985Z</time></trkpt><trkpt lat="43.636546723912716" lon="3.729099461372465"><ele>165.0</ele><time>2026-04-12T08:35:12.985Z</time></trkpt><trkpt lat="43.636534772673976" lon="3.729263442569736"><ele>165.5</ele><time>2026-04-12T08:35:14.985Z</time></trkpt><trkpt lat="43.636499075236" lon="3.7294161066459854"><ele>166.0</ele><time>2026-04-12T08:35:16.985Z</time></trkpt><trkpt lat="43.63650919743616" lon="3.729576936237922"><ele>166.0</ele><time>2026-04-12T08:35:18.985Z</time></trkpt><trkpt lat="43.63649630726766" lon="3.7297416709597564"><ele>166.0</ele><time>2026-04-12T08:35:20.985Z</time></trkpt><trkpt lat="43.63648501462867" lon="3.729832297272667"><ele>166.0</ele><time>2026-04-12T08:35:21.985Z</time></trkpt><trkpt lat="43.63646207522992" lon="3.7299178357661624"><ele>166.0</ele><time>2026-04-12T08:35:22.985Z</time></trkpt><trkpt lat="43.636449929696106" lon="3.7300701938005636"><ele>166.0</ele><time>2026-04-12T08:35:24.985Z</time></trkpt><trkpt lat="43.63647332046786" lon="3.7302425848479794"><ele>166.0</ele><time>2026-04-12T08:35:26.985Z</time></trkpt><trkpt lat="43.636222923048294" lon="3.7303796474004085"><ele>166.0</ele><time>2026-04-12T08:35:28.985Z</time></trkpt><trkpt lat="43.63621633602544" lon="3.7304691169512796"><ele>166.0</ele><time>2026-04-12T08:35:29.985Z</time></trkpt><trkpt lat="43.6362096304952" lon="3.7305601961531156"><ele>166.0</ele><time>2026-04-12T08:35:30.985Z</time></trkpt><trkpt lat="43.6362031663224" lon="3.7306479973299984"><ele>166.0</ele><time>2026-04-12T08:35:31.985Z</time></trkpt><trkpt lat="43.63619186364274" lon="3.7308015178815372"><ele>166.0</ele><time>2026-04-12T08:35:33.985Z</time></trkpt><trkpt lat="43.63637095375038" lon="3.7308992306725752"><ele>166.0</ele><time>2026-04-12T08:35:34.985Z</time></trkpt><trkpt lat="43.63617541373032" lon="3.731024952173105"><ele>165.60000000000002</ele><time>2026-04-12T08:35:36.985Z</time></trkpt><trkpt lat="43.63616418888534" lon="3.731177415937582"><ele>165.2</ele><time>2026-04-12T08:35:38.985Z</time></trkpt><trkpt lat="43.6361528237305" lon="3.7313317856181607"><ele>164.8</ele><time>2026-04-12T08:35:40.985Z</time></trkpt><trkpt lat="43.63614634663155" lon="3.7314198019202176"><ele>164.39999999999998</ele><time>2026-04-12T08:35:41.985Z</time></trkpt><trkpt lat="43.63613554992207" lon="3.731566574024286"><ele>164.0</ele><time>2026-04-12T08:35:43.985Z</time></trkpt><trkpt lat="43.636123914078794" lon="3.731724753740696"><ele>166.16666666666666</ele><time>2026-04-12T08:35:45.985Z</time></trkpt><trkpt lat="43.63611133605204" lon="3.7318957415740677"><ele>168.33333333333331</ele><time>2026-04-12T08:35:47.984Z</time></trkpt><trkpt lat="43.63610448298084" lon="3.731992867467557"><ele>170.5</ele><time>2026-04-12T08:35:48.984Z</time></trkpt><trkpt lat="43.63609968766942" lon="3.7320841967044"><ele>172.66666666666666</ele><time>2026-04-12T08:35:49.984Z</time></trkpt><trkpt lat="43.63609545256259" lon="3.7321818044995996"><ele>174.83333333333334</ele><time>2026-04-12T08:35:50.984Z</time></trkpt><trkpt lat="43.63609289457711" lon="3.7322776956704593"><ele>177.0</ele><time>2026-04-12T08:35:51.984Z</time></trkpt><trkpt lat="43.63609193092409" lon="3.7323696598063725"><ele>174.25</ele><time>2026-04-12T08:35:52.984Z</time></trkpt><trkpt lat="43.63628971057904" lon="3.7325015014433807"><ele>171.5</ele><time>2026-04-12T08:35:54.984Z</time></trkpt><trkpt lat="43.63629524716404" lon="3.7326465179043176"><ele>168.75</ele><time>2026-04-12T08:35:56.984Z</time></trkpt><trkpt lat="43.63629563634709" lon="3.732765513582474"><ele>166.0</ele><time>2026-04-12T08:35:58.984Z</time></trkpt><trkpt lat="43.636282843084764" lon="3.732900299175088"><ele>166.0</ele><time>2026-04-12T08:36:00.984Z</time></trkpt><trkpt lat="43.63628563160486" lon="3.7330169337272188"><ele>166.0</ele><time>2026-04-12T08:36:02.984Z</time></trkpt><trkpt lat="43.63631485884675" lon="3.733157894628008"><ele>166.0</ele><time>2026-04-12T08:36:04.984Z</time></trkpt><trkpt lat="43.63632788274149" lon="3.7332476193016944"><ele>166.0</ele><time>2026-04-12T08:36:05.984Z</time></trkpt><trkpt lat="43.63633496986629" lon="3.733369051085707"><ele>166.0</ele><time>2026-04-12T08:36:06.984Z</time></trkpt><trkpt lat="43.636352114639294" lon="3.733482750538309"><ele>166.0</ele><time>2026-04-12T08:36:07.984Z</time></trkpt><trkpt lat="43.636379541795286" lon="3.733566519272169"><ele>166.57142857142856</ele><time>2026-04-12T08:36:08.984Z</time></trkpt><trkpt lat="43.6364057941789" lon="3.7336543007779217"><ele>167.14285714285717</ele><time>2026-04-12T08:36:09.984Z</time></trkpt><trkpt lat="43.63643470448536" lon="3.733739622274266"><ele>167.71428571428572</ele><time>2026-04-12T08:36:11.984Z</time></trkpt><trkpt lat="43.63645877264562" lon="3.733831105795338"><ele>168.28571428571428</ele><time>2026-04-12T08:36:13.984Z</time></trkpt><trkpt lat="43.63646625549864" lon="3.7339280263589423"><ele>168.85714285714283</ele><time>2026-04-12T08:36:15.984Z</time></trkpt><trkpt lat="43.63647657952185" lon="3.734047341711099"><ele>169.42857142857144</ele><time>2026-04-12T08:36:17.984Z</time></trkpt><trkpt lat="43.63648401304305" lon="3.734159463815565"><ele>170.0</ele><time>2026-04-12T08:36:19.984Z</time></trkpt><trkpt lat="43.63649040803661" lon="3.73429319551943"><ele>170.4</ele><time>2026-04-12T08:36:21.984Z</time></trkpt><trkpt lat="43.63650703784405" lon="3.734452330914661"><ele>170.8</ele><time>2026-04-12T08:36:23.984Z</time></trkpt><trkpt lat="43.63651546920302" lon="3.7345431425475804"><ele>171.2</ele><time>2026-04-12T08:36:24.984Z</time></trkpt><trkpt lat="43.6365189286419" lon="3.734712492507601"><ele>171.6</ele><time>2026-04-12T08:36:26.984Z</time></trkpt><trkpt lat="43.63652721734717" lon="3.734828699318374"><ele>172.0</ele><time>2026-04-12T08:36:28.984Z</time></trkpt><trkpt lat="43.63654655912396" lon="3.7349612174464957"><ele>172.0</ele><time>2026-04-12T08:36:30.984Z</time></trkpt><trkpt lat="43.636563012029306" lon="3.735046192347301"><ele>172.0</ele><time>2026-04-12T08:36:31.984Z</time></trkpt><trkpt lat="43.63658163955652" lon="3.7351316879210916"><ele>172.0</ele><time>2026-04-12T08:36:32.984Z</time></trkpt><trkpt lat="43.63658960248657" lon="3.7352285375105962"><ele>172.0</ele><time>2026-04-12T08:36:33.984Z</time></trkpt><trkpt lat="43.63658897780481" lon="3.735371141086182"><ele>172.0</ele><time>2026-04-12T08:36:35.984Z</time></trkpt><trkpt lat="43.63660126827917" lon="3.735457459315941"><ele>172.0</ele><time>2026-04-12T08:36:36.984Z</time></trkpt><trkpt lat="43.63661051628996" lon="3.7356401121414216"><ele>172.5</ele><time>2026-04-12T08:36:38.984Z</time></trkpt><trkpt lat="43.63661529673809" lon="3.735738829528168"><ele>173.0</ele><time>2026-04-12T08:36:39.984Z</time></trkpt><trkpt lat="43.636502000726075" lon="3.7358726274105543"><ele>173.5</ele><time>2026-04-12T08:36:40.984Z</time></trkpt><trkpt lat="43.63665806026814" lon="3.7359331855936473"><ele>174.0</ele><time>2026-04-12T08:36:41.984Z</time></trkpt><trkpt lat="43.63667671758621" lon="3.736022024161334"><ele>174.39999999999998</ele><time>2026-04-12T08:36:42.984Z</time></trkpt><trkpt lat="43.63668977766314" lon="3.7361104904316558"><ele>174.8</ele><time>2026-04-12T08:36:43.984Z</time></trkpt><trkpt lat="43.63672651983392" lon="3.7362556481238203"><ele>175.2</ele><time>2026-04-12T08:36:45.984Z</time></trkpt><trkpt lat="43.63677247981677" lon="3.7363876078152387"><ele>175.60000000000002</ele><time>2026-04-12T08:36:47.984Z</time></trkpt><trkpt lat="43.636785712158904" lon="3.736473267101137"><ele>176.0</ele><time>2026-04-12T08:36:48.984Z</time></trkpt><trkpt lat="43.63680768620711" lon="3.736634288646386"><ele>176.0</ele><time>2026-04-12T08:36:50.984Z</time></trkpt><trkpt lat="43.6368470272653" lon="3.7367830378994427"><ele>176.0</ele><time>2026-04-12T08:36:52.984Z</time></trkpt><trkpt lat="43.636866103614786" lon="3.736868399460854"><ele>176.0</ele><time>2026-04-12T08:36:53.984Z</time></trkpt><trkpt lat="43.63691774515058" lon="3.73705745242924"><ele>176.0</ele><time>2026-04-12T08:36:55.983Z</time></trkpt><trkpt lat="43.6369501972625" lon="3.737247601997675"><ele>175.66666666666666</ele><time>2026-04-12T08:36:57.983Z</time></trkpt><trkpt lat="43.63695948168899" lon="3.7373541261063967"><ele>175.33333333333331</ele><time>2026-04-12T08:36:58.983Z</time></trkpt><trkpt lat="43.6369899561841" lon="3.737449169681126"><ele>175.0</ele><time>2026-04-12T08:36:59.983Z</time></trkpt><trkpt lat="43.636968148137754" lon="3.737588102031121"><ele>174.66666666666666</ele><time>2026-04-12T08:37:01.983Z</time></trkpt><trkpt lat="43.63697917375475" lon="3.7377217291691"><ele>174.33333333333334</ele><time>2026-04-12T08:37:03.985Z</time></trkpt><trkpt lat="43.63698522081781" lon="3.7378099394573927"><ele>174.0</ele><time>2026-04-12T08:37:04.985Z</time></trkpt><trkpt lat="43.63699693107932" lon="3.7379040983578946"><ele>170.6</ele><time>2026-04-12T08:37:05.985Z</time></trkpt><trkpt lat="43.637015409838476" lon="3.738040841722677"><ele>167.2</ele><time>2026-04-12T08:37:07.985Z</time></trkpt><trkpt lat="43.63701690128133" lon="3.738179045158748"><ele>163.79999999999998</ele><time>2026-04-12T08:37:09.985Z</time></trkpt><trkpt lat="43.63705083085879" lon="3.738358444915081"><ele>160.39999999999998</ele><time>2026-04-12T08:37:11.985Z</time></trkpt><trkpt lat="43.63707812464201" lon="3.7384796616825233"><ele>157.0</ele><time>2026-04-12T08:37:12.986Z</time></trkpt><trkpt lat="43.63706990943563" lon="3.7385980460815547"><ele>156.79999999999998</ele><time>2026-04-12T08:37:13.986Z</time></trkpt><trkpt lat="43.63707516923814" lon="3.738735004443299"><ele>156.6</ele><time>2026-04-12T08:37:15.985Z</time></trkpt><trkpt lat="43.63708080089745" lon="3.73886015513655"><ele>156.39999999999998</ele><time>2026-04-12T08:37:17.985Z</time></trkpt><trkpt lat="43.637058561484984" lon="3.739002129332384"><ele>156.2</ele><time>2026-04-12T08:37:19.985Z</time></trkpt><trkpt lat="43.63706057496071" lon="3.7391477773421262"><ele>156.0</ele><time>2026-04-12T08:37:21.985Z</time></trkpt><trkpt lat="43.637059127531785" lon="3.7392881564143945"><ele>156.2</ele><time>2026-04-12T08:37:23.985Z</time></trkpt><trkpt lat="43.637066654333864" lon="3.739405594959899"><ele>156.39999999999998</ele><time>2026-04-12T08:37:25.985Z</time></trkpt><trkpt lat="43.63710657069662" lon="3.7395963115426825"><ele>156.6</ele><time>2026-04-12T08:37:27.985Z</time></trkpt><trkpt lat="43.6371117364689" lon="3.7396882107743816"><ele>156.79999999999998</ele><time>2026-04-12T08:37:28.985Z</time></trkpt><trkpt lat="43.637119709280874" lon="3.739859809223104"><ele>157.0</ele><time>2026-04-12T08:37:30.985Z</time></trkpt><trkpt lat="43.63716961642085" lon="3.740007546452355"><ele>157.0</ele><time>2026-04-12T08:37:32.985Z</time></trkpt><trkpt lat="43.63720002896994" lon="3.7401050277656442"><ele>157.0</ele><time>2026-04-12T08:37:33.985Z</time></trkpt><trkpt lat="43.63718337437953" lon="3.740279014395975"><ele>157.0</ele><time>2026-04-12T08:37:35.985Z</time></trkpt><trkpt lat="43.63712145984795" lon="3.7404298166526586"><ele>157.0</ele><time>2026-04-12T08:37:37.985Z</time></trkpt><trkpt lat="43.637123996245" lon="3.740601461303714"><ele>156.83333333333334</ele><time>2026-04-12T08:37:39.985Z</time></trkpt><trkpt lat="43.63712879498125" lon="3.740712302607836"><ele>156.66666666666669</ele><time>2026-04-12T08:37:40.985Z</time></trkpt><trkpt lat="43.637116022142685" lon="3.740825234550902"><ele>156.5</ele><time>2026-04-12T08:37:41.985Z</time></trkpt><trkpt lat="43.637092635297066" lon="3.7409289507700287"><ele>156.33333333333334</ele><time>2026-04-12T08:37:42.985Z</time></trkpt><trkpt lat="43.6371266875476" lon="3.74100994541469"><ele>156.16666666666666</ele><time>2026-04-12T08:37:43.985Z</time></trkpt><trkpt lat="43.63712616367211" lon="3.741128405546262"><ele>156.0</ele><time>2026-04-12T08:37:44.985Z</time></trkpt><trkpt lat="43.6371267983798" lon="3.7412192510699858"><ele>156.5</ele><time>2026-04-12T08:37:45.985Z</time></trkpt><trkpt lat="43.63716112246373" lon="3.741300252063642"><ele>157.0</ele><time>2026-04-12T08:37:46.985Z</time></trkpt><trkpt lat="43.63713991073089" lon="3.741412480451114"><ele>157.5</ele><time>2026-04-12T08:37:48.985Z</time></trkpt><trkpt lat="43.63710966392477" lon="3.7415139715838266"><ele>158.0</ele><time>2026-04-12T08:37:51.985Z</time></trkpt><trkpt lat="43.63711044843914" lon="3.741623819543558"><ele>158.5</ele><time>2026-04-12T08:37:54.985Z</time></trkpt><trkpt lat="43.637111044706785" lon="3.7417494549420844"><ele>159.0</ele><time>2026-04-12T08:37:56.985Z</time></trkpt><trkpt lat="43.63714140016576" lon="3.7418591826235708"><ele>159.8</ele><time>2026-04-12T08:37:58.985Z</time></trkpt><trkpt lat="43.637193809951704" lon="3.7420013213255934"><ele>160.60000000000002</ele><time>2026-04-12T08:38:00.985Z</time></trkpt><trkpt lat="43.63725806379158" lon="3.7421242232321608"><ele>161.4</ele><time>2026-04-12T08:38:02.985Z</time></trkpt><trkpt lat="43.637275199662454" lon="3.742266553803287"><ele>162.20000000000002</ele><time>2026-04-12T08:38:04.985Z</time></trkpt><trkpt lat="43.63730519683857" lon="3.742397521773311"><ele>163.0</ele><time>2026-04-12T08:38:06.985Z</time></trkpt><trkpt lat="43.63730337016728" lon="3.742524492595446"><ele>163.0</ele><time>2026-04-12T08:38:08.984Z</time></trkpt><trkpt lat="43.63734881092277" lon="3.7426347731917526"><ele>163.0</ele><time>2026-04-12T08:38:10.984Z</time></trkpt><trkpt lat="43.6374342850538" lon="3.7427461581126984"><ele>163.0</ele><time>2026-04-12T08:38:12.984Z</time></trkpt><trkpt lat="43.637480744809494" lon="3.742833077162787"><ele>163.0</ele><time>2026-04-12T08:38:13.984Z</time></trkpt><trkpt lat="43.63750242508814" lon="3.743000842732359"><ele>163.0</ele><time>2026-04-12T08:38:15.984Z</time></trkpt><trkpt lat="43.63751377748199" lon="3.743100662470769"><ele>163.5</ele><time>2026-04-12T08:38:16.984Z</time></trkpt><trkpt lat="43.63751446224319" lon="3.74321047162703"><ele>164.0</ele><time>2026-04-12T08:38:17.984Z</time></trkpt><trkpt lat="43.63749979050638" lon="3.74330358040114"><ele>164.5</ele><time>2026-04-12T08:38:18.984Z</time></trkpt><trkpt lat="43.63748755960555" lon="3.743442419612297"><ele>165.0</ele><time>2026-04-12T08:38:20.984Z</time></trkpt><trkpt lat="43.6374850933742" lon="3.743556021303513"><ele>165.5</ele><time>2026-04-12T08:38:22.984Z</time></trkpt><trkpt lat="43.637531073317085" lon="3.743660942032346"><ele>166.0</ele><time>2026-04-12T08:38:24.984Z</time></trkpt><trkpt lat="43.63756554513982" lon="3.7437787718639806"><ele>166.16666666666669</ele><time>2026-04-12T08:38:26.984Z</time></trkpt><trkpt lat="43.637602751130686" lon="3.743913083446379"><ele>166.33333333333334</ele><time>2026-04-12T08:38:28.984Z</time></trkpt><trkpt lat="43.637696700113175" lon="3.7440066218996386"><ele>166.5</ele><time>2026-04-12T08:38:30.984Z</time></trkpt><trkpt lat="43.63776519563234" lon="3.7439996473423824"><ele>166.66666666666666</ele><time>2026-04-12T08:38:31.984Z</time></trkpt><trkpt lat="43.63782740703189" lon="3.7439699617309032"><ele>166.83333333333331</ele><time>2026-04-12T08:38:32.984Z</time></trkpt><trkpt lat="43.63790254628461" lon="3.7439783382406335"><ele>167.0</ele><time>2026-04-12T08:38:33.984Z</time></trkpt><trkpt lat="43.63797083136047" lon="3.74397837032414"><ele>165.33333333333331</ele><time>2026-04-12T08:38:34.984Z</time></trkpt><trkpt lat="43.638043015835564" lon="3.743977267158265"><ele>163.66666666666666</ele><time>2026-04-12T08:38:35.984Z</time></trkpt><trkpt lat="43.638126189939925" lon="3.7439729985254537"><ele>162.0</ele><time>2026-04-12T08:38:36.984Z</time></trkpt><trkpt lat="43.63821177941116" lon="3.7439726228255115"><ele>160.33333333333334</ele><time>2026-04-12T08:38:37.984Z</time></trkpt><trkpt lat="43.63828529048918" lon="3.7439516666859336"><ele>158.66666666666669</ele><time>2026-04-12T08:38:38.984Z</time></trkpt><trkpt lat="43.638357200606094" lon="3.7439412184815413"><ele>157.0</ele><time>2026-04-12T08:38:39.984Z</time></trkpt><trkpt lat="43.63843531809031" lon="3.74394265192663"><ele>156.99999999999997</ele><time>2026-04-12T08:38:40.984Z</time></trkpt><trkpt lat="43.638508066611514" lon="3.7439345194071083"><ele>157.0</ele><time>2026-04-12T08:38:41.984Z</time></trkpt><trkpt lat="43.63857204043636" lon="3.7439182750908735"><ele>157.0</ele><time>2026-04-12T08:38:42.984Z</time></trkpt><trkpt lat="43.63865034055048" lon="3.7439051758541817"><ele>157.0</ele><time>2026-04-12T08:38:43.984Z</time></trkpt><trkpt lat="43.63871860867634" lon="3.7438563866114"><ele>157.0</ele><time>2026-04-12T08:38:44.984Z</time></trkpt><trkpt lat="43.638770956974845" lon="3.7437787504458724"><ele>156.99999999999997</ele><time>2026-04-12T08:38:45.984Z</time></trkpt><trkpt lat="43.63880879541747" lon="3.743703028844023"><ele>157.0</ele><time>2026-04-12T08:38:46.984Z</time></trkpt><trkpt lat="43.63893233571345" lon="3.7436873024010278"><ele>156.6</ele><time>2026-04-12T08:38:48.984Z</time></trkpt><trkpt lat="43.63899047187263" lon="3.7436475879126436"><ele>156.2</ele><time>2026-04-12T08:38:49.984Z</time></trkpt><trkpt lat="43.63910140116825" lon="3.743620415337611"><ele>155.8</ele><time>2026-04-12T08:38:51.984Z</time></trkpt><trkpt lat="43.63922138013799" lon="3.7436284599042158"><ele>155.4</ele><time>2026-04-12T08:38:53.984Z</time></trkpt><trkpt lat="43.639305956150515" lon="3.7436638626072987"><ele>155.0</ele><time>2026-04-12T08:38:55.984Z</time></trkpt><trkpt lat="43.63938662161594" lon="3.7436823512718176"><ele>155.0</ele><time>2026-04-12T08:38:58.984Z</time></trkpt><trkpt lat="43.639448796649354" lon="3.7437055298693624"><ele>155.0</ele><time>2026-04-12T08:39:04.984Z</time></trkpt><trkpt lat="43.63952663728977" lon="3.743752403124794"><ele>155.0</ele><time>2026-04-12T08:39:59.985Z</time></trkpt><trkpt lat="43.63960305384645" lon="3.7437744203865435"><ele>155.0</ele><time>2026-04-12T08:40:01.985Z</time></trkpt><trkpt lat="43.639682253062176" lon="3.7438144820700394"><ele>155.0</ele><time>2026-04-12T08:40:03.985Z</time></trkpt><trkpt lat="43.63976074057246" lon="3.7438356124944923"><ele>155.0</ele><time>2026-04-12T08:40:05.985Z</time></trkpt><trkpt lat="43.63979968888136" lon="3.7439047940048105"><ele>155.0</ele><time>2026-04-12T08:40:07.985Z</time></trkpt><trkpt lat="43.6398826078607" lon="3.743876318575239"><ele>155.0</ele><time>2026-04-12T08:40:09.985Z</time></trkpt><trkpt lat="43.639965323674" lon="3.7438911594361715"><ele>155.0</ele><time>2026-04-12T08:40:11.985Z</time></trkpt><trkpt lat="43.64005838012134" lon="3.7439169573099087"><ele>155.0</ele><time>2026-04-12T08:40:13.985Z</time></trkpt><trkpt lat="43.640135724165376" lon="3.7439928894758463"><ele>155.0</ele><time>2026-04-12T08:40:15.985Z</time></trkpt><trkpt lat="43.64020987901207" lon="3.7440932069978734"><ele>155.0</ele><time>2026-04-12T08:40:17.985Z</time></trkpt><trkpt lat="43.64025925931827" lon="3.744220450091306"><ele>155.0</ele><time>2026-04-12T08:40:19.985Z</time></trkpt><trkpt lat="43.64026702539586" lon="3.744364776433448"><ele>155.0</ele><time>2026-04-12T08:40:21.984Z</time></trkpt><trkpt lat="43.640276589974384" lon="3.7444921661837745"><ele>155.0</ele><time>2026-04-12T08:40:23.984Z</time></trkpt><trkpt lat="43.64036023890873" lon="3.744465923994189"><ele>155.0</ele><time>2026-04-12T08:40:25.984Z</time></trkpt><trkpt lat="43.64038589654441" lon="3.7443498568570104"><ele>154.4</ele><time>2026-04-12T08:40:27.984Z</time></trkpt><trkpt lat="43.64044733654784" lon="3.744239428268281"><ele>153.8</ele><time>2026-04-12T08:40:29.984Z</time></trkpt><trkpt lat="43.64052154108254" lon="3.7441539209235395"><ele>153.2</ele><time>2026-04-12T08:40:31.984Z</time></trkpt><trkpt lat="43.640587366299975" lon="3.744069026879733"><ele>152.6</ele><time>2026-04-12T08:40:33.984Z</time></trkpt><trkpt lat="43.64065050615642" lon="3.743985597232324"><ele>152.0</ele><time>2026-04-12T08:40:35.984Z</time></trkpt><trkpt lat="43.64072207849375" lon="3.743898080481538"><ele>152.0</ele><time>2026-04-12T08:40:37.984Z</time></trkpt><trkpt lat="43.64078340541732" lon="3.7437955471296576"><ele>152.0</ele><time>2026-04-12T08:40:39.984Z</time></trkpt><trkpt lat="43.64085250078571" lon="3.743680238810477"><ele>152.0</ele><time>2026-04-12T08:40:41.984Z</time></trkpt><trkpt lat="43.64091073882134" lon="3.743573986434652"><ele>152.0</ele><time>2026-04-12T08:40:43.984Z</time></trkpt><trkpt lat="43.64097506116214" lon="3.7434841307435254"><ele>152.0</ele><time>2026-04-12T08:40:45.984Z</time></trkpt><trkpt lat="43.64122321581277" lon="3.7435177141905784"><ele>151.79999999999998</ele><time>2026-04-12T08:40:47.984Z</time></trkpt><trkpt lat="43.64111815184175" lon="3.74326954994744"><ele>151.6</ele><time>2026-04-12T08:40:50.984Z</time></trkpt><trkpt lat="43.64120140663936" lon="3.743260008873813"><ele>151.39999999999998</ele><time>2026-04-12T08:40:52.984Z</time></trkpt><trkpt lat="43.64123906785126" lon="3.743337682578102"><ele>151.2</ele><time>2026-04-12T08:40:54.984Z</time></trkpt><trkpt lat="43.64128079885907" lon="3.743407987207461"><ele>151.0</ele><time>2026-04-12T08:40:56.984Z</time></trkpt><trkpt lat="43.64134654821866" lon="3.7434198738512667"><ele>151.0</ele><time>2026-04-12T08:41:15.985Z</time></trkpt><trkpt lat="43.64139548553203" lon="3.743361087563516"><ele>151.0</ele><time>2026-04-12T08:41:17.986Z</time></trkpt><trkpt lat="43.64144386727267" lon="3.743250429814542"><ele>151.0</ele><time>2026-04-12T08:41:20.985Z</time></trkpt><trkpt lat="43.64146739445567" lon="3.743163035402224"><ele>151.0</ele><time>2026-04-12T08:41:22.985Z</time></trkpt><trkpt lat="43.64147268018241" lon="3.7430659660707786"><ele>151.0</ele><time>2026-04-12T08:41:24.986Z</time></trkpt><trkpt lat="43.64153422818703" lon="3.7429703104386594"><ele>151.0</ele><time>2026-04-12T08:41:27.985Z</time></trkpt><trkpt lat="43.641594746930856" lon="3.7429148837543984"><ele>151.0</ele><time>2026-04-12T08:41:29.985Z</time></trkpt><trkpt lat="43.64166181658394" lon="3.74284382554403"><ele>151.0</ele><time>2026-04-12T08:41:31.985Z</time></trkpt><trkpt lat="43.64172414916989" lon="3.7427786032411507"><ele>151.0</ele><time>2026-04-12T08:41:33.985Z</time></trkpt><trkpt lat="43.6417913759594" lon="3.7427191068284222"><ele>151.0</ele><time>2026-04-12T08:41:35.985Z</time></trkpt><trkpt lat="43.64185590834273" lon="3.742646204756335"><ele>151.0</ele><time>2026-04-12T08:41:37.985Z</time></trkpt><trkpt lat="43.64192871162394" lon="3.742596374944922"><ele>151.0</ele><time>2026-04-12T08:41:39.985Z</time></trkpt><trkpt lat="43.6419918135178" lon="3.742554336060883"><ele>151.33333333333334</ele><time>2026-04-12T08:41:41.985Z</time></trkpt><trkpt lat="43.642074761075115" lon="3.7424866457078023"><ele>151.66666666666669</ele><time>2026-04-12T08:41:44.985Z</time></trkpt><trkpt lat="43.64213768887365" lon="3.7424384441814977"><ele>152.0</ele><time>2026-04-12T08:41:46.985Z</time></trkpt><trkpt lat="43.64221116218601" lon="3.742393717435352"><ele>152.33333333333334</ele><time>2026-04-12T08:41:49.985Z</time></trkpt><trkpt lat="43.64229616451855" lon="3.7423485810314485"><ele>152.66666666666666</ele><time>2026-04-12T08:41:52.985Z</time></trkpt><trkpt lat="43.64235661887201" lon="3.74231203072911"><ele>153.0</ele><time>2026-04-12T08:41:54.985Z</time></trkpt><trkpt lat="43.64242026696003" lon="3.7422556209593725"><ele>153.0</ele><time>2026-04-12T08:41:56.985Z</time></trkpt><trkpt lat="43.64248383235036" lon="3.7422175300065628"><ele>153.0</ele><time>2026-04-12T08:41:58.985Z</time></trkpt><trkpt lat="43.642554600202736" lon="3.7421970599917698"><ele>153.0</ele><time>2026-04-12T08:42:00.985Z</time></trkpt><trkpt lat="43.64262668214356" lon="3.7421972498111074"><ele>153.0</ele><time>2026-04-12T08:42:02.985Z</time></trkpt><trkpt lat="43.64269213912908" lon="3.7422610049034604"><ele>153.0</ele><time>2026-04-12T08:42:05.985Z</time></trkpt><trkpt lat="43.642756819320844" lon="3.7422430990230438"><ele>153.0</ele><time>2026-04-12T08:42:07.985Z</time></trkpt><trkpt lat="43.64283329886042" lon="3.742216931349105"><ele>153.0</ele><time>2026-04-12T08:42:10.985Z</time></trkpt><trkpt lat="43.642886421782414" lon="3.7422654110245013"><ele>153.0</ele><time>2026-04-12T08:42:12.984Z</time></trkpt><trkpt lat="43.642959218996666" lon="3.742321990648563"><ele>153.0</ele><time>2026-04-12T08:42:14.984Z</time></trkpt><trkpt lat="43.64302181817981" lon="3.7423519256314357"><ele>153.0</ele><time>2026-04-12T08:42:16.984Z</time></trkpt><trkpt lat="43.64308556631974" lon="3.742403311496031"><ele>153.0</ele><time>2026-04-12T08:42:18.984Z</time></trkpt><trkpt lat="43.6431513762126" lon="3.742476360455773"><ele>153.0</ele><time>2026-04-12T08:42:20.984Z</time></trkpt><trkpt lat="43.64320213357581" lon="3.7425563854769637"><ele>153.0</ele><time>2026-04-12T08:42:22.984Z</time></trkpt><trkpt lat="43.64326005093466" lon="3.742659582800395"><ele>153.4</ele><time>2026-04-12T08:42:24.984Z</time></trkpt><trkpt lat="43.643286851464325" lon="3.742776306839482"><ele>153.8</ele><time>2026-04-12T08:42:26.984Z</time></trkpt><trkpt lat="43.64332287413269" lon="3.742905213127228"><ele>154.2</ele><time>2026-04-12T08:42:28.984Z</time></trkpt><trkpt lat="43.64336002988512" lon="3.743041958250291"><ele>154.6</ele><time>2026-04-12T08:42:30.984Z</time></trkpt><trkpt lat="43.64338740918969" lon="3.743168603131733"><ele>155.0</ele><time>2026-04-12T08:42:32.984Z</time></trkpt><trkpt lat="43.643431051892314" lon="3.7433187806807195"><ele>155.0</ele><time>2026-04-12T08:42:34.984Z</time></trkpt><trkpt lat="43.64344810740391" lon="3.7434033308314665"><ele>155.0</ele><time>2026-04-12T08:42:35.984Z</time></trkpt><trkpt lat="43.64346226334893" lon="3.743554176242805"><ele>155.0</ele><time>2026-04-12T08:42:37.984Z</time></trkpt><trkpt lat="43.64348591179139" lon="3.7436437971013112"><ele>155.0</ele><time>2026-04-12T08:42:40.984Z</time></trkpt><trkpt lat="43.64351494086363" lon="3.743768390830414"><ele>155.0</ele><time>2026-04-12T08:42:44.984Z</time></trkpt><trkpt lat="43.64354403853406" lon="3.7438942797913155"><ele>155.0</ele><time>2026-04-12T08:42:47.984Z</time></trkpt><trkpt lat="43.64357114555053" lon="3.7439877777309887"><ele>155.33333333333331</ele><time>2026-04-12T08:42:49.984Z</time></trkpt><trkpt lat="43.64361511443255" lon="3.7441127212002394"><ele>155.66666666666666</ele><time>2026-04-12T08:42:51.984Z</time></trkpt><trkpt lat="43.643646540507916" lon="3.744227675154247"><ele>156.0</ele><time>2026-04-12T08:42:53.984Z</time></trkpt><trkpt lat="43.64365766047897" lon="3.7443357733018456"><ele>156.33333333333334</ele><time>2026-04-12T08:42:55.984Z</time></trkpt><trkpt lat="43.643684396553844" lon="3.7444413048650085"><ele>156.66666666666669</ele><time>2026-04-12T08:42:57.984Z</time></trkpt><trkpt lat="43.64370012011097" lon="3.7445342499277845"><ele>157.0</ele><time>2026-04-12T08:42:59.984Z</time></trkpt><trkpt lat="43.64372533282358" lon="3.744645517400011"><ele>156.0</ele><time>2026-04-12T08:43:02.984Z</time></trkpt><trkpt lat="43.64373596532399" lon="3.7447437833988677"><ele>155.0</ele><time>2026-04-12T08:43:04.984Z</time></trkpt><trkpt lat="43.64376461263453" lon="3.7448469275499376"><ele>154.0</ele><time>2026-04-12T08:43:06.984Z</time></trkpt><trkpt lat="43.64379134985028" lon="3.744950595841979"><ele>153.0</ele><time>2026-04-12T08:43:08.984Z</time></trkpt><trkpt lat="43.643820583682604" lon="3.7450607190741336"><ele>152.0</ele><time>2026-04-12T08:43:10.984Z</time></trkpt><trkpt lat="43.64385720284195" lon="3.745171956567727"><ele>151.0</ele><time>2026-04-12T08:43:12.984Z</time></trkpt><trkpt lat="43.6439155589862" lon="3.745294426088889"><ele>151.0</ele><time>2026-04-12T08:43:14.984Z</time></trkpt><trkpt lat="43.64397344769934" lon="3.745401898352724"><ele>151.0</ele><time>2026-04-12T08:43:17.984Z</time></trkpt><trkpt lat="43.64397807766528" lon="3.745494259875479"><ele>151.0</ele><time>2026-04-12T08:43:19.984Z</time></trkpt><trkpt lat="43.64401993130556" lon="3.7456097152988748"><ele>151.0</ele><time>2026-04-12T08:43:21.986Z</time></trkpt><trkpt lat="43.64404020936868" lon="3.745736357791994"><ele>151.0</ele><time>2026-04-12T08:43:23.985Z</time></trkpt><trkpt lat="43.644076495024805" lon="3.745873553046116"><ele>151.0</ele><time>2026-04-12T08:43:25.985Z</time></trkpt><trkpt lat="43.64410426954513" lon="3.7460111236589637"><ele>151.0</ele><time>2026-04-12T08:43:27.985Z</time></trkpt><trkpt lat="43.64411353100368" lon="3.746107583562548"><ele>151.0</ele><time>2026-04-12T08:43:31.985Z</time></trkpt><trkpt lat="43.64414775685504" lon="3.7462094323216437"><ele>151.0</ele><time>2026-04-12T08:43:34.985Z</time></trkpt><trkpt lat="43.6441460335355" lon="3.7463013460935564"><ele>151.0</ele><time>2026-04-12T08:43:36.985Z</time></trkpt><trkpt lat="43.64418178028369" lon="3.746430461095159"><ele>151.0</ele><time>2026-04-12T08:43:38.985Z</time></trkpt><trkpt lat="43.644181141790824" lon="3.7465608857946378"><ele>151.33333333333334</ele><time>2026-04-12T08:43:40.985Z</time></trkpt><trkpt lat="43.644219302862396" lon="3.746652123106447"><ele>151.66666666666669</ele><time>2026-04-12T08:43:42.985Z</time></trkpt><trkpt lat="43.644257365186256" lon="3.746758967925441"><ele>152.0</ele><time>2026-04-12T08:43:45.985Z</time></trkpt><trkpt lat="43.64431448340433" lon="3.7468531799382014"><ele>152.33333333333334</ele><time>2026-04-12T08:43:47.985Z</time></trkpt><trkpt lat="43.644391404071975" lon="3.7469388355492494"><ele>152.66666666666666</ele><time>2026-04-12T08:43:49.985Z</time></trkpt><trkpt lat="43.64444344776435" lon="3.74702961349186"><ele>153.0</ele><time>2026-04-12T08:43:51.985Z</time></trkpt><trkpt lat="43.644467878011056" lon="3.747151796080842"><ele>153.16666666666666</ele><time>2026-04-12T08:43:53.985Z</time></trkpt><trkpt lat="43.64449892243625" lon="3.7472753654622926"><ele>153.33333333333334</ele><time>2026-04-12T08:43:55.985Z</time></trkpt><trkpt lat="43.64449820125539" lon="3.747400495914476"><ele>153.5</ele><time>2026-04-12T08:43:57.985Z</time></trkpt><trkpt lat="43.64448576529333" lon="3.747495145185701"><ele>153.66666666666669</ele><time>2026-04-12T08:43:59.985Z</time></trkpt><trkpt lat="43.64443080105189" lon="3.74759093019446"><ele>153.83333333333334</ele><time>2026-04-12T08:44:02.985Z</time></trkpt><trkpt lat="43.644429978991994" lon="3.7476939270135174"><ele>154.0</ele><time>2026-04-12T08:44:04.985Z</time></trkpt><trkpt lat="43.64441845402488" lon="3.747797093176835"><ele>154.16666666666669</ele><time>2026-04-12T08:44:06.985Z</time></trkpt><trkpt lat="43.644396713206305" lon="3.7479173745898104"><ele>154.33333333333334</ele><time>2026-04-12T08:44:08.985Z</time></trkpt><trkpt lat="43.64435146320174" lon="3.7479942387913465"><ele>154.5</ele><time>2026-04-12T08:44:10.985Z</time></trkpt><trkpt lat="43.64430730253197" lon="3.7480779418107533"><ele>154.66666666666666</ele><time>2026-04-12T08:44:12.985Z</time></trkpt><trkpt lat="43.644277193677254" lon="3.7482016104965026"><ele>154.83333333333331</ele><time>2026-04-12T08:44:14.985Z</time></trkpt><trkpt lat="43.64424368154535" lon="3.7483219255640234"><ele>155.0</ele><time>2026-04-12T08:44:16.985Z</time></trkpt><trkpt lat="43.644223812860425" lon="3.748432999296964"><ele>155.0</ele><time>2026-04-12T08:44:18.985Z</time></trkpt><trkpt lat="43.64423338529896" lon="3.7485447352055434"><ele>155.0</ele><time>2026-04-12T08:44:20.985Z</time></trkpt><trkpt lat="43.64415494111142" lon="3.748556741197451"><ele>155.0</ele><time>2026-04-12T08:44:23.985Z</time></trkpt><trkpt lat="43.64406821772347" lon="3.7484918941947503"><ele>155.0</ele><time>2026-04-12T08:44:26.985Z</time></trkpt><trkpt lat="43.64399271369782" lon="3.7484768732330376"><ele>155.0</ele><time>2026-04-12T08:44:28.985Z</time></trkpt><trkpt lat="43.643930783845825" lon="3.7485432743886578"><ele>155.0</ele><time>2026-04-12T08:44:30.985Z</time></trkpt><trkpt lat="43.6438918259592" lon="3.748614966447389"><ele>155.0</ele><time>2026-04-12T08:44:32.985Z</time></trkpt><trkpt lat="43.64381788521922" lon="3.7486668649099704"><ele>155.0</ele><time>2026-04-12T08:44:34.984Z</time></trkpt><trkpt lat="43.64375530753289" lon="3.748754070666342"><ele>155.0</ele><time>2026-04-12T08:44:36.984Z</time></trkpt><trkpt lat="43.64369044067006" lon="3.7488258861484094"><ele>155.0</ele><time>2026-04-12T08:44:38.984Z</time></trkpt><trkpt lat="43.64364033718776" lon="3.74888194110968"><ele>155.0</ele><time>2026-04-12T08:44:43.984Z</time></trkpt><trkpt lat="43.64367066579015" lon="3.749002738624012"><ele>155.0</ele><time>2026-04-12T08:44:48.984Z</time></trkpt><trkpt lat="43.64370347656292" lon="3.7490821893555615"><ele>155.0</ele><time>2026-04-12T08:44:50.984Z</time></trkpt><trkpt lat="43.64374207701144" lon="3.749174307768187"><ele>155.0</ele><time>2026-04-12T08:44:52.984Z</time></trkpt><trkpt lat="43.643782766044" lon="3.7492800373449975"><ele>155.0</ele><time>2026-04-12T08:44:54.984Z</time></trkpt><trkpt lat="43.643821714514814" lon="3.749399563517348"><ele>155.0</ele><time>2026-04-12T08:44:56.984Z</time></trkpt><trkpt lat="43.643887105229076" lon="3.749527794132446"><ele>155.0</ele><time>2026-04-12T08:44:58.984Z</time></trkpt><trkpt lat="43.64394239600209" lon="3.7496612270450935"><ele>154.8</ele><time>2026-04-12T08:45:00.984Z</time></trkpt><trkpt lat="43.644018849413946" lon="3.7497742635691185"><ele>154.6</ele><time>2026-04-12T08:45:02.984Z</time></trkpt><trkpt lat="43.64407685168054" lon="3.7498980760080327"><ele>154.4</ele><time>2026-04-12T08:45:04.984Z</time></trkpt><trkpt lat="43.64415002850032" lon="3.7500167763665835"><ele>154.2</ele><time>2026-04-12T08:45:06.984Z</time></trkpt><trkpt lat="43.64421827307135" lon="3.7501141618465876"><ele>154.0</ele><time>2026-04-12T08:45:08.984Z</time></trkpt><trkpt lat="43.644299161546954" lon="3.750231351236494"><ele>153.6</ele><time>2026-04-12T08:45:10.984Z</time></trkpt><trkpt lat="43.64437207706193" lon="3.7503390166473496"><ele>153.2</ele><time>2026-04-12T08:45:12.984Z</time></trkpt><trkpt lat="43.64444849298168" lon="3.7504380414667615"><ele>152.79999999999998</ele><time>2026-04-12T08:45:14.984Z</time></trkpt><trkpt lat="43.644531881318464" lon="3.7505319224528275"><ele>152.4</ele><time>2026-04-12T08:45:16.984Z</time></trkpt><trkpt lat="43.644604001488084" lon="3.750631814031658"><ele>152.0</ele><time>2026-04-12T08:45:18.984Z</time></trkpt><trkpt lat="43.64464980365177" lon="3.750720944752121"><ele>151.7142857142857</ele><time>2026-04-12T08:45:20.984Z</time></trkpt><trkpt lat="43.644638318736995" lon="3.7508228016118763"><ele>151.42857142857144</ele><time>2026-04-12T08:45:23.984Z</time></trkpt><trkpt lat="43.64470013395637" lon="3.750771697100762"><ele>151.14285714285714</ele><time>2026-04-12T08:45:26.985Z</time></trkpt><trkpt lat="43.644761104702475" lon="3.7508102157313408"><ele>150.85714285714283</ele><time>2026-04-12T08:45:30.985Z</time></trkpt><trkpt lat="43.64482043995681" lon="3.7508589738838345"><ele>150.57142857142856</ele><time>2026-04-12T08:45:32.985Z</time></trkpt><trkpt lat="43.64489501060152" lon="3.7508658101860584"><ele>150.28571428571428</ele><time>2026-04-12T08:45:34.985Z</time></trkpt><trkpt lat="43.64496505324743" lon="3.750934677411683"><ele>150.0</ele><time>2026-04-12T08:45:36.984Z</time></trkpt><trkpt lat="43.644991105759544" lon="3.7510178826598017"><ele>150.0</ele><time>2026-04-12T08:45:38.985Z</time></trkpt><trkpt lat="43.6450043894848" lon="3.751122872323644"><ele>150.0</ele><time>2026-04-12T08:45:40.985Z</time></trkpt><trkpt lat="43.64501340816062" lon="3.751245817086525"><ele>150.0</ele><time>2026-04-12T08:45:42.985Z</time></trkpt><trkpt lat="43.64507741406077" lon="3.7513473130873463"><ele>150.0</ele><time>2026-04-12T08:45:44.985Z</time></trkpt><trkpt lat="43.645155688891144" lon="3.751410371929801"><ele>150.0</ele><time>2026-04-12T08:45:46.985Z</time></trkpt><trkpt lat="43.645236492795746" lon="3.7514182442513375"><ele>150.0</ele><time>2026-04-12T08:45:48.985Z</time></trkpt><trkpt lat="43.64529845160273" lon="3.751506755177176"><ele>149.33333333333334</ele><time>2026-04-12T08:45:50.985Z</time></trkpt><trkpt lat="43.64536385622569" lon="3.7515847651554424"><ele>148.66666666666666</ele><time>2026-04-12T08:45:52.985Z</time></trkpt><trkpt lat="43.64542835497235" lon="3.7516586779049645"><ele>148.0</ele><time>2026-04-12T08:45:54.985Z</time></trkpt><trkpt lat="43.64548404030059" lon="3.7517363318050214"><ele>147.33333333333331</ele><time>2026-04-12T08:45:56.985Z</time></trkpt><trkpt lat="43.645547083449095" lon="3.751825014623758"><ele>146.66666666666666</ele><time>2026-04-12T08:45:58.985Z</time></trkpt><trkpt lat="43.64559035532204" lon="3.7519072724467883"><ele>146.0</ele><time>2026-04-12T08:46:00.984Z</time></trkpt><trkpt lat="43.64564912060775" lon="3.751982138751719"><ele>146.0</ele><time>2026-04-12T08:46:02.984Z</time></trkpt><trkpt lat="43.64568896426415" lon="3.752096914044207"><ele>146.0</ele><time>2026-04-12T08:46:04.984Z</time></trkpt><trkpt lat="43.64571483191351" lon="3.752197044937036"><ele>146.0</ele><time>2026-04-12T08:46:06.984Z</time></trkpt><trkpt lat="43.645728013310375" lon="3.7523126161312974"><ele>146.0</ele><time>2026-04-12T08:46:10.984Z</time></trkpt><trkpt lat="43.64574358415399" lon="3.7524000373410518"><ele>146.0</ele><time>2026-04-12T08:46:12.984Z</time></trkpt><trkpt lat="43.64575063890157" lon="3.752527723960174"><ele>146.0</ele><time>2026-04-12T08:46:15.984Z</time></trkpt><trkpt lat="43.64576481287155" lon="3.7526286442830297"><ele>146.16666666666666</ele><time>2026-04-12T08:46:17.984Z</time></trkpt><trkpt lat="43.64577412881621" lon="3.7527338862724164"><ele>146.33333333333331</ele><time>2026-04-12T08:46:19.984Z</time></trkpt><trkpt lat="43.64578474588033" lon="3.7528292348562378"><ele>146.5</ele><time>2026-04-12T08:46:21.984Z</time></trkpt><trkpt lat="43.64578602580095" lon="3.752936800194304"><ele>146.66666666666666</ele><time>2026-04-12T08:46:23.984Z</time></trkpt><trkpt lat="43.64577468809561" lon="3.753049239983284"><ele>146.83333333333334</ele><time>2026-04-12T08:46:25.984Z</time></trkpt><trkpt lat="43.64577023225165" lon="3.7531823592418454"><ele>147.0</ele><time>2026-04-12T08:46:27.984Z</time></trkpt><trkpt lat="43.64576355578336" lon="3.7533287624915106"><ele>147.0</ele><time>2026-04-12T08:46:29.984Z</time></trkpt><trkpt lat="43.645754003019846" lon="3.753489575535849"><ele>147.0</ele><time>2026-04-12T08:46:31.984Z</time></trkpt><trkpt lat="43.64574064172854" lon="3.753641816793276"><ele>147.0</ele><time>2026-04-12T08:46:33.984Z</time></trkpt><trkpt lat="43.64572225972695" lon="3.7537945401942086"><ele>147.0</ele><time>2026-04-12T08:46:35.984Z</time></trkpt><trkpt lat="43.645716680440536" lon="3.7539397277244104"><ele>147.0</ele><time>2026-04-12T08:46:37.984Z</time></trkpt><trkpt lat="43.64570833708161" lon="3.754046219514073"><ele>146.4</ele><time>2026-04-12T08:46:38.984Z</time></trkpt><trkpt lat="43.64569713404424" lon="3.7541353154478347"><ele>145.79999999999998</ele><time>2026-04-12T08:46:39.984Z</time></trkpt><trkpt lat="43.64569013127491" lon="3.7542905432016047"><ele>145.2</ele><time>2026-04-12T08:46:41.984Z</time></trkpt><trkpt lat="43.645662624544634" lon="3.75443772533587"><ele>144.6</ele><time>2026-04-12T08:46:43.984Z</time></trkpt><trkpt lat="43.645665160429374" lon="3.7546013434704655"><ele>144.0</ele><time>2026-04-12T08:46:45.984Z</time></trkpt><trkpt lat="43.64566534989068" lon="3.7547421092998996"><ele>144.0</ele><time>2026-04-12T08:46:47.984Z</time></trkpt><trkpt lat="43.64566194810792" lon="3.754829384098406"><ele>144.0</ele><time>2026-04-12T08:46:48.984Z</time></trkpt><trkpt lat="43.64563425990411" lon="3.7549772594818602"><ele>144.0</ele><time>2026-04-12T08:46:50.984Z</time></trkpt><trkpt lat="43.645582666858175" lon="3.755095257422139"><ele>144.0</ele><time>2026-04-12T08:46:52.984Z</time></trkpt><trkpt lat="43.645505993950465" lon="3.7551239539964727"><ele>144.0</ele><time>2026-04-12T08:46:55.984Z</time></trkpt><trkpt lat="43.645542835390806" lon="3.7550475564143544"><ele>144.0</ele><time>2026-04-12T08:47:10.983Z</time></trkpt><trkpt lat="43.64562162728569" lon="3.7550169235025637"><ele>144.0</ele><time>2026-04-12T08:47:13.983Z</time></trkpt><trkpt lat="43.64568848362045" lon="3.7549692139771897"><ele>144.0</ele><time>2026-04-12T08:47:15.983Z</time></trkpt><trkpt lat="43.64575158441252" lon="3.7549078484151095"><ele>144.0</ele><time>2026-04-12T08:47:17.983Z</time></trkpt><trkpt lat="43.6458092863816" lon="3.75482643513691"><ele>144.0</ele><time>2026-04-12T08:47:19.983Z</time></trkpt><trkpt lat="43.645863657443776" lon="3.754762346941272"><ele>144.0</ele><time>2026-04-12T08:47:21.983Z</time></trkpt><trkpt lat="43.64593316568792" lon="3.754704272392387"><ele>144.0</ele><time>2026-04-12T08:47:24.983Z</time></trkpt><trkpt lat="43.64602157402291" lon="3.754671168115857"><ele>144.0</ele><time>2026-04-12T08:47:27.983Z</time></trkpt><trkpt lat="43.64608423679225" lon="3.754621667526434"><ele>144.0</ele><time>2026-04-12T08:47:29.983Z</time></trkpt><trkpt lat="43.64614666901803" lon="3.7545601656909273"><ele>144.0</ele><time>2026-04-12T08:47:31.983Z</time></trkpt><trkpt lat="43.646227428598856" lon="3.7545010939536767"><ele>144.0</ele><time>2026-04-12T08:47:33.985Z</time></trkpt><trkpt lat="43.646325937489316" lon="3.754469952608028"><ele>144.0</ele><time>2026-04-12T08:47:35.985Z</time></trkpt><trkpt lat="43.64642030377543" lon="3.754414101906674"><ele>144.0</ele><time>2026-04-12T08:47:37.985Z</time></trkpt><trkpt lat="43.64652424331454" lon="3.754366438896681"><ele>143.4</ele><time>2026-04-12T08:47:39.985Z</time></trkpt><trkpt lat="43.64662648427039" lon="3.7543134127463036"><ele>142.8</ele><time>2026-04-12T08:47:41.985Z</time></trkpt><trkpt lat="43.646742435110696" lon="3.7542543176320318"><ele>142.2</ele><time>2026-04-12T08:47:43.985Z</time></trkpt><trkpt lat="43.64680782057297" lon="3.7542442085307157"><ele>141.6</ele><time>2026-04-12T08:47:44.985Z</time></trkpt><trkpt lat="43.646928488341715" lon="3.754223459656932"><ele>141.0</ele><time>2026-04-12T08:47:46.985Z</time></trkpt><trkpt lat="43.64699750999432" lon="3.7542352387169275"><ele>140.66666666666666</ele><time>2026-04-12T08:47:47.985Z</time></trkpt><trkpt lat="43.64707207804263" lon="3.7542718286539674"><ele>140.33333333333334</ele><time>2026-04-12T08:47:48.985Z</time></trkpt><trkpt lat="43.647142812152374" lon="3.7543088152475956"><ele>140.0</ele><time>2026-04-12T08:47:49.985Z</time></trkpt><trkpt lat="43.64722097534203" lon="3.7543379819768288"><ele>139.66666666666669</ele><time>2026-04-12T08:47:50.985Z</time></trkpt><trkpt lat="43.647315213701624" lon="3.7543701162998473"><ele>139.33333333333334</ele><time>2026-04-12T08:47:51.985Z</time></trkpt><trkpt lat="43.647391663443955" lon="3.7543999368952496"><ele>139.0</ele><time>2026-04-12T08:47:52.985Z</time></trkpt><trkpt lat="43.64745842883221" lon="3.75444264921939"><ele>139.0</ele><time>2026-04-12T08:47:53.985Z</time></trkpt><trkpt lat="43.647550482837126" lon="3.7544911790738764"><ele>139.0</ele><time>2026-04-12T08:47:54.985Z</time></trkpt><trkpt lat="43.6476510316486" lon="3.7545463797490415"><ele>139.0</ele><time>2026-04-12T08:47:55.985Z</time></trkpt><trkpt lat="43.647729855098575" lon="3.7546140212517054"><ele>139.0</ele><time>2026-04-12T08:47:56.985Z</time></trkpt><trkpt lat="43.64779582864189" lon="3.754669407510252"><ele>139.0</ele><time>2026-04-12T08:47:57.985Z</time></trkpt><trkpt lat="43.64785311517904" lon="3.754710739180557"><ele>139.0</ele><time>2026-04-12T08:47:58.985Z</time></trkpt><trkpt lat="43.647916653860584" lon="3.754788028370464"><ele>138.33333333333334</ele><time>2026-04-12T08:48:00.985Z</time></trkpt><trkpt lat="43.64797280448837" lon="3.7548718469019415"><ele>137.66666666666669</ele><time>2026-04-12T08:48:03.985Z</time></trkpt><trkpt lat="43.648045331994204" lon="3.754961301552724"><ele>137.0</ele><time>2026-04-12T08:48:06.985Z</time></trkpt><trkpt lat="43.64810445022376" lon="3.7550447961200204"><ele>136.33333333333334</ele><time>2026-04-12T08:48:08.985Z</time></trkpt><trkpt lat="43.64817268126319" lon="3.755130457973306"><ele>135.66666666666666</ele><time>2026-04-12T08:48:10.985Z</time></trkpt><trkpt lat="43.64823849651194" lon="3.755203466666447"><ele>135.0</ele><time>2026-04-12T08:48:12.985Z</time></trkpt><trkpt lat="43.648256404847416" lon="3.7553112162477995"><ele>135.0</ele><time>2026-04-12T08:48:16.985Z</time></trkpt><trkpt lat="43.648287778633325" lon="3.755408112862011"><ele>135.0</ele><time>2026-04-12T08:48:20.985Z</time></trkpt><trkpt lat="43.64834792595552" lon="3.7555004909000793"><ele>135.0</ele><time>2026-04-12T08:48:23.985Z</time></trkpt><trkpt lat="43.648405375162454" lon="3.755568511659585"><ele>135.0</ele><time>2026-04-12T08:48:25.985Z</time></trkpt><trkpt lat="43.64845565510492" lon="3.755646150947285"><ele>135.0</ele><time>2026-04-12T08:48:27.985Z</time></trkpt><trkpt lat="43.648510345568205" lon="3.7557299861469264"><ele>135.0</ele><time>2026-04-12T08:48:29.985Z</time></trkpt><trkpt lat="43.64856354929624" lon="3.7558232521958423"><ele>132.33333333333334</ele><time>2026-04-12T08:48:31.985Z</time></trkpt><trkpt lat="43.648634127985375" lon="3.755917024973155"><ele>129.66666666666666</ele><time>2026-04-12T08:48:34.985Z</time></trkpt><trkpt lat="43.64868210827013" lon="3.7559895323826193"><ele>127.0</ele><time>2026-04-12T08:48:36.985Z</time></trkpt><trkpt lat="43.648722528420386" lon="3.756094593248464"><ele>124.33333333333333</ele><time>2026-04-12T08:48:38.985Z</time></trkpt><trkpt lat="43.64875682316824" lon="3.7561729114116185"><ele>121.66666666666666</ele><time>2026-04-12T08:48:40.985Z</time></trkpt><trkpt lat="43.6488181966791" lon="3.75626804062468"><ele>119.0</ele><time>2026-04-12T08:48:42.985Z</time></trkpt><trkpt lat="43.64890521543219" lon="3.7563502754990847"><ele>119.0</ele><time>2026-04-12T08:48:44.985Z</time></trkpt><trkpt lat="43.64894815282241" lon="3.7564800461644614"><ele>119.0</ele><time>2026-04-12T08:48:46.985Z</time></trkpt><trkpt lat="43.64899796481062" lon="3.7566205749175396"><ele>119.0</ele><time>2026-04-12T08:48:48.985Z</time></trkpt><trkpt lat="43.64906134890373" lon="3.75672112773336"><ele>119.0</ele><time>2026-04-12T08:48:50.985Z</time></trkpt><trkpt lat="43.649133627602886" lon="3.756786877387668"><ele>119.0</ele><time>2026-04-12T08:48:53.985Z</time></trkpt><trkpt lat="43.64919527901511" lon="3.7568193751661063"><ele>119.0</ele><time>2026-04-12T08:48:55.985Z</time></trkpt><trkpt lat="43.64926843656995" lon="3.7568447625261165"><ele>119.0</ele><time>2026-04-12T08:48:57.985Z</time></trkpt><trkpt lat="43.6493100913818" lon="3.756910867160229"><ele>119.0</ele><time>2026-04-12T08:48:59.985Z</time></trkpt><trkpt lat="43.64937645675246" lon="3.7569215555418607"><ele>119.0</ele><time>2026-04-12T08:49:01.985Z</time></trkpt><trkpt lat="43.649427677239096" lon="3.7569836241421273"><ele>119.0</ele><time>2026-04-12T08:49:03.985Z</time></trkpt><trkpt lat="43.649483271528325" lon="3.7570337336177553"><ele>119.0</ele><time>2026-04-12T08:49:05.985Z</time></trkpt><trkpt lat="43.64953825943443" lon="3.757119625247573"><ele>119.0</ele><time>2026-04-12T08:49:09.985Z</time></trkpt><trkpt lat="43.64960195651731" lon="3.7572013776358952"><ele>117.99999999999999</ele><time>2026-04-12T08:49:13.985Z</time></trkpt><trkpt lat="43.64968200674185" lon="3.7572683076038413"><ele>117.0</ele><time>2026-04-12T08:49:16.985Z</time></trkpt><trkpt lat="43.64974323940256" lon="3.757314817869429"><ele>116.0</ele><time>2026-04-12T08:49:18.985Z</time></trkpt><trkpt lat="43.64980154528299" lon="3.7573711690275653"><ele>115.0</ele><time>2026-04-12T08:49:20.985Z</time></trkpt><trkpt lat="43.649873516661344" lon="3.7574298646918765"><ele>113.99999999999999</ele><time>2026-04-12T08:49:22.985Z</time></trkpt><trkpt lat="43.649971539724234" lon="3.7574940404885138"><ele>113.0</ele><time>2026-04-12T08:49:24.985Z</time></trkpt><trkpt lat="43.65005883318161" lon="3.7575844194395995"><ele>112.99999999999999</ele><time>2026-04-12T08:49:26.985Z</time></trkpt><trkpt lat="43.650144211166364" lon="3.757636335445256"><ele>113.0</ele><time>2026-04-12T08:49:28.985Z</time></trkpt><trkpt lat="43.650211105476735" lon="3.7577035106717047"><ele>113.0</ele><time>2026-04-12T08:49:30.985Z</time></trkpt><trkpt lat="43.65028020154495" lon="3.75774182785465"><ele>113.0</ele><time>2026-04-12T08:49:32.985Z</time></trkpt><trkpt lat="43.65035799385446" lon="3.7577816233169963"><ele>112.99999999999999</ele><time>2026-04-12T08:49:34.985Z</time></trkpt><trkpt lat="43.65042833036773" lon="3.7578510949893538"><ele>113.0</ele><time>2026-04-12T08:49:36.985Z</time></trkpt><trkpt lat="43.65049435740278" lon="3.7578922480324275"><ele>112.4</ele><time>2026-04-12T08:49:39.985Z</time></trkpt><trkpt lat="43.650570247809874" lon="3.757973007794443"><ele>111.80000000000001</ele><time>2026-04-12T08:49:42.986Z</time></trkpt><trkpt lat="43.650644527143434" lon="3.7580137837700156"><ele>111.2</ele><time>2026-04-12T08:49:44.986Z</time></trkpt><trkpt lat="43.65074426991876" lon="3.7580825970274514"><ele>110.6</ele><time>2026-04-12T08:49:46.986Z</time></trkpt><trkpt lat="43.65080445898418" lon="3.7581231020533536"><ele>110.0</ele><time>2026-04-12T08:49:47.985Z</time></trkpt><trkpt lat="43.650894099287555" lon="3.758230251091787"><ele>109.99999999999999</ele><time>2026-04-12T08:49:49.986Z</time></trkpt><trkpt lat="43.65093423942038" lon="3.758329076763738"><ele>110.0</ele><time>2026-04-12T08:49:50.986Z</time></trkpt><trkpt lat="43.650984173036704" lon="3.7584708708984578"><ele>110.0</ele><time>2026-04-12T08:49:52.985Z</time></trkpt><trkpt lat="43.65103738128475" lon="3.7585554225584565"><ele>110.0</ele><time>2026-04-12T08:49:53.985Z</time></trkpt><trkpt lat="43.65109019581652" lon="3.7586501513872044"><ele>109.99999999999999</ele><time>2026-04-12T08:49:55.985Z</time></trkpt><trkpt lat="43.65115287390997" lon="3.7587288901321774"><ele>110.0</ele><time>2026-04-12T08:49:59.985Z</time></trkpt><trkpt lat="43.651228891597846" lon="3.75878803650167"><ele>109.33333333333333</ele><time>2026-04-12T08:50:02.985Z</time></trkpt><trkpt lat="43.65130753207854" lon="3.75877656933195"><ele>108.66666666666666</ele><time>2026-04-12T08:50:05.985Z</time></trkpt><trkpt lat="43.651383933941766" lon="3.758745832786075"><ele>108.0</ele><time>2026-04-12T08:50:07.985Z</time></trkpt><trkpt lat="43.6514793512101" lon="3.758735347097879"><ele>107.33333333333334</ele><time>2026-04-12T08:50:09.985Z</time></trkpt><trkpt lat="43.65155507190325" lon="3.758759182310745"><ele>106.66666666666667</ele><time>2026-04-12T08:50:11.985Z</time></trkpt><trkpt lat="43.65163699927133" lon="3.7587880983146236"><ele>106.0</ele><time>2026-04-12T08:50:13.985Z</time></trkpt><trkpt lat="43.65172005540934" lon="3.758827577863658"><ele>106.0</ele><time>2026-04-12T08:50:15.985Z</time></trkpt><trkpt lat="43.651808697260165" lon="3.7588763948836417"><ele>106.0</ele><time>2026-04-12T08:50:17.985Z</time></trkpt><trkpt lat="43.651894267706844" lon="3.75891102421017"><ele>106.0</ele><time>2026-04-12T08:50:19.985Z</time></trkpt><trkpt lat="43.6519866775776" lon="3.758959961989792"><ele>106.0</ele><time>2026-04-12T08:50:21.985Z</time></trkpt><trkpt lat="43.65205896211633" lon="3.759029492239175"><ele>106.0</ele><time>2026-04-12T08:50:23.985Z</time></trkpt><trkpt lat="43.65211566651574" lon="3.7591264142094705"><ele>105.19999999999999</ele><time>2026-04-12T08:50:25.985Z</time></trkpt><trkpt lat="43.65218777900971" lon="3.759224146145596"><ele>104.39999999999999</ele><time>2026-04-12T08:50:27.985Z</time></trkpt><trkpt lat="43.65226362027641" lon="3.759313372066566"><ele>103.6</ele><time>2026-04-12T08:50:29.985Z</time></trkpt><trkpt lat="43.6523333444411" lon="3.759402379527156"><ele>102.8</ele><time>2026-04-12T08:50:31.985Z</time></trkpt><trkpt lat="43.65240563828547" lon="3.759512770307587"><ele>102.0</ele><time>2026-04-12T08:50:33.985Z</time></trkpt><trkpt lat="43.65245934098865" lon="3.759624583148519"><ele>102.0</ele><time>2026-04-12T08:50:35.985Z</time></trkpt><trkpt lat="43.652525306652336" lon="3.759740572894257"><ele>102.0</ele><time>2026-04-12T08:50:37.985Z</time></trkpt><trkpt lat="43.65258397019697" lon="3.7598533052719145"><ele>102.0</ele><time>2026-04-12T08:50:39.985Z</time></trkpt><trkpt lat="43.65264209642413" lon="3.7599449100602733"><ele>102.0</ele><time>2026-04-12T08:50:41.985Z</time></trkpt><trkpt lat="43.65268930218153" lon="3.760043384670485"><ele>102.0</ele><time>2026-04-12T08:50:43.985Z</time></trkpt><trkpt lat="43.65274724729079" lon="3.7601321520751227"><ele>102.6</ele><time>2026-04-12T08:50:45.985Z</time></trkpt><trkpt lat="43.652810567562284" lon="3.76021087703126"><ele>103.19999999999999</ele><time>2026-04-12T08:50:47.984Z</time></trkpt><trkpt lat="43.65287587754842" lon="3.760283294319398"><ele>103.8</ele><time>2026-04-12T08:50:49.984Z</time></trkpt><trkpt lat="43.65296014098531" lon="3.7603328139614187"><ele>104.4</ele><time>2026-04-12T08:50:51.984Z</time></trkpt><trkpt lat="43.65306658727705" lon="3.760397147486588"><ele>105.0</ele><time>2026-04-12T08:50:53.984Z</time></trkpt><trkpt lat="43.65317507697536" lon="3.760455386702577"><ele>105.0</ele><time>2026-04-12T08:50:55.984Z</time></trkpt><trkpt lat="43.6532797757167" lon="3.7605131499885633"><ele>105.0</ele><time>2026-04-12T08:50:57.984Z</time></trkpt><trkpt lat="43.653385070392375" lon="3.760566841488286"><ele>105.0</ele><time>2026-04-12T08:50:59.984Z</time></trkpt><trkpt lat="43.65349400947977" lon="3.760614790331233"><ele>105.0</ele><time>2026-04-12T08:51:01.984Z</time></trkpt><trkpt lat="43.653595213779894" lon="3.7606427311186406"><ele>105.0</ele><time>2026-04-12T08:51:03.984Z</time></trkpt><trkpt lat="43.65366301557982" lon="3.7607697897150105"><ele>103.8</ele><time>2026-04-12T08:51:05.984Z</time></trkpt><trkpt lat="43.653689602861235" lon="3.7608832890448527"><ele>102.6</ele><time>2026-04-12T08:51:07.984Z</time></trkpt><trkpt lat="43.65371314680046" lon="3.7610075874334696"><ele>101.4</ele><time>2026-04-12T08:51:09.984Z</time></trkpt><trkpt lat="43.65373717780322" lon="3.761135250029945"><ele>100.2</ele><time>2026-04-12T08:51:11.984Z</time></trkpt><trkpt lat="43.6537841357691" lon="3.7612343013148877"><ele>99.0</ele><time>2026-04-12T08:51:13.984Z</time></trkpt><trkpt lat="43.65383844751591" lon="3.761362956250594"><ele>99.0</ele><time>2026-04-12T08:51:15.984Z</time></trkpt><trkpt lat="43.6538951655097" lon="3.761494976877533"><ele>99.0</ele><time>2026-04-12T08:51:17.984Z</time></trkpt><trkpt lat="43.653958595940736" lon="3.7615885008448195"><ele>99.0</ele><time>2026-04-12T08:51:19.984Z</time></trkpt><trkpt lat="43.654049070903575" lon="3.761654289076569"><ele>99.0</ele><time>2026-04-12T08:51:21.984Z</time></trkpt><trkpt lat="43.65411103101801" lon="3.761697335512351"><ele>99.0</ele><time>2026-04-12T08:51:27.984Z</time></trkpt><trkpt lat="43.65418394764106" lon="3.761725833242997"><ele>99.0</ele><time>2026-04-12T08:51:31.984Z</time></trkpt><trkpt lat="43.65426920284781" lon="3.761759669577224"><ele>99.0</ele><time>2026-04-12T08:51:34.984Z</time></trkpt><trkpt lat="43.654358446364995" lon="3.7617954618652516"><ele>99.0</ele><time>2026-04-12T08:51:36.984Z</time></trkpt><trkpt lat="43.65442575854403" lon="3.7618482836126654"><ele>99.0</ele><time>2026-04-12T08:51:38.984Z</time></trkpt><trkpt lat="43.654482502989715" lon="3.7619394605032066"><ele>99.0</ele><time>2026-04-12T08:51:40.984Z</time></trkpt><trkpt lat="43.654554383178855" lon="3.7619332880980543"><ele>99.0</ele><time>2026-04-12T08:51:42.984Z</time></trkpt><trkpt lat="43.65462941232691" lon="3.7619110386514465"><ele>98.83333333333333</ele><time>2026-04-12T08:51:44.985Z</time></trkpt><trkpt lat="43.65471604540957" lon="3.761934980695143"><ele>98.66666666666666</ele><time>2026-04-12T08:51:46.986Z</time></trkpt><trkpt lat="43.6547798152529" lon="3.7619397726978843"><ele>98.5</ele><time>2026-04-12T08:51:47.985Z</time></trkpt><trkpt lat="43.65488077818865" lon="3.761942404089267"><ele>98.33333333333333</ele><time>2026-04-12T08:51:49.985Z</time></trkpt><trkpt lat="43.654963027661736" lon="3.7619959094942668"><ele>98.16666666666666</ele><time>2026-04-12T08:51:51.985Z</time></trkpt><trkpt lat="43.65505426364224" lon="3.76204258371072"><ele>98.0</ele><time>2026-04-12T08:51:53.986Z</time></trkpt><trkpt lat="43.655131630078664" lon="3.7621107995305203"><ele>97.99999999999999</ele><time>2026-04-12T08:51:54.986Z</time></trkpt><trkpt lat="43.65517768617611" lon="3.7621706609427723"><ele>98.0</ele><time>2026-04-12T08:51:55.985Z</time></trkpt><trkpt lat="43.65522074929153" lon="3.762277919791415"><ele>98.0</ele><time>2026-04-12T08:51:57.985Z</time></trkpt><trkpt lat="43.65527556340464" lon="3.762385269931378"><ele>98.0</ele><time>2026-04-12T08:51:59.985Z</time></trkpt><trkpt lat="43.65531940616272" lon="3.7624833151263237"><ele>97.99999999999999</ele><time>2026-04-12T08:52:01.985Z</time></trkpt><trkpt lat="43.65536673551456" lon="3.7625943292015576"><ele>98.0</ele><time>2026-04-12T08:52:03.985Z</time></trkpt><trkpt lat="43.65541147118823" lon="3.7627127287707682"><ele>97.4</ele><time>2026-04-12T08:52:05.985Z</time></trkpt><trkpt lat="43.65546508380049" lon="3.7628352722545606"><ele>96.80000000000001</ele><time>2026-04-12T08:52:07.985Z</time></trkpt><trkpt lat="43.65550304313318" lon="3.762948420745783"><ele>96.2</ele><time>2026-04-12T08:52:09.985Z</time></trkpt><trkpt lat="43.6555342251528" lon="3.763069169508205"><ele>95.6</ele><time>2026-04-12T08:52:11.985Z</time></trkpt><trkpt lat="43.655560840896655" lon="3.76320909653288"><ele>95.0</ele><time>2026-04-12T08:52:13.985Z</time></trkpt><trkpt lat="43.65558401078909" lon="3.7633497083249314"><ele>95.0</ele><time>2026-04-12T08:52:15.985Z</time></trkpt><trkpt lat="43.6555987270613" lon="3.7634924747324683"><ele>95.0</ele><time>2026-04-12T08:52:17.985Z</time></trkpt><trkpt lat="43.65562567671962" lon="3.76362365311371"><ele>95.0</ele><time>2026-04-12T08:52:19.985Z</time></trkpt><trkpt lat="43.65564582396394" lon="3.7637537495402404"><ele>95.0</ele><time>2026-04-12T08:52:21.985Z</time></trkpt><trkpt lat="43.65566936933791" lon="3.7638625736240847"><ele>95.0</ele><time>2026-04-12T08:52:23.985Z</time></trkpt><trkpt lat="43.65569379793813" lon="3.7639810554007145"><ele>94.8</ele><time>2026-04-12T08:52:25.985Z</time></trkpt><trkpt lat="43.655726969414296" lon="3.764088391031109"><ele>94.6</ele><time>2026-04-12T08:52:27.985Z</time></trkpt><trkpt lat="43.655762799583606" lon="3.764215942147113"><ele>94.4</ele><time>2026-04-12T08:52:29.985Z</time></trkpt><trkpt lat="43.65579719159462" lon="3.7643461249218917"><ele>94.2</ele><time>2026-04-12T08:52:31.985Z</time></trkpt><trkpt lat="43.655834124671074" lon="3.7644733543593265"><ele>94.0</ele><time>2026-04-12T08:52:33.985Z</time></trkpt><trkpt lat="43.65586648722703" lon="3.7646022330273925"><ele>94.4</ele><time>2026-04-12T08:52:35.985Z</time></trkpt><trkpt lat="43.65590426995214" lon="3.7647334447073506"><ele>94.80000000000001</ele><time>2026-04-12T08:52:37.985Z</time></trkpt><trkpt lat="43.655934345184306" lon="3.764853926239363"><ele>95.19999999999999</ele><time>2026-04-12T08:52:39.985Z</time></trkpt><trkpt lat="43.655956818011255" lon="3.7649734870975404"><ele>95.6</ele><time>2026-04-12T08:52:41.985Z</time></trkpt><trkpt lat="43.65599035835906" lon="3.765096317548182"><ele>96.0</ele><time>2026-04-12T08:52:43.985Z</time></trkpt><trkpt lat="43.65601838431828" lon="3.7652117988227154"><ele>96.33333333333333</ele><time>2026-04-12T08:52:45.985Z</time></trkpt><trkpt lat="43.656045506265315" lon="3.765339014904746"><ele>96.66666666666666</ele><time>2026-04-12T08:52:47.985Z</time></trkpt><trkpt lat="43.656076230401894" lon="3.7654541395458723"><ele>97.0</ele><time>2026-04-12T08:52:49.985Z</time></trkpt><trkpt lat="43.6561063871785" lon="3.765566530930829"><ele>97.33333333333333</ele><time>2026-04-12T08:52:51.985Z</time></trkpt><trkpt lat="43.656139713088315" lon="3.7656580011443777"><ele>97.66666666666666</ele><time>2026-04-12T08:52:53.985Z</time></trkpt><trkpt lat="43.656156682944946" lon="3.765753152383014"><ele>98.0</ele><time>2026-04-12T08:52:56.985Z</time></trkpt><trkpt lat="43.65621454009075" lon="3.765831490216344"><ele>96.83333333333333</ele><time>2026-04-12T08:54:16.985Z</time></trkpt><trkpt lat="43.656294224604395" lon="3.7658192268869937"><ele>95.66666666666666</ele><time>2026-04-12T08:54:19.985Z</time></trkpt><trkpt lat="43.65638842881871" lon="3.7658333687981225"><ele>94.5</ele><time>2026-04-12T08:54:22.985Z</time></trkpt><trkpt lat="43.656457993720224" lon="3.7658756436078518"><ele>93.33333333333333</ele><time>2026-04-12T08:54:24.985Z</time></trkpt><trkpt lat="43.656515905464175" lon="3.7659675383084106"><ele>92.16666666666666</ele><time>2026-04-12T08:54:26.985Z</time></trkpt><trkpt lat="43.65657051953253" lon="3.76607027826519"><ele>91.0</ele><time>2026-04-12T08:54:28.985Z</time></trkpt><trkpt lat="43.656606007911286" lon="3.7661611281214737"><ele>90.4</ele><time>2026-04-12T08:54:30.985Z</time></trkpt><trkpt lat="43.65666119919927" lon="3.766271229349602"><ele>89.8</ele><time>2026-04-12T08:54:32.985Z</time></trkpt><trkpt lat="43.656685615909154" lon="3.7663820427560477"><ele>89.2</ele><time>2026-04-12T08:54:34.985Z</time></trkpt><trkpt lat="43.65669916753684" lon="3.7665140467245384"><ele>88.60000000000001</ele><time>2026-04-12T08:54:36.985Z</time></trkpt><trkpt lat="43.65672371446843" lon="3.7666714363108733"><ele>88.0</ele><time>2026-04-12T08:54:38.985Z</time></trkpt><trkpt lat="43.65674513800658" lon="3.7667730552437404"><ele>88.0</ele><time>2026-04-12T08:54:40.985Z</time></trkpt><trkpt lat="43.65683659804057" lon="3.7667827653434345"><ele>88.0</ele><time>2026-04-12T08:54:43.985Z</time></trkpt><trkpt lat="43.65688038943038" lon="3.766872039575828"><ele>88.0</ele><time>2026-04-12T08:54:45.985Z</time></trkpt><trkpt lat="43.6569349194083" lon="3.7669191724611895"><ele>88.0</ele><time>2026-04-12T08:54:50.985Z</time></trkpt><trkpt lat="43.65699119004072" lon="3.766997433053249"><ele>88.0</ele><time>2026-04-12T08:54:54.985Z</time></trkpt><trkpt lat="43.657056624310904" lon="3.7671032519902354"><ele>88.0</ele><time>2026-04-12T08:54:57.985Z</time></trkpt><trkpt lat="43.65707619028885" lon="3.7672015284966163"><ele>87.83333333333333</ele><time>2026-04-12T08:54:59.985Z</time></trkpt><trkpt lat="43.65705339005599" lon="3.7672907068204253"><ele>87.66666666666666</ele><time>2026-04-12T08:55:01.985Z</time></trkpt><trkpt lat="43.65707769886176" lon="3.767428001966122"><ele>87.5</ele><time>2026-04-12T08:55:03.985Z</time></trkpt><trkpt lat="43.657111189227855" lon="3.7675487447799383"><ele>87.33333333333333</ele><time>2026-04-12T08:55:05.985Z</time></trkpt><trkpt lat="43.65714922956219" lon="3.767648603553338"><ele>87.16666666666667</ele><time>2026-04-12T08:55:07.985Z</time></trkpt><trkpt lat="43.65719480312611" lon="3.7677248235482597"><ele>87.0</ele><time>2026-04-12T08:55:09.985Z</time></trkpt><trkpt lat="43.65723259918082" lon="3.7677995019509036"><ele>88.66666666666667</ele><time>2026-04-12T08:55:11.984Z</time></trkpt><trkpt lat="43.65727462904022" lon="3.7679094749749256"><ele>90.33333333333334</ele><time>2026-04-12T08:55:14.984Z</time></trkpt><trkpt lat="43.65732201814484" lon="3.768001559688005"><ele>92.0</ele><time>2026-04-12T08:55:17.984Z</time></trkpt><trkpt lat="43.657348774224346" lon="3.768088990575293"><ele>93.66666666666667</ele><time>2026-04-12T08:55:19.984Z</time></trkpt><trkpt lat="43.657332954785524" lon="3.76820654075767"><ele>95.33333333333334</ele><time>2026-04-12T08:55:22.984Z</time></trkpt><trkpt lat="43.65727903831148" lon="3.7682568748261094"><ele>97.0</ele><time>2026-04-12T08:55:24.984Z</time></trkpt><trkpt lat="43.65723560125088" lon="3.768325924346641"><ele>97.00000000000001</ele><time>2026-04-12T08:55:27.984Z</time></trkpt><trkpt lat="43.65717658161108" lon="3.768369369131791"><ele>97.0</ele><time>2026-04-12T08:55:29.984Z</time></trkpt><trkpt lat="43.65712026529776" lon="3.7684273431776565"><ele>97.0</ele><time>2026-04-12T08:55:31.984Z</time></trkpt><trkpt lat="43.65703920086141" lon="3.768487444568475"><ele>97.0</ele><time>2026-04-12T08:55:34.984Z</time></trkpt><trkpt lat="43.656950732950754" lon="3.768527983042099"><ele>97.00000000000001</ele><time>2026-04-12T08:55:37.984Z</time></trkpt><trkpt lat="43.65687134898609" lon="3.7685309723034304"><ele>97.0</ele><time>2026-04-12T08:55:40.984Z</time></trkpt><trkpt lat="43.656783189813744" lon="3.7684985043970145"><ele>97.19999999999999</ele><time>2026-04-12T08:55:43.984Z</time></trkpt><trkpt lat="43.65670788006065" lon="3.768477751336812"><ele>97.4</ele><time>2026-04-12T08:55:45.984Z</time></trkpt><trkpt lat="43.65661892833936" lon="3.7684156252751144"><ele>97.6</ele><time>2026-04-12T08:55:47.984Z</time></trkpt><trkpt lat="43.65648875137226" lon="3.76841297734393"><ele>97.80000000000001</ele><time>2026-04-12T08:55:49.984Z</time></trkpt><trkpt lat="43.656403491953775" lon="3.768499598226684"><ele>98.0</ele><time>2026-04-12T08:55:51.984Z</time></trkpt><trkpt lat="43.65633703139391" lon="3.7685778877800034"><ele>97.99999999999999</ele><time>2026-04-12T08:55:53.984Z</time></trkpt><trkpt lat="43.65628078796704" lon="3.7686530092354005"><ele>98.0</ele><time>2026-04-12T08:55:55.986Z</time></trkpt><trkpt lat="43.65624465922995" lon="3.7687243784905085"><ele>98.0</ele><time>2026-04-12T08:55:57.985Z</time></trkpt><trkpt lat="43.65619257008039" lon="3.768786991444044"><ele>98.0</ele><time>2026-04-12T08:55:59.985Z</time></trkpt><trkpt lat="43.656142498049554" lon="3.7688842122755633"><ele>97.99999999999999</ele><time>2026-04-12T08:56:02.986Z</time></trkpt><trkpt lat="43.656118736280135" lon="3.7689654117185736"><ele>98.0</ele><time>2026-04-12T08:56:04.985Z</time></trkpt><trkpt lat="43.65610714481081" lon="3.769097509405675"><ele>97.66666666666666</ele><time>2026-04-12T08:56:07.986Z</time></trkpt><trkpt lat="43.65611214739209" lon="3.7691938966850236"><ele>97.33333333333333</ele><time>2026-04-12T08:56:10.986Z</time></trkpt><trkpt lat="43.65606555049447" lon="3.7692754813032505"><ele>97.0</ele><time>2026-04-12T08:56:13.986Z</time></trkpt><trkpt lat="43.65601012199967" lon="3.769333461857184"><ele>96.66666666666666</ele><time>2026-04-12T08:56:18.986Z</time></trkpt><trkpt lat="43.655973638215094" lon="3.7694398229180646"><ele>96.33333333333333</ele><time>2026-04-12T08:57:05.985Z</time></trkpt><trkpt lat="43.655977166138186" lon="3.7695675185873454"><ele>96.0</ele><time>2026-04-12T08:57:08.985Z</time></trkpt><trkpt lat="43.65597141854903" lon="3.7696651441819395"><ele>95.83333333333333</ele><time>2026-04-12T08:57:10.985Z</time></trkpt><trkpt lat="43.655966902800095" lon="3.7697672025812405"><ele>95.66666666666667</ele><time>2026-04-12T08:57:12.985Z</time></trkpt><trkpt lat="43.6559687642259" lon="3.7698740194600715"><ele>95.5</ele><time>2026-04-12T08:57:14.985Z</time></trkpt><trkpt lat="43.655969761087555" lon="3.7699960802165724"><ele>95.33333333333334</ele><time>2026-04-12T08:57:16.985Z</time></trkpt><trkpt lat="43.65595543553807" lon="3.770108915828948"><ele>95.16666666666667</ele><time>2026-04-12T08:57:18.985Z</time></trkpt><trkpt lat="43.65593218149581" lon="3.7702201660527637"><ele>95.0</ele><time>2026-04-12T08:57:20.985Z</time></trkpt><trkpt lat="43.655917468418686" lon="3.77033839912311"><ele>94.5</ele><time>2026-04-12T08:57:22.985Z</time></trkpt><trkpt lat="43.65591335308506" lon="3.7704497206866536"><ele>94.0</ele><time>2026-04-12T08:57:24.985Z</time></trkpt><trkpt lat="43.655899224547326" lon="3.7705562482278094"><ele>93.5</ele><time>2026-04-12T08:57:26.985Z</time></trkpt><trkpt lat="43.655874242659024" lon="3.770647103280587"><ele>93.0</ele><time>2026-04-12T08:57:28.985Z</time></trkpt><trkpt lat="43.655856378157054" lon="3.770792423039995"><ele>92.5</ele><time>2026-04-12T08:57:31.985Z</time></trkpt><trkpt lat="43.65583951724083" lon="3.770913654365434"><ele>92.0</ele><time>2026-04-12T08:57:33.985Z</time></trkpt><trkpt lat="43.65583006628339" lon="3.7710330684343156"><ele>91.39999999999999</ele><time>2026-04-12T08:57:35.985Z</time></trkpt><trkpt lat="43.65582684329337" lon="3.771139403009529"><ele>90.8</ele><time>2026-04-12T08:57:37.985Z</time></trkpt><trkpt lat="43.655817289219556" lon="3.771261221750938"><ele>90.2</ele><time>2026-04-12T08:57:39.985Z</time></trkpt><trkpt lat="43.65581857569201" lon="3.7713996810763493"><ele>89.6</ele><time>2026-04-12T08:57:41.985Z</time></trkpt><trkpt lat="43.65580476761232" lon="3.771536680519698"><ele>89.0</ele><time>2026-04-12T08:57:43.985Z</time></trkpt><trkpt lat="43.65580081470436" lon="3.7716926415285803"><ele>89.0</ele><time>2026-04-12T08:57:45.985Z</time></trkpt><trkpt lat="43.65579516136482" lon="3.7718522214107533"><ele>89.0</ele><time>2026-04-12T08:57:47.985Z</time></trkpt><trkpt lat="43.65578669900895" lon="3.7720202519036583"><ele>89.0</ele><time>2026-04-12T08:57:49.985Z</time></trkpt><trkpt lat="43.655786961952394" lon="3.772119918176167"><ele>89.0</ele><time>2026-04-12T08:57:50.985Z</time></trkpt><trkpt lat="43.65577759190136" lon="3.7722766343430005"><ele>89.0</ele><time>2026-04-12T08:57:52.984Z</time></trkpt><trkpt lat="43.655794928289495" lon="3.772367336155589"><ele>88.6</ele><time>2026-04-12T08:57:53.984Z</time></trkpt><trkpt lat="43.6558152412822" lon="3.7725273159247155"><ele>88.2</ele><time>2026-04-12T08:57:55.984Z</time></trkpt><trkpt lat="43.65583512389923" lon="3.7726975424464517"><ele>87.8</ele><time>2026-04-12T08:57:57.984Z</time></trkpt><trkpt lat="43.65584981333019" lon="3.772850698183251"><ele>87.39999999999999</ele><time>2026-04-12T08:57:59.984Z</time></trkpt><trkpt lat="43.65579258392841" lon="3.772950433004768"><ele>87.0</ele><time>2026-04-12T08:58:01.985Z</time></trkpt><trkpt lat="43.655783872209476" lon="3.7730410970967623"><ele>86.66666666666667</ele><time>2026-04-12T08:58:03.986Z</time></trkpt><trkpt lat="43.655855322337544" lon="3.7731279666161193"><ele>86.33333333333333</ele><time>2026-04-12T08:58:04.986Z</time></trkpt><trkpt lat="43.65591979071816" lon="3.773184033820531"><ele>86.0</ele><time>2026-04-12T08:58:05.985Z</time></trkpt><trkpt lat="43.65591794720325" lon="3.7732891058398774"><ele>85.66666666666666</ele><time>2026-04-12T08:58:07.986Z</time></trkpt><trkpt lat="43.65587990199533" lon="3.773366872816921"><ele>85.33333333333333</ele><time>2026-04-12T08:58:08.985Z</time></trkpt><trkpt lat="43.65583290127236" lon="3.7735164145888858"><ele>85.0</ele><time>2026-04-12T08:58:10.986Z</time></trkpt><trkpt lat="43.65578943545411" lon="3.773645458271172"><ele>85.0</ele><time>2026-04-12T08:58:12.986Z</time></trkpt><trkpt lat="43.65573222415426" lon="3.7737543445584203"><ele>85.0</ele><time>2026-04-12T08:58:14.985Z</time></trkpt><trkpt lat="43.65567027549531" lon="3.7738659269669963"><ele>85.0</ele><time>2026-04-12T08:58:16.985Z</time></trkpt><trkpt lat="43.65558059242389" lon="3.7739886115158057"><ele>85.0</ele><time>2026-04-12T08:58:18.985Z</time></trkpt><trkpt lat="43.655504105539045" lon="3.7740939515647605"><ele>85.0</ele><time>2026-04-12T08:58:20.985Z</time></trkpt><trkpt lat="43.65543108752237" lon="3.7741981553289508"><ele>85.0</ele><time>2026-04-12T08:58:22.985Z</time></trkpt><trkpt lat="43.655359629415884" lon="3.7742930304789883"><ele>85.0</ele><time>2026-04-12T08:58:24.985Z</time></trkpt><trkpt lat="43.65530006834862" lon="3.77440804414456"><ele>85.0</ele><time>2026-04-12T08:58:26.985Z</time></trkpt><trkpt lat="43.65524803473836" lon="3.7745458145369164"><ele>85.0</ele><time>2026-04-12T08:58:28.985Z</time></trkpt><trkpt lat="43.655203892325495" lon="3.774684603725106"><ele>85.0</ele><time>2026-04-12T08:58:30.985Z</time></trkpt><trkpt lat="43.65516983648543" lon="3.7748038806232116"><ele>84.4</ele><time>2026-04-12T08:58:32.985Z</time></trkpt><trkpt lat="43.65513526293118" lon="3.7749137367908303"><ele>83.8</ele><time>2026-04-12T08:58:34.985Z</time></trkpt><trkpt lat="43.65512164435441" lon="3.775021251220694"><ele>83.19999999999999</ele><time>2026-04-12T08:58:36.985Z</time></trkpt><trkpt lat="43.655103179214166" lon="3.7751313259542854"><ele>82.6</ele><time>2026-04-12T08:58:38.985Z</time></trkpt><trkpt lat="43.65509130738819" lon="3.775273154367324"><ele>82.0</ele><time>2026-04-12T08:58:40.985Z</time></trkpt><trkpt lat="43.655060173153636" lon="3.7754099841689097"><ele>81.5</ele><time>2026-04-12T08:58:42.985Z</time></trkpt><trkpt lat="43.654999388722224" lon="3.775546646230554"><ele>81.0</ele><time>2026-04-12T08:58:44.985Z</time></trkpt><trkpt lat="43.65498143507009" lon="3.7757113886276494"><ele>80.5</ele><time>2026-04-12T08:58:46.985Z</time></trkpt><trkpt lat="43.654974712389375" lon="3.775871014473382"><ele>80.0</ele><time>2026-04-12T08:58:48.984Z</time></trkpt><trkpt lat="43.65496585284697" lon="3.776016320598975"><ele>79.4</ele><time>2026-04-12T08:58:50.984Z</time></trkpt><trkpt lat="43.65495023320134" lon="3.776172379823182"><ele>78.8</ele><time>2026-04-12T08:58:52.984Z</time></trkpt><trkpt lat="43.654907679381665" lon="3.776296557631409"><ele>78.2</ele><time>2026-04-12T08:58:54.984Z</time></trkpt><trkpt lat="43.65490988430728" lon="3.776430152967686"><ele>77.6</ele><time>2026-04-12T08:58:56.984Z</time></trkpt><trkpt lat="43.6549456740575" lon="3.776553678667959"><ele>77.0</ele><time>2026-04-12T08:58:58.984Z</time></trkpt><trkpt lat="43.65493139068269" lon="3.7766787675582294"><ele>77.0</ele><time>2026-04-12T08:59:00.984Z</time></trkpt><trkpt lat="43.65494519303168" lon="3.776826138394348"><ele>77.0</ele><time>2026-04-12T08:59:02.984Z</time></trkpt><trkpt lat="43.654919887760904" lon="3.77695432572691"><ele>77.0</ele><time>2026-04-12T08:59:04.984Z</time></trkpt><trkpt lat="43.65493717818383" lon="3.7770765200374226"><ele>77.0</ele><time>2026-04-12T08:59:06.984Z</time></trkpt><trkpt lat="43.654906959268786" lon="3.7771626449538536"><ele>77.0</ele><time>2026-04-12T08:59:08.984Z</time></trkpt><trkpt lat="43.65485984200748" lon="3.777288240151075"><ele>77.0</ele><time>2026-04-12T08:59:10.984Z</time></trkpt><trkpt lat="43.654807436505976" lon="3.7774261351520937"><ele>77.0</ele><time>2026-04-12T08:59:12.984Z</time></trkpt><trkpt lat="43.65475749600471" lon="3.777564920114008"><ele>77.0</ele><time>2026-04-12T08:59:14.984Z</time></trkpt><trkpt lat="43.65472969777292" lon="3.7777070915945496"><ele>77.0</ele><time>2026-04-12T08:59:16.984Z</time></trkpt><trkpt lat="43.65470060973265" lon="3.777832213244013"><ele>77.0</ele><time>2026-04-12T08:59:18.984Z</time></trkpt><trkpt lat="43.65467421201178" lon="3.7779736646774773"><ele>76.8</ele><time>2026-04-12T08:59:20.984Z</time></trkpt><trkpt lat="43.654609521733995" lon="3.778041474387289"><ele>76.6</ele><time>2026-04-12T08:59:22.984Z</time></trkpt><trkpt lat="43.65461994715807" lon="3.7781431914754546"><ele>76.39999999999999</ele><time>2026-04-12T08:59:25.984Z</time></trkpt><trkpt lat="43.654578966387355" lon="3.7782589663629187"><ele>76.2</ele><time>2026-04-12T08:59:28.984Z</time></trkpt><trkpt lat="43.654578202590656" lon="3.7783913915133667"><ele>76.0</ele><time>2026-04-12T08:59:30.984Z</time></trkpt><trkpt lat="43.65456893426647" lon="3.7785557105677308"><ele>75.39999999999999</ele><time>2026-04-12T08:59:32.984Z</time></trkpt><trkpt lat="43.654570056110934" lon="3.7787265336213633"><ele>74.8</ele><time>2026-04-12T08:59:34.984Z</time></trkpt><trkpt lat="43.6545617997966" lon="3.7788258424945624"><ele>74.19999999999999</ele><time>2026-04-12T08:59:35.984Z</time></trkpt><trkpt lat="43.65455627828209" lon="3.7789873901088282"><ele>73.6</ele><time>2026-04-12T08:59:37.984Z</time></trkpt><trkpt lat="43.65456056756602" lon="3.7790889619416603"><ele>73.0</ele><time>2026-04-12T08:59:39.984Z</time></trkpt><trkpt lat="43.65453356039683" lon="3.779203834427027"><ele>73.0</ele><time>2026-04-12T08:59:41.984Z</time></trkpt><trkpt lat="43.654551774926965" lon="3.7792972062728163"><ele>73.0</ele><time>2026-04-12T08:59:54.984Z</time></trkpt><trkpt lat="43.65451806099706" lon="3.7794255422130583"><ele>73.0</ele><time>2026-04-12T08:59:56.984Z</time></trkpt><trkpt lat="43.65448367960289" lon="3.7795904773387816"><ele>73.0</ele><time>2026-04-12T08:59:58.983Z</time></trkpt><trkpt lat="43.65445642614612" lon="3.7797752722190894"><ele>73.0</ele><time>2026-04-12T09:00:00.983Z</time></trkpt><trkpt lat="43.65443842517675" lon="3.7798661218240115"><ele>73.14285714285714</ele><time>2026-04-12T09:00:01.983Z</time></trkpt><trkpt lat="43.65442326944067" lon="3.7799671910303436"><ele>73.28571428571429</ele><time>2026-04-12T09:00:02.983Z</time></trkpt><trkpt lat="43.65438892934884" lon="3.780059743215809"><ele>73.42857142857143</ele><time>2026-04-12T09:00:03.983Z</time></trkpt><trkpt lat="43.6543475320619" lon="3.7801410557943473"><ele>73.57142857142857</ele><time>2026-04-12T09:00:04.983Z</time></trkpt><trkpt lat="43.654302335617984" lon="3.7802116156686068"><ele>73.71428571428571</ele><time>2026-04-12T09:00:05.983Z</time></trkpt><trkpt lat="43.65424895053016" lon="3.7802817137002083"><ele>73.85714285714286</ele><time>2026-04-12T09:00:06.986Z</time></trkpt><trkpt lat="43.65420683548863" lon="3.780352040776383"><ele>74.0</ele><time>2026-04-12T09:00:07.985Z</time></trkpt><trkpt lat="43.65414245446501" lon="3.780474196625954"><ele>73.5</ele><time>2026-04-12T09:00:09.986Z</time></trkpt><trkpt lat="43.6540847459742" lon="3.7805804050797303"><ele>73.0</ele><time>2026-04-12T09:00:11.986Z</time></trkpt><trkpt lat="43.65401691968284" lon="3.780637867204501"><ele>72.5</ele><time>2026-04-12T09:00:13.985Z</time></trkpt><trkpt lat="43.65399392972729" lon="3.7807395334941134"><ele>72.0</ele><time>2026-04-12T09:00:15.985Z</time></trkpt><trkpt lat="43.65394046690119" lon="3.7808448963823196"><ele>71.5</ele><time>2026-04-12T09:00:17.985Z</time></trkpt><trkpt lat="43.653892944912016" lon="3.780950174228914"><ele>71.0</ele><time>2026-04-12T09:00:19.985Z</time></trkpt><trkpt lat="43.65383793084936" lon="3.7810059019662927"><ele>70.66666666666667</ele><time>2026-04-12T09:00:21.985Z</time></trkpt><trkpt lat="43.65379207653034" lon="3.781077671341452"><ele>70.33333333333334</ele><time>2026-04-12T09:00:23.985Z</time></trkpt><trkpt lat="43.65373967741467" lon="3.781137527230601"><ele>70.0</ele><time>2026-04-12T09:00:25.985Z</time></trkpt><trkpt lat="43.65369848120125" lon="3.7812262689348186"><ele>69.66666666666667</ele><time>2026-04-12T09:00:28.985Z</time></trkpt><trkpt lat="43.653766125923376" lon="3.781262159154739"><ele>69.33333333333333</ele><time>2026-04-12T09:00:31.985Z</time></trkpt><trkpt lat="43.65383671597845" lon="3.7813167498817406"><ele>69.0</ele><time>2026-04-12T09:00:33.985Z</time></trkpt><trkpt lat="43.65395116895192" lon="3.781360722591783"><ele>69.0</ele><time>2026-04-12T09:00:35.985Z</time></trkpt><trkpt lat="43.65402408453546" lon="3.781384641795791"><ele>69.0</ele><time>2026-04-12T09:00:36.985Z</time></trkpt><trkpt lat="43.65412046903123" lon="3.7814602737716485"><ele>69.0</ele><time>2026-04-12T09:00:38.985Z</time></trkpt><trkpt lat="43.65424154799671" lon="3.7814071988832705"><ele>69.0</ele><time>2026-04-12T09:00:40.985Z</time></trkpt><trkpt lat="43.654332180457835" lon="3.781371531260521"><ele>69.0</ele><time>2026-04-12T09:00:42.985Z</time></trkpt><trkpt lat="43.65440048776939" lon="3.7813485725112597"><ele>69.83333333333333</ele><time>2026-04-12T09:00:45.985Z</time></trkpt><trkpt lat="43.65448445166029" lon="3.781329277235486"><ele>70.66666666666667</ele><time>2026-04-12T09:00:49.985Z</time></trkpt><trkpt lat="43.65456599278973" lon="3.7813654468940023"><ele>71.5</ele><time>2026-04-12T09:00:52.985Z</time></trkpt><trkpt lat="43.65464030435407" lon="3.7813317651055067"><ele>72.33333333333334</ele><time>2026-04-12T09:00:55.985Z</time></trkpt><trkpt lat="43.65470484728042" lon="3.781262952283318"><ele>73.16666666666667</ele><time>2026-04-12T09:00:59.985Z</time></trkpt><trkpt lat="43.65478284030383" lon="3.781251177106532"><ele>74.0</ele><time>2026-04-12T09:01:03.984Z</time></trkpt><trkpt lat="43.65486017967006" lon="3.781212627984189"><ele>74.0</ele><time>2026-04-12T09:01:06.984Z</time></trkpt><trkpt lat="43.65492516934266" lon="3.7812116428189992"><ele>74.0</ele><time>2026-04-12T09:01:08.984Z</time></trkpt><trkpt lat="43.654994451000434" lon="3.7811490658339832"><ele>74.0</ele><time>2026-04-12T09:01:11.984Z</time></trkpt><trkpt lat="43.6550504077211" lon="3.781233252842564"><ele>74.0</ele><time>2026-04-12T09:01:15.984Z</time></trkpt><trkpt lat="43.65511225898293" lon="3.781266818737849"><ele>74.0</ele><time>2026-04-12T09:01:18.984Z</time></trkpt><trkpt lat="43.655186859867044" lon="3.7812512936404032"><ele>74.0</ele><time>2026-04-12T09:01:21.984Z</time></trkpt><trkpt lat="43.65526204807145" lon="3.7812883863072337"><ele>75.5</ele><time>2026-04-12T09:01:23.984Z</time></trkpt><trkpt lat="43.65535511283575" lon="3.7812840677568063"><ele>77.0</ele><time>2026-04-12T09:01:26.984Z</time></trkpt><trkpt lat="43.65540982572312" lon="3.7813386652153858"><ele>78.5</ele><time>2026-04-12T09:01:28.984Z</time></trkpt><trkpt lat="43.655453632455334" lon="3.781453003908438"><ele>80.0</ele><time>2026-04-12T09:01:30.984Z</time></trkpt><trkpt lat="43.65550138354558" lon="3.781566113048537"><ele>81.5</ele><time>2026-04-12T09:01:32.984Z</time></trkpt><trkpt lat="43.65556387228355" lon="3.781669870768893"><ele>83.0</ele><time>2026-04-12T09:01:34.984Z</time></trkpt><trkpt lat="43.65561360086407" lon="3.781768701128787"><ele>82.33333333333334</ele><time>2026-04-12T09:01:36.984Z</time></trkpt><trkpt lat="43.65565363912911" lon="3.7818728778983677"><ele>81.66666666666667</ele><time>2026-04-12T09:01:38.984Z</time></trkpt><trkpt lat="43.65567185002622" lon="3.781975876969603"><ele>81.0</ele><time>2026-04-12T09:01:40.984Z</time></trkpt><trkpt lat="43.65567400535998" lon="3.7820954139280754"><ele>80.33333333333333</ele><time>2026-04-12T09:01:42.984Z</time></trkpt><trkpt lat="43.655680618902956" lon="3.782214505323791"><ele>79.66666666666666</ele><time>2026-04-12T09:01:44.984Z</time></trkpt><trkpt lat="43.65568509236189" lon="3.7823491787315633"><ele>79.0</ele><time>2026-04-12T09:01:46.984Z</time></trkpt><trkpt lat="43.6556777429573" lon="3.782473484400033"><ele>79.0</ele><time>2026-04-12T09:01:48.984Z</time></trkpt><trkpt lat="43.655678801095696" lon="3.7826304648173172"><ele>79.0</ele><time>2026-04-12T09:01:50.984Z</time></trkpt><trkpt lat="43.655651261042614" lon="3.7827604412234557"><ele>79.0</ele><time>2026-04-12T09:01:52.984Z</time></trkpt><trkpt lat="43.65560543675131" lon="3.7828721446842093"><ele>79.0</ele><time>2026-04-12T09:01:54.984Z</time></trkpt><trkpt lat="43.655553249660876" lon="3.782984300014776"><ele>79.0</ele><time>2026-04-12T09:01:56.984Z</time></trkpt><trkpt lat="43.65550846848873" lon="3.783104608575396"><ele>78.8</ele><time>2026-04-12T09:01:58.984Z</time></trkpt><trkpt lat="43.65546948236583" lon="3.783208629972793"><ele>78.60000000000001</ele><time>2026-04-12T09:02:00.984Z</time></trkpt><trkpt lat="43.655395428578004" lon="3.7832907435022527"><ele>78.4</ele><time>2026-04-12T09:02:02.984Z</time></trkpt><trkpt lat="43.6553297554177" lon="3.7833731010526783"><ele>78.2</ele><time>2026-04-12T09:02:04.984Z</time></trkpt><trkpt lat="43.655247766552506" lon="3.7834236963195633"><ele>78.0</ele><time>2026-04-12T09:02:06.984Z</time></trkpt><trkpt lat="43.6551668152189" lon="3.783490172625737"><ele>76.6</ele><time>2026-04-12T09:02:09.984Z</time></trkpt><trkpt lat="43.65511493592736" lon="3.7835651410625277"><ele>75.19999999999999</ele><time>2026-04-12T09:02:11.984Z</time></trkpt><trkpt lat="43.65506069674468" lon="3.783656331348046"><ele>73.8</ele><time>2026-04-12T09:02:13.986Z</time></trkpt><trkpt lat="43.654984574527816" lon="3.7837408127236323"><ele>72.39999999999999</ele><time>2026-04-12T09:02:15.985Z</time></trkpt><trkpt lat="43.65491309877103" lon="3.7838504416228256"><ele>71.0</ele><time>2026-04-12T09:02:17.984Z</time></trkpt><trkpt lat="43.65482316920149" lon="3.783984273359009"><ele>71.0</ele><time>2026-04-12T09:02:19.985Z</time></trkpt><trkpt lat="43.6547736992712" lon="3.7840570666366835"><ele>71.0</ele><time>2026-04-12T09:02:20.985Z</time></trkpt><trkpt lat="43.65472020425782" lon="3.784131947890486"><ele>71.0</ele><time>2026-04-12T09:02:21.985Z</time></trkpt><trkpt lat="43.654678049409036" lon="3.784217112651035"><ele>71.0</ele><time>2026-04-12T09:02:22.985Z</time></trkpt><trkpt lat="43.654626402080766" lon="3.784295430611017"><ele>71.0</ele><time>2026-04-12T09:02:23.985Z</time></trkpt><trkpt lat="43.65457099147007" lon="3.7843642376299287"><ele>71.0</ele><time>2026-04-12T09:02:24.985Z</time></trkpt><trkpt lat="43.654528127602376" lon="3.78444898937103"><ele>71.0</ele><time>2026-04-12T09:02:25.985Z</time></trkpt><trkpt lat="43.65449824711864" lon="3.7845374519760266"><ele>71.0</ele><time>2026-04-12T09:02:26.985Z</time></trkpt><trkpt lat="43.65444710838313" lon="3.784653457585882"><ele>71.0</ele><time>2026-04-12T09:02:28.985Z</time></trkpt><trkpt lat="43.654472240241866" lon="3.784533710888039"><ele>71.0</ele><time>2026-04-12T09:02:44.985Z</time></trkpt><trkpt lat="43.654495312985425" lon="3.784440102966864"><ele>71.0</ele><time>2026-04-12T09:02:46.985Z</time></trkpt><trkpt lat="43.654534380685" lon="3.784356142732298"><ele>71.0</ele><time>2026-04-12T09:02:48.985Z</time></trkpt><trkpt lat="43.65459132073546" lon="3.7842557515531197"><ele>71.0</ele><time>2026-04-12T09:02:51.985Z</time></trkpt><trkpt lat="43.65465857252993" lon="3.784182272014394"><ele>71.0</ele><time>2026-04-12T09:02:54.985Z</time></trkpt><trkpt lat="43.65469207195044" lon="3.7841054431054784"><ele>71.0</ele><time>2026-04-12T09:02:59.985Z</time></trkpt><trkpt lat="43.654708701405575" lon="3.784197397663835"><ele>71.0</ele><time>2026-04-12T09:03:10.984Z</time></trkpt><trkpt lat="43.654667286281565" lon="3.7842886347686027"><ele>71.0</ele><time>2026-04-12T09:03:13.984Z</time></trkpt><trkpt lat="43.65460503641759" lon="3.78437854774033"><ele>71.0</ele><time>2026-04-12T09:03:15.984Z</time></trkpt><trkpt lat="43.65453635513286" lon="3.7844458547797584"><ele>71.0</ele><time>2026-04-12T09:03:17.984Z</time></trkpt><trkpt lat="43.65449552967068" lon="3.7845220415178478"><ele>70.71428571428571</ele><time>2026-04-12T09:03:19.984Z</time></trkpt><trkpt lat="43.654460073995295" lon="3.7845969391525642"><ele>70.42857142857142</ele><time>2026-04-12T09:03:21.984Z</time></trkpt><trkpt lat="43.65442418966945" lon="3.78468594340735"><ele>70.14285714285714</ele><time>2026-04-12T09:03:23.984Z</time></trkpt><trkpt lat="43.654394263339505" lon="3.784777914441041"><ele>69.85714285714286</ele><time>2026-04-12T09:03:25.984Z</time></trkpt><trkpt lat="43.654370022168905" lon="3.784863799175445"><ele>69.57142857142858</ele><time>2026-04-12T09:03:27.984Z</time></trkpt><trkpt lat="43.654328058798214" lon="3.784946561451661"><ele>69.28571428571429</ele><time>2026-04-12T09:03:29.984Z</time></trkpt><trkpt lat="43.65429894295877" lon="3.7850411676430853"><ele>69.0</ele><time>2026-04-12T09:03:31.984Z</time></trkpt><trkpt lat="43.65427120658809" lon="3.7851410093287616"><ele>68.33333333333333</ele><time>2026-04-12T09:03:33.984Z</time></trkpt><trkpt lat="43.65425104913895" lon="3.785253438026964"><ele>67.66666666666667</ele><time>2026-04-12T09:03:35.984Z</time></trkpt><trkpt lat="43.65425803433175" lon="3.7853604023637875"><ele>67.0</ele><time>2026-04-12T09:03:37.984Z</time></trkpt><trkpt lat="43.654275649221226" lon="3.7854523295827085"><ele>66.33333333333334</ele><time>2026-04-12T09:03:39.984Z</time></trkpt><trkpt lat="43.65429410087935" lon="3.7855360305852295"><ele>65.66666666666667</ele><time>2026-04-12T09:03:41.984Z</time></trkpt><trkpt lat="43.65431767287642" lon="3.7856629779626823"><ele>65.0</ele><time>2026-04-12T09:03:43.984Z</time></trkpt><trkpt lat="43.65434519740287" lon="3.7857849878218657"><ele>65.0</ele><time>2026-04-12T09:03:45.984Z</time></trkpt><trkpt lat="43.654356222647465" lon="3.785917572930248"><ele>65.0</ele><time>2026-04-12T09:03:47.984Z</time></trkpt><trkpt lat="43.6543332517992" lon="3.786035263067633"><ele>65.0</ele><time>2026-04-12T09:03:49.984Z</time></trkpt><trkpt lat="43.65430242373679" lon="3.786131779314342"><ele>65.0</ele><time>2026-04-12T09:03:51.984Z</time></trkpt><trkpt lat="43.65425064284245" lon="3.78618410302677"><ele>65.0</ele><time>2026-04-12T09:03:53.984Z</time></trkpt><trkpt lat="43.65416480182549" lon="3.786247806460006"><ele>65.0</ele><time>2026-04-12T09:03:56.984Z</time></trkpt><trkpt lat="43.65410046454203" lon="3.786274830445849"><ele>65.00000000000001</ele><time>2026-04-12T09:03:58.984Z</time></trkpt><trkpt lat="43.65402412846947" lon="3.7863092562579452"><ele>65.0</ele><time>2026-04-12T09:04:00.984Z</time></trkpt><trkpt lat="43.65395209432345" lon="3.7863443555580734"><ele>65.0</ele><time>2026-04-12T09:04:02.984Z</time></trkpt><trkpt lat="43.65387869345155" lon="3.7863833573846515"><ele>65.0</ele><time>2026-04-12T09:04:04.984Z</time></trkpt><trkpt lat="43.653814377139554" lon="3.786414246886683"><ele>65.0</ele><time>2026-04-12T09:04:06.984Z</time></trkpt><trkpt lat="43.65375167927742" lon="3.786432463711635"><ele>65.00000000000001</ele><time>2026-04-12T09:04:08.984Z</time></trkpt><trkpt lat="43.65368976688019" lon="3.7864686257961644"><ele>65.0</ele><time>2026-04-12T09:04:10.984Z</time></trkpt><trkpt lat="43.65359835675198" lon="3.7865140517598617"><ele>65.16666666666667</ele><time>2026-04-12T09:04:13.984Z</time></trkpt><trkpt lat="43.653538342139306" lon="3.786557521123917"><ele>65.33333333333334</ele><time>2026-04-12T09:04:15.984Z</time></trkpt><trkpt lat="43.65346856904326" lon="3.7866056910800374"><ele>65.5</ele><time>2026-04-12T09:04:17.983Z</time></trkpt><trkpt lat="43.65341099827777" lon="3.7866471780808126"><ele>65.66666666666667</ele><time>2026-04-12T09:04:19.985Z</time></trkpt><trkpt lat="43.653337931126934" lon="3.7866919014574347"><ele>65.83333333333333</ele><time>2026-04-12T09:04:21.985Z</time></trkpt><trkpt lat="43.65327190113544" lon="3.7867573318400884"><ele>66.0</ele><time>2026-04-12T09:04:23.985Z</time></trkpt><trkpt lat="43.653195465644174" lon="3.786833004843808"><ele>65.83333333333333</ele><time>2026-04-12T09:04:25.985Z</time></trkpt><trkpt lat="43.653124603948164" lon="3.7868993307626835"><ele>65.66666666666667</ele><time>2026-04-12T09:04:27.985Z</time></trkpt><trkpt lat="43.6530544367087" lon="3.7869504898695707"><ele>65.5</ele><time>2026-04-12T09:04:29.985Z</time></trkpt><trkpt lat="43.652979034198" lon="3.786996832988215"><ele>65.33333333333334</ele><time>2026-04-12T09:04:31.985Z</time></trkpt><trkpt lat="43.652901327249594" lon="3.7870382737790167"><ele>65.16666666666667</ele><time>2026-04-12T09:04:33.985Z</time></trkpt><trkpt lat="43.65282208382469" lon="3.7870740398426075"><ele>65.0</ele><time>2026-04-12T09:04:35.985Z</time></trkpt><trkpt lat="43.652740411367496" lon="3.787119216432093"><ele>65.0</ele><time>2026-04-12T09:04:37.985Z</time></trkpt><trkpt lat="43.652663462291486" lon="3.787165144621425"><ele>65.0</ele><time>2026-04-12T09:04:39.985Z</time></trkpt><trkpt lat="43.6525894887527" lon="3.7871950208842606"><ele>65.0</ele><time>2026-04-12T09:04:41.985Z</time></trkpt><trkpt lat="43.652527348273345" lon="3.787216676031881"><ele>65.0</ele><time>2026-04-12T09:04:43.985Z</time></trkpt><trkpt lat="43.65243677323958" lon="3.787256251800164"><ele>65.0</ele><time>2026-04-12T09:04:45.985Z</time></trkpt><trkpt lat="43.65234231209731" lon="3.7872903808894907"><ele>65.0</ele><time>2026-04-12T09:04:47.985Z</time></trkpt><trkpt lat="43.65224728636929" lon="3.7873356249142294"><ele>65.0</ele><time>2026-04-12T09:04:49.985Z</time></trkpt><trkpt lat="43.652186846370554" lon="3.7874007050478715"><ele>65.0</ele><time>2026-04-12T09:04:51.985Z</time></trkpt><trkpt lat="43.652166843331855" lon="3.7875241666948263"><ele>65.0</ele><time>2026-04-12T09:04:54.985Z</time></trkpt><trkpt lat="43.6521336893888" lon="3.787604904971685"><ele>65.0</ele><time>2026-04-12T09:04:56.985Z</time></trkpt><trkpt lat="43.65209622442079" lon="3.7876923829405866"><ele>65.0</ele><time>2026-04-12T09:04:58.984Z</time></trkpt><trkpt lat="43.652032914182534" lon="3.787743281047302"><ele>65.0</ele><time>2026-04-12T09:05:01.984Z</time></trkpt><trkpt lat="43.65195877422031" lon="3.7878252141167357"><ele>64.66666666666667</ele><time>2026-04-12T09:05:04.984Z</time></trkpt><trkpt lat="43.651883831865156" lon="3.7878577000954716"><ele>64.33333333333334</ele><time>2026-04-12T09:05:06.984Z</time></trkpt><trkpt lat="43.651810826799334" lon="3.78789104130029"><ele>64.0</ele><time>2026-04-12T09:05:08.984Z</time></trkpt><trkpt lat="43.65172497060402" lon="3.7879184954759357"><ele>63.66666666666667</ele><time>2026-04-12T09:05:11.984Z</time></trkpt><trkpt lat="43.65166981012641" lon="3.7879744507650424"><ele>63.333333333333336</ele><time>2026-04-12T09:05:14.984Z</time></trkpt><trkpt lat="43.65160031952543" lon="3.787996573932227"><ele>63.0</ele><time>2026-04-12T09:05:17.984Z</time></trkpt><trkpt lat="43.65151984125376" lon="3.7880508884431983"><ele>63.0</ele><time>2026-04-12T09:05:20.984Z</time></trkpt><trkpt lat="43.65145803724215" lon="3.7880974284013735"><ele>63.0</ele><time>2026-04-12T09:05:23.984Z</time></trkpt><trkpt lat="43.6515214543075" lon="3.788075345861465"><ele>63.0</ele><time>2026-04-12T09:05:56.984Z</time></trkpt><trkpt lat="43.65157402242016" lon="3.788010696880853"><ele>63.0</ele><time>2026-04-12T09:05:58.984Z</time></trkpt><trkpt lat="43.65163721529177" lon="3.7879515346118584"><ele>63.0</ele><time>2026-04-12T09:06:00.984Z</time></trkpt><trkpt lat="43.65172072179452" lon="3.787898214609195"><ele>63.0</ele><time>2026-04-12T09:06:02.984Z</time></trkpt><trkpt lat="43.65181240997091" lon="3.787835462213816"><ele>63.0</ele><time>2026-04-12T09:06:04.984Z</time></trkpt><trkpt lat="43.651892250674265" lon="3.7877919401139954"><ele>63.0</ele><time>2026-04-12T09:06:06.984Z</time></trkpt><trkpt lat="43.651971572881074" lon="3.78772966382577"><ele>63.0</ele><time>2026-04-12T09:06:08.983Z</time></trkpt><trkpt lat="43.652042512639845" lon="3.787659866039318"><ele>63.0</ele><time>2026-04-12T09:06:10.983Z</time></trkpt><trkpt lat="43.652097896535494" lon="3.7875497391328303"><ele>63.0</ele><time>2026-04-12T09:06:12.983Z</time></trkpt><trkpt lat="43.65214518601808" lon="3.7874420921755028"><ele>63.4</ele><time>2026-04-12T09:06:14.983Z</time></trkpt><trkpt lat="43.652141335393566" lon="3.787309077136929"><ele>63.8</ele><time>2026-04-12T09:06:16.983Z</time></trkpt><trkpt lat="43.652122208758215" lon="3.78717834265827"><ele>64.2</ele><time>2026-04-12T09:06:18.983Z</time></trkpt><trkpt lat="43.65210955205374" lon="3.7870557137296403"><ele>64.6</ele><time>2026-04-12T09:06:20.983Z</time></trkpt><trkpt lat="43.65210474517681" lon="3.7869303849703346"><ele>65.0</ele><time>2026-04-12T09:06:22.983Z</time></trkpt><trkpt lat="43.65209628924253" lon="3.7868202641545627"><ele>65.5</ele><time>2026-04-12T09:06:24.985Z</time></trkpt><trkpt lat="43.65208901464842" lon="3.7867093810485133"><ele>66.0</ele><time>2026-04-12T09:06:26.985Z</time></trkpt><trkpt lat="43.65208651110825" lon="3.7865795112721936"><ele>66.5</ele><time>2026-04-12T09:06:28.985Z</time></trkpt><trkpt lat="43.652080790540836" lon="3.7864705608221527"><ele>67.0</ele><time>2026-04-12T09:06:30.985Z</time></trkpt><trkpt lat="43.65207060396215" lon="3.7863566637565067"><ele>67.5</ele><time>2026-04-12T09:06:32.985Z</time></trkpt><trkpt lat="43.65205833552891" lon="3.7862456300179406"><ele>68.0</ele><time>2026-04-12T09:06:34.985Z</time></trkpt><trkpt lat="43.65205236417147" lon="3.7861119556704326"><ele>68.5</ele><time>2026-04-12T09:06:36.985Z</time></trkpt><trkpt lat="43.65202994347672" lon="3.7859935487917786"><ele>69.0</ele><time>2026-04-12T09:06:38.984Z</time></trkpt><trkpt lat="43.65201833223187" lon="3.785868750516744"><ele>69.5</ele><time>2026-04-12T09:06:40.984Z</time></trkpt><trkpt lat="43.65199724774826" lon="3.7857628874870457"><ele>70.0</ele><time>2026-04-12T09:06:42.984Z</time></trkpt><trkpt lat="43.65197902610347" lon="3.785655628219348"><ele>70.5</ele><time>2026-04-12T09:06:44.984Z</time></trkpt><trkpt lat="43.65195973375951" lon="3.7855508942950284"><ele>71.0</ele><time>2026-04-12T09:06:46.984Z</time></trkpt><trkpt lat="43.651947060786256" lon="3.785432660736304"><ele>71.16666666666667</ele><time>2026-04-12T09:06:48.984Z</time></trkpt><trkpt lat="43.651916036071654" lon="3.785313604100861"><ele>71.33333333333334</ele><time>2026-04-12T09:06:50.984Z</time></trkpt><trkpt lat="43.65191834813573" lon="3.7852047069104153"><ele>71.5</ele><time>2026-04-12T09:06:52.984Z</time></trkpt><trkpt lat="43.6519268430318" lon="3.785085898251313"><ele>71.66666666666667</ele><time>2026-04-12T09:06:54.984Z</time></trkpt><trkpt lat="43.6519624299738" lon="3.7849531828329415"><ele>71.83333333333333</ele><time>2026-04-12T09:06:56.984Z</time></trkpt><trkpt lat="43.651972191185756" lon="3.7848420138553434"><ele>72.0</ele><time>2026-04-12T09:06:58.984Z</time></trkpt><trkpt lat="43.651972399465436" lon="3.7847206990750895"><ele>72.66666666666667</ele><time>2026-04-12T09:07:00.984Z</time></trkpt><trkpt lat="43.651975534615204" lon="3.7846155715335508"><ele>73.33333333333333</ele><time>2026-04-12T09:07:02.984Z</time></trkpt><trkpt lat="43.65198375422088" lon="3.784502777410499"><ele>74.0</ele><time>2026-04-12T09:07:04.984Z</time></trkpt><trkpt lat="43.65196612032872" lon="3.7843898067003368"><ele>74.66666666666666</ele><time>2026-04-12T09:07:06.984Z</time></trkpt><trkpt lat="43.65195380548623" lon="3.784272658723396"><ele>75.33333333333333</ele><time>2026-04-12T09:07:08.984Z</time></trkpt><trkpt lat="43.65193847288421" lon="3.784161630120673"><ele>76.0</ele><time>2026-04-12T09:07:10.984Z</time></trkpt><trkpt lat="43.65192392390381" lon="3.784047284445151"><ele>76.16666666666666</ele><time>2026-04-12T09:07:12.984Z</time></trkpt><trkpt lat="43.651905305098765" lon="3.7839348886146125"><ele>76.33333333333333</ele><time>2026-04-12T09:07:14.984Z</time></trkpt><trkpt lat="43.651884143546056" lon="3.7838284822560118"><ele>76.5</ele><time>2026-04-12T09:07:16.984Z</time></trkpt><trkpt lat="43.651863501623296" lon="3.7837223811861547"><ele>76.66666666666667</ele><time>2026-04-12T09:07:18.984Z</time></trkpt><trkpt lat="43.65184888238861" lon="3.78360244326784"><ele>76.83333333333334</ele><time>2026-04-12T09:07:20.984Z</time></trkpt><trkpt lat="43.651823712179365" lon="3.783507692907976"><ele>77.0</ele><time>2026-04-12T09:07:22.984Z</time></trkpt><trkpt lat="43.65179605320826" lon="3.783392511300868"><ele>77.16666666666667</ele><time>2026-04-12T09:07:24.984Z</time></trkpt><trkpt lat="43.65177784121571" lon="3.7832856675636752"><ele>77.33333333333334</ele><time>2026-04-12T09:07:26.984Z</time></trkpt><trkpt lat="43.651753762489534" lon="3.783175440942653"><ele>77.5</ele><time>2026-04-12T09:07:28.984Z</time></trkpt><trkpt lat="43.65173887487438" lon="3.7830770302181236"><ele>77.66666666666667</ele><time>2026-04-12T09:07:30.984Z</time></trkpt><trkpt lat="43.65171632756921" lon="3.7829782426266556"><ele>77.83333333333333</ele><time>2026-04-12T09:07:32.984Z</time></trkpt><trkpt lat="43.651701281831755" lon="3.7828721744334115"><ele>78.0</ele><time>2026-04-12T09:07:34.984Z</time></trkpt><trkpt lat="43.6516969803346" lon="3.782774554375326"><ele>78.33333333333333</ele><time>2026-04-12T09:07:36.984Z</time></trkpt><trkpt lat="43.65168800926111" lon="3.7826738134389517"><ele>78.66666666666667</ele><time>2026-04-12T09:07:38.984Z</time></trkpt><trkpt lat="43.65167157655643" lon="3.7825678252264745"><ele>79.0</ele><time>2026-04-12T09:07:40.983Z</time></trkpt><trkpt lat="43.651667548521424" lon="3.782466585597519"><ele>79.33333333333334</ele><time>2026-04-12T09:07:42.983Z</time></trkpt><trkpt lat="43.65166686672901" lon="3.7823599471437883"><ele>79.66666666666667</ele><time>2026-04-12T09:07:44.983Z</time></trkpt><trkpt lat="43.651669448898744" lon="3.7822499321105285"><ele>80.0</ele><time>2026-04-12T09:07:46.983Z</time></trkpt><trkpt lat="43.65167653856063" lon="3.782152922289601"><ele>80.0</ele><time>2026-04-12T09:07:48.983Z</time></trkpt><trkpt lat="43.65168368789129" lon="3.782047045295294"><ele>80.0</ele><time>2026-04-12T09:07:50.983Z</time></trkpt><trkpt lat="43.6517084085864" lon="3.7819352045817616"><ele>80.0</ele><time>2026-04-12T09:07:52.983Z</time></trkpt><trkpt lat="43.651720776967146" lon="3.78183411864427"><ele>80.0</ele><time>2026-04-12T09:07:54.983Z</time></trkpt><trkpt lat="43.65174242837424" lon="3.781740754584704"><ele>80.0</ele><time>2026-04-12T09:07:56.983Z</time></trkpt><trkpt lat="43.65175881522748" lon="3.7816343153470076"><ele>80.0</ele><time>2026-04-12T09:07:59.983Z</time></trkpt><trkpt lat="43.65176899839827" lon="3.781542632333449"><ele>80.5</ele><time>2026-04-12T09:08:02.983Z</time></trkpt><trkpt lat="43.65173760193127" lon="3.7814483630274474"><ele>81.0</ele><time>2026-04-12T09:08:04.983Z</time></trkpt><trkpt lat="43.651757069786186" lon="3.78131449410162"><ele>81.5</ele><time>2026-04-12T09:08:07.983Z</time></trkpt><trkpt lat="43.65177108493211" lon="3.7812290524947447"><ele>82.0</ele><time>2026-04-12T09:08:09.983Z</time></trkpt><trkpt lat="43.6517381175807" lon="3.781117041390616"><ele>82.5</ele><time>2026-04-12T09:08:12.983Z</time></trkpt><trkpt lat="43.65170902694281" lon="3.781021094262335"><ele>83.0</ele><time>2026-04-12T09:08:14.983Z</time></trkpt><trkpt lat="43.65165795451015" lon="3.780928874500971"><ele>83.33333333333334</ele><time>2026-04-12T09:08:16.983Z</time></trkpt><trkpt lat="43.65161870306075" lon="3.780859840799724"><ele>83.66666666666667</ele><time>2026-04-12T09:08:18.983Z</time></trkpt><trkpt lat="43.651563690485894" lon="3.780761646793364"><ele>84.0</ele><time>2026-04-12T09:08:22.983Z</time></trkpt><trkpt lat="43.65150031650884" lon="3.7806817799045493"><ele>84.33333333333333</ele><time>2026-04-12T09:08:25.983Z</time></trkpt><trkpt lat="43.65140264533904" lon="3.7806308513189943"><ele>84.66666666666666</ele><time>2026-04-12T09:08:28.983Z</time></trkpt><trkpt lat="43.65132370562883" lon="3.780602117455208"><ele>85.0</ele><time>2026-04-12T09:08:30.985Z</time></trkpt><trkpt lat="43.65125111942725" lon="3.780562429880268"><ele>85.0</ele><time>2026-04-12T09:08:32.985Z</time></trkpt><trkpt lat="43.651196879135505" lon="3.7805097294625782"><ele>85.0</ele><time>2026-04-12T09:08:34.985Z</time></trkpt><trkpt lat="43.651148804828175" lon="3.7804287279414557"><ele>85.0</ele><time>2026-04-12T09:08:37.984Z</time></trkpt><trkpt lat="43.65113461015672" lon="3.780338580452771"><ele>85.0</ele><time>2026-04-12T09:08:39.984Z</time></trkpt><trkpt lat="43.65111333936383" lon="3.7802358155145503"><ele>85.0</ele><time>2026-04-12T09:08:41.984Z</time></trkpt><trkpt lat="43.65109001561059" lon="3.780113577508598"><ele>85.0</ele><time>2026-04-12T09:08:44.985Z</time></trkpt><trkpt lat="43.651075073058855" lon="3.780022850063636"><ele>85.0</ele><time>2026-04-12T09:08:47.985Z</time></trkpt><trkpt lat="43.651053487132245" lon="3.7799345378616462"><ele>86.66666666666666</ele><time>2026-04-12T09:08:49.985Z</time></trkpt><trkpt lat="43.65102252046046" lon="3.7798523201065852"><ele>88.33333333333333</ele><time>2026-04-12T09:08:51.985Z</time></trkpt><trkpt lat="43.650983185881564" lon="3.7797468319907717"><ele>90.0</ele><time>2026-04-12T09:08:54.984Z</time></trkpt><trkpt lat="43.65095979203082" lon="3.779641674110269"><ele>91.66666666666667</ele><time>2026-04-12T09:08:57.984Z</time></trkpt><trkpt lat="43.65094023347396" lon="3.779553586890377"><ele>93.33333333333334</ele><time>2026-04-12T09:08:59.984Z</time></trkpt><trkpt lat="43.65090884277218" lon="3.7794427796381296"><ele>95.0</ele><time>2026-04-12T09:09:02.984Z</time></trkpt><trkpt lat="43.65088588947818" lon="3.77935798621836"><ele>95.5</ele><time>2026-04-12T09:09:04.984Z</time></trkpt><trkpt lat="43.65086067642616" lon="3.77922262974464"><ele>96.0</ele><time>2026-04-12T09:09:07.984Z</time></trkpt><trkpt lat="43.650838886860214" lon="3.7791123647807563"><ele>96.5</ele><time>2026-04-12T09:09:09.984Z</time></trkpt><trkpt lat="43.65082340068812" lon="3.7789855918498163"><ele>97.0</ele><time>2026-04-12T09:09:11.984Z</time></trkpt><trkpt lat="43.650804516233066" lon="3.778866081954028"><ele>97.49999999999999</ele><time>2026-04-12T09:09:13.984Z</time></trkpt><trkpt lat="43.65076915043891" lon="3.7787914591229765"><ele>98.0</ele><time>2026-04-12T09:09:15.984Z</time></trkpt><trkpt lat="43.650742066683776" lon="3.7786802692608084"><ele>98.0</ele><time>2026-04-12T09:09:18.984Z</time></trkpt><trkpt lat="43.65071384546612" lon="3.778595097286219"><ele>98.0</ele><time>2026-04-12T09:09:20.984Z</time></trkpt><trkpt lat="43.650685478631395" lon="3.7785129609629458"><ele>98.0</ele><time>2026-04-12T09:09:22.984Z</time></trkpt><trkpt lat="43.65064237009029" lon="3.7784324972680445"><ele>98.0</ele><time>2026-04-12T09:09:24.984Z</time></trkpt><trkpt lat="43.65061572135284" lon="3.7783451348182426"><ele>98.0</ele><time>2026-04-12T09:09:26.984Z</time></trkpt><trkpt lat="43.650579167794675" lon="3.7782663579991955"><ele>98.0</ele><time>2026-04-12T09:09:28.984Z</time></trkpt><trkpt lat="43.65054462182239" lon="3.7781841958536995"><ele>98.0</ele><time>2026-04-12T09:09:30.984Z</time></trkpt><trkpt lat="43.6505198952144" lon="3.7780943119456816"><ele>97.49999999999999</ele><time>2026-04-12T09:09:32.984Z</time></trkpt><trkpt lat="43.65050941448742" lon="3.7779944853004426"><ele>97.0</ele><time>2026-04-12T09:09:35.984Z</time></trkpt><trkpt lat="43.65045192493667" lon="3.7779178307721644"><ele>96.5</ele><time>2026-04-12T09:09:38.984Z</time></trkpt><trkpt lat="43.65036239279175" lon="3.777868234731402"><ele>96.0</ele><time>2026-04-12T09:10:04.983Z</time></trkpt><trkpt lat="43.650301742832305" lon="3.7778228808869945"><ele>95.5</ele><time>2026-04-12T09:10:07.983Z</time></trkpt><trkpt lat="43.65023539037552" lon="3.7778035228649287"><ele>95.0</ele><time>2026-04-12T09:10:09.983Z</time></trkpt><trkpt lat="43.65015737593896" lon="3.777772225836595"><ele>98.33333333333334</ele><time>2026-04-12T09:10:11.983Z</time></trkpt><trkpt lat="43.650087975497264" lon="3.7777532214137057"><ele>101.66666666666667</ele><time>2026-04-12T09:10:13.983Z</time></trkpt><trkpt lat="43.64999504725654" lon="3.777718697404503"><ele>105.0</ele><time>2026-04-12T09:10:15.983Z</time></trkpt><trkpt lat="43.64991801609444" lon="3.7777086306185788"><ele>108.33333333333334</ele><time>2026-04-12T09:10:17.983Z</time></trkpt><trkpt lat="43.64983618288244" lon="3.7777203291634165"><ele>111.66666666666667</ele><time>2026-04-12T09:10:19.983Z</time></trkpt><trkpt lat="43.649748778524426" lon="3.777715549078468"><ele>115.0</ele><time>2026-04-12T09:10:21.983Z</time></trkpt><trkpt lat="43.64967034011223" lon="3.777706025561614"><ele>115.00000000000001</ele><time>2026-04-12T09:10:23.983Z</time></trkpt><trkpt lat="43.6495706398607" lon="3.7776960369030714"><ele>115.0</ele><time>2026-04-12T09:10:25.983Z</time></trkpt><trkpt lat="43.649488033431865" lon="3.777676340836574"><ele>115.0</ele><time>2026-04-12T09:10:27.983Z</time></trkpt><trkpt lat="43.6494003946125" lon="3.7776759404825"><ele>115.0</ele><time>2026-04-12T09:10:29.983Z</time></trkpt><trkpt lat="43.64930209624918" lon="3.7776696939477565"><ele>115.00000000000001</ele><time>2026-04-12T09:10:31.983Z</time></trkpt><trkpt lat="43.64922404749966" lon="3.777655445549915"><ele>115.0</ele><time>2026-04-12T09:10:33.983Z</time></trkpt><trkpt lat="43.64914988478932" lon="3.777642367778399"><ele>113.50000000000001</ele><time>2026-04-12T09:10:35.984Z</time></trkpt><trkpt lat="43.649050493770524" lon="3.7776307173706782"><ele>112.0</ele><time>2026-04-12T09:10:37.985Z</time></trkpt><trkpt lat="43.64896806672004" lon="3.7776208271869374"><ele>110.5</ele><time>2026-04-12T09:10:39.984Z</time></trkpt><trkpt lat="43.64888451617445" lon="3.777614197499339"><ele>109.0</ele><time>2026-04-12T09:10:41.984Z</time></trkpt><trkpt lat="43.6488129261036" lon="3.7776199051727617"><ele>107.50000000000001</ele><time>2026-04-12T09:10:43.985Z</time></trkpt><trkpt lat="43.6487232668501" lon="3.777603281216066"><ele>106.0</ele><time>2026-04-12T09:10:45.984Z</time></trkpt><trkpt lat="43.64864056894766" lon="3.777573622392065"><ele>106.83333333333334</ele><time>2026-04-12T09:10:47.984Z</time></trkpt><trkpt lat="43.6485549815586" lon="3.7775855673122267"><ele>107.66666666666667</ele><time>2026-04-12T09:10:50.984Z</time></trkpt><trkpt lat="43.648472206711375" lon="3.777605848154071"><ele>108.5</ele><time>2026-04-12T09:10:52.984Z</time></trkpt><trkpt lat="43.64839820282047" lon="3.777675571626634"><ele>109.33333333333334</ele><time>2026-04-12T09:10:54.984Z</time></trkpt><trkpt lat="43.64833200120965" lon="3.777630323246437"><ele>110.16666666666667</ele><time>2026-04-12T09:10:56.984Z</time></trkpt><trkpt lat="43.64827537258056" lon="3.7775744386056185"><ele>111.0</ele><time>2026-04-12T09:10:58.984Z</time></trkpt><trkpt lat="43.64817661850018" lon="3.777553322289218"><ele>111.0</ele><time>2026-04-12T09:11:00.984Z</time></trkpt><trkpt lat="43.64808161977288" lon="3.7775133887095875"><ele>111.0</ele><time>2026-04-12T09:11:02.984Z</time></trkpt><trkpt lat="43.64798568694453" lon="3.7775050329660598"><ele>111.0</ele><time>2026-04-12T09:11:04.984Z</time></trkpt><trkpt lat="43.64790146190606" lon="3.7774933911951933"><ele>111.0</ele><time>2026-04-12T09:11:07.984Z</time></trkpt><trkpt lat="43.64780983838663" lon="3.7774599705798546"><ele>111.0</ele><time>2026-04-12T09:11:11.984Z</time></trkpt><trkpt lat="43.64773126293781" lon="3.7774358578412204"><ele>111.85714285714286</ele><time>2026-04-12T09:11:13.984Z</time></trkpt><trkpt lat="43.64766340982359" lon="3.777415236504781"><ele>112.71428571428572</ele><time>2026-04-12T09:11:15.984Z</time></trkpt><trkpt lat="43.64759860063286" lon="3.777386745092468"><ele>113.57142857142858</ele><time>2026-04-12T09:11:17.984Z</time></trkpt><trkpt lat="43.64752737315068" lon="3.7773616341614935"><ele>114.42857142857143</ele><time>2026-04-12T09:11:19.984Z</time></trkpt><trkpt lat="43.64746741643525" lon="3.777320952578683"><ele>115.2857142857143</ele><time>2026-04-12T09:11:22.984Z</time></trkpt><trkpt lat="43.64738679976553" lon="3.7773118640998815"><ele>116.14285714285715</ele><time>2026-04-12T09:11:24.983Z</time></trkpt><trkpt lat="43.64731715892193" lon="3.7773523448665283"><ele>117.0</ele><time>2026-04-12T09:11:26.983Z</time></trkpt><trkpt lat="43.647255724915844" lon="3.7773756855962306"><ele>117.0</ele><time>2026-04-12T09:11:28.983Z</time></trkpt><trkpt lat="43.64718690859991" lon="3.7773873827802"><ele>117.00000000000001</ele><time>2026-04-12T09:11:31.983Z</time></trkpt><trkpt lat="43.64710582727502" lon="3.77742068147595"><ele>117.0</ele><time>2026-04-12T09:11:35.983Z</time></trkpt><trkpt lat="43.64703960833517" lon="3.7774402084508956"><ele>117.0</ele><time>2026-04-12T09:11:38.983Z</time></trkpt><trkpt lat="43.646966118024174" lon="3.777472118513497"><ele>117.00000000000001</ele><time>2026-04-12T09:11:42.983Z</time></trkpt><trkpt lat="43.64690126887144" lon="3.777487440868892"><ele>117.0</ele><time>2026-04-12T09:11:46.983Z</time></trkpt><trkpt lat="43.646833638636934" lon="3.7775115194715903"><ele>117.0</ele><time>2026-04-12T09:11:49.983Z</time></trkpt><trkpt lat="43.64675240439904" lon="3.7775076524621993"><ele>119.0</ele><time>2026-04-12T09:11:53.983Z</time></trkpt><trkpt lat="43.64667518431349" lon="3.7775321026825615"><ele>121.0</ele><time>2026-04-12T09:11:58.983Z</time></trkpt><trkpt lat="43.64659994197031" lon="3.777553201827467"><ele>123.0</ele><time>2026-04-12T09:12:02.983Z</time></trkpt><trkpt lat="43.64652345728288" lon="3.7775642575267763"><ele>125.0</ele><time>2026-04-12T09:12:06.983Z</time></trkpt><trkpt lat="43.64644834138509" lon="3.7775776067742557"><ele>127.0</ele><time>2026-04-12T09:12:10.983Z</time></trkpt><trkpt lat="43.64638077086497" lon="3.777596813304745"><ele>129.0</ele><time>2026-04-12T09:12:14.983Z</time></trkpt><trkpt lat="43.64631023281482" lon="3.7776255979399402"><ele>129.0</ele><time>2026-04-12T09:12:18.983Z</time></trkpt><trkpt lat="43.646237208385" lon="3.7776256716333165"><ele>129.0</ele><time>2026-04-12T09:12:23.983Z</time></trkpt><trkpt lat="43.64616728197915" lon="3.7776149577187677"><ele>129.0</ele><time>2026-04-12T09:12:27.983Z</time></trkpt><trkpt lat="43.64609396046118" lon="3.7775922955249976"><ele>129.0</ele><time>2026-04-12T09:12:31.983Z</time></trkpt><trkpt lat="43.64601232460506" lon="3.777569482223585"><ele>129.0</ele><time>2026-04-12T09:12:35.982Z</time></trkpt><trkpt lat="43.64592460485767" lon="3.7775341958108406"><ele>129.0</ele><time>2026-04-12T09:12:38.982Z</time></trkpt><trkpt lat="43.64584571470581" lon="3.7775243365549267"><ele>129.85714285714283</ele><time>2026-04-12T09:12:41.984Z</time></trkpt><trkpt lat="43.645762599553436" lon="3.777491735381682"><ele>130.71428571428572</ele><time>2026-04-12T09:12:43.984Z</time></trkpt><trkpt lat="43.64569736936747" lon="3.777458518546837"><ele>131.57142857142856</ele><time>2026-04-12T09:12:45.984Z</time></trkpt><trkpt lat="43.64563236344617" lon="3.7774555161904946"><ele>132.42857142857142</ele><time>2026-04-12T09:12:47.984Z</time></trkpt><trkpt lat="43.64556169256227" lon="3.777427393468756"><ele>133.28571428571428</ele><time>2026-04-12T09:12:49.984Z</time></trkpt><trkpt lat="43.645491147866196" lon="3.7774043723320125"><ele>134.14285714285714</ele><time>2026-04-12T09:12:51.984Z</time></trkpt><trkpt lat="43.64541630740813" lon="3.777383744143315"><ele>135.0</ele><time>2026-04-12T09:12:53.984Z</time></trkpt><trkpt lat="43.645334423237486" lon="3.777373607360475"><ele>134.5</ele><time>2026-04-12T09:12:55.984Z</time></trkpt><trkpt lat="43.645250685506355" lon="3.7773545025538153"><ele>134.0</ele><time>2026-04-12T09:12:57.984Z</time></trkpt><trkpt lat="43.645170001736794" lon="3.777360793107829"><ele>133.5</ele><time>2026-04-12T09:13:00.984Z</time></trkpt><trkpt lat="43.64510012898295" lon="3.777425969355569"><ele>133.0</ele><time>2026-04-12T09:15:42.983Z</time></trkpt><trkpt lat="43.64507612463098" lon="3.777510936118589"><ele>132.5</ele><time>2026-04-12T09:15:44.983Z</time></trkpt><trkpt lat="43.6450471351353" lon="3.7775894151914917"><ele>132.0</ele><time>2026-04-12T09:15:46.983Z</time></trkpt><trkpt lat="43.64501663337842" lon="3.7776833037681983"><ele>131.4</ele><time>2026-04-12T09:15:48.983Z</time></trkpt><trkpt lat="43.64496901390858" lon="3.777787053660949"><ele>130.79999999999998</ele><time>2026-04-12T09:15:50.983Z</time></trkpt><trkpt lat="43.644944681666765" lon="3.777917648571411"><ele>130.2</ele><time>2026-04-12T09:15:52.983Z</time></trkpt><trkpt lat="43.64493144491469" lon="3.7780498842471517"><ele>129.6</ele><time>2026-04-12T09:15:54.983Z</time></trkpt><trkpt lat="43.64488898224094" lon="3.778199303987775"><ele>129.0</ele><time>2026-04-12T09:15:56.983Z</time></trkpt><trkpt lat="43.64485190119626" lon="3.778274217426788"><ele>128.99999999999997</ele><time>2026-04-12T09:15:57.983Z</time></trkpt><trkpt lat="43.644812573574214" lon="3.7783458259830476"><ele>129.0</ele><time>2026-04-12T09:15:58.983Z</time></trkpt><trkpt lat="43.64478529777636" lon="3.7784281108466398"><ele>129.0</ele><time>2026-04-12T09:15:59.983Z</time></trkpt><trkpt lat="43.64475285698836" lon="3.7785083430516533"><ele>129.0</ele><time>2026-04-12T09:16:00.983Z</time></trkpt><trkpt lat="43.64472458654652" lon="3.7785985234891304"><ele>129.0</ele><time>2026-04-12T09:16:01.983Z</time></trkpt><trkpt lat="43.644686299085" lon="3.7786871270783915"><ele>128.99999999999997</ele><time>2026-04-12T09:16:02.983Z</time></trkpt><trkpt lat="43.64464732166129" lon="3.7787600265139636"><ele>129.0</ele><time>2026-04-12T09:16:03.983Z</time></trkpt><trkpt lat="43.64460035617249" lon="3.778826919989648"><ele>128.57142857142856</ele><time>2026-04-12T09:16:04.983Z</time></trkpt><trkpt lat="43.6445363374491" lon="3.778863494600613"><ele>128.14285714285714</ele><time>2026-04-12T09:16:05.983Z</time></trkpt><trkpt lat="43.64447348378557" lon="3.778882327241163"><ele>127.71428571428571</ele><time>2026-04-12T09:16:06.983Z</time></trkpt><trkpt lat="43.64440854822331" lon="3.7789208093085813"><ele>127.28571428571428</ele><time>2026-04-12T09:16:07.983Z</time></trkpt><trkpt lat="43.64435487641922" lon="3.7789788478102846"><ele>126.85714285714286</ele><time>2026-04-12T09:16:08.983Z</time></trkpt><trkpt lat="43.64431375059621" lon="3.7790530608842285"><ele>126.42857142857143</ele><time>2026-04-12T09:16:09.983Z</time></trkpt><trkpt lat="43.64427089599014" lon="3.779126685443989"><ele>126.0</ele><time>2026-04-12T09:16:10.983Z</time></trkpt><trkpt lat="43.64423814975634" lon="3.779213793380272"><ele>125.71428571428572</ele><time>2026-04-12T09:16:11.983Z</time></trkpt><trkpt lat="43.644202822936684" lon="3.779298838089038"><ele>125.42857142857143</ele><time>2026-04-12T09:16:12.983Z</time></trkpt><trkpt lat="43.64416162842344" lon="3.7793856718255596"><ele>125.14285714285714</ele><time>2026-04-12T09:16:13.982Z</time></trkpt><trkpt lat="43.644124408877836" lon="3.7794696276732647"><ele>124.85714285714286</ele><time>2026-04-12T09:16:14.982Z</time></trkpt><trkpt lat="43.64408266218135" lon="3.779544659240938"><ele>124.57142857142858</ele><time>2026-04-12T09:16:15.982Z</time></trkpt><trkpt lat="43.64403900544795" lon="3.779623172701165"><ele>124.28571428571429</ele><time>2026-04-12T09:16:16.982Z</time></trkpt><trkpt lat="43.644009692464415" lon="3.779710990794701"><ele>124.0</ele><time>2026-04-12T09:16:17.982Z</time></trkpt><trkpt lat="43.644019125174516" lon="3.7798162676591174"><ele>123.66666666666667</ele><time>2026-04-12T09:16:18.982Z</time></trkpt><trkpt lat="43.64404179265423" lon="3.7799180949485334"><ele>123.33333333333334</ele><time>2026-04-12T09:16:19.982Z</time></trkpt><trkpt lat="43.64405850378128" lon="3.780018102978234"><ele>123.0</ele><time>2026-04-12T09:16:20.982Z</time></trkpt><trkpt lat="43.644075241860776" lon="3.7801202230092565"><ele>122.66666666666666</ele><time>2026-04-12T09:16:21.982Z</time></trkpt><trkpt lat="43.64409340831276" lon="3.7802224949894034"><ele>122.33333333333333</ele><time>2026-04-12T09:16:22.982Z</time></trkpt><trkpt lat="43.64409664682085" lon="3.780321940027171"><ele>122.0</ele><time>2026-04-12T09:16:23.982Z</time></trkpt><trkpt lat="43.64410832954599" lon="3.7804232978132593"><ele>121.7142857142857</ele><time>2026-04-12T09:16:24.982Z</time></trkpt><trkpt lat="43.64409557546717" lon="3.780512228288486"><ele>121.42857142857142</ele><time>2026-04-12T09:16:25.982Z</time></trkpt><trkpt lat="43.64402958494992" lon="3.7805745584626496"><ele>121.14285714285714</ele><time>2026-04-12T09:16:26.982Z</time></trkpt><trkpt lat="43.643971413853194" lon="3.7806203578129174"><ele>120.85714285714285</ele><time>2026-04-12T09:16:27.982Z</time></trkpt><trkpt lat="43.64391088462813" lon="3.7806739192547174"><ele>120.57142857142856</ele><time>2026-04-12T09:16:28.982Z</time></trkpt><trkpt lat="43.64383989597438" lon="3.780713686599418"><ele>120.28571428571429</ele><time>2026-04-12T09:16:29.982Z</time></trkpt><trkpt lat="43.643769832032454" lon="3.7807512048421437"><ele>120.0</ele><time>2026-04-12T09:16:30.982Z</time></trkpt><trkpt lat="43.64369890801915" lon="3.780788948137842"><ele>120.0</ele><time>2026-04-12T09:16:31.982Z</time></trkpt><trkpt lat="43.64363530673134" lon="3.780841250996644"><ele>120.0</ele><time>2026-04-12T09:16:32.982Z</time></trkpt><trkpt lat="43.643572412730386" lon="3.7808978702024634"><ele>120.0</ele><time>2026-04-12T09:16:33.982Z</time></trkpt><trkpt lat="43.6435227990257" lon="3.7809669961567187"><ele>120.0</ele><time>2026-04-12T09:16:34.982Z</time></trkpt><trkpt lat="43.643476832710526" lon="3.7810382408353687"><ele>120.0</ele><time>2026-04-12T09:16:35.982Z</time></trkpt><trkpt lat="43.64343858061902" lon="3.7811144299328356"><ele>120.0</ele><time>2026-04-12T09:16:36.982Z</time></trkpt><trkpt lat="43.64340611733504" lon="3.7811895413367065"><ele>120.0</ele><time>2026-04-12T09:16:37.982Z</time></trkpt><trkpt lat="43.64337845207679" lon="3.781277908190664"><ele>119.57142857142858</ele><time>2026-04-12T09:16:38.982Z</time></trkpt><trkpt lat="43.643338232430004" lon="3.781349867476614"><ele>119.14285714285714</ele><time>2026-04-12T09:16:39.982Z</time></trkpt><trkpt lat="43.643298880141735" lon="3.781421745146535"><ele>118.71428571428572</ele><time>2026-04-12T09:16:40.982Z</time></trkpt><trkpt lat="43.643263828951746" lon="3.7814982669209094"><ele>118.28571428571429</ele><time>2026-04-12T09:16:41.982Z</time></trkpt><trkpt lat="43.643217888190335" lon="3.781573112825323"><ele>117.85714285714286</ele><time>2026-04-12T09:16:42.982Z</time></trkpt><trkpt lat="43.6431787117022" lon="3.781648664089819"><ele>117.42857142857143</ele><time>2026-04-12T09:16:43.982Z</time></trkpt><trkpt lat="43.643147579718665" lon="3.7817281440609425"><ele>117.0</ele><time>2026-04-12T09:16:44.982Z</time></trkpt><trkpt lat="43.64311813826833" lon="3.7818094671218194"><ele>117.0</ele><time>2026-04-12T09:16:45.982Z</time></trkpt><trkpt lat="43.64308637036676" lon="3.7818915714053483"><ele>117.00000000000001</ele><time>2026-04-12T09:16:46.982Z</time></trkpt><trkpt lat="43.64305080824655" lon="3.7819718056194755"><ele>117.0</ele><time>2026-04-12T09:16:47.982Z</time></trkpt><trkpt lat="43.643022170183066" lon="3.7820537459395522"><ele>117.0</ele><time>2026-04-12T09:16:48.982Z</time></trkpt><trkpt lat="43.64301116618225" lon="3.782143483715371"><ele>117.00000000000001</ele><time>2026-04-12T09:16:49.982Z</time></trkpt><trkpt lat="43.64299873337471" lon="3.782232626469904"><ele>117.0</ele><time>2026-04-12T09:16:50.982Z</time></trkpt><trkpt lat="43.64298467056513" lon="3.782327174677495"><ele>117.0</ele><time>2026-04-12T09:16:51.982Z</time></trkpt><trkpt lat="43.642972736574464" lon="3.7824162885878274"><ele>117.0</ele><time>2026-04-12T09:16:52.982Z</time></trkpt><trkpt lat="43.64295724478708" lon="3.782503164502602"><ele>117.00000000000001</ele><time>2026-04-12T09:16:53.983Z</time></trkpt><trkpt lat="43.642949227520944" lon="3.7825904818745006"><ele>117.0</ele><time>2026-04-12T09:16:54.983Z</time></trkpt><trkpt lat="43.64291911175526" lon="3.78267160000824"><ele>117.0</ele><time>2026-04-12T09:16:55.983Z</time></trkpt><trkpt lat="43.64289255700778" lon="3.782764175618906"><ele>117.00000000000001</ele><time>2026-04-12T09:16:56.982Z</time></trkpt><trkpt lat="43.6428567753196" lon="3.782913140206435"><ele>117.0</ele><time>2026-04-12T09:16:58.982Z</time></trkpt><trkpt lat="43.64280601476179" lon="3.782966218103967"><ele>117.0</ele><time>2026-04-12T09:16:59.982Z</time></trkpt><trkpt lat="43.64275446930038" lon="3.783049391231889"><ele>116.8</ele><time>2026-04-12T09:17:00.982Z</time></trkpt><trkpt lat="43.64267486482274" lon="3.7831865530444575"><ele>116.6</ele><time>2026-04-12T09:17:02.983Z</time></trkpt><trkpt lat="43.642633340111765" lon="3.7832569924792376"><ele>116.39999999999999</ele><time>2026-04-12T09:17:03.983Z</time></trkpt><trkpt lat="43.64254952094028" lon="3.783385462385051"><ele>116.19999999999999</ele><time>2026-04-12T09:17:05.982Z</time></trkpt><trkpt lat="43.64249508687915" lon="3.783449215647452"><ele>116.0</ele><time>2026-04-12T09:17:06.982Z</time></trkpt><trkpt lat="43.64240553032059" lon="3.783568636193723"><ele>115.83333333333333</ele><time>2026-04-12T09:17:08.982Z</time></trkpt><trkpt lat="43.64235344219404" lon="3.7836393475605865"><ele>115.66666666666666</ele><time>2026-04-12T09:17:09.982Z</time></trkpt><trkpt lat="43.64225653967965" lon="3.7837344992394675"><ele>115.5</ele><time>2026-04-12T09:17:11.982Z</time></trkpt><trkpt lat="43.642199857782764" lon="3.783792309737147"><ele>115.33333333333334</ele><time>2026-04-12T09:17:12.982Z</time></trkpt><trkpt lat="43.642139921650056" lon="3.783819607080985"><ele>115.16666666666667</ele><time>2026-04-12T09:17:13.982Z</time></trkpt><trkpt lat="43.642083087575195" lon="3.783862655707388"><ele>115.0</ele><time>2026-04-12T09:17:14.982Z</time></trkpt><trkpt lat="43.64198558467544" lon="3.783993840342849"><ele>114.83333333333334</ele><time>2026-04-12T09:17:16.982Z</time></trkpt><trkpt lat="43.641939293838725" lon="3.7841496016802463"><ele>114.66666666666667</ele><time>2026-04-12T09:17:18.982Z</time></trkpt><trkpt lat="43.64192461360518" lon="3.784299747509676"><ele>114.5</ele><time>2026-04-12T09:17:20.982Z</time></trkpt><trkpt lat="43.641910626066704" lon="3.78441964718315"><ele>114.33333333333334</ele><time>2026-04-12T09:17:22.982Z</time></trkpt><trkpt lat="43.64191606470902" lon="3.7845096230026747"><ele>114.16666666666667</ele><time>2026-04-12T09:17:24.982Z</time></trkpt><trkpt lat="43.64192156406883" lon="3.7845974488071406"><ele>114.0</ele><time>2026-04-12T09:17:28.982Z</time></trkpt><trkpt lat="43.641907705182824" lon="3.784684479852663"><ele>114.33333333333333</ele><time>2026-04-12T09:17:32.982Z</time></trkpt><trkpt lat="43.64192371435506" lon="3.7847938973217543"><ele>114.66666666666666</ele><time>2026-04-12T09:17:36.981Z</time></trkpt><trkpt lat="43.64190747277076" lon="3.784904063918213"><ele>115.0</ele><time>2026-04-12T09:17:39.981Z</time></trkpt><trkpt lat="43.64188556232489" lon="3.785006950510192"><ele>115.33333333333333</ele><time>2026-04-12T09:17:42.981Z</time></trkpt><trkpt lat="43.6418999083386" lon="3.7850955962678126"><ele>115.66666666666666</ele><time>2026-04-12T09:17:44.981Z</time></trkpt><trkpt lat="43.64189252010665" lon="3.7852198463692663"><ele>116.0</ele><time>2026-04-12T09:17:47.981Z</time></trkpt><trkpt lat="43.64190635145893" lon="3.785335439478844"><ele>116.66666666666666</ele><time>2026-04-12T09:17:50.981Z</time></trkpt><trkpt lat="43.6418998007958" lon="3.7854563799810026"><ele>117.33333333333333</ele><time>2026-04-12T09:17:53.981Z</time></trkpt><trkpt lat="43.64188296545609" lon="3.78555821737384"><ele>118.0</ele><time>2026-04-12T09:17:55.981Z</time></trkpt><trkpt lat="43.64185496527625" lon="3.785651247870691"><ele>118.66666666666666</ele><time>2026-04-12T09:17:57.981Z</time></trkpt><trkpt lat="43.64183576072564" lon="3.7857618448472112"><ele>119.33333333333333</ele><time>2026-04-12T09:17:59.981Z</time></trkpt><trkpt lat="43.64183160373963" lon="3.785861837786672"><ele>120.0</ele><time>2026-04-12T09:18:01.981Z</time></trkpt><trkpt lat="43.64186772102057" lon="3.785942718918785"><ele>120.42857142857143</ele><time>2026-04-12T09:18:03.981Z</time></trkpt><trkpt lat="43.641868225591224" lon="3.7860763900447174"><ele>120.85714285714286</ele><time>2026-04-12T09:18:06.981Z</time></trkpt><trkpt lat="43.641860084996786" lon="3.7861647949300545"><ele>121.28571428571429</ele><time>2026-04-12T09:18:08.981Z</time></trkpt><trkpt lat="43.64185863421999" lon="3.78626074094179"><ele>121.71428571428572</ele><time>2026-04-12T09:18:10.981Z</time></trkpt><trkpt lat="43.641852520736194" lon="3.786352006675935"><ele>122.14285714285714</ele><time>2026-04-12T09:18:13.981Z</time></trkpt><trkpt lat="43.64182805639911" lon="3.786443017978815"><ele>122.57142857142858</ele><time>2026-04-12T09:18:15.981Z</time></trkpt><trkpt lat="43.64182816967421" lon="3.786532444117621"><ele>123.00000000000001</ele><time>2026-04-12T09:18:17.981Z</time></trkpt><trkpt lat="43.64180893719189" lon="3.786627373127876"><ele>123.00000000000001</ele><time>2026-04-12T09:18:19.981Z</time></trkpt><trkpt lat="43.64179866681688" lon="3.7867162062851496"><ele>123.0</ele><time>2026-04-12T09:18:21.981Z</time></trkpt><trkpt lat="43.64179654930853" lon="3.786803739470161"><ele>123.00000000000001</ele><time>2026-04-12T09:18:23.981Z</time></trkpt><trkpt lat="43.64179876644757" lon="3.786896616471369"><ele>123.00000000000001</ele><time>2026-04-12T09:18:25.981Z</time></trkpt><trkpt lat="43.64186077337462" lon="3.786957021663547"><ele>123.0</ele><time>2026-04-12T09:18:27.981Z</time></trkpt><trkpt lat="43.641916979427016" lon="3.7870153803886155"><ele>123.00000000000001</ele><time>2026-04-12T09:18:29.981Z</time></trkpt><trkpt lat="43.64198585215561" lon="3.78708295442411"><ele>123.00000000000001</ele><time>2026-04-12T09:18:31.981Z</time></trkpt><trkpt lat="43.64204258355828" lon="3.787144860123123"><ele>123.0</ele><time>2026-04-12T09:18:33.981Z</time></trkpt><trkpt lat="43.64206777307475" lon="3.7872479795885505"><ele>123.0</ele><time>2026-04-12T09:18:35.981Z</time></trkpt><trkpt lat="43.64209852524871" lon="3.7873516100907603"><ele>123.0</ele><time>2026-04-12T09:18:37.981Z</time></trkpt><trkpt lat="43.64214559743923" lon="3.7874327045942793"><ele>123.0</ele><time>2026-04-12T09:18:39.981Z</time></trkpt><trkpt lat="43.64213116598786" lon="3.787538297907655"><ele>123.0</ele><time>2026-04-12T09:18:41.981Z</time></trkpt><trkpt lat="43.64212963953813" lon="3.7876394616899933"><ele>123.0</ele><time>2026-04-12T09:18:43.981Z</time></trkpt><trkpt lat="43.64209448320508" lon="3.7877363011759084"><ele>123.66666666666667</ele><time>2026-04-12T09:18:45.98Z</time></trkpt><trkpt lat="43.64209281881417" lon="3.78785345427842"><ele>124.33333333333334</ele><time>2026-04-12T09:18:47.98Z</time></trkpt><trkpt lat="43.64210332542585" lon="3.787954217562261"><ele>125.0</ele><time>2026-04-12T09:18:49.98Z</time></trkpt><trkpt lat="43.64211275891927" lon="3.788050323232894"><ele>125.66666666666667</ele><time>2026-04-12T09:18:51.98Z</time></trkpt><trkpt lat="43.642117801217516" lon="3.7881599609096055"><ele>126.33333333333334</ele><time>2026-04-12T09:18:53.98Z</time></trkpt><trkpt lat="43.64214683006893" lon="3.788274570391835"><ele>127.0</ele><time>2026-04-12T09:18:55.98Z</time></trkpt><trkpt lat="43.642199365959485" lon="3.7883875453656826"><ele>127.0</ele><time>2026-04-12T09:18:57.98Z</time></trkpt><trkpt lat="43.64223944319225" lon="3.7885031408022862"><ele>126.99999999999999</ele><time>2026-04-12T09:18:59.982Z</time></trkpt><trkpt lat="43.64220296721093" lon="3.788644872815776"><ele>126.99999999999999</ele><time>2026-04-12T09:19:01.982Z</time></trkpt><trkpt lat="43.64207961231427" lon="3.7887224362210628"><ele>127.0</ele><time>2026-04-12T09:19:03.982Z</time></trkpt><trkpt lat="43.64201358533653" lon="3.7887247095781285"><ele>127.0</ele><time>2026-04-12T09:19:04.982Z</time></trkpt><trkpt lat="43.64194773581944" lon="3.788724032600846"><ele>126.33333333333334</ele><time>2026-04-12T09:19:05.982Z</time></trkpt><trkpt lat="43.641884304605455" lon="3.788741394970892"><ele>125.66666666666667</ele><time>2026-04-12T09:19:06.982Z</time></trkpt><trkpt lat="43.641824592630144" lon="3.7887764441325316"><ele>125.0</ele><time>2026-04-12T09:19:07.982Z</time></trkpt><trkpt lat="43.64172715377724" lon="3.7888621182490168"><ele>124.33333333333334</ele><time>2026-04-12T09:19:09.982Z</time></trkpt><trkpt lat="43.64167783281648" lon="3.788927055360889"><ele>123.66666666666667</ele><time>2026-04-12T09:19:11.982Z</time></trkpt><trkpt lat="43.641736054453666" lon="3.7889982927719"><ele>123.0</ele><time>2026-04-12T09:19:14.982Z</time></trkpt><trkpt lat="43.641793427130835" lon="3.789041528693751"><ele>123.0</ele><time>2026-04-12T09:19:16.982Z</time></trkpt><trkpt lat="43.64186050801839" lon="3.7891201205007112"><ele>123.0</ele><time>2026-04-12T09:19:18.982Z</time></trkpt><trkpt lat="43.641925126717176" lon="3.7891888650230685"><ele>123.0</ele><time>2026-04-12T09:19:20.982Z</time></trkpt><trkpt lat="43.641997687780204" lon="3.7892430042083287"><ele>123.0</ele><time>2026-04-12T09:19:22.982Z</time></trkpt><trkpt lat="43.642064108914674" lon="3.7893000074830905"><ele>123.0</ele><time>2026-04-12T09:19:24.982Z</time></trkpt><trkpt lat="43.64212879396526" lon="3.7893657501296305"><ele>123.0</ele><time>2026-04-12T09:19:26.982Z</time></trkpt><trkpt lat="43.64219052249207" lon="3.789447187361182"><ele>123.33333333333333</ele><time>2026-04-12T09:19:28.982Z</time></trkpt><trkpt lat="43.64224552429114" lon="3.7895242107408835"><ele>123.66666666666666</ele><time>2026-04-12T09:19:30.982Z</time></trkpt><trkpt lat="43.64229837981684" lon="3.789609253667592"><ele>124.0</ele><time>2026-04-12T09:19:32.982Z</time></trkpt><trkpt lat="43.64234663293746" lon="3.7896987245906484"><ele>124.33333333333333</ele><time>2026-04-12T09:19:34.982Z</time></trkpt><trkpt lat="43.64239819958811" lon="3.789788849320971"><ele>124.66666666666666</ele><time>2026-04-12T09:19:36.982Z</time></trkpt><trkpt lat="43.6424407909053" lon="3.7898871903913065"><ele>125.0</ele><time>2026-04-12T09:19:38.982Z</time></trkpt><trkpt lat="43.64248040728465" lon="3.789984147091793"><ele>125.0</ele><time>2026-04-12T09:19:40.982Z</time></trkpt><trkpt lat="43.64252585681762" lon="3.7900870554044532"><ele>125.0</ele><time>2026-04-12T09:19:42.982Z</time></trkpt><trkpt lat="43.64257539183966" lon="3.790168230266585"><ele>125.0</ele><time>2026-04-12T09:19:44.982Z</time></trkpt><trkpt lat="43.64263251843468" lon="3.7902585635365176"><ele>125.0</ele><time>2026-04-12T09:19:46.982Z</time></trkpt><trkpt lat="43.642682568311216" lon="3.7904095337933623"><ele>125.0</ele><time>2026-04-12T09:19:49.982Z</time></trkpt><trkpt lat="43.64269934869449" lon="3.790544569650704"><ele>125.0</ele><time>2026-04-12T09:19:51.982Z</time></trkpt><trkpt lat="43.64275506334176" lon="3.790660133373208"><ele>125.0</ele><time>2026-04-12T09:19:53.982Z</time></trkpt><trkpt lat="43.64280424339645" lon="3.790791202056458"><ele>125.0</ele><time>2026-04-12T09:19:55.982Z</time></trkpt><trkpt lat="43.6428259869304" lon="3.790922708724557"><ele>125.0</ele><time>2026-04-12T09:19:57.982Z</time></trkpt><trkpt lat="43.64284330323752" lon="3.7910404938533415"><ele>125.0</ele><time>2026-04-12T09:19:59.982Z</time></trkpt><trkpt lat="43.64286396805658" lon="3.791160883745487"><ele>124.8</ele><time>2026-04-12T09:20:01.982Z</time></trkpt><trkpt lat="43.64287244199402" lon="3.7912771920888484"><ele>124.6</ele><time>2026-04-12T09:20:03.982Z</time></trkpt><trkpt lat="43.64286930199277" lon="3.791404702104229"><ele>124.4</ele><time>2026-04-12T09:20:05.982Z</time></trkpt><trkpt lat="43.64285479901442" lon="3.791530289753287"><ele>124.2</ele><time>2026-04-12T09:20:07.981Z</time></trkpt><trkpt lat="43.642821263845626" lon="3.7916626092223664"><ele>124.0</ele><time>2026-04-12T09:20:09.981Z</time></trkpt><trkpt lat="43.6428392257283" lon="3.791783958036644"><ele>124.00000000000001</ele><time>2026-04-12T09:20:11.981Z</time></trkpt><trkpt lat="43.64282799884822" lon="3.7919132770743547"><ele>124.0</ele><time>2026-04-12T09:20:13.981Z</time></trkpt><trkpt lat="43.64283466188314" lon="3.792028411172818"><ele>124.0</ele><time>2026-04-12T09:20:15.981Z</time></trkpt><trkpt lat="43.64287154023352" lon="3.792116790171326"><ele>124.0</ele><time>2026-04-12T09:20:17.981Z</time></trkpt><trkpt lat="43.64281184137495" lon="3.792028869516017"><ele>124.00000000000001</ele><time>2026-04-12T09:21:19.981Z</time></trkpt><trkpt lat="43.64280830962086" lon="3.7919335766534625"><ele>124.0</ele><time>2026-04-12T09:21:21.981Z</time></trkpt><trkpt lat="43.64281386370149" lon="3.7918199125046055"><ele>124.00000000000001</ele><time>2026-04-12T09:21:25.981Z</time></trkpt><trkpt lat="43.64282482505992" lon="3.791734154371314"><ele>124.0</ele><time>2026-04-12T09:21:27.981Z</time></trkpt><trkpt lat="43.642810350285664" lon="3.791617020689846"><ele>124.0</ele><time>2026-04-12T09:21:30.981Z</time></trkpt><trkpt lat="43.64282916492574" lon="3.791533697960914"><ele>124.0</ele><time>2026-04-12T09:21:32.981Z</time></trkpt><trkpt lat="43.642839858708776" lon="3.791404763790781"><ele>124.00000000000001</ele><time>2026-04-12T09:21:35.981Z</time></trkpt><trkpt lat="43.64282817232784" lon="3.791311392381455"><ele>124.0</ele><time>2026-04-12T09:21:37.981Z</time></trkpt><trkpt lat="43.64283183355876" lon="3.7912065795426066"><ele>124.00000000000001</ele><time>2026-04-12T09:21:39.981Z</time></trkpt><trkpt lat="43.64283341824059" lon="3.7911189050757015"><ele>124.0</ele><time>2026-04-12T09:21:41.981Z</time></trkpt><trkpt lat="43.6428201913411" lon="3.7909891823983406"><ele>124.0</ele><time>2026-04-12T09:21:44.981Z</time></trkpt><trkpt lat="43.64281405966033" lon="3.7908922985828744"><ele>124.0</ele><time>2026-04-12T09:21:46.981Z</time></trkpt><trkpt lat="43.64279476009231" lon="3.790778073735989"><ele>124.00000000000001</ele><time>2026-04-12T09:21:48.981Z</time></trkpt><trkpt lat="43.6427596666836" lon="3.7906720803676386"><ele>124.0</ele><time>2026-04-12T09:21:50.981Z</time></trkpt><trkpt lat="43.642716092508444" lon="3.790570522522678"><ele>124.16666666666667</ele><time>2026-04-12T09:21:52.981Z</time></trkpt><trkpt lat="43.6426772963472" lon="3.790461774072865"><ele>124.33333333333334</ele><time>2026-04-12T09:21:54.981Z</time></trkpt><trkpt lat="43.64266715687135" lon="3.7903408583855867"><ele>124.5</ele><time>2026-04-12T09:21:57.981Z</time></trkpt><trkpt lat="43.642628162270604" lon="3.7902339487677668"><ele>124.66666666666666</ele><time>2026-04-12T09:22:00.981Z</time></trkpt><trkpt lat="43.642560889499315" lon="3.790175337380806"><ele>124.83333333333333</ele><time>2026-04-12T09:22:03.981Z</time></trkpt><trkpt lat="43.64250092523671" lon="3.7901236678438384"><ele>125.0</ele><time>2026-04-12T09:22:08.981Z</time></trkpt><trkpt lat="43.642490366498706" lon="3.7900361278636763"><ele>124.99999999999999</ele><time>2026-04-12T09:22:11.981Z</time></trkpt><trkpt lat="43.64246475520368" lon="3.7899512004506293"><ele>125.0</ele><time>2026-04-12T09:22:13.981Z</time></trkpt><trkpt lat="43.642435017148294" lon="3.7898712706911346"><ele>125.0</ele><time>2026-04-12T09:22:15.981Z</time></trkpt><trkpt lat="43.64237433060432" lon="3.789779052909581"><ele>125.0</ele><time>2026-04-12T09:22:18.981Z</time></trkpt><trkpt lat="43.64232194836181" lon="3.789676498309571"><ele>124.99999999999999</ele><time>2026-04-12T09:22:21.98Z</time></trkpt><trkpt lat="43.64226521649232" lon="3.789570471986215"><ele>125.0</ele><time>2026-04-12T09:22:23.98Z</time></trkpt><trkpt lat="43.64222455935131" lon="3.7894881779940746"><ele>124.99999999999999</ele><time>2026-04-12T09:22:25.98Z</time></trkpt><trkpt lat="43.64226703558154" lon="3.7895703693294136"><ele>125.0</ele><time>2026-04-12T09:24:09.98Z</time></trkpt><trkpt lat="43.642310782397445" lon="3.789634989003267"><ele>125.0</ele><time>2026-04-12T09:24:26.98Z</time></trkpt><trkpt lat="43.642346915517074" lon="3.7897241699754254"><ele>125.0</ele><time>2026-04-12T09:24:33.98Z</time></trkpt><trkpt lat="43.64238901664825" lon="3.7898188610807524"><ele>124.99999999999999</ele><time>2026-04-12T09:24:36.979Z</time></trkpt><trkpt lat="43.64243258647011" lon="3.789902991400776"><ele>125.0</ele><time>2026-04-12T09:24:39.979Z</time></trkpt><trkpt lat="43.64247729885059" lon="3.7900205305151737"><ele>124.99999999999999</ele><time>2026-04-12T09:24:42.979Z</time></trkpt><trkpt lat="43.64249443101007" lon="3.7901371958916945"><ele>125.0</ele><time>2026-04-12T09:24:45.979Z</time></trkpt><trkpt lat="43.64242301053782" lon="3.790242716522449"><ele>125.0</ele><time>2026-04-12T09:24:48.979Z</time></trkpt><trkpt lat="43.642367109911646" lon="3.790318429402638"><ele>125.0</ele><time>2026-04-12T09:24:50.979Z</time></trkpt><trkpt lat="43.642306150997065" lon="3.7903838083545534"><ele>124.99999999999999</ele><time>2026-04-12T09:24:52.979Z</time></trkpt><trkpt lat="43.642236134551275" lon="3.790444416337677"><ele>125.0</ele><time>2026-04-12T09:24:54.979Z</time></trkpt><trkpt lat="43.64215524580191" lon="3.7905186134946685"><ele>124.49999999999999</ele><time>2026-04-12T09:24:56.979Z</time></trkpt><trkpt lat="43.64209067796076" lon="3.7906076811950737"><ele>124.0</ele><time>2026-04-12T09:24:58.979Z</time></trkpt><trkpt lat="43.64204460803367" lon="3.790712483338204"><ele>123.5</ele><time>2026-04-12T09:25:00.979Z</time></trkpt><trkpt lat="43.642018670860026" lon="3.7908199242452043"><ele>123.0</ele><time>2026-04-12T09:25:02.979Z</time></trkpt><trkpt lat="43.64198896318273" lon="3.790921476155729"><ele>122.49999999999999</ele><time>2026-04-12T09:25:04.979Z</time></trkpt><trkpt lat="43.64196565047569" lon="3.7910158869099067"><ele>122.0</ele><time>2026-04-12T09:25:06.979Z</time></trkpt><trkpt lat="43.6419254385314" lon="3.7910873950388124"><ele>121.49999999999999</ele><time>2026-04-12T09:25:08.979Z</time></trkpt><trkpt lat="43.64185036518195" lon="3.7911834882331514"><ele>121.0</ele><time>2026-04-12T09:25:11.979Z</time></trkpt><trkpt lat="43.64179429812641" lon="3.7912645880019236"><ele>120.5</ele><time>2026-04-12T09:25:13.979Z</time></trkpt><trkpt lat="43.641751907746425" lon="3.7913440156191758"><ele>120.0</ele><time>2026-04-12T09:25:15.979Z</time></trkpt><trkpt lat="43.64170136642466" lon="3.7914196692530227"><ele>119.49999999999999</ele><time>2026-04-12T09:25:17.98Z</time></trkpt><trkpt lat="43.641652804547675" lon="3.791489173040364"><ele>119.0</ele><time>2026-04-12T09:25:19.981Z</time></trkpt><trkpt lat="43.6415870707928" lon="3.79154078680671"><ele>119.0</ele><time>2026-04-12T09:25:21.981Z</time></trkpt><trkpt lat="43.64152157361007" lon="3.7916119648992637"><ele>119.0</ele><time>2026-04-12T09:25:23.981Z</time></trkpt><trkpt lat="43.64145563162087" lon="3.791720840855447"><ele>119.0</ele><time>2026-04-12T09:25:25.981Z</time></trkpt><trkpt lat="43.6413692696315" lon="3.7917749089063424"><ele>119.0</ele><time>2026-04-12T09:25:27.981Z</time></trkpt><trkpt lat="43.641284514009094" lon="3.791842749677716"><ele>119.0</ele><time>2026-04-12T09:25:29.981Z</time></trkpt><trkpt lat="43.64123203760045" lon="3.791933805595667"><ele>118.99999999999999</ele><time>2026-04-12T09:25:31.981Z</time></trkpt><trkpt lat="43.64117488047298" lon="3.7920148622474508"><ele>119.0</ele><time>2026-04-12T09:25:33.981Z</time></trkpt><trkpt lat="43.64110772264911" lon="3.7920414054515645"><ele>119.0</ele><time>2026-04-12T09:25:35.981Z</time></trkpt><trkpt lat="43.6410397368074" lon="3.792140932855945"><ele>119.0</ele><time>2026-04-12T09:25:37.981Z</time></trkpt><trkpt lat="43.64095713955877" lon="3.7921892841443556"><ele>118.99999999999999</ele><time>2026-04-12T09:25:39.981Z</time></trkpt><trkpt lat="43.64087839412952" lon="3.7922447599670974"><ele>119.0</ele><time>2026-04-12T09:25:41.981Z</time></trkpt><trkpt lat="43.640810653147405" lon="3.792338267847786"><ele>118.99999999999999</ele><time>2026-04-12T09:25:43.981Z</time></trkpt><trkpt lat="43.640736066496025" lon="3.792395188339719"><ele>119.0</ele><time>2026-04-12T09:25:45.981Z</time></trkpt><trkpt lat="43.64067911584626" lon="3.792447655260978"><ele>119.0</ele><time>2026-04-12T09:25:47.981Z</time></trkpt><trkpt lat="43.6406365097459" lon="3.792519798382408"><ele>119.0</ele><time>2026-04-12T09:25:49.981Z</time></trkpt><trkpt lat="43.6405902886607" lon="3.7925947486932934"><ele>118.99999999999999</ele><time>2026-04-12T09:25:51.981Z</time></trkpt><trkpt lat="43.640549256990106" lon="3.792669241519132"><ele>119.0</ele><time>2026-04-12T09:25:53.981Z</time></trkpt><trkpt lat="43.64048818768621" lon="3.7927906067814168"><ele>119.80000000000001</ele><time>2026-04-12T09:25:55.981Z</time></trkpt><trkpt lat="43.64044069313111" lon="3.7928509732110203"><ele>120.60000000000001</ele><time>2026-04-12T09:25:57.981Z</time></trkpt><trkpt lat="43.640391193099276" lon="3.7929573994012613"><ele>121.4</ele><time>2026-04-12T09:25:59.981Z</time></trkpt><trkpt lat="43.64035707604165" lon="3.7930793997717194"><ele>122.2</ele><time>2026-04-12T09:26:01.981Z</time></trkpt><trkpt lat="43.640291355710985" lon="3.7931803977191083"><ele>123.0</ele><time>2026-04-12T09:26:03.981Z</time></trkpt><trkpt lat="43.64022136410471" lon="3.7932834870871273"><ele>123.0</ele><time>2026-04-12T09:26:05.981Z</time></trkpt><trkpt lat="43.64015701949604" lon="3.79339914005403"><ele>123.00000000000001</ele><time>2026-04-12T09:26:07.981Z</time></trkpt><trkpt lat="43.64010693645713" lon="3.7935205592793513"><ele>123.00000000000001</ele><time>2026-04-12T09:26:09.981Z</time></trkpt><trkpt lat="43.64005469293796" lon="3.7936384601529602"><ele>123.0</ele><time>2026-04-12T09:26:11.981Z</time></trkpt><trkpt lat="43.6399929161614" lon="3.7937528010254717"><ele>123.0</ele><time>2026-04-12T09:26:13.981Z</time></trkpt><trkpt lat="43.639929088528426" lon="3.793850315923916"><ele>122.66666666666667</ele><time>2026-04-12T09:26:15.981Z</time></trkpt><trkpt lat="43.639878920781" lon="3.793944219217239"><ele>122.33333333333334</ele><time>2026-04-12T09:26:17.981Z</time></trkpt><trkpt lat="43.63983595130523" lon="3.7940192430103186"><ele>122.0</ele><time>2026-04-12T09:26:19.98Z</time></trkpt><trkpt lat="43.63977863896528" lon="3.7941251109167284"><ele>121.66666666666667</ele><time>2026-04-12T09:26:22.98Z</time></trkpt><trkpt lat="43.639734246139156" lon="3.7942054367606968"><ele>121.33333333333334</ele><time>2026-04-12T09:26:24.98Z</time></trkpt><trkpt lat="43.63968844543361" lon="3.79429539481593"><ele>121.0</ele><time>2026-04-12T09:26:26.98Z</time></trkpt><trkpt lat="43.63964606643637" lon="3.794387412895875"><ele>120.19999999999999</ele><time>2026-04-12T09:26:29.98Z</time></trkpt><trkpt lat="43.63965079383431" lon="3.7945000355256577"><ele>119.39999999999999</ele><time>2026-04-12T09:26:32.98Z</time></trkpt><trkpt lat="43.639632602205104" lon="3.794611138461686"><ele>118.6</ele><time>2026-04-12T09:26:35.98Z</time></trkpt><trkpt lat="43.63958986603092" lon="3.794730057812554"><ele>117.8</ele><time>2026-04-12T09:26:37.98Z</time></trkpt><trkpt lat="43.63955921297818" lon="3.794877131431182"><ele>117.0</ele><time>2026-04-12T09:26:39.98Z</time></trkpt><trkpt lat="43.63952381280831" lon="3.7949839988360288"><ele>117.0</ele><time>2026-04-12T09:26:41.98Z</time></trkpt><trkpt lat="43.63950306495689" lon="3.795072223790551"><ele>117.00000000000001</ele><time>2026-04-12T09:26:45.98Z</time></trkpt><trkpt lat="43.639475226797494" lon="3.7951790340165106"><ele>117.0</ele><time>2026-04-12T09:26:48.98Z</time></trkpt><trkpt lat="43.639454019088056" lon="3.7952694621344887"><ele>117.0</ele><time>2026-04-12T09:26:51.98Z</time></trkpt><trkpt lat="43.63943458411361" lon="3.79538915789751"><ele>117.00000000000001</ele><time>2026-04-12T09:26:54.98Z</time></trkpt><trkpt lat="43.63942890424234" lon="3.7952890272320237"><ele>117.0</ele><time>2026-04-12T09:27:21.981Z</time></trkpt><trkpt lat="43.63942418754025" lon="3.7952014471322952"><ele>117.0</ele><time>2026-04-12T09:27:27.98Z</time></trkpt><trkpt lat="43.63949117411288" lon="3.795133508655324"><ele>117.0</ele><time>2026-04-12T09:27:41.981Z</time></trkpt><trkpt lat="43.639547572702405" lon="3.7950670631215053"><ele>117.00000000000001</ele><time>2026-04-12T09:27:44.981Z</time></trkpt><trkpt lat="43.6396094424981" lon="3.7950328664925497"><ele>117.0</ele><time>2026-04-12T09:27:47.981Z</time></trkpt><trkpt lat="43.63966725547247" lon="3.794974442203177"><ele>117.0</ele><time>2026-04-12T09:27:52.98Z</time></trkpt><trkpt lat="43.639743922041895" lon="3.7949332630613455"><ele>117.00000000000001</ele><time>2026-04-12T09:27:56.98Z</time></trkpt><trkpt lat="43.639810721540606" lon="3.794865659095662"><ele>117.0</ele><time>2026-04-12T09:28:01.98Z</time></trkpt><trkpt lat="43.6398788977216" lon="3.7948385674909466"><ele>117.0</ele><time>2026-04-12T09:28:04.98Z</time></trkpt><trkpt lat="43.6399243358891" lon="3.794777894954965"><ele>117.0</ele><time>2026-04-12T09:28:07.98Z</time></trkpt><trkpt lat="43.63999183847082" lon="3.794731449741216"><ele>117.0</ele><time>2026-04-12T09:28:09.98Z</time></trkpt><trkpt lat="43.640062627627415" lon="3.7947263440847765"><ele>117.0</ele><time>2026-04-12T09:28:13.98Z</time></trkpt><trkpt lat="43.64010621858468" lon="3.794815048633364"><ele>117.0</ele><time>2026-04-12T09:28:17.98Z</time></trkpt><trkpt lat="43.64012218631346" lon="3.7949130108772438"><ele>117.0</ele><time>2026-04-12T09:28:19.98Z</time></trkpt><trkpt lat="43.64015925144113" lon="3.7949920213055517"><ele>117.0</ele><time>2026-04-12T09:28:21.98Z</time></trkpt><trkpt lat="43.64017400744226" lon="3.795112900499074"><ele>115.0</ele><time>2026-04-12T09:28:23.98Z</time></trkpt><trkpt lat="43.64023476141114" lon="3.7952151628600466"><ele>113.0</ele><time>2026-04-12T09:28:25.98Z</time></trkpt><trkpt lat="43.64029462718901" lon="3.7952725258205295"><ele>111.0</ele><time>2026-04-12T09:28:27.98Z</time></trkpt><trkpt lat="43.640364292755" lon="3.795310601218718"><ele>109.0</ele><time>2026-04-12T09:28:30.98Z</time></trkpt><trkpt lat="43.64042784557209" lon="3.7953707455631354"><ele>107.0</ele><time>2026-04-12T09:28:32.98Z</time></trkpt><trkpt lat="43.64049481824462" lon="3.7953084873490575"><ele>105.0</ele><time>2026-04-12T09:28:34.98Z</time></trkpt><trkpt lat="43.64050024817869" lon="3.7953976729836327"><ele>103.66666666666667</ele><time>2026-04-12T09:28:37.98Z</time></trkpt><trkpt lat="43.64056145765339" lon="3.7954652549491605"><ele>102.33333333333334</ele><time>2026-04-12T09:28:40.98Z</time></trkpt><trkpt lat="43.64063512248213" lon="3.795554046951881"><ele>101.0</ele><time>2026-04-12T09:28:43.98Z</time></trkpt><trkpt lat="43.64069548289938" lon="3.7956392120943216"><ele>99.66666666666667</ele><time>2026-04-12T09:28:45.98Z</time></trkpt><trkpt lat="43.64071786017377" lon="3.7957548705244393"><ele>98.33333333333334</ele><time>2026-04-12T09:28:47.98Z</time></trkpt><trkpt lat="43.64078704228983" lon="3.7958038038025634"><ele>97.0</ele><time>2026-04-12T09:28:50.98Z</time></trkpt><trkpt lat="43.64085107592039" lon="3.79587183512664"><ele>97.0</ele><time>2026-04-12T09:28:53.98Z</time></trkpt><trkpt lat="43.64087966870493" lon="3.79595874703459"><ele>97.0</ele><time>2026-04-12T09:28:56.98Z</time></trkpt><trkpt lat="43.64094850629935" lon="3.7959887967558337"><ele>97.0</ele><time>2026-04-12T09:29:00.98Z</time></trkpt><trkpt lat="43.640992961094845" lon="3.796068578082309"><ele>97.0</ele><time>2026-04-12T09:29:03.979Z</time></trkpt><trkpt lat="43.641063151546064" lon="3.7960162314009405"><ele>97.0</ele><time>2026-04-12T09:29:06.979Z</time></trkpt><trkpt lat="43.64113481388983" lon="3.796043792019941"><ele>97.0</ele><time>2026-04-12T09:29:08.979Z</time></trkpt><trkpt lat="43.64117957338475" lon="3.7961205158987563"><ele>97.0</ele><time>2026-04-12T09:29:10.979Z</time></trkpt><trkpt lat="43.64124441109239" lon="3.79618745100386"><ele>93.19999999999999</ele><time>2026-04-12T09:29:12.979Z</time></trkpt><trkpt lat="43.64134035765699" lon="3.7962406866618026"><ele>89.39999999999999</ele><time>2026-04-12T09:29:15.979Z</time></trkpt><trkpt lat="43.641417506006746" lon="3.7962837507609803"><ele>85.6</ele><time>2026-04-12T09:29:19.979Z</time></trkpt><trkpt lat="43.641492206211765" lon="3.79632633816871"><ele>81.8</ele><time>2026-04-12T09:29:23.979Z</time></trkpt><trkpt lat="43.64158826375996" lon="3.7963350365950292"><ele>78.0</ele><time>2026-04-12T09:29:45.98Z</time></trkpt><trkpt lat="43.64175662990163" lon="3.7963518667581018"><ele>78.0</ele><time>2026-04-12T09:29:55.979Z</time></trkpt><trkpt lat="43.64178488105119" lon="3.7964555598821588"><ele>78.0</ele><time>2026-04-12T09:29:57.979Z</time></trkpt><trkpt lat="43.641836343932695" lon="3.7965530580395614"><ele>78.0</ele><time>2026-04-12T09:30:01.979Z</time></trkpt><trkpt lat="43.641903416457744" lon="3.7965332463147314"><ele>78.0</ele><time>2026-04-12T09:30:03.979Z</time></trkpt><trkpt lat="43.64195259884051" lon="3.7966024808765595"><ele>78.0</ele><time>2026-04-12T09:30:06.979Z</time></trkpt><trkpt lat="43.641963412261426" lon="3.7966989502773063"><ele>78.0</ele><time>2026-04-12T09:30:08.979Z</time></trkpt><trkpt lat="43.6420257004726" lon="3.796760522193191"><ele>75.33333333333333</ele><time>2026-04-12T09:30:21.979Z</time></trkpt><trkpt lat="43.642099656327005" lon="3.796773531870373"><ele>72.66666666666667</ele><time>2026-04-12T09:30:33.979Z</time></trkpt><trkpt lat="43.64212566291295" lon="3.796683724533572"><ele>70.0</ele><time>2026-04-12T09:30:42.979Z</time></trkpt><trkpt lat="43.642203309501326" lon="3.796668351635059"><ele>67.33333333333334</ele><time>2026-04-12T09:30:46.979Z</time></trkpt><trkpt lat="43.64227904336689" lon="3.7966781574580106"><ele>64.66666666666667</ele><time>2026-04-12T09:30:49.979Z</time></trkpt><trkpt lat="43.642324788020446" lon="3.7966110917709743"><ele>62.0</ele><time>2026-04-12T09:30:52.979Z</time></trkpt><trkpt lat="43.642370190825716" lon="3.7964900848456"><ele>62.0</ele><time>2026-04-12T09:31:07.978Z</time></trkpt><trkpt lat="43.642401464709955" lon="3.7963989785515846"><ele>62.00000000000001</ele><time>2026-04-12T09:31:57.979Z</time></trkpt><trkpt lat="43.64244996341269" lon="3.7963403590238554"><ele>62.0</ele><time>2026-04-12T09:32:14.979Z</time></trkpt><trkpt lat="43.64250713598399" lon="3.7963948320482848"><ele>62.0</ele><time>2026-04-12T09:32:23.979Z</time></trkpt><trkpt lat="43.64257415533195" lon="3.796464300085056"><ele>62.00000000000001</ele><time>2026-04-12T09:32:28.979Z</time></trkpt><trkpt lat="43.64259593225567" lon="3.7965750840519448"><ele>62.0</ele><time>2026-04-12T09:32:30.979Z</time></trkpt><trkpt lat="43.64265257774029" lon="3.7966437465848055"><ele>62.0</ele><time>2026-04-12T09:32:32.979Z</time></trkpt><trkpt lat="43.64273297348884" lon="3.7965987078982337"><ele>60.833333333333336</ele><time>2026-04-12T09:32:36.979Z</time></trkpt><trkpt lat="43.64279885587754" lon="3.7965760563293083"><ele>59.66666666666667</ele><time>2026-04-12T09:32:38.979Z</time></trkpt><trkpt lat="43.64288053667484" lon="3.796521279863481"><ele>58.5</ele><time>2026-04-12T09:32:41.978Z</time></trkpt><trkpt lat="43.64294807424596" lon="3.796502233875268"><ele>57.33333333333333</ele><time>2026-04-12T09:32:43.978Z</time></trkpt><trkpt lat="43.642996012631734" lon="3.7965831689677274"><ele>56.166666666666664</ele><time>2026-04-12T09:32:46.978Z</time></trkpt><trkpt lat="43.64302782047277" lon="3.7966947084938436"><ele>55.0</ele><time>2026-04-12T09:32:49.978Z</time></trkpt><trkpt lat="43.64308068662116" lon="3.7967692288442527"><ele>54.99999999999999</ele><time>2026-04-12T09:32:51.978Z</time></trkpt><trkpt lat="43.64313803302517" lon="3.796694008555132"><ele>55.0</ele><time>2026-04-12T09:32:54.978Z</time></trkpt><trkpt lat="43.64315584516985" lon="3.7965969841773872"><ele>55.0</ele><time>2026-04-12T09:32:57.978Z</time></trkpt><trkpt lat="43.64317356435646" lon="3.796511203041142"><ele>55.0</ele><time>2026-04-12T09:32:59.978Z</time></trkpt><trkpt lat="43.64321836038486" lon="3.7964360723316983"><ele>55.0</ele><time>2026-04-12T09:33:01.978Z</time></trkpt><trkpt lat="43.64325849630899" lon="3.796357586694978"><ele>54.99999999999999</ele><time>2026-04-12T09:33:03.978Z</time></trkpt><trkpt lat="43.6432504851129" lon="3.7962532150377766"><ele>55.0</ele><time>2026-04-12T09:33:05.978Z</time></trkpt><trkpt lat="43.64323392831342" lon="3.796137047642053"><ele>56.166666666666664</ele><time>2026-04-12T09:33:07.978Z</time></trkpt><trkpt lat="43.64325283730727" lon="3.7959940069265286"><ele>57.33333333333333</ele><time>2026-04-12T09:33:10.978Z</time></trkpt><trkpt lat="43.64331655850669" lon="3.7959065123172633"><ele>58.5</ele><time>2026-04-12T09:33:13.978Z</time></trkpt><trkpt lat="43.64338251599868" lon="3.795854499376887"><ele>59.66666666666667</ele><time>2026-04-12T09:33:15.978Z</time></trkpt><trkpt lat="43.64343813697951" lon="3.7957778175363366"><ele>60.833333333333336</ele><time>2026-04-12T09:33:17.978Z</time></trkpt><trkpt lat="43.64349443055861" lon="3.7957138189675765"><ele>62.0</ele><time>2026-04-12T09:33:19.978Z</time></trkpt><trkpt lat="43.64356927865072" lon="3.795658731440531"><ele>60.8</ele><time>2026-04-12T09:33:21.978Z</time></trkpt><trkpt lat="43.643643710384964" lon="3.7955731058967292"><ele>59.6</ele><time>2026-04-12T09:33:23.978Z</time></trkpt><trkpt lat="43.64371402526963" lon="3.7954894160345"><ele>58.39999999999999</ele><time>2026-04-12T09:33:25.978Z</time></trkpt><trkpt lat="43.643787173692964" lon="3.795421827659537"><ele>57.199999999999996</ele><time>2026-04-12T09:33:27.978Z</time></trkpt><trkpt lat="43.643866401101256" lon="3.795379202631088"><ele>56.0</ele><time>2026-04-12T09:33:29.978Z</time></trkpt><trkpt lat="43.643940731859736" lon="3.795304047725437"><ele>56.0</ele><time>2026-04-12T09:33:31.978Z</time></trkpt><trkpt lat="43.64400118222349" lon="3.795240504758519"><ele>55.99999999999999</ele><time>2026-04-12T09:33:33.978Z</time></trkpt><trkpt lat="43.64408993318889" lon="3.795151180140947"><ele>55.99999999999999</ele><time>2026-04-12T09:33:35.978Z</time></trkpt><trkpt lat="43.64415243816364" lon="3.795070460343126"><ele>56.0</ele><time>2026-04-12T09:33:37.978Z</time></trkpt><trkpt lat="43.644230087831964" lon="3.7950001018530215"><ele>56.0</ele><time>2026-04-12T09:33:39.979Z</time></trkpt><trkpt lat="43.64430604629595" lon="3.7949160393345793"><ele>56.333333333333336</ele><time>2026-04-12T09:33:41.979Z</time></trkpt><trkpt lat="43.64439146188572" lon="3.7948492082377174"><ele>56.66666666666667</ele><time>2026-04-12T09:33:43.978Z</time></trkpt><trkpt lat="43.64446159824239" lon="3.7947457067374186"><ele>57.0</ele><time>2026-04-12T09:33:45.979Z</time></trkpt><trkpt lat="43.64451576229689" lon="3.794689326130182"><ele>57.33333333333333</ele><time>2026-04-12T09:33:47.979Z</time></trkpt><trkpt lat="43.64459438994831" lon="3.794633922471995"><ele>57.666666666666664</ele><time>2026-04-12T09:33:49.979Z</time></trkpt><trkpt lat="43.644662701262604" lon="3.7945734548136594"><ele>58.0</ele><time>2026-04-12T09:33:51.979Z</time></trkpt><trkpt lat="43.644735086450986" lon="3.7945772844578207"><ele>58.0</ele><time>2026-04-12T09:33:53.979Z</time></trkpt><trkpt lat="43.64485477650754" lon="3.79450015092637"><ele>58.0</ele><time>2026-04-12T09:33:55.979Z</time></trkpt><trkpt lat="43.644948716316314" lon="3.79448366681834"><ele>58.0</ele><time>2026-04-12T09:33:57.979Z</time></trkpt><trkpt lat="43.645038973911106" lon="3.7944571289392655"><ele>58.0</ele><time>2026-04-12T09:33:59.979Z</time></trkpt><trkpt lat="43.64516937655503" lon="3.7944555224485073"><ele>58.0</ele><time>2026-04-12T09:34:02.978Z</time></trkpt><trkpt lat="43.645238471922355" lon="3.7944415620902836"><ele>57.49999999999999</ele><time>2026-04-12T09:34:04.978Z</time></trkpt><trkpt lat="43.64532307905709" lon="3.7944108980002764"><ele>57.0</ele><time>2026-04-12T09:34:54.978Z</time></trkpt><trkpt lat="43.64539030517759" lon="3.794406154196778"><ele>56.5</ele><time>2026-04-12T09:34:58.978Z</time></trkpt><trkpt lat="43.64545882718109" lon="3.7944286780624243"><ele>56.0</ele><time>2026-04-12T09:35:01.978Z</time></trkpt><trkpt lat="43.645546047238355" lon="3.7944172868322914"><ele>55.49999999999999</ele><time>2026-04-12T09:35:04.978Z</time></trkpt><trkpt lat="43.64563657900065" lon="3.7944080811321372"><ele>55.0</ele><time>2026-04-12T09:35:06.978Z</time></trkpt><trkpt lat="43.6457004227209" lon="3.7944054503757485"><ele>54.99999999999999</ele><time>2026-04-12T09:35:08.978Z</time></trkpt><trkpt lat="43.64579236004503" lon="3.7944478044576395"><ele>55.0</ele><time>2026-04-12T09:35:11.978Z</time></trkpt><trkpt lat="43.64587579399341" lon="3.794527077121402"><ele>55.0</ele><time>2026-04-12T09:35:14.977Z</time></trkpt><trkpt lat="43.64593844968445" lon="3.7946227516965596"><ele>55.0</ele><time>2026-04-12T09:35:17.977Z</time></trkpt><trkpt lat="43.64597180396105" lon="3.794727900414669"><ele>54.99999999999999</ele><time>2026-04-12T09:35:20.977Z</time></trkpt><trkpt lat="43.6459472506759" lon="3.794822962898983"><ele>55.0</ele><time>2026-04-12T09:35:23.977Z</time></trkpt><trkpt lat="43.64590703987021" lon="3.794922703497602"><ele>54.99999999999999</ele><time>2026-04-12T09:35:26.977Z</time></trkpt><trkpt lat="43.645870407019125" lon="3.795012720330161"><ele>55.0</ele><time>2026-04-12T09:35:28.977Z</time></trkpt><trkpt lat="43.64583893950917" lon="3.7950988716224847"><ele>55.0</ele><time>2026-04-12T09:35:30.977Z</time></trkpt><trkpt lat="43.645796210718125" lon="3.7951699063375948"><ele>55.0</ele><time>2026-04-12T09:35:32.977Z</time></trkpt><trkpt lat="43.64576708525875" lon="3.795255137631576"><ele>55.0</ele><time>2026-04-12T09:35:34.977Z</time></trkpt><trkpt lat="43.64574658508524" lon="3.7953662711545246"><ele>54.99999999999999</ele><time>2026-04-12T09:35:36.977Z</time></trkpt><trkpt lat="43.64572271271756" lon="3.7954725105177807"><ele>55.0</ele><time>2026-04-12T09:35:38.977Z</time></trkpt><trkpt lat="43.645694029457445" lon="3.7955600088105728"><ele>54.99999999999999</ele><time>2026-04-12T09:35:40.977Z</time></trkpt><trkpt lat="43.645667850271046" lon="3.7956655280931098"><ele>55.0</ele><time>2026-04-12T09:35:42.977Z</time></trkpt><trkpt lat="43.64565038353636" lon="3.79576783071886"><ele>55.0</ele><time>2026-04-12T09:35:44.979Z</time></trkpt><trkpt lat="43.64564939791599" lon="3.7958739141653237"><ele>55.0</ele><time>2026-04-12T09:35:46.979Z</time></trkpt><trkpt lat="43.64560934181974" lon="3.795974695342204"><ele>54.99999999999999</ele><time>2026-04-12T09:35:48.978Z</time></trkpt><trkpt lat="43.64557001171636" lon="3.7960815334429507"><ele>55.0</ele><time>2026-04-12T09:35:50.978Z</time></trkpt><trkpt lat="43.64551108323516" lon="3.796197742747091"><ele>55.166666666666664</ele><time>2026-04-12T09:35:52.978Z</time></trkpt><trkpt lat="43.64545104937949" lon="3.7962811413592448"><ele>55.33333333333333</ele><time>2026-04-12T09:35:54.978Z</time></trkpt><trkpt lat="43.64540927266624" lon="3.796380240175352"><ele>55.5</ele><time>2026-04-12T09:35:56.978Z</time></trkpt><trkpt lat="43.64537777125749" lon="3.7964710659079803"><ele>55.66666666666667</ele><time>2026-04-12T09:35:58.979Z</time></trkpt><trkpt lat="43.64533230859698" lon="3.7965794568732223"><ele>55.833333333333336</ele><time>2026-04-12T09:36:01.979Z</time></trkpt><trkpt lat="43.645291204979124" lon="3.796651520613255"><ele>56.0</ele><time>2026-04-12T09:36:03.979Z</time></trkpt><trkpt lat="43.645253757981344" lon="3.7967331909588133"><ele>55.66666666666667</ele><time>2026-04-12T09:36:05.979Z</time></trkpt><trkpt lat="43.645238136528526" lon="3.796826269288585"><ele>55.333333333333336</ele><time>2026-04-12T09:36:07.979Z</time></trkpt><trkpt lat="43.64519085745862" lon="3.7969377148278536"><ele>55.0</ele><time>2026-04-12T09:36:13.979Z</time></trkpt><trkpt lat="43.64515371421077" lon="3.797027780792895"><ele>54.66666666666667</ele><time>2026-04-12T09:36:16.979Z</time></trkpt><trkpt lat="43.645102158482096" lon="3.7971420094881543"><ele>54.333333333333336</ele><time>2026-04-12T09:36:19.979Z</time></trkpt><trkpt lat="43.64506170159058" lon="3.7972588555956195"><ele>54.0</ele><time>2026-04-12T09:36:21.979Z</time></trkpt><trkpt lat="43.645029973461845" lon="3.7973531618247915"><ele>54.0</ele><time>2026-04-12T09:36:23.979Z</time></trkpt><trkpt lat="43.64496524169191" lon="3.7974281806865884"><ele>54.0</ele><time>2026-04-12T09:36:26.979Z</time></trkpt><trkpt lat="43.644901432748874" lon="3.7974898318695383"><ele>54.0</ele><time>2026-04-12T09:36:28.979Z</time></trkpt><trkpt lat="43.64484148868436" lon="3.7975607669134996"><ele>54.0</ele><time>2026-04-12T09:36:30.979Z</time></trkpt><trkpt lat="43.64475160882127" lon="3.797639663937487"><ele>54.0</ele><time>2026-04-12T09:36:32.979Z</time></trkpt><trkpt lat="43.64468822858303" lon="3.7976943762809983"><ele>54.0</ele><time>2026-04-12T09:36:34.979Z</time></trkpt><trkpt lat="43.64461542221854" lon="3.7977692569487065"><ele>54.0</ele><time>2026-04-12T09:36:37.979Z</time></trkpt><trkpt lat="43.644541900394245" lon="3.7977780045878107"><ele>54.0</ele><time>2026-04-12T09:36:39.979Z</time></trkpt><trkpt lat="43.64448490788579" lon="3.7978151555304622"><ele>54.0</ele><time>2026-04-12T09:36:41.979Z</time></trkpt><trkpt lat="43.64440470605482" lon="3.7978342165480368"><ele>54.0</ele><time>2026-04-12T09:36:43.979Z</time></trkpt><trkpt lat="43.64432733257563" lon="3.797847001361648"><ele>54.0</ele><time>2026-04-12T09:36:45.979Z</time></trkpt><trkpt lat="43.64424907056039" lon="3.797842307956262"><ele>54.0</ele><time>2026-04-12T09:36:47.978Z</time></trkpt><trkpt lat="43.64417884515635" lon="3.7978341855064888"><ele>54.0</ele><time>2026-04-12T09:36:49.978Z</time></trkpt><trkpt lat="43.644115786168776" lon="3.797833474154829"><ele>54.0</ele><time>2026-04-12T09:36:51.978Z</time></trkpt><trkpt lat="43.64403347667623" lon="3.797817736632838"><ele>54.0</ele><time>2026-04-12T09:36:56.978Z</time></trkpt><trkpt lat="43.64396867500894" lon="3.797811337595129"><ele>54.0</ele><time>2026-04-12T09:36:59.978Z</time></trkpt><trkpt lat="43.64389671940961" lon="3.7978038173169293"><ele>54.0</ele><time>2026-04-12T09:37:01.978Z</time></trkpt><trkpt lat="43.643817192973465" lon="3.7978013179963095"><ele>54.0</ele><time>2026-04-12T09:37:03.978Z</time></trkpt><trkpt lat="43.64372196626594" lon="3.797840866728795"><ele>54.0</ele><time>2026-04-12T09:37:05.978Z</time></trkpt><trkpt lat="43.64361969546997" lon="3.797875516274194"><ele>54.0</ele><time>2026-04-12T09:37:07.978Z</time></trkpt><trkpt lat="43.643509641664046" lon="3.797912736768789"><ele>54.0</ele><time>2026-04-12T09:37:09.978Z</time></trkpt><trkpt lat="43.64339145634211" lon="3.7979416410215823"><ele>54.0</ele><time>2026-04-12T09:37:11.978Z</time></trkpt><trkpt lat="43.6432874904674" lon="3.798000574449766"><ele>54.0</ele><time>2026-04-12T09:37:13.978Z</time></trkpt><trkpt lat="43.6431814122254" lon="3.7980759170860097"><ele>54.0</ele><time>2026-04-12T09:37:15.978Z</time></trkpt><trkpt lat="43.64312333568572" lon="3.798117591492996"><ele>54.00000000000001</ele><time>2026-04-12T09:37:16.978Z</time></trkpt><trkpt lat="43.64303179255394" lon="3.7981480576288793"><ele>54.00000000000001</ele><time>2026-04-12T09:37:18.978Z</time></trkpt><trkpt lat="43.64292734679528" lon="3.798184882717253"><ele>54.0</ele><time>2026-04-12T09:37:20.978Z</time></trkpt><trkpt lat="43.642864200888376" lon="3.7981961997488867"><ele>54.0</ele><time>2026-04-12T09:37:21.978Z</time></trkpt><trkpt lat="43.6427470622918" lon="3.7982694366112257"><ele>54.2</ele><time>2026-04-12T09:37:23.978Z</time></trkpt><trkpt lat="43.642630001520125" lon="3.7983200332652105"><ele>54.400000000000006</ele><time>2026-04-12T09:37:25.978Z</time></trkpt><trkpt lat="43.642531629989925" lon="3.7983871612569717"><ele>54.6</ele><time>2026-04-12T09:37:27.978Z</time></trkpt><trkpt lat="43.642441382338944" lon="3.7984430676801684"><ele>54.8</ele><time>2026-04-12T09:37:29.978Z</time></trkpt><trkpt lat="43.642367976780065" lon="3.798497678573357"><ele>55.0</ele><time>2026-04-12T09:37:31.978Z</time></trkpt><trkpt lat="43.642289935826696" lon="3.7985454955228484"><ele>54.99999999999999</ele><time>2026-04-12T09:37:33.978Z</time></trkpt><trkpt lat="43.642235075338476" lon="3.7986012732848775"><ele>55.0</ele><time>2026-04-12T09:37:35.978Z</time></trkpt><trkpt lat="43.64219328856054" lon="3.7986861767744085"><ele>55.0</ele><time>2026-04-12T09:37:37.978Z</time></trkpt><trkpt lat="43.64217902315204" lon="3.7988263969507146"><ele>55.0</ele><time>2026-04-12T09:37:39.978Z</time></trkpt><trkpt lat="43.64219411408095" lon="3.798917164302624"><ele>54.99999999999999</ele><time>2026-04-12T09:37:40.978Z</time></trkpt><trkpt lat="43.64215867764985" lon="3.7990334776791714"><ele>55.0</ele><time>2026-04-12T09:37:42.978Z</time></trkpt><trkpt lat="43.642083349428916" lon="3.7989925680910215"><ele>55.0</ele><time>2026-04-12T09:37:44.978Z</time></trkpt><trkpt lat="43.64199979264593" lon="3.798962928670674"><ele>55.0</ele><time>2026-04-12T09:37:46.978Z</time></trkpt><trkpt lat="43.64188032818441" lon="3.798968834184527"><ele>55.0</ele><time>2026-04-12T09:37:48.978Z</time></trkpt><trkpt lat="43.64177225462148" lon="3.799043726240707"><ele>55.0</ele><time>2026-04-12T09:37:50.978Z</time></trkpt><trkpt lat="43.64167322595466" lon="3.7991385189521436"><ele>55.0</ele><time>2026-04-12T09:37:52.979Z</time></trkpt><trkpt lat="43.64157075914093" lon="3.799204264234638"><ele>55.8</ele><time>2026-04-12T09:37:54.979Z</time></trkpt><trkpt lat="43.641483267116875" lon="3.7992864065427114"><ele>56.6</ele><time>2026-04-12T09:37:56.978Z</time></trkpt><trkpt lat="43.64137946999503" lon="3.7993545554373043"><ele>57.400000000000006</ele><time>2026-04-12T09:37:58.978Z</time></trkpt><trkpt lat="43.64128725015288" lon="3.7994253919968806"><ele>58.2</ele><time>2026-04-12T09:38:00.979Z</time></trkpt><trkpt lat="43.64119160566026" lon="3.7994977134047527"><ele>59.0</ele><time>2026-04-12T09:38:02.979Z</time></trkpt><trkpt lat="43.641092053227496" lon="3.799562556407919"><ele>60.0</ele><time>2026-04-12T09:38:04.979Z</time></trkpt><trkpt lat="43.641012374004774" lon="3.79964299513105"><ele>61.00000000000001</ele><time>2026-04-12T09:38:06.979Z</time></trkpt><trkpt lat="43.640921826445364" lon="3.7997170265298355"><ele>62.00000000000001</ele><time>2026-04-12T09:38:08.979Z</time></trkpt><trkpt lat="43.640834801678245" lon="3.7997850122962666"><ele>63.0</ele><time>2026-04-12T09:38:10.979Z</time></trkpt><trkpt lat="43.64075503020097" lon="3.799842508726703"><ele>64.0</ele><time>2026-04-12T09:38:12.979Z</time></trkpt><trkpt lat="43.64067464936849" lon="3.7998925169852664"><ele>64.0</ele><time>2026-04-12T09:38:14.979Z</time></trkpt><trkpt lat="43.640590589393334" lon="3.799942333282976"><ele>64.0</ele><time>2026-04-12T09:38:16.979Z</time></trkpt><trkpt lat="43.64051465855608" lon="3.8000054761350124"><ele>64.0</ele><time>2026-04-12T09:38:18.979Z</time></trkpt><trkpt lat="43.64041480544061" lon="3.800062450803275"><ele>64.0</ele><time>2026-04-12T09:38:20.979Z</time></trkpt><trkpt lat="43.64033411302965" lon="3.800124058822566"><ele>64.0</ele><time>2026-04-12T09:38:22.979Z</time></trkpt><trkpt lat="43.64026076963035" lon="3.8001826030635093"><ele>65.0</ele><time>2026-04-12T09:38:24.979Z</time></trkpt><trkpt lat="43.64017893973805" lon="3.800253539171333"><ele>66.0</ele><time>2026-04-12T09:38:26.978Z</time></trkpt><trkpt lat="43.64009493980079" lon="3.8003144368157025"><ele>67.0</ele><time>2026-04-12T09:38:28.978Z</time></trkpt><trkpt lat="43.64001842094921" lon="3.8003871321151457"><ele>68.0</ele><time>2026-04-12T09:38:30.978Z</time></trkpt><trkpt lat="43.63994052453562" lon="3.800435584096981"><ele>69.0</ele><time>2026-04-12T09:38:32.979Z</time></trkpt><trkpt lat="43.63986576875817" lon="3.8004899616082484"><ele>69.0</ele><time>2026-04-12T09:38:34.979Z</time></trkpt><trkpt lat="43.639781119917984" lon="3.8005558061351064"><ele>69.0</ele><time>2026-04-12T09:38:36.979Z</time></trkpt><trkpt lat="43.639690354536825" lon="3.8006062973848"><ele>69.0</ele><time>2026-04-12T09:38:38.979Z</time></trkpt><trkpt lat="43.63960700130194" lon="3.800645630138761"><ele>69.0</ele><time>2026-04-12T09:38:40.979Z</time></trkpt><trkpt lat="43.63953412283586" lon="3.800688799039976"><ele>69.0</ele><time>2026-04-12T09:38:42.979Z</time></trkpt><trkpt lat="43.639469917156035" lon="3.8007407220809384"><ele>69.0</ele><time>2026-04-12T09:38:44.979Z</time></trkpt><trkpt lat="43.639396730163384" lon="3.8007962821455763"><ele>69.5</ele><time>2026-04-12T09:38:46.98Z</time></trkpt><trkpt lat="43.639314845520516" lon="3.8008527019676626"><ele>70.0</ele><time>2026-04-12T09:38:48.98Z</time></trkpt><trkpt lat="43.63924447772923" lon="3.8008948146199173"><ele>70.5</ele><time>2026-04-12T09:38:50.98Z</time></trkpt><trkpt lat="43.639160266281365" lon="3.800930428038502"><ele>71.0</ele><time>2026-04-12T09:38:52.98Z</time></trkpt><trkpt lat="43.63907696958806" lon="3.8009737221385778"><ele>71.5</ele><time>2026-04-12T09:38:54.98Z</time></trkpt><trkpt lat="43.63898632378517" lon="3.8010169554455504"><ele>72.0</ele><time>2026-04-12T09:38:56.98Z</time></trkpt><trkpt lat="43.63890318602728" lon="3.8010553140021255"><ele>72.0</ele><time>2026-04-12T09:38:58.98Z</time></trkpt><trkpt lat="43.63883333369627" lon="3.8010949511205"><ele>72.0</ele><time>2026-04-12T09:39:00.98Z</time></trkpt><trkpt lat="43.63877290886441" lon="3.8011393088255994"><ele>72.0</ele><time>2026-04-12T09:39:15.98Z</time></trkpt><trkpt lat="43.63870598284334" lon="3.8011760952789007"><ele>72.0</ele><time>2026-04-12T09:39:20.98Z</time></trkpt><trkpt lat="43.63863521608254" lon="3.801253592333166"><ele>72.0</ele><time>2026-04-12T09:39:23.98Z</time></trkpt><trkpt lat="43.63856624965229" lon="3.801350777322473"><ele>72.0</ele><time>2026-04-12T09:39:26.98Z</time></trkpt><trkpt lat="43.638490540101834" lon="3.8013942061642947"><ele>69.5</ele><time>2026-04-12T09:39:28.98Z</time></trkpt><trkpt lat="43.63841097923459" lon="3.80143377656097"><ele>67.0</ele><time>2026-04-12T09:39:30.98Z</time></trkpt><trkpt lat="43.638334909486495" lon="3.8015070179890875"><ele>64.5</ele><time>2026-04-12T09:39:32.98Z</time></trkpt><trkpt lat="43.638260316497565" lon="3.8015656365801913"><ele>62.0</ele><time>2026-04-12T09:39:34.98Z</time></trkpt><trkpt lat="43.638184587106025" lon="3.801639457200509"><ele>59.5</ele><time>2026-04-12T09:39:36.98Z</time></trkpt><trkpt lat="43.638119954128626" lon="3.8017089133918986"><ele>57.0</ele><time>2026-04-12T09:39:38.98Z</time></trkpt><trkpt lat="43.63804939168628" lon="3.8017816803027893"><ele>57.0</ele><time>2026-04-12T09:39:40.98Z</time></trkpt><trkpt lat="43.637971899416264" lon="3.80186805671865"><ele>57.0</ele><time>2026-04-12T09:39:42.98Z</time></trkpt><trkpt lat="43.63790255841382" lon="3.8017936654581543"><ele>57.0</ele><time>2026-04-12T09:39:46.978Z</time></trkpt><trkpt lat="43.63784361707463" lon="3.8017590696455597"><ele>57.0</ele><time>2026-04-12T09:39:48.978Z</time></trkpt><trkpt lat="43.63776880593505" lon="3.8017319801926677"><ele>57.0</ele><time>2026-04-12T09:39:50.978Z</time></trkpt><trkpt lat="43.63770807966076" lon="3.801767561693465"><ele>57.0</ele><time>2026-04-12T09:39:53.978Z</time></trkpt><trkpt lat="43.63767218920931" lon="3.80188579315988"><ele>58.5</ele><time>2026-04-12T09:39:56.979Z</time></trkpt><trkpt lat="43.63766779280502" lon="3.801995830006015"><ele>60.0</ele><time>2026-04-12T09:39:58.98Z</time></trkpt><trkpt lat="43.63767053755989" lon="3.80211996232077"><ele>61.5</ele><time>2026-04-12T09:40:00.979Z</time></trkpt><trkpt lat="43.63769407221113" lon="3.8022488791191362"><ele>63.0</ele><time>2026-04-12T09:40:03.98Z</time></trkpt><trkpt lat="43.63770954406641" lon="3.802333345619028"><ele>64.5</ele><time>2026-04-12T09:40:05.979Z</time></trkpt><trkpt lat="43.63770159381947" lon="3.8024208929519716"><ele>66.0</ele><time>2026-04-12T09:40:07.979Z</time></trkpt><trkpt lat="43.63771130337627" lon="3.8025382126536127"><ele>66.0</ele><time>2026-04-12T09:40:09.979Z</time></trkpt><trkpt lat="43.63770635556975" lon="3.8026571931120556"><ele>66.0</ele><time>2026-04-12T09:40:12.979Z</time></trkpt><trkpt lat="43.63771710823254" lon="3.802742922679723"><ele>66.0</ele><time>2026-04-12T09:40:14.979Z</time></trkpt><trkpt lat="43.63773368370985" lon="3.8028343287418704"><ele>66.0</ele><time>2026-04-12T09:40:16.979Z</time></trkpt><trkpt lat="43.63775705061571" lon="3.8029299843356394"><ele>66.0</ele><time>2026-04-12T09:40:18.979Z</time></trkpt><trkpt lat="43.637776153291604" lon="3.80302089011038"><ele>66.0</ele><time>2026-04-12T09:40:20.979Z</time></trkpt><trkpt lat="43.637816315327015" lon="3.8030931205876835"><ele>66.0</ele><time>2026-04-12T09:40:22.979Z</time></trkpt><trkpt lat="43.637852598770706" lon="3.8031867319421373"><ele>64.0</ele><time>2026-04-12T09:40:24.979Z</time></trkpt><trkpt lat="43.637893696923356" lon="3.803296258542882"><ele>62.0</ele><time>2026-04-12T09:40:26.979Z</time></trkpt><trkpt lat="43.63793947191741" lon="3.8033827659273234"><ele>60.0</ele><time>2026-04-12T09:40:28.978Z</time></trkpt><trkpt lat="43.637972414449926" lon="3.8034674274808222"><ele>58.0</ele><time>2026-04-12T09:40:30.978Z</time></trkpt><trkpt lat="43.63800797195547" lon="3.8035949565487264"><ele>56.0</ele><time>2026-04-12T09:40:32.978Z</time></trkpt><trkpt lat="43.638048795539135" lon="3.803730001580241"><ele>54.0</ele><time>2026-04-12T09:40:34.978Z</time></trkpt><trkpt lat="43.63809747313608" lon="3.803863056349191"><ele>54.0</ele><time>2026-04-12T09:40:36.978Z</time></trkpt><trkpt lat="43.638136342621905" lon="3.8039892960845667"><ele>54.0</ele><time>2026-04-12T09:40:38.978Z</time></trkpt><trkpt lat="43.638201351974935" lon="3.804031924121448"><ele>54.0</ele><time>2026-04-12T09:40:40.978Z</time></trkpt><trkpt lat="43.63826309069099" lon="3.804058300902973"><ele>54.0</ele><time>2026-04-12T09:40:42.978Z</time></trkpt><trkpt lat="43.63832473032514" lon="3.804010831063622"><ele>54.0</ele><time>2026-04-12T09:40:44.978Z</time></trkpt><trkpt lat="43.638391747996515" lon="3.8040058717115497"><ele>54.0</ele><time>2026-04-12T09:40:46.978Z</time></trkpt><trkpt lat="43.63843244143081" lon="3.8040885649031986"><ele>54.0</ele><time>2026-04-12T09:40:48.978Z</time></trkpt><trkpt lat="43.63847372442791" lon="3.804197147279613"><ele>54.0</ele><time>2026-04-12T09:40:50.978Z</time></trkpt><trkpt lat="43.6385315588835" lon="3.8042836634245445"><ele>54.0</ele><time>2026-04-12T09:40:52.978Z</time></trkpt><trkpt lat="43.638597125442814" lon="3.8043758805966257"><ele>54.0</ele><time>2026-04-12T09:40:54.978Z</time></trkpt><trkpt lat="43.63865769051849" lon="3.8044699089667833"><ele>54.0</ele><time>2026-04-12T09:40:56.978Z</time></trkpt><trkpt lat="43.63873136228238" lon="3.8045474764551157"><ele>54.0</ele><time>2026-04-12T09:40:58.978Z</time></trkpt><trkpt lat="43.638774010039654" lon="3.8046433585752126"><ele>54.0</ele><time>2026-04-12T09:41:00.978Z</time></trkpt><trkpt lat="43.638819615116105" lon="3.804763192640697"><ele>54.5</ele><time>2026-04-12T09:41:02.978Z</time></trkpt><trkpt lat="43.63888983151797" lon="3.8048486539027944"><ele>55.0</ele><time>2026-04-12T09:41:04.978Z</time></trkpt><trkpt lat="43.638910354671495" lon="3.804941778627367"><ele>55.5</ele><time>2026-04-12T09:41:07.978Z</time></trkpt><trkpt lat="43.63883537457181" lon="3.8050280470165214"><ele>56.0</ele><time>2026-04-12T09:41:09.978Z</time></trkpt><trkpt lat="43.63879923322929" lon="3.8051037622101624"><ele>56.5</ele><time>2026-04-12T09:41:11.978Z</time></trkpt><trkpt lat="43.63879360624446" lon="3.805195122970127"><ele>57.0</ele><time>2026-04-12T09:41:16.978Z</time></trkpt><trkpt lat="43.638825677009095" lon="3.805269983269511"><ele>57.0</ele><time>2026-04-12T09:41:19.978Z</time></trkpt><trkpt lat="43.63883890934696" lon="3.8053627673112236"><ele>57.0</ele><time>2026-04-12T09:41:22.978Z</time></trkpt><trkpt lat="43.63885542394774" lon="3.8054720478017567"><ele>57.0</ele><time>2026-04-12T09:41:24.978Z</time></trkpt><trkpt lat="43.63886944247581" lon="3.80558550575156"><ele>57.0</ele><time>2026-04-12T09:41:27.978Z</time></trkpt><trkpt lat="43.63881857122705" lon="3.805673769799743"><ele>57.0</ele><time>2026-04-12T09:41:32.978Z</time></trkpt><trkpt lat="43.63878725353726" lon="3.8057608657912794"><ele>57.0</ele><time>2026-04-12T09:41:34.978Z</time></trkpt><trkpt lat="43.638744709786515" lon="3.8058448346660785"><ele>57.0</ele><time>2026-04-12T09:41:36.978Z</time></trkpt><trkpt lat="43.63872522882318" lon="3.8059607862180465"><ele>57.0</ele><time>2026-04-12T09:41:39.977Z</time></trkpt><trkpt lat="43.638708151879484" lon="3.806069449312011"><ele>57.0</ele><time>2026-04-12T09:41:42.977Z</time></trkpt><trkpt lat="43.63870063998186" lon="3.8061730400966036"><ele>57.0</ele><time>2026-04-12T09:41:45.977Z</time></trkpt><trkpt lat="43.63868179484039" lon="3.806287372846081"><ele>57.0</ele><time>2026-04-12T09:41:48.977Z</time></trkpt><trkpt lat="43.63867097543383" lon="3.8063850515984092"><ele>57.0</ele><time>2026-04-12T09:41:51.977Z</time></trkpt><trkpt lat="43.63866106139366" lon="3.8064947727490352"><ele>56.857142857142854</ele><time>2026-04-12T09:41:54.977Z</time></trkpt><trkpt lat="43.63865124885588" lon="3.806583674053567"><ele>56.71428571428571</ele><time>2026-04-12T09:41:57.977Z</time></trkpt><trkpt lat="43.63865957517619" lon="3.806687158605624"><ele>56.57142857142857</ele><time>2026-04-12T09:42:00.977Z</time></trkpt><trkpt lat="43.63866924839699" lon="3.8068043482114864"><ele>56.42857142857143</ele><time>2026-04-12T09:42:03.979Z</time></trkpt><trkpt lat="43.63869838084239" lon="3.806894559049068"><ele>56.285714285714285</ele><time>2026-04-12T09:42:06.979Z</time></trkpt><trkpt lat="43.63875004778314" lon="3.8069567118582968"><ele>56.14285714285714</ele><time>2026-04-12T09:42:10.979Z</time></trkpt><trkpt lat="43.63877298846358" lon="3.807044541583607"><ele>56.0</ele><time>2026-04-12T09:42:14.979Z</time></trkpt><trkpt lat="43.63880016012735" lon="3.807130224966013"><ele>55.833333333333336</ele><time>2026-04-12T09:42:33.979Z</time></trkpt><trkpt lat="43.63870442540949" lon="3.8072404146003653"><ele>55.66666666666667</ele><time>2026-04-12T09:43:40.978Z</time></trkpt><trkpt lat="43.638647483449084" lon="3.8072904474704203"><ele>55.5</ele><time>2026-04-12T09:43:51.978Z</time></trkpt><trkpt lat="43.63863360638116" lon="3.8073905044093657"><ele>55.33333333333333</ele><time>2026-04-12T09:44:18.979Z</time></trkpt><trkpt lat="43.63862758627184" lon="3.8074843873413915"><ele>55.166666666666664</ele><time>2026-04-12T09:45:02.978Z</time></trkpt><trkpt lat="43.63860648339301" lon="3.8075905214594896"><ele>55.0</ele><time>2026-04-12T09:47:07.977Z</time></trkpt><trkpt lat="43.63857660394084" lon="3.80767468283342"><ele>56.14285714285714</ele><time>2026-04-12T09:47:15.977Z</time></trkpt><trkpt lat="43.63853784594272" lon="3.807749100631537"><ele>57.285714285714285</ele><time>2026-04-12T09:47:22.977Z</time></trkpt><trkpt lat="43.63849246453413" lon="3.8078148441200517"><ele>58.42857142857143</ele><time>2026-04-12T09:47:30.977Z</time></trkpt><trkpt lat="43.63845096716717" lon="3.807895113593373"><ele>59.57142857142857</ele><time>2026-04-12T09:47:37.977Z</time></trkpt><trkpt lat="43.63839427374162" lon="3.807939562920552"><ele>60.714285714285715</ele><time>2026-04-12T09:47:47.977Z</time></trkpt><trkpt lat="43.638359497124576" lon="3.808021299745806"><ele>61.857142857142854</ele><time>2026-04-12T09:47:58.977Z</time></trkpt><trkpt lat="43.6383294745778" lon="3.808111088482678"><ele>63.0</ele><time>2026-04-12T09:48:05.976Z</time></trkpt><trkpt lat="43.638278261987296" lon="3.8081674946001316"><ele>63.0</ele><time>2026-04-12T09:48:14.976Z</time></trkpt><trkpt lat="43.63822021472632" lon="3.808233384097788"><ele>63.0</ele><time>2026-04-12T09:48:18.976Z</time></trkpt><trkpt lat="43.63814406091656" lon="3.8082860317310923"><ele>63.0</ele><time>2026-04-12T09:48:21.978Z</time></trkpt><trkpt lat="43.63806501313345" lon="3.8083220655386207"><ele>63.0</ele><time>2026-04-12T09:48:25.978Z</time></trkpt><trkpt lat="43.637990864020296" lon="3.8083482402436473"><ele>63.0</ele><time>2026-04-12T09:48:28.978Z</time></trkpt><trkpt lat="43.637897767132856" lon="3.8083813945603446"><ele>63.0</ele><time>2026-04-12T09:48:31.977Z</time></trkpt><trkpt lat="43.63783483103488" lon="3.808421796867227"><ele>61.833333333333336</ele><time>2026-04-12T09:48:33.978Z</time></trkpt><trkpt lat="43.63775292589688" lon="3.808446180284777"><ele>60.66666666666667</ele><time>2026-04-12T09:48:35.978Z</time></trkpt><trkpt lat="43.637664820444044" lon="3.808474774374128"><ele>59.5</ele><time>2026-04-12T09:48:37.978Z</time></trkpt><trkpt lat="43.63759209356925" lon="3.8084981603446333"><ele>58.333333333333336</ele><time>2026-04-12T09:48:39.978Z</time></trkpt><trkpt lat="43.63751013323382" lon="3.808520886130986"><ele>57.16666666666667</ele><time>2026-04-12T09:48:41.978Z</time></trkpt><trkpt lat="43.63742382220177" lon="3.808548788274406"><ele>56.0</ele><time>2026-04-12T09:48:43.978Z</time></trkpt><trkpt lat="43.6373498930458" lon="3.8085618406772443"><ele>56.8</ele><time>2026-04-12T09:48:45.978Z</time></trkpt><trkpt lat="43.637255812415745" lon="3.808548273428163"><ele>57.599999999999994</ele><time>2026-04-12T09:48:47.978Z</time></trkpt><trkpt lat="43.63716172746761" lon="3.8085512165468565"><ele>58.4</ele><time>2026-04-12T09:48:49.978Z</time></trkpt><trkpt lat="43.637073344594796" lon="3.8085538347343437"><ele>59.2</ele><time>2026-04-12T09:48:51.978Z</time></trkpt><trkpt lat="43.63698439907433" lon="3.8085332211882204"><ele>60.0</ele><time>2026-04-12T09:48:53.978Z</time></trkpt><trkpt lat="43.63684134759202" lon="3.8085489032315496"><ele>60.0</ele><time>2026-04-12T09:48:55.978Z</time></trkpt><trkpt lat="43.636773602791706" lon="3.808575314024269"><ele>60.0</ele><time>2026-04-12T09:48:56.978Z</time></trkpt><trkpt lat="43.63670117188797" lon="3.808622444593256"><ele>60.0</ele><time>2026-04-12T09:48:58.978Z</time></trkpt><trkpt lat="43.63661585601655" lon="3.8086655500697737"><ele>60.0</ele><time>2026-04-12T09:49:00.978Z</time></trkpt><trkpt lat="43.63654796965517" lon="3.808699694690687"><ele>60.0</ele><time>2026-04-12T09:49:02.978Z</time></trkpt><trkpt lat="43.63646691723409" lon="3.808715499550293"><ele>60.0</ele><time>2026-04-12T09:49:04.978Z</time></trkpt><trkpt lat="43.636397508307" lon="3.8087172881107993"><ele>60.0</ele><time>2026-04-12T09:49:06.978Z</time></trkpt><trkpt lat="43.6363125638533" lon="3.8087001611492495"><ele>60.0</ele><time>2026-04-12T09:49:08.978Z</time></trkpt><trkpt lat="43.636220703988165" lon="3.8086614695594787"><ele>60.0</ele><time>2026-04-12T09:49:10.978Z</time></trkpt><trkpt lat="43.63612765978897" lon="3.8086459325946356"><ele>60.0</ele><time>2026-04-12T09:49:12.977Z</time></trkpt><trkpt lat="43.63603365852425" lon="3.8086152231736268"><ele>60.0</ele><time>2026-04-12T09:49:14.977Z</time></trkpt><trkpt lat="43.635931141906525" lon="3.8085757602761032"><ele>59.0</ele><time>2026-04-12T09:49:16.977Z</time></trkpt><trkpt lat="43.635844323175895" lon="3.80851182738346"><ele>58.0</ele><time>2026-04-12T09:49:18.977Z</time></trkpt><trkpt lat="43.635771468769995" lon="3.808430597811698"><ele>57.0</ele><time>2026-04-12T09:49:20.977Z</time></trkpt><trkpt lat="43.63569119941564" lon="3.8083565110594577"><ele>56.0</ele><time>2026-04-12T09:49:22.977Z</time></trkpt><trkpt lat="43.63562394868716" lon="3.8082596877945862"><ele>55.0</ele><time>2026-04-12T09:49:24.977Z</time></trkpt><trkpt lat="43.63554076607797" lon="3.808191916708954"><ele>55.0</ele><time>2026-04-12T09:49:26.977Z</time></trkpt><trkpt lat="43.63546203203088" lon="3.8081021717814028"><ele>55.0</ele><time>2026-04-12T09:49:28.977Z</time></trkpt><trkpt lat="43.63537833967938" lon="3.8079996052610876"><ele>55.0</ele><time>2026-04-12T09:49:30.977Z</time></trkpt><trkpt lat="43.63530207305588" lon="3.8079085308911034"><ele>55.0</ele><time>2026-04-12T09:49:32.977Z</time></trkpt><trkpt lat="43.635211394988936" lon="3.8078299880924393"><ele>55.0</ele><time>2026-04-12T09:49:34.977Z</time></trkpt><trkpt lat="43.63512332794529" lon="3.807769488264757"><ele>55.8</ele><time>2026-04-12T09:49:36.977Z</time></trkpt><trkpt lat="43.635025674896745" lon="3.807734810218191"><ele>56.6</ele><time>2026-04-12T09:49:38.977Z</time></trkpt><trkpt lat="43.63493840044455" lon="3.8077414408906023"><ele>57.400000000000006</ele><time>2026-04-12T09:49:40.977Z</time></trkpt><trkpt lat="43.63483569835562" lon="3.807761900910873"><ele>58.2</ele><time>2026-04-12T09:49:42.977Z</time></trkpt><trkpt lat="43.63474585068711" lon="3.8077954907423948"><ele>59.0</ele><time>2026-04-12T09:49:44.977Z</time></trkpt><trkpt lat="43.63465760592048" lon="3.8078299673930474"><ele>59.0</ele><time>2026-04-12T09:49:46.977Z</time></trkpt><trkpt lat="43.63460183868947" lon="3.80789441422278"><ele>59.00000000000001</ele><time>2026-04-12T09:49:48.977Z</time></trkpt><trkpt lat="43.6345560071323" lon="3.8079938211678575"><ele>59.00000000000001</ele><time>2026-04-12T09:49:50.977Z</time></trkpt><trkpt lat="43.634525664095904" lon="3.808117346476684"><ele>59.0</ele><time>2026-04-12T09:49:52.977Z</time></trkpt><trkpt lat="43.63453770222958" lon="3.8082577807916738"><ele>59.0</ele><time>2026-04-12T09:49:54.977Z</time></trkpt><trkpt lat="43.63454601700128" lon="3.808396527459313"><ele>57.800000000000004</ele><time>2026-04-12T09:49:56.977Z</time></trkpt><trkpt lat="43.63454934899212" lon="3.80855325368592"><ele>56.60000000000001</ele><time>2026-04-12T09:49:58.977Z</time></trkpt><trkpt lat="43.63454444387665" lon="3.8086884084425066"><ele>55.4</ele><time>2026-04-12T09:50:00.977Z</time></trkpt><trkpt lat="43.63450163944653" lon="3.808784292596273"><ele>54.2</ele><time>2026-04-12T09:50:02.977Z</time></trkpt><trkpt lat="43.634436700505425" lon="3.8088596972753175"><ele>53.0</ele><time>2026-04-12T09:50:04.977Z</time></trkpt><trkpt lat="43.63438844272991" lon="3.808949324577344"><ele>53.0</ele><time>2026-04-12T09:50:06.977Z</time></trkpt><trkpt lat="43.63433133338266" lon="3.8090517916963287"><ele>53.0</ele><time>2026-04-12T09:50:08.977Z</time></trkpt><trkpt lat="43.63428819076068" lon="3.809183145341742"><ele>53.0</ele><time>2026-04-12T09:50:10.977Z</time></trkpt><trkpt lat="43.63426938490355" lon="3.8093213527063794"><ele>53.0</ele><time>2026-04-12T09:50:12.977Z</time></trkpt><trkpt lat="43.634268001392044" lon="3.809484498153178"><ele>53.0</ele><time>2026-04-12T09:50:14.977Z</time></trkpt><trkpt lat="43.63428518112558" lon="3.809628980013851"><ele>52.75</ele><time>2026-04-12T09:50:16.977Z</time></trkpt><trkpt lat="43.6343147750859" lon="3.809763448739371"><ele>52.5</ele><time>2026-04-12T09:50:18.977Z</time></trkpt><trkpt lat="43.634353902152675" lon="3.809912411196705"><ele>52.25</ele><time>2026-04-12T09:50:20.977Z</time></trkpt><trkpt lat="43.63438751812924" lon="3.810069606085127"><ele>52.0</ele><time>2026-04-12T09:50:22.977Z</time></trkpt><trkpt lat="43.63441953423935" lon="3.8102248743191294"><ele>51.6</ele><time>2026-04-12T09:50:24.976Z</time></trkpt><trkpt lat="43.6344523787428" lon="3.810367600456058"><ele>51.2</ele><time>2026-04-12T09:50:26.978Z</time></trkpt><trkpt lat="43.634467112952024" lon="3.810512212642277"><ele>50.8</ele><time>2026-04-12T09:50:28.978Z</time></trkpt><trkpt lat="43.634493154510245" lon="3.8106504996058796"><ele>50.4</ele><time>2026-04-12T09:50:30.978Z</time></trkpt><trkpt lat="43.634523944687984" lon="3.810806401390623"><ele>50.0</ele><time>2026-04-12T09:50:32.978Z</time></trkpt><trkpt lat="43.634553378883474" lon="3.8109810924096617"><ele>55.75</ele><time>2026-04-12T09:50:34.978Z</time></trkpt><trkpt lat="43.634567083094986" lon="3.811144419714495"><ele>61.5</ele><time>2026-04-12T09:50:36.978Z</time></trkpt><trkpt lat="43.63458347148818" lon="3.811300905440668"><ele>67.25</ele><time>2026-04-12T09:50:38.977Z</time></trkpt><trkpt lat="43.63459362058274" lon="3.811466604324603"><ele>73.0</ele><time>2026-04-12T09:50:40.977Z</time></trkpt><trkpt lat="43.63460599905646" lon="3.811624034642688"><ele>73.0</ele><time>2026-04-12T09:50:42.977Z</time></trkpt><trkpt lat="43.63460892291934" lon="3.811789410185776"><ele>73.0</ele><time>2026-04-12T09:50:44.977Z</time></trkpt><trkpt lat="43.63462105257258" lon="3.8119596026419535"><ele>73.0</ele><time>2026-04-12T09:50:46.977Z</time></trkpt><trkpt lat="43.634621245355795" lon="3.8121213509062146"><ele>73.0</ele><time>2026-04-12T09:50:48.977Z</time></trkpt><trkpt lat="43.63460675786947" lon="3.8122675924409473"><ele>73.6</ele><time>2026-04-12T09:50:50.977Z</time></trkpt><trkpt lat="43.63459600525706" lon="3.8124032407008595"><ele>74.19999999999999</ele><time>2026-04-12T09:50:52.977Z</time></trkpt><trkpt lat="43.63459464209353" lon="3.8125363408261554"><ele>74.8</ele><time>2026-04-12T09:50:54.977Z</time></trkpt><trkpt lat="43.634568185318535" lon="3.8126740728086337"><ele>75.39999999999999</ele><time>2026-04-12T09:50:56.977Z</time></trkpt><trkpt lat="43.6345450576079" lon="3.8128295081224555"><ele>76.0</ele><time>2026-04-12T09:50:58.977Z</time></trkpt><trkpt lat="43.63451697822302" lon="3.8129740885019268"><ele>71.8</ele><time>2026-04-12T09:51:00.977Z</time></trkpt><trkpt lat="43.634467828432584" lon="3.8131147549695132"><ele>67.6</ele><time>2026-04-12T09:51:02.977Z</time></trkpt><trkpt lat="43.6343970858209" lon="3.813232667722532"><ele>63.4</ele><time>2026-04-12T09:51:04.977Z</time></trkpt><trkpt lat="43.634358808448425" lon="3.8133059299972905"><ele>59.2</ele><time>2026-04-12T09:51:05.977Z</time></trkpt><trkpt lat="43.63427056378763" lon="3.813409144147607"><ele>55.0</ele><time>2026-04-12T09:51:07.977Z</time></trkpt><trkpt lat="43.63421412134961" lon="3.8134576130611104"><ele>56.2</ele><time>2026-04-12T09:51:08.977Z</time></trkpt><trkpt lat="43.634157446133756" lon="3.8135075174305255"><ele>57.4</ele><time>2026-04-12T09:51:09.977Z</time></trkpt><trkpt lat="43.63406251140901" lon="3.8135979360372567"><ele>58.599999999999994</ele><time>2026-04-12T09:51:11.977Z</time></trkpt><trkpt lat="43.633962536841146" lon="3.8136626696467926"><ele>59.8</ele><time>2026-04-12T09:51:13.977Z</time></trkpt><trkpt lat="43.633866931275136" lon="3.8137349202279514"><ele>61.0</ele><time>2026-04-12T09:51:15.977Z</time></trkpt><trkpt lat="43.63376268091196" lon="3.8137953547171195"><ele>61.0</ele><time>2026-04-12T09:51:17.977Z</time></trkpt><trkpt lat="43.633666875254" lon="3.8138882566061"><ele>60.99999999999999</ele><time>2026-04-12T09:51:19.977Z</time></trkpt><trkpt lat="43.63356270825865" lon="3.81396364574039"><ele>60.99999999999999</ele><time>2026-04-12T09:51:21.977Z</time></trkpt><trkpt lat="43.633480529644224" lon="3.8140670675644914"><ele>61.0</ele><time>2026-04-12T09:51:23.977Z</time></trkpt><trkpt lat="43.633409206055845" lon="3.8141452280447696"><ele>61.0</ele><time>2026-04-12T09:51:25.977Z</time></trkpt><trkpt lat="43.63333125629908" lon="3.814204900854395"><ele>59.4</ele><time>2026-04-12T09:51:27.977Z</time></trkpt><trkpt lat="43.63326573850269" lon="3.814295931433295"><ele>57.8</ele><time>2026-04-12T09:51:29.977Z</time></trkpt><trkpt lat="43.63319259104809" lon="3.81441668765846"><ele>56.199999999999996</ele><time>2026-04-12T09:51:31.977Z</time></trkpt><trkpt lat="43.633114621505854" lon="3.814521483550429"><ele>54.599999999999994</ele><time>2026-04-12T09:51:33.977Z</time></trkpt><trkpt lat="43.63303916208434" lon="3.814627106737094"><ele>53.0</ele><time>2026-04-12T09:51:35.977Z</time></trkpt><trkpt lat="43.63299093617057" lon="3.814738283165816"><ele>53.00000000000001</ele><time>2026-04-12T09:51:37.977Z</time></trkpt><trkpt lat="43.63293832861238" lon="3.8148182201123997"><ele>53.0</ele><time>2026-04-12T09:51:39.977Z</time></trkpt><trkpt lat="43.63285128082349" lon="3.8148970918222855"><ele>53.0</ele><time>2026-04-12T09:51:41.977Z</time></trkpt><trkpt lat="43.63279977516913" lon="3.8149574971304623"><ele>53.0</ele><time>2026-04-12T09:51:42.977Z</time></trkpt><trkpt lat="43.63275136225897" lon="3.8150146397009097"><ele>53.00000000000001</ele><time>2026-04-12T09:51:43.976Z</time></trkpt><trkpt lat="43.63265272386888" lon="3.8151306246349903"><ele>53.0</ele><time>2026-04-12T09:51:45.976Z</time></trkpt><trkpt lat="43.6325635723818" lon="3.815237882510021"><ele>53.2</ele><time>2026-04-12T09:51:47.976Z</time></trkpt><trkpt lat="43.632520683850196" lon="3.8153057074957286"><ele>53.4</ele><time>2026-04-12T09:51:48.976Z</time></trkpt><trkpt lat="43.63244033632068" lon="3.8154240758104905"><ele>53.60000000000001</ele><time>2026-04-12T09:51:50.976Z</time></trkpt><trkpt lat="43.63235476681468" lon="3.8155376372347583"><ele>53.800000000000004</ele><time>2026-04-12T09:51:52.976Z</time></trkpt><trkpt lat="43.63225628027654" lon="3.815639949744927"><ele>54.0</ele><time>2026-04-12T09:51:54.976Z</time></trkpt><trkpt lat="43.632161512259714" lon="3.815739627880422"><ele>54.0</ele><time>2026-04-12T09:51:56.976Z</time></trkpt><trkpt lat="43.63211453291249" lon="3.815802628535468"><ele>54.00000000000001</ele><time>2026-04-12T09:51:57.976Z</time></trkpt><trkpt lat="43.63203673678839" lon="3.8159017672641355"><ele>54.00000000000001</ele><time>2026-04-12T09:51:59.976Z</time></trkpt><trkpt lat="43.63195100345621" lon="3.815989343741453"><ele>54.0</ele><time>2026-04-12T09:52:01.976Z</time></trkpt><trkpt lat="43.63186456931772" lon="3.8160878845829687"><ele>54.0</ele><time>2026-04-12T09:52:03.976Z</time></trkpt><trkpt lat="43.63176745773504" lon="3.8161894145012756"><ele>55.2</ele><time>2026-04-12T09:52:05.976Z</time></trkpt><trkpt lat="43.63167563170126" lon="3.8162821681503827"><ele>56.400000000000006</ele><time>2026-04-12T09:52:07.976Z</time></trkpt><trkpt lat="43.63157426045367" lon="3.816342655651738"><ele>57.6</ele><time>2026-04-12T09:52:09.976Z</time></trkpt><trkpt lat="43.631475499365685" lon="3.816394003145029"><ele>58.8</ele><time>2026-04-12T09:52:11.976Z</time></trkpt><trkpt lat="43.631364199389395" lon="3.816444698722559"><ele>60.0</ele><time>2026-04-12T09:52:13.976Z</time></trkpt><trkpt lat="43.63126084774684" lon="3.8164863189583813"><ele>60.0</ele><time>2026-04-12T09:52:15.976Z</time></trkpt><trkpt lat="43.63116629043936" lon="3.8164595427076593"><ele>60.0</ele><time>2026-04-12T09:52:17.976Z</time></trkpt><trkpt lat="43.63107428644618" lon="3.8164809864931466"><ele>60.0</ele><time>2026-04-12T09:52:19.976Z</time></trkpt><trkpt lat="43.630995620632106" lon="3.816516696431638"><ele>60.0</ele><time>2026-04-12T09:52:23.976Z</time></trkpt><trkpt lat="43.630922129747624" lon="3.816587852902618"><ele>60.0</ele><time>2026-04-12T09:52:27.976Z</time></trkpt><trkpt lat="43.630843597239014" lon="3.8165216978787324"><ele>58.85714285714286</ele><time>2026-04-12T09:52:29.976Z</time></trkpt><trkpt lat="43.63079770850764" lon="3.816459044628287"><ele>57.71428571428571</ele><time>2026-04-12T09:52:30.976Z</time></trkpt><trkpt lat="43.63072326037141" lon="3.8164324541285155"><ele>56.57142857142857</ele><time>2026-04-12T09:52:31.978Z</time></trkpt><trkpt lat="43.630649752373834" lon="3.8164242066229153"><ele>55.42857142857143</ele><time>2026-04-12T09:52:32.977Z</time></trkpt><trkpt lat="43.630577591248326" lon="3.8164109958780426"><ele>54.28571428571429</ele><time>2026-04-12T09:52:33.977Z</time></trkpt><trkpt lat="43.63050609269965" lon="3.816381470004961"><ele>53.14285714285714</ele><time>2026-04-12T09:52:34.978Z</time></trkpt><trkpt lat="43.63044167401727" lon="3.8163498434051037"><ele>52.0</ele><time>2026-04-12T09:52:35.977Z</time></trkpt><trkpt lat="43.630326776412744" lon="3.8163278825480482"><ele>52.0</ele><time>2026-04-12T09:52:37.977Z</time></trkpt><trkpt lat="43.630217713853945" lon="3.8162535812645637"><ele>52.0</ele><time>2026-04-12T09:52:39.977Z</time></trkpt><trkpt lat="43.630145457371725" lon="3.8162224385076136"><ele>52.0</ele><time>2026-04-12T09:52:40.977Z</time></trkpt><trkpt lat="43.630029140621794" lon="3.816169876673767"><ele>52.0</ele><time>2026-04-12T09:52:42.977Z</time></trkpt><trkpt lat="43.62991777355253" lon="3.8161419604052638"><ele>52.0</ele><time>2026-04-12T09:52:44.977Z</time></trkpt><trkpt lat="43.62980726628355" lon="3.816126254711296"><ele>51.99999999999999</ele><time>2026-04-12T09:52:46.977Z</time></trkpt><trkpt lat="43.62971589009551" lon="3.8161039353549953"><ele>52.0</ele><time>2026-04-12T09:52:48.977Z</time></trkpt><trkpt lat="43.62961316567235" lon="3.8160513838527677"><ele>52.0</ele><time>2026-04-12T09:52:50.977Z</time></trkpt><trkpt lat="43.62952236389377" lon="3.816027551441376"><ele>52.0</ele><time>2026-04-12T09:52:53.977Z</time></trkpt><trkpt lat="43.62944790105946" lon="3.8159962497342286"><ele>51.99999999999999</ele><time>2026-04-12T09:52:55.977Z</time></trkpt><trkpt lat="43.629374919414076" lon="3.8159753836113914"><ele>52.0</ele><time>2026-04-12T09:52:58.977Z</time></trkpt><trkpt lat="43.62927412073439" lon="3.815955902163324"><ele>50.49999999999999</ele><time>2026-04-12T09:53:01.977Z</time></trkpt><trkpt lat="43.62920503160537" lon="3.815920174736368"><ele>49.0</ele><time>2026-04-12T09:53:03.977Z</time></trkpt><trkpt lat="43.62916103616142" lon="3.8158193065552655"><ele>47.5</ele><time>2026-04-12T09:53:05.977Z</time></trkpt><trkpt lat="43.629159451018964" lon="3.8156887717152"><ele>46.0</ele><time>2026-04-12T09:53:07.977Z</time></trkpt><trkpt lat="43.62913090235192" lon="3.815576074092691"><ele>44.5</ele><time>2026-04-12T09:53:09.977Z</time></trkpt><trkpt lat="43.6290885124127" lon="3.81550576035008"><ele>43.0</ele><time>2026-04-12T09:53:11.977Z</time></trkpt><trkpt lat="43.62902394654885" lon="3.815432518656885"><ele>43.0</ele><time>2026-04-12T09:53:14.977Z</time></trkpt><trkpt lat="43.62897150367569" lon="3.815367681352692"><ele>43.0</ele><time>2026-04-12T09:53:17.977Z</time></trkpt><trkpt lat="43.628915963950504" lon="3.815325928710138"><ele>43.0</ele><time>2026-04-12T09:53:19.976Z</time></trkpt><trkpt lat="43.628848458111925" lon="3.8152662927813163"><ele>43.0</ele><time>2026-04-12T09:53:21.976Z</time></trkpt><trkpt lat="43.62876996895406" lon="3.8151965819731837"><ele>43.0</ele><time>2026-04-12T09:53:23.976Z</time></trkpt><trkpt lat="43.62871391696295" lon="3.81512424088732"><ele>43.0</ele><time>2026-04-12T09:53:25.976Z</time></trkpt><trkpt lat="43.628639000474685" lon="3.8150538979046416"><ele>43.5</ele><time>2026-04-12T09:53:27.976Z</time></trkpt><trkpt lat="43.62855961818693" lon="3.8149772834396916"><ele>44.0</ele><time>2026-04-12T09:53:29.976Z</time></trkpt><trkpt lat="43.62850494919338" lon="3.814896056526492"><ele>44.5</ele><time>2026-04-12T09:53:31.976Z</time></trkpt><trkpt lat="43.628481167000025" lon="3.814791359479679"><ele>45.0</ele><time>2026-04-12T09:53:33.976Z</time></trkpt><trkpt lat="43.628451667302514" lon="3.8146851916508346"><ele>45.5</ele><time>2026-04-12T09:53:35.976Z</time></trkpt><trkpt lat="43.62841146557314" lon="3.8146121852363133"><ele>46.0</ele><time>2026-04-12T09:53:39.976Z</time></trkpt><trkpt lat="43.62834773423696" lon="3.8145231838341735"><ele>46.0</ele><time>2026-04-12T09:53:42.976Z</time></trkpt><trkpt lat="43.62830019372903" lon="3.814453649317638"><ele>46.0</ele><time>2026-04-12T09:53:44.976Z</time></trkpt><trkpt lat="43.62822825068604" lon="3.8143783367535233"><ele>46.0</ele><time>2026-04-12T09:53:46.976Z</time></trkpt><trkpt lat="43.6281486539863" lon="3.8143140131293554"><ele>46.0</ele><time>2026-04-12T09:53:48.976Z</time></trkpt><trkpt lat="43.62808869538157" lon="3.8142246991201922"><ele>46.0</ele><time>2026-04-12T09:53:50.976Z</time></trkpt><trkpt lat="43.62802080626008" lon="3.814151646302871"><ele>46.0</ele><time>2026-04-12T09:53:52.976Z</time></trkpt><trkpt lat="43.62798258205136" lon="3.8140762009185334"><ele>46.333333333333336</ele><time>2026-04-12T09:53:54.976Z</time></trkpt><trkpt lat="43.627928118252115" lon="3.8139922642141784"><ele>46.66666666666667</ele><time>2026-04-12T09:53:56.976Z</time></trkpt><trkpt lat="43.627878491704536" lon="3.8139079764651638"><ele>47.0</ele><time>2026-04-12T09:53:58.976Z</time></trkpt><trkpt lat="43.62782222317268" lon="3.8138048507577214"><ele>47.333333333333336</ele><time>2026-04-12T09:54:00.976Z</time></trkpt><trkpt lat="43.62778083182065" lon="3.8137240608142924"><ele>47.666666666666664</ele><time>2026-04-12T09:54:02.976Z</time></trkpt><trkpt lat="43.627740589863066" lon="3.813639168046001"><ele>48.0</ele><time>2026-04-12T09:54:04.976Z</time></trkpt><trkpt lat="43.62777552995065" lon="3.8135356084581353"><ele>48.333333333333336</ele><time>2026-04-12T09:54:07.976Z</time></trkpt><trkpt lat="43.62779019017685" lon="3.8134387897063817"><ele>48.66666666666667</ele><time>2026-04-12T09:54:11.976Z</time></trkpt><trkpt lat="43.62776353369635" lon="3.813336096830004"><ele>49.0</ele><time>2026-04-12T09:54:14.976Z</time></trkpt><trkpt lat="43.62772255400908" lon="3.8132598866073852"><ele>49.333333333333336</ele><time>2026-04-12T09:54:16.976Z</time></trkpt><trkpt lat="43.627668564702425" lon="3.813186085644857"><ele>49.66666666666667</ele><time>2026-04-12T09:54:18.976Z</time></trkpt><trkpt lat="43.62761605374103" lon="3.813080216219485"><ele>50.0</ele><time>2026-04-12T09:54:20.976Z</time></trkpt><trkpt lat="43.62758311276461" lon="3.812986044589055"><ele>50.00000000000001</ele><time>2026-04-12T09:54:22.976Z</time></trkpt><trkpt lat="43.62757819603517" lon="3.812862543040504"><ele>50.0</ele><time>2026-04-12T09:54:25.976Z</time></trkpt><trkpt lat="43.62754012355853" lon="3.8127774171371174"><ele>50.0</ele><time>2026-04-12T09:54:28.976Z</time></trkpt><trkpt lat="43.627513204079776" lon="3.812698398098518"><ele>50.0</ele><time>2026-04-12T09:54:30.975Z</time></trkpt><trkpt lat="43.627472637942674" lon="3.8125869858441983"><ele>50.00000000000001</ele><time>2026-04-12T09:54:33.975Z</time></trkpt><trkpt lat="43.62742409528791" lon="3.812523420357459"><ele>50.0</ele><time>2026-04-12T09:54:35.975Z</time></trkpt><trkpt lat="43.62737737619488" lon="3.812433299299055"><ele>50.00000000000001</ele><time>2026-04-12T09:54:38.977Z</time></trkpt><trkpt lat="43.62733884726426" lon="3.812345989379925"><ele>50.0</ele><time>2026-04-12T09:54:41.977Z</time></trkpt><trkpt lat="43.627298077360706" lon="3.812224715604581"><ele>50.0</ele><time>2026-04-12T09:54:44.977Z</time></trkpt><trkpt lat="43.62725816740169" lon="3.8121211262565877"><ele>50.0</ele><time>2026-04-12T09:54:46.977Z</time></trkpt><trkpt lat="43.62722707339575" lon="3.8120190695643745"><ele>50.00000000000001</ele><time>2026-04-12T09:54:48.977Z</time></trkpt><trkpt lat="43.627193823571425" lon="3.811922981242135"><ele>50.0</ele><time>2026-04-12T09:54:50.977Z</time></trkpt><trkpt lat="43.62715714174287" lon="3.811824913142287"><ele>49.00000000000001</ele><time>2026-04-12T09:54:52.977Z</time></trkpt><trkpt lat="43.62713200151314" lon="3.8117240904727283"><ele>48.0</ele><time>2026-04-12T09:54:54.977Z</time></trkpt><trkpt lat="43.62710947611578" lon="3.811624318576147"><ele>47.0</ele><time>2026-04-12T09:54:56.977Z</time></trkpt><trkpt lat="43.62709082612658" lon="3.8115407648682873"><ele>46.0</ele><time>2026-04-12T09:54:58.976Z</time></trkpt><trkpt lat="43.62707449425942" lon="3.8114478049993434"><ele>45.0</ele><time>2026-04-12T09:55:00.976Z</time></trkpt><trkpt lat="43.62705822318826" lon="3.8113471292223466"><ele>44.00000000000001</ele><time>2026-04-12T09:55:02.976Z</time></trkpt><trkpt lat="43.62704146790073" lon="3.811259435158601"><ele>43.0</ele><time>2026-04-12T09:55:04.976Z</time></trkpt><trkpt lat="43.62700507361932" lon="3.811163259859849"><ele>43.16666666666667</ele><time>2026-04-12T09:55:07.976Z</time></trkpt><trkpt lat="43.626957575568525" lon="3.811104791956514"><ele>43.333333333333336</ele><time>2026-04-12T09:55:09.976Z</time></trkpt><trkpt lat="43.62689850646076" lon="3.811011051170309"><ele>43.5</ele><time>2026-04-12T09:55:12.976Z</time></trkpt><trkpt lat="43.62681538290401" lon="3.8109396614819993"><ele>43.666666666666664</ele><time>2026-04-12T09:55:15.976Z</time></trkpt><trkpt lat="43.62675447093406" lon="3.810886239071638"><ele>43.83333333333333</ele><time>2026-04-12T09:55:17.976Z</time></trkpt><trkpt lat="43.62669149940832" lon="3.81084569220803"><ele>44.0</ele><time>2026-04-12T09:55:19.976Z</time></trkpt><trkpt lat="43.6266315050564" lon="3.810783746940911"><ele>44.0</ele><time>2026-04-12T09:55:21.976Z</time></trkpt><trkpt lat="43.62656272422394" lon="3.8107323309469514"><ele>44.0</ele><time>2026-04-12T09:55:23.976Z</time></trkpt><trkpt lat="43.62650491353889" lon="3.810653492685215"><ele>44.0</ele><time>2026-04-12T09:55:25.976Z</time></trkpt><trkpt lat="43.626499127196425" lon="3.810551656434086"><ele>44.0</ele><time>2026-04-12T09:55:27.976Z</time></trkpt><trkpt lat="43.6265035221566" lon="3.810462674485752"><ele>44.0</ele><time>2026-04-12T09:55:29.976Z</time></trkpt><trkpt lat="43.62644884638323" lon="3.81039361311733"><ele>44.0</ele><time>2026-04-12T09:55:31.976Z</time></trkpt><trkpt lat="43.62638480759913" lon="3.8103286306403783"><ele>44.0</ele><time>2026-04-12T09:55:33.976Z</time></trkpt><trkpt lat="43.626336578484505" lon="3.8102597613650553"><ele>44.0</ele><time>2026-04-12T09:55:35.976Z</time></trkpt><trkpt lat="43.62629001756976" lon="3.8101968673347417"><ele>44.0</ele><time>2026-04-12T09:55:37.976Z</time></trkpt><trkpt lat="43.62622708356589" lon="3.810139936600865"><ele>44.0</ele><time>2026-04-12T09:55:40.976Z</time></trkpt><trkpt lat="43.62614751179115" lon="3.810107972767822"><ele>44.0</ele><time>2026-04-12T09:57:50.977Z</time></trkpt><trkpt lat="43.6260859023695" lon="3.8100556648853203"><ele>44.0</ele><time>2026-04-12T09:57:54.977Z</time></trkpt><trkpt lat="43.62603842235689" lon="3.809973879685031"><ele>44.0</ele><time>2026-04-12T09:57:57.977Z</time></trkpt><trkpt lat="43.625961321184135" lon="3.8099064138420204"><ele>43.85714285714286</ele><time>2026-04-12T09:58:00.977Z</time></trkpt><trkpt lat="43.62589955799732" lon="3.8098655116471547"><ele>43.714285714285715</ele><time>2026-04-12T09:58:02.977Z</time></trkpt><trkpt lat="43.62584612755427" lon="3.809818642620138"><ele>43.57142857142857</ele><time>2026-04-12T09:58:04.977Z</time></trkpt><trkpt lat="43.625793151362565" lon="3.809762580622051"><ele>43.42857142857143</ele><time>2026-04-12T09:58:06.977Z</time></trkpt><trkpt lat="43.625738381472566" lon="3.8096979720215964"><ele>43.285714285714285</ele><time>2026-04-12T09:58:08.977Z</time></trkpt><trkpt lat="43.62568964671891" lon="3.8096294091019653"><ele>43.142857142857146</ele><time>2026-04-12T09:58:10.977Z</time></trkpt><trkpt lat="43.62564220738505" lon="3.8095470828645865"><ele>43.0</ele><time>2026-04-12T09:58:12.977Z</time></trkpt><trkpt lat="43.625587060669304" lon="3.80945213393281"><ele>43.0</ele><time>2026-04-12T09:58:14.977Z</time></trkpt><trkpt lat="43.62553189558034" lon="3.8093613755020095"><ele>43.0</ele><time>2026-04-12T09:58:16.977Z</time></trkpt><trkpt lat="43.625476722894774" lon="3.809268889225482"><ele>43.0</ele><time>2026-04-12T09:58:18.977Z</time></trkpt><trkpt lat="43.625418741939974" lon="3.8091676671812618"><ele>43.0</ele><time>2026-04-12T09:58:20.976Z</time></trkpt><trkpt lat="43.6253723551717" lon="3.80908958756348"><ele>43.0</ele><time>2026-04-12T09:58:22.976Z</time></trkpt><trkpt lat="43.62531873563083" lon="3.80899565691938"><ele>43.0</ele><time>2026-04-12T09:58:24.976Z</time></trkpt><trkpt lat="43.62525520603938" lon="3.8088820534656884"><ele>43.0</ele><time>2026-04-12T09:58:26.976Z</time></trkpt><trkpt lat="43.62518284563045" lon="3.8087712477557867"><ele>43.0</ele><time>2026-04-12T09:58:28.976Z</time></trkpt><trkpt lat="43.62511021485599" lon="3.8086664084114576"><ele>43.0</ele><time>2026-04-12T09:58:30.976Z</time></trkpt><trkpt lat="43.62505370920037" lon="3.808609148369263"><ele>43.0</ele><time>2026-04-12T09:58:32.976Z</time></trkpt><trkpt lat="43.62497644816713" lon="3.8085213046598656"><ele>43.0</ele><time>2026-04-12T09:58:34.976Z</time></trkpt><trkpt lat="43.62490144356866" lon="3.808415531118151"><ele>42.199999999999996</ele><time>2026-04-12T09:58:36.976Z</time></trkpt><trkpt lat="43.62483112715324" lon="3.8083382707862246"><ele>41.4</ele><time>2026-04-12T09:58:38.976Z</time></trkpt><trkpt lat="43.624758477886544" lon="3.8082731791797375"><ele>40.599999999999994</ele><time>2026-04-12T09:58:40.976Z</time></trkpt><trkpt lat="43.62470987237907" lon="3.8081962440615604"><ele>39.8</ele><time>2026-04-12T09:58:42.976Z</time></trkpt><trkpt lat="43.62463953285854" lon="3.8081304413989643"><ele>39.0</ele><time>2026-04-12T09:58:44.976Z</time></trkpt><trkpt lat="43.624545818727526" lon="3.808015565970366"><ele>39.0</ele><time>2026-04-12T09:58:46.976Z</time></trkpt><trkpt lat="43.62449013324152" lon="3.8079049880539455"><ele>39.0</ele><time>2026-04-12T09:58:48.976Z</time></trkpt><trkpt lat="43.624423788882936" lon="3.8078370873970444"><ele>39.0</ele><time>2026-04-12T09:58:50.977Z</time></trkpt><trkpt lat="43.624342664536066" lon="3.807716415387286"><ele>39.0</ele><time>2026-04-12T09:58:52.978Z</time></trkpt><trkpt lat="43.62426624146274" lon="3.8076145091840785"><ele>39.0</ele><time>2026-04-12T09:58:54.977Z</time></trkpt><trkpt lat="43.624189004758605" lon="3.807520797042765"><ele>39.5</ele><time>2026-04-12T09:58:56.977Z</time></trkpt><trkpt lat="43.624112035896054" lon="3.807447580257764"><ele>40.0</ele><time>2026-04-12T09:58:58.977Z</time></trkpt><trkpt lat="43.62404091691321" lon="3.807368219476677"><ele>40.5</ele><time>2026-04-12T09:59:00.977Z</time></trkpt><trkpt lat="43.62397747323833" lon="3.807305707275952"><ele>41.0</ele><time>2026-04-12T09:59:02.977Z</time></trkpt><trkpt lat="43.62390538797223" lon="3.8072186651118334"><ele>41.5</ele><time>2026-04-12T09:59:04.977Z</time></trkpt><trkpt lat="43.62386394195428" lon="3.8071401437842107"><ele>42.0</ele><time>2026-04-12T09:59:06.977Z</time></trkpt><trkpt lat="43.623838035207584" lon="3.8070103205932226"><ele>42.0</ele><time>2026-04-12T09:59:08.977Z</time></trkpt><trkpt lat="43.62377011553364" lon="3.8069352375361367"><ele>42.0</ele><time>2026-04-12T09:59:10.977Z</time></trkpt><trkpt lat="43.62368768954188" lon="3.8069585611498438"><ele>42.0</ele><time>2026-04-12T09:59:12.977Z</time></trkpt><trkpt lat="43.62360603876901" lon="3.8069939442074556"><ele>42.0</ele><time>2026-04-12T09:59:14.977Z</time></trkpt><trkpt lat="43.62351523514418" lon="3.8070377024548625"><ele>42.0</ele><time>2026-04-12T09:59:16.977Z</time></trkpt><trkpt lat="43.623427612807205" lon="3.8070797451231866"><ele>42.0</ele><time>2026-04-12T09:59:18.977Z</time></trkpt><trkpt lat="43.62331992437503" lon="3.807122459135773"><ele>42.6</ele><time>2026-04-12T09:59:20.977Z</time></trkpt><trkpt lat="43.623204138795835" lon="3.80711565756289"><ele>43.2</ele><time>2026-04-12T09:59:22.977Z</time></trkpt><trkpt lat="43.62314337110449" lon="3.8070906240775115"><ele>43.8</ele><time>2026-04-12T09:59:23.977Z</time></trkpt><trkpt lat="43.62304687939713" lon="3.806983858201183"><ele>44.4</ele><time>2026-04-12T09:59:25.977Z</time></trkpt><trkpt lat="43.6229519081964" lon="3.80690874058864"><ele>45.0</ele><time>2026-04-12T09:59:27.977Z</time></trkpt><trkpt lat="43.622861097913805" lon="3.806841977869374"><ele>44.2</ele><time>2026-04-12T09:59:29.977Z</time></trkpt><trkpt lat="43.622798661603035" lon="3.806721344011154"><ele>43.4</ele><time>2026-04-12T09:59:31.976Z</time></trkpt><trkpt lat="43.622756011976385" lon="3.8065845757060734"><ele>42.599999999999994</ele><time>2026-04-12T09:59:33.976Z</time></trkpt><trkpt lat="43.62270507476711" lon="3.8064465248211086"><ele>41.8</ele><time>2026-04-12T09:59:35.976Z</time></trkpt><trkpt lat="43.622630506277176" lon="3.806358048534697"><ele>41.0</ele><time>2026-04-12T09:59:37.976Z</time></trkpt><trkpt lat="43.6225552724467" lon="3.806259086546753"><ele>41.0</ele><time>2026-04-12T09:59:39.976Z</time></trkpt><trkpt lat="43.62248920684836" lon="3.8061386948443623"><ele>41.0</ele><time>2026-04-12T09:59:41.976Z</time></trkpt><trkpt lat="43.62243047433992" lon="3.8060139191208977"><ele>41.0</ele><time>2026-04-12T09:59:43.976Z</time></trkpt><trkpt lat="43.622382873871175" lon="3.8058715845809004"><ele>41.0</ele><time>2026-04-12T09:59:45.976Z</time></trkpt><trkpt lat="43.62232857729607" lon="3.805741180324023"><ele>41.0</ele><time>2026-04-12T09:59:47.976Z</time></trkpt><trkpt lat="43.62221333101403" lon="3.805716312194213"><ele>41.199999999999996</ele><time>2026-04-12T09:59:49.976Z</time></trkpt><trkpt lat="43.62211946167486" lon="3.8057779222767656"><ele>41.4</ele><time>2026-04-12T09:59:51.976Z</time></trkpt><trkpt lat="43.62201788815712" lon="3.805820646829891"><ele>41.6</ele><time>2026-04-12T09:59:53.976Z</time></trkpt><trkpt lat="43.62190976888954" lon="3.8058636302050117"><ele>41.8</ele><time>2026-04-12T09:59:55.976Z</time></trkpt><trkpt lat="43.62179554332306" lon="3.805921030725279"><ele>42.0</ele><time>2026-04-12T09:59:57.976Z</time></trkpt><trkpt lat="43.621687319271196" lon="3.8059511295425024"><ele>42.0</ele><time>2026-04-12T09:59:59.976Z</time></trkpt><trkpt lat="43.62158837813707" lon="3.805964988080144"><ele>42.0</ele><time>2026-04-12T10:00:01.976Z</time></trkpt><trkpt lat="43.621543604144684" lon="3.8060728442920917"><ele>42.0</ele><time>2026-04-12T10:00:03.976Z</time></trkpt><trkpt lat="43.621579863596374" lon="3.806199033797059"><ele>42.0</ele><time>2026-04-12T10:00:05.976Z</time></trkpt><trkpt lat="43.621615378065705" lon="3.8063273966706266"><ele>42.0</ele><time>2026-04-12T10:00:07.976Z</time></trkpt><trkpt lat="43.621673867445594" lon="3.8064326900269823"><ele>42.0</ele><time>2026-04-12T10:00:09.976Z</time></trkpt><trkpt lat="43.62167507767841" lon="3.8065586295500395"><ele>42.0</ele><time>2026-04-12T10:00:11.976Z</time></trkpt><trkpt lat="43.62167001466292" lon="3.8066775318181945"><ele>42.0</ele><time>2026-04-12T10:00:13.976Z</time></trkpt><trkpt lat="43.621680506891394" lon="3.8067900560201475"><ele>42.0</ele><time>2026-04-12T10:00:15.976Z</time></trkpt><trkpt lat="43.62168971605882" lon="3.8069248800993756"><ele>42.0</ele><time>2026-04-12T10:00:17.976Z</time></trkpt><trkpt lat="43.621688803594935" lon="3.8070512469794484"><ele>42.0</ele><time>2026-04-12T10:00:19.976Z</time></trkpt><trkpt lat="43.62168858203551" lon="3.8071809266016374"><ele>42.0</ele><time>2026-04-12T10:00:21.976Z</time></trkpt><trkpt lat="43.6216717888562" lon="3.8073031364465524"><ele>42.0</ele><time>2026-04-12T10:00:23.976Z</time></trkpt><trkpt lat="43.621653257462285" lon="3.8074207082299694"><ele>42.0</ele><time>2026-04-12T10:00:25.976Z</time></trkpt><trkpt lat="43.62163270540391" lon="3.807545500736682"><ele>42.0</ele><time>2026-04-12T10:00:27.976Z</time></trkpt><trkpt lat="43.62160751225827" lon="3.8076652128894843"><ele>42.0</ele><time>2026-04-12T10:00:29.976Z</time></trkpt><trkpt lat="43.62160035006625" lon="3.807775077636565"><ele>42.0</ele><time>2026-04-12T10:00:31.976Z</time></trkpt><trkpt lat="43.62159014342973" lon="3.8078699772806277"><ele>42.0</ele><time>2026-04-12T10:00:33.976Z</time></trkpt><trkpt lat="43.62157369105263" lon="3.807962559279048"><ele>42.0</ele><time>2026-04-12T10:00:35.976Z</time></trkpt><trkpt lat="43.62148678113645" lon="3.807965869558457"><ele>42.0</ele><time>2026-04-12T10:00:38.976Z</time></trkpt><trkpt lat="43.621489399044876" lon="3.80782782703871"><ele>42.0</ele><time>2026-04-12T10:00:41.976Z</time></trkpt><trkpt lat="43.62149091390544" lon="3.8077274611493293"><ele>42.0</ele><time>2026-04-12T10:00:43.975Z</time></trkpt><trkpt lat="43.62149518167397" lon="3.8076344229883032"><ele>42.0</ele><time>2026-04-12T10:00:45.975Z</time></trkpt><trkpt lat="43.62148923245675" lon="3.807546149023338"><ele>42.0</ele><time>2026-04-12T10:00:47.975Z</time></trkpt><trkpt lat="43.62146108834026" lon="3.8074559249934983"><ele>42.0</ele><time>2026-04-12T10:00:49.975Z</time></trkpt><trkpt lat="43.62142984498432" lon="3.807372811775176"><ele>42.0</ele><time>2026-04-12T10:00:51.975Z</time></trkpt><trkpt lat="43.62139407777334" lon="3.807267677551592"><ele>42.0</ele><time>2026-04-12T10:00:54.975Z</time></trkpt><trkpt lat="43.62136531693945" lon="3.807178383800372"><ele>42.0</ele><time>2026-04-12T10:00:56.977Z</time></trkpt><trkpt lat="43.62134223285793" lon="3.8070907307321113"><ele>42.0</ele><time>2026-04-12T10:00:58.976Z</time></trkpt><trkpt lat="43.621294803313056" lon="3.806978444433961"><ele>42.0</ele><time>2026-04-12T10:01:01.977Z</time></trkpt><trkpt lat="43.62124743786017" lon="3.806860506695654"><ele>42.0</ele><time>2026-04-12T10:01:04.977Z</time></trkpt><trkpt lat="43.62121484198467" lon="3.8067798121204452"><ele>42.0</ele><time>2026-04-12T10:01:06.976Z</time></trkpt><trkpt lat="43.621191856919864" lon="3.8066974779148004"><ele>42.0</ele><time>2026-04-12T10:01:08.977Z</time></trkpt><trkpt lat="43.62116033428822" lon="3.806597639036128"><ele>42.0</ele><time>2026-04-12T10:01:10.977Z</time></trkpt><trkpt lat="43.62109394500815" lon="3.80655379459287"><ele>42.0</ele><time>2026-04-12T10:01:12.977Z</time></trkpt><trkpt lat="43.621016478087235" lon="3.8066138137849825"><ele>42.833333333333336</ele><time>2026-04-12T10:01:14.977Z</time></trkpt><trkpt lat="43.620944494137056" lon="3.8066644338173314"><ele>43.666666666666664</ele><time>2026-04-12T10:01:16.977Z</time></trkpt><trkpt lat="43.62088435118335" lon="3.806713807387927"><ele>44.5</ele><time>2026-04-12T10:01:18.977Z</time></trkpt><trkpt lat="43.62082207620091" lon="3.8067604728036564"><ele>45.33333333333333</ele><time>2026-04-12T10:01:20.977Z</time></trkpt><trkpt lat="43.62075293864226" lon="3.806810623441844"><ele>46.166666666666664</ele><time>2026-04-12T10:01:22.977Z</time></trkpt><trkpt lat="43.62068557265295" lon="3.8068462082908017"><ele>47.0</ele><time>2026-04-12T10:01:24.977Z</time></trkpt><trkpt lat="43.620605508664724" lon="3.806891800949211"><ele>47.0</ele><time>2026-04-12T10:01:26.976Z</time></trkpt><trkpt lat="43.62053494402672" lon="3.8069344029904144"><ele>47.0</ele><time>2026-04-12T10:01:28.976Z</time></trkpt><trkpt lat="43.620459069688394" lon="3.8069863110717024"><ele>47.0</ele><time>2026-04-12T10:01:30.976Z</time></trkpt><trkpt lat="43.620392332181474" lon="3.807046422132431"><ele>47.0</ele><time>2026-04-12T10:01:32.976Z</time></trkpt><trkpt lat="43.62031555298936" lon="3.807088248017365"><ele>47.0</ele><time>2026-04-12T10:01:34.976Z</time></trkpt><trkpt lat="43.62025125317391" lon="3.807126390900293"><ele>47.0</ele><time>2026-04-12T10:01:36.976Z</time></trkpt><trkpt lat="43.620184116165824" lon="3.807169775489473"><ele>48.166666666666664</ele><time>2026-04-12T10:01:38.976Z</time></trkpt><trkpt lat="43.620115045457055" lon="3.8072090549195665"><ele>49.33333333333333</ele><time>2026-04-12T10:01:40.976Z</time></trkpt><trkpt lat="43.62003991606246" lon="3.807256767706526"><ele>50.5</ele><time>2026-04-12T10:01:42.976Z</time></trkpt><trkpt lat="43.619968606621626" lon="3.807302259485621"><ele>51.666666666666664</ele><time>2026-04-12T10:01:44.976Z</time></trkpt><trkpt lat="43.619907724619154" lon="3.807344822306862"><ele>52.833333333333336</ele><time>2026-04-12T10:01:46.976Z</time></trkpt><trkpt lat="43.61981995167104" lon="3.8073955956343046"><ele>54.0</ele><time>2026-04-12T10:01:49.976Z</time></trkpt><trkpt lat="43.61977260077715" lon="3.8073128246821044"><ele>54.0</ele><time>2026-04-12T10:01:51.976Z</time></trkpt><trkpt lat="43.61975941021187" lon="3.8072205731599102"><ele>54.0</ele><time>2026-04-12T10:01:53.976Z</time></trkpt><trkpt lat="43.619749127428676" lon="3.8071191053379043"><ele>54.0</ele><time>2026-04-12T10:01:55.976Z</time></trkpt><trkpt lat="43.61973975055988" lon="3.8070329582213294"><ele>54.0</ele><time>2026-04-12T10:01:57.976Z</time></trkpt><trkpt lat="43.61972638589675" lon="3.8069461561814797"><ele>54.0</ele><time>2026-04-12T10:01:59.976Z</time></trkpt><trkpt lat="43.61973332738464" lon="3.806855743887606"><ele>54.0</ele><time>2026-04-12T10:02:01.976Z</time></trkpt><trkpt lat="43.61970898561865" lon="3.806768909969143"><ele>54.0</ele><time>2026-04-12T10:02:03.976Z</time></trkpt><trkpt lat="43.61968334085492" lon="3.80668479280412"><ele>54.57142857142857</ele><time>2026-04-12T10:02:05.976Z</time></trkpt><trkpt lat="43.61966921102648" lon="3.8065802105478252"><ele>55.14285714285714</ele><time>2026-04-12T10:02:07.976Z</time></trkpt><trkpt lat="43.61963935690977" lon="3.806489741322493"><ele>55.71428571428572</ele><time>2026-04-12T10:02:09.976Z</time></trkpt><trkpt lat="43.619601365730595" lon="3.8064169816047513"><ele>56.28571428571429</ele><time>2026-04-12T10:02:11.976Z</time></trkpt><trkpt lat="43.61960759093605" lon="3.806511051687934"><ele>56.85714285714286</ele><time>2026-04-12T10:02:16.976Z</time></trkpt><trkpt lat="43.619619797538185" lon="3.80659806926722"><ele>57.42857142857144</ele><time>2026-04-12T10:02:18.976Z</time></trkpt><trkpt lat="43.619629753045174" lon="3.806697711523299"><ele>58.00000000000001</ele><time>2026-04-12T10:02:20.976Z</time></trkpt><trkpt lat="43.61963769973533" lon="3.806792224680403"><ele>57.42857142857144</ele><time>2026-04-12T10:02:22.976Z</time></trkpt><trkpt lat="43.61964968880342" lon="3.806884968263758"><ele>56.85714285714286</ele><time>2026-04-12T10:02:24.976Z</time></trkpt><trkpt lat="43.619635553900736" lon="3.8069825007957308"><ele>56.28571428571429</ele><time>2026-04-12T10:02:26.976Z</time></trkpt><trkpt lat="43.61960424021096" lon="3.8070583071356587"><ele>55.71428571428572</ele><time>2026-04-12T10:02:28.976Z</time></trkpt><trkpt lat="43.61957500116994" lon="3.807145727540996"><ele>55.14285714285714</ele><time>2026-04-12T10:02:30.976Z</time></trkpt><trkpt lat="43.61953132758149" lon="3.807221072395346"><ele>54.57142857142857</ele><time>2026-04-12T10:02:32.976Z</time></trkpt><trkpt lat="43.619487188495846" lon="3.8072980939458163"><ele>54.0</ele><time>2026-04-12T10:02:34.976Z</time></trkpt><trkpt lat="43.61946787605281" lon="3.8074130732927007"><ele>56.6</ele><time>2026-04-12T10:02:36.976Z</time></trkpt><trkpt lat="43.619433282774175" lon="3.807521377592038"><ele>59.2</ele><time>2026-04-12T10:02:38.976Z</time></trkpt><trkpt lat="43.619389345334554" lon="3.80763361663793"><ele>61.800000000000004</ele><time>2026-04-12T10:02:40.975Z</time></trkpt><trkpt lat="43.61935259871848" lon="3.8077546214539217"><ele>64.4</ele><time>2026-04-12T10:02:42.975Z</time></trkpt><trkpt lat="43.6193116282706" lon="3.8078763724089444"><ele>67.0</ele><time>2026-04-12T10:02:44.975Z</time></trkpt><trkpt lat="43.61928919473645" lon="3.808009848891299"><ele>67.0</ele><time>2026-04-12T10:02:46.975Z</time></trkpt><trkpt lat="43.61928909996871" lon="3.8081419221696393"><ele>67.0</ele><time>2026-04-12T10:02:48.975Z</time></trkpt><trkpt lat="43.6192983491909" lon="3.808285052285321"><ele>67.0</ele><time>2026-04-12T10:02:50.975Z</time></trkpt><trkpt lat="43.61930070935133" lon="3.8084428156297188"><ele>67.0</ele><time>2026-04-12T10:02:52.975Z</time></trkpt><trkpt lat="43.6193123817053" lon="3.808593450200903"><ele>67.0</ele><time>2026-04-12T10:02:54.975Z</time></trkpt><trkpt lat="43.61929724114791" lon="3.8087316957127353"><ele>66.83333333333333</ele><time>2026-04-12T10:02:56.975Z</time></trkpt><trkpt lat="43.61930364078295" lon="3.808861742927471"><ele>66.66666666666666</ele><time>2026-04-12T10:02:58.975Z</time></trkpt><trkpt lat="43.619303215340075" lon="3.8089842872218145"><ele>66.5</ele><time>2026-04-12T10:03:00.975Z</time></trkpt><trkpt lat="43.61930397778207" lon="3.8091269493733555"><ele>66.33333333333333</ele><time>2026-04-12T10:03:02.976Z</time></trkpt><trkpt lat="43.61930111662957" lon="3.809238837560747"><ele>66.16666666666667</ele><time>2026-04-12T10:03:04.977Z</time></trkpt><trkpt lat="43.61927698707345" lon="3.8093381642512743"><ele>66.0</ele><time>2026-04-12T10:03:06.977Z</time></trkpt><trkpt lat="43.61926016034457" lon="3.8094287738627473"><ele>66.0</ele><time>2026-04-12T10:03:08.976Z</time></trkpt><trkpt lat="43.61924660990384" lon="3.8095294213446786"><ele>66.0</ele><time>2026-04-12T10:03:10.976Z</time></trkpt><trkpt lat="43.61923226954499" lon="3.809648119147052"><ele>66.0</ele><time>2026-04-12T10:03:12.976Z</time></trkpt><trkpt lat="43.61921243328286" lon="3.80974201983"><ele>66.0</ele><time>2026-04-12T10:03:14.976Z</time></trkpt><trkpt lat="43.61919208623788" lon="3.809843012196543"><ele>66.0</ele><time>2026-04-12T10:03:16.976Z</time></trkpt><trkpt lat="43.61914907233415" lon="3.8099511186829593"><ele>66.0</ele><time>2026-04-12T10:03:18.976Z</time></trkpt><trkpt lat="43.619101273973776" lon="3.8100526923259914"><ele>66.0</ele><time>2026-04-12T10:03:20.976Z</time></trkpt><trkpt lat="43.61906105803958" lon="3.8101461725827055"><ele>66.0</ele><time>2026-04-12T10:03:22.976Z</time></trkpt><trkpt lat="43.618996975035316" lon="3.8101671519359046"><ele>66.0</ele><time>2026-04-12T10:03:24.976Z</time></trkpt><trkpt lat="43.61894045840212" lon="3.8101032121353873"><ele>66.0</ele><time>2026-04-12T10:03:26.976Z</time></trkpt><trkpt lat="43.618877814857264" lon="3.8100509709132746"><ele>66.0</ele><time>2026-04-12T10:03:28.976Z</time></trkpt><trkpt lat="43.61881952213752" lon="3.8100094957322224"><ele>66.0</ele><time>2026-04-12T10:03:30.976Z</time></trkpt><trkpt lat="43.618741316355845" lon="3.809988677197823"><ele>66.0</ele><time>2026-04-12T10:03:34.976Z</time></trkpt><trkpt lat="43.61869144238346" lon="3.8099226268328037"><ele>66.2</ele><time>2026-04-12T10:03:39.976Z</time></trkpt><trkpt lat="43.61859083101525" lon="3.809887957065476"><ele>66.39999999999999</ele><time>2026-04-12T10:03:42.976Z</time></trkpt><trkpt lat="43.61852001587149" lon="3.8097892000080327"><ele>66.6</ele><time>2026-04-12T10:03:44.976Z</time></trkpt><trkpt lat="43.61844526540182" lon="3.8096929537769815"><ele>66.8</ele><time>2026-04-12T10:03:46.976Z</time></trkpt><trkpt lat="43.618349342600965" lon="3.809605002495824"><ele>67.0</ele><time>2026-04-12T10:03:48.976Z</time></trkpt><trkpt lat="43.6182708556169" lon="3.809542361443462"><ele>67.0</ele><time>2026-04-12T10:03:50.976Z</time></trkpt><trkpt lat="43.61819327330241" lon="3.8096040656963726"><ele>67.0</ele><time>2026-04-12T10:03:52.976Z</time></trkpt><trkpt lat="43.61808901806687" lon="3.8096216889432495"><ele>67.0</ele><time>2026-04-12T10:03:54.976Z</time></trkpt><trkpt lat="43.61802921257866" lon="3.809742370663882"><ele>67.0</ele><time>2026-04-12T10:03:56.976Z</time></trkpt><trkpt lat="43.61794779696123" lon="3.809848952203794"><ele>67.0</ele><time>2026-04-12T10:03:58.976Z</time></trkpt><trkpt lat="43.61787874621167" lon="3.809936815263226"><ele>65.8</ele><time>2026-04-12T10:04:00.976Z</time></trkpt><trkpt lat="43.61779311760394" lon="3.8100120581208334"><ele>64.6</ele><time>2026-04-12T10:04:02.976Z</time></trkpt><trkpt lat="43.617731633960325" lon="3.8101017356936544"><ele>63.39999999999999</ele><time>2026-04-12T10:04:04.976Z</time></trkpt><trkpt lat="43.61769082427556" lon="3.8102368044442176"><ele>62.199999999999996</ele><time>2026-04-12T10:04:06.976Z</time></trkpt><trkpt lat="43.6176464985505" lon="3.8103893095924546"><ele>61.0</ele><time>2026-04-12T10:04:08.976Z</time></trkpt><trkpt lat="43.617655816206835" lon="3.8105438609109874"><ele>60.99999999999999</ele><time>2026-04-12T10:04:10.976Z</time></trkpt><trkpt lat="43.61768711293859" lon="3.8106885834308972"><ele>61.0</ele><time>2026-04-12T10:04:12.976Z</time></trkpt><trkpt lat="43.61769001468949" lon="3.8108247451460135"><ele>61.0</ele><time>2026-04-12T10:04:14.976Z</time></trkpt><trkpt lat="43.61763845039588" lon="3.810943240274222"><ele>61.0</ele><time>2026-04-12T10:04:16.976Z</time></trkpt><trkpt lat="43.61760464498459" lon="3.8110206477862247"><ele>60.99999999999999</ele><time>2026-04-12T10:04:17.976Z</time></trkpt><trkpt lat="43.61756799117814" lon="3.811099261237871"><ele>61.0</ele><time>2026-04-12T10:04:18.976Z</time></trkpt><trkpt lat="43.61753027860636" lon="3.811173663729875"><ele>60.8</ele><time>2026-04-12T10:04:19.976Z</time></trkpt><trkpt lat="43.61749138114712" lon="3.8112592725797"><ele>60.599999999999994</ele><time>2026-04-12T10:04:20.976Z</time></trkpt><trkpt lat="43.61745952011126" lon="3.8113353011178637"><ele>60.4</ele><time>2026-04-12T10:04:21.976Z</time></trkpt><trkpt lat="43.61740629426926" lon="3.811482283270172"><ele>60.2</ele><time>2026-04-12T10:04:23.976Z</time></trkpt><trkpt lat="43.61728229398358" lon="3.8115877915837366"><ele>60.0</ele><time>2026-04-12T10:04:25.976Z</time></trkpt><trkpt lat="43.61731242353054" lon="3.811716339906717"><ele>59.8</ele><time>2026-04-12T10:04:26.976Z</time></trkpt><trkpt lat="43.61725044043953" lon="3.811865630869049"><ele>59.6</ele><time>2026-04-12T10:04:28.975Z</time></trkpt><trkpt lat="43.61720066867416" lon="3.8120112603956566"><ele>59.400000000000006</ele><time>2026-04-12T10:04:30.975Z</time></trkpt><trkpt lat="43.61715047049146" lon="3.8121762488581212"><ele>59.2</ele><time>2026-04-12T10:04:32.975Z</time></trkpt><trkpt lat="43.61711341213088" lon="3.812259374035391"><ele>59.0</ele><time>2026-04-12T10:04:33.975Z</time></trkpt><trkpt lat="43.61703408052509" lon="3.8124049039955"><ele>59.00000000000001</ele><time>2026-04-12T10:04:35.975Z</time></trkpt><trkpt lat="43.616998442190734" lon="3.8124888314834866"><ele>59.0</ele><time>2026-04-12T10:04:36.975Z</time></trkpt><trkpt lat="43.61693279189844" lon="3.8126314402341444"><ele>59.0</ele><time>2026-04-12T10:04:38.975Z</time></trkpt><trkpt lat="43.61690540162824" lon="3.8127140020714125"><ele>59.0</ele><time>2026-04-12T10:04:39.975Z</time></trkpt><trkpt lat="43.61688171874119" lon="3.812802223637438"><ele>59.00000000000001</ele><time>2026-04-12T10:04:40.975Z</time></trkpt><trkpt lat="43.616809637635335" lon="3.8129254784035993"><ele>59.0</ele><time>2026-04-12T10:04:42.975Z</time></trkpt><trkpt lat="43.616743124522856" lon="3.8130690302450874"><ele>57.800000000000004</ele><time>2026-04-12T10:04:44.975Z</time></trkpt><trkpt lat="43.61661553630484" lon="3.813162656276161"><ele>56.60000000000001</ele><time>2026-04-12T10:04:46.975Z</time></trkpt><trkpt lat="43.61664478164038" lon="3.813290366641997"><ele>55.4</ele><time>2026-04-12T10:04:47.975Z</time></trkpt><trkpt lat="43.61660744781985" lon="3.8133676619065753"><ele>54.2</ele><time>2026-04-12T10:04:48.975Z</time></trkpt><trkpt lat="43.616572522931435" lon="3.813446068232852"><ele>53.0</ele><time>2026-04-12T10:04:49.975Z</time></trkpt><trkpt lat="43.61651272753116" lon="3.8135987712173742"><ele>53.0</ele><time>2026-04-12T10:04:51.975Z</time></trkpt><trkpt lat="43.616443101667535" lon="3.8137398691883244"><ele>53.0</ele><time>2026-04-12T10:04:53.975Z</time></trkpt><trkpt lat="43.61636963840405" lon="3.8138924475264075"><ele>53.0</ele><time>2026-04-12T10:04:55.975Z</time></trkpt><trkpt lat="43.61633665993337" lon="3.8139858454653086"><ele>53.0</ele><time>2026-04-12T10:04:56.975Z</time></trkpt><trkpt lat="43.61630515564948" lon="3.8140646706876353"><ele>53.0</ele><time>2026-04-12T10:04:57.975Z</time></trkpt><trkpt lat="43.61625531153587" lon="3.814145020415698"><ele>53.00000000000001</ele><time>2026-04-12T10:04:58.975Z</time></trkpt><trkpt lat="43.616205206014975" lon="3.8142261757982303"><ele>53.0</ele><time>2026-04-12T10:04:59.975Z</time></trkpt><trkpt lat="43.6161460631212" lon="3.8143015924961734"><ele>53.0</ele><time>2026-04-12T10:05:00.975Z</time></trkpt><trkpt lat="43.61604178744466" lon="3.814210899767411"><ele>53.0</ele><time>2026-04-12T10:05:01.975Z</time></trkpt><trkpt lat="43.615978162392864" lon="3.8142201435632166"><ele>53.00000000000001</ele><time>2026-04-12T10:05:02.975Z</time></trkpt><trkpt lat="43.61590250869336" lon="3.8142391428790177"><ele>53.0</ele><time>2026-04-12T10:05:03.975Z</time></trkpt><trkpt lat="43.61582085839443" lon="3.814264001497228"><ele>52.4</ele><time>2026-04-12T10:05:04.975Z</time></trkpt><trkpt lat="43.615770885576076" lon="3.8144726261292075"><ele>51.8</ele><time>2026-04-12T10:05:05.975Z</time></trkpt><trkpt lat="43.61569058194389" lon="3.814499410076883"><ele>51.2</ele><time>2026-04-12T10:05:06.975Z</time></trkpt><trkpt lat="43.615610846830265" lon="3.8145318641682002"><ele>50.6</ele><time>2026-04-12T10:05:07.976Z</time></trkpt><trkpt lat="43.615521540061415" lon="3.8145719408309353"><ele>50.0</ele><time>2026-04-12T10:05:08.976Z</time></trkpt><trkpt lat="43.61544039946313" lon="3.814617960806092"><ele>50.00000000000001</ele><time>2026-04-12T10:05:09.976Z</time></trkpt><trkpt lat="43.61536615599054" lon="3.814674850244791"><ele>50.0</ele><time>2026-04-12T10:05:10.976Z</time></trkpt><trkpt lat="43.61528889729187" lon="3.814735612257399"><ele>50.0</ele><time>2026-04-12T10:05:11.976Z</time></trkpt><trkpt lat="43.615210654422" lon="3.8148103598365517"><ele>50.0</ele><time>2026-04-12T10:05:12.976Z</time></trkpt><trkpt lat="43.61513685023714" lon="3.814878407009561"><ele>50.00000000000001</ele><time>2026-04-12T10:05:13.976Z</time></trkpt><trkpt lat="43.615071839574995" lon="3.8149612772201125"><ele>50.0</ele><time>2026-04-12T10:05:14.976Z</time></trkpt><trkpt lat="43.6150260550432" lon="3.8150472097952703"><ele>50.00000000000001</ele><time>2026-04-12T10:05:15.976Z</time></trkpt><trkpt lat="43.61498814131849" lon="3.815130811729308"><ele>50.0</ele><time>2026-04-12T10:05:16.976Z</time></trkpt><trkpt lat="43.61496044618861" lon="3.8152676100732825"><ele>50.0</ele><time>2026-04-12T10:05:18.976Z</time></trkpt><trkpt lat="43.614885018178384" lon="3.8152822352582945"><ele>50.0</ele><time>2026-04-12T10:05:20.976Z</time></trkpt><trkpt lat="43.614823384875784" lon="3.815194621341246"><ele>50.00000000000001</ele><time>2026-04-12T10:05:22.976Z</time></trkpt><trkpt lat="43.6147510914637" lon="3.8151742400946347"><ele>50.0</ele><time>2026-04-12T10:05:24.976Z</time></trkpt><trkpt lat="43.614682085784466" lon="3.8152744024082557"><ele>48.8</ele><time>2026-04-12T10:05:26.976Z</time></trkpt><trkpt lat="43.6146510929513" lon="3.8153885112103136"><ele>47.6</ele><time>2026-04-12T10:05:28.976Z</time></trkpt><trkpt lat="43.61464403555448" lon="3.8155118327570885"><ele>46.400000000000006</ele><time>2026-04-12T10:05:30.976Z</time></trkpt><trkpt lat="43.614635044269626" lon="3.8156713186270035"><ele>45.2</ele><time>2026-04-12T10:05:32.976Z</time></trkpt><trkpt lat="43.6146194026653" lon="3.815853177823719"><ele>44.0</ele><time>2026-04-12T10:05:34.976Z</time></trkpt><trkpt lat="43.614619287225835" lon="3.815949530223154"><ele>42.83333333333333</ele><time>2026-04-12T10:05:35.976Z</time></trkpt><trkpt lat="43.61459841147655" lon="3.8160456802164715"><ele>41.666666666666664</ele><time>2026-04-12T10:05:36.976Z</time></trkpt><trkpt lat="43.61457930559315" lon="3.816148677380698"><ele>40.5</ele><time>2026-04-12T10:05:37.976Z</time></trkpt><trkpt lat="43.61456925916748" lon="3.8162592888914872"><ele>39.333333333333336</ele><time>2026-04-12T10:05:38.976Z</time></trkpt><trkpt lat="43.614564603387116" lon="3.8163744636588977"><ele>38.16666666666667</ele><time>2026-04-12T10:05:39.976Z</time></trkpt><trkpt lat="43.61456117131528" lon="3.8164692745435076"><ele>37.0</ele><time>2026-04-12T10:05:40.976Z</time></trkpt><trkpt lat="43.6145687529714" lon="3.816585672948322"><ele>37.0</ele><time>2026-04-12T10:05:41.976Z</time></trkpt><trkpt lat="43.614579835239034" lon="3.8166991842072115"><ele>37.0</ele><time>2026-04-12T10:05:42.976Z</time></trkpt><trkpt lat="43.61452090396174" lon="3.816827720610944"><ele>37.0</ele><time>2026-04-12T10:05:43.976Z</time></trkpt><trkpt lat="43.61453708445735" lon="3.816943315207208"><ele>37.0</ele><time>2026-04-12T10:05:45.976Z</time></trkpt><trkpt lat="43.614377186434446" lon="3.8168393167379557"><ele>36.833333333333336</ele><time>2026-04-12T10:05:47.976Z</time></trkpt><trkpt lat="43.61430584684841" lon="3.8168591070214255"><ele>36.66666666666667</ele><time>2026-04-12T10:05:48.976Z</time></trkpt><trkpt lat="43.614204150303934" lon="3.8168914299271655"><ele>36.5</ele><time>2026-04-12T10:05:50.976Z</time></trkpt><trkpt lat="43.61418361864401" lon="3.816973645338659"><ele>36.333333333333336</ele><time>2026-04-12T10:05:51.976Z</time></trkpt><trkpt lat="43.61416929995227" lon="3.8170678483618046"><ele>36.166666666666664</ele><time>2026-04-12T10:05:53.976Z</time></trkpt><trkpt lat="43.614140161474296" lon="3.8171953553376206"><ele>36.0</ele><time>2026-04-12T10:05:56.976Z</time></trkpt><trkpt lat="43.61408722812485" lon="3.8172777273926357"><ele>36.0</ele><time>2026-04-12T10:05:58.976Z</time></trkpt><trkpt lat="43.614030571008634" lon="3.817336788468894"><ele>36.0</ele><time>2026-04-12T10:06:00.976Z</time></trkpt><trkpt lat="43.61396691648854" lon="3.81740516550938"><ele>36.0</ele><time>2026-04-12T10:06:02.976Z</time></trkpt><trkpt lat="43.613882109907856" lon="3.8174597408452806"><ele>36.0</ele><time>2026-04-12T10:06:04.976Z</time></trkpt><trkpt lat="43.613810471434455" lon="3.8175221935862185"><ele>36.0</ele><time>2026-04-12T10:06:06.976Z</time></trkpt><trkpt lat="43.613697567137955" lon="3.8175994566886975"><ele>36.0</ele><time>2026-04-12T10:06:09.975Z</time></trkpt><trkpt lat="43.61363217228171" lon="3.817617197759506"><ele>36.0</ele><time>2026-04-12T10:06:11.975Z</time></trkpt><trkpt lat="43.61353941807938" lon="3.817639176198646"><ele>36.0</ele><time>2026-04-12T10:06:13.975Z</time></trkpt><trkpt lat="43.613424443150954" lon="3.817643633050769"><ele>36.0</ele><time>2026-04-12T10:06:15.975Z</time></trkpt><trkpt lat="43.61332646517661" lon="3.817666318697237"><ele>36.0</ele><time>2026-04-12T10:06:17.975Z</time></trkpt><trkpt lat="43.61321831543348" lon="3.817649731815935"><ele>36.4</ele><time>2026-04-12T10:06:19.975Z</time></trkpt><trkpt lat="43.61311857198509" lon="3.8176335469075022"><ele>36.8</ele><time>2026-04-12T10:06:21.975Z</time></trkpt><trkpt lat="43.61302921692545" lon="3.8176362377217754"><ele>37.199999999999996</ele><time>2026-04-12T10:06:23.975Z</time></trkpt><trkpt lat="43.61292029456325" lon="3.8176421392203466"><ele>37.6</ele><time>2026-04-12T10:06:25.975Z</time></trkpt><trkpt lat="43.61280427002827" lon="3.8176449443922253"><ele>38.0</ele><time>2026-04-12T10:06:27.975Z</time></trkpt><trkpt lat="43.61270820515912" lon="3.8176623145106476"><ele>37.199999999999996</ele><time>2026-04-12T10:06:29.975Z</time></trkpt><trkpt lat="43.612604086086215" lon="3.8177073314009227"><ele>36.4</ele><time>2026-04-12T10:06:31.975Z</time></trkpt><trkpt lat="43.612505331162325" lon="3.817781320413427"><ele>35.599999999999994</ele><time>2026-04-12T10:06:33.975Z</time></trkpt><trkpt lat="43.61240009420257" lon="3.8178611635235815"><ele>34.8</ele><time>2026-04-12T10:06:35.975Z</time></trkpt><trkpt lat="43.6123414677266" lon="3.8178953169670313"><ele>34.0</ele><time>2026-04-12T10:06:36.975Z</time></trkpt><trkpt lat="43.6122294277117" lon="3.817961902631976"><ele>34.0</ele><time>2026-04-12T10:06:38.975Z</time></trkpt><trkpt lat="43.612124009417904" lon="3.818019356511401"><ele>34.0</ele><time>2026-04-12T10:06:40.975Z</time></trkpt><trkpt lat="43.61206478535662" lon="3.818062114826302"><ele>34.0</ele><time>2026-04-12T10:06:41.975Z</time></trkpt><trkpt lat="43.61201034885862" lon="3.818106540227185"><ele>34.0</ele><time>2026-04-12T10:06:42.975Z</time></trkpt><trkpt lat="43.61195448413021" lon="3.8181500324352573"><ele>34.0</ele><time>2026-04-12T10:06:43.975Z</time></trkpt><trkpt lat="43.611898081426396" lon="3.818197394702876"><ele>34.0</ele><time>2026-04-12T10:06:44.975Z</time></trkpt><trkpt lat="43.61178475188389" lon="3.818280862574418"><ele>33.8</ele><time>2026-04-12T10:06:46.975Z</time></trkpt><trkpt lat="43.611692140083605" lon="3.8183521754271275"><ele>33.599999999999994</ele><time>2026-04-12T10:06:48.975Z</time></trkpt><trkpt lat="43.61158515077773" lon="3.818419851149666"><ele>33.4</ele><time>2026-04-12T10:06:50.975Z</time></trkpt><trkpt lat="43.61148055077402" lon="3.8184815333244764"><ele>33.199999999999996</ele><time>2026-04-12T10:06:52.975Z</time></trkpt><trkpt lat="43.611383289757676" lon="3.8185495027186875"><ele>33.0</ele><time>2026-04-12T10:06:54.975Z</time></trkpt><trkpt lat="43.61129730443582" lon="3.818632510711142"><ele>33.0</ele><time>2026-04-12T10:06:56.975Z</time></trkpt><trkpt lat="43.611207562810904" lon="3.8186917980325497"><ele>33.0</ele><time>2026-04-12T10:06:58.975Z</time></trkpt><trkpt lat="43.611107006504135" lon="3.818726523910466"><ele>33.0</ele><time>2026-04-12T10:07:00.975Z</time></trkpt><trkpt lat="43.61099858324717" lon="3.8187485320970205"><ele>33.0</ele><time>2026-04-12T10:07:02.975Z</time></trkpt><trkpt lat="43.61090101378106" lon="3.8188142551065316"><ele>33.0</ele><time>2026-04-12T10:07:04.975Z</time></trkpt><trkpt lat="43.610799818435154" lon="3.8188619280904863"><ele>33.0</ele><time>2026-04-12T10:07:06.975Z</time></trkpt><trkpt lat="43.610688856697585" lon="3.8188996343539534"><ele>33.0</ele><time>2026-04-12T10:07:08.975Z</time></trkpt><trkpt lat="43.610582254774364" lon="3.818935300667422"><ele>33.0</ele><time>2026-04-12T10:07:10.975Z</time></trkpt><trkpt lat="43.610479438781226" lon="3.818979482989682"><ele>33.0</ele><time>2026-04-12T10:07:12.975Z</time></trkpt><trkpt lat="43.61037877565186" lon="3.819013843374672"><ele>33.0</ele><time>2026-04-12T10:07:14.975Z</time></trkpt><trkpt lat="43.61028462692878" lon="3.8190580077721736"><ele>33.4</ele><time>2026-04-12T10:07:16.975Z</time></trkpt><trkpt lat="43.61020150297635" lon="3.819101993633839"><ele>33.8</ele><time>2026-04-12T10:07:18.975Z</time></trkpt><trkpt lat="43.61011185076354" lon="3.8191853304705887"><ele>34.2</ele><time>2026-04-12T10:07:20.976Z</time></trkpt><trkpt lat="43.610028176029694" lon="3.819246936863844"><ele>34.6</ele><time>2026-04-12T10:07:22.975Z</time></trkpt><trkpt lat="43.60994420112064" lon="3.8192889524794236"><ele>35.0</ele><time>2026-04-12T10:07:24.976Z</time></trkpt><trkpt lat="43.609874610151365" lon="3.819314455721073"><ele>34.83333333333333</ele><time>2026-04-12T10:07:26.975Z</time></trkpt><trkpt lat="43.609806004312574" lon="3.8193340633386104"><ele>34.666666666666664</ele><time>2026-04-12T10:07:28.975Z</time></trkpt><trkpt lat="43.609742275947454" lon="3.819344069868413"><ele>34.5</ele><time>2026-04-12T10:07:30.975Z</time></trkpt><trkpt lat="43.60966247710856" lon="3.819354636832193"><ele>34.333333333333336</ele><time>2026-04-12T10:07:32.975Z</time></trkpt><trkpt lat="43.609574686528866" lon="3.8193789728078684"><ele>34.16666666666667</ele><time>2026-04-12T10:07:34.975Z</time></trkpt><trkpt lat="43.60949572455631" lon="3.819371654319247"><ele>34.0</ele><time>2026-04-12T10:07:36.975Z</time></trkpt><trkpt lat="43.60940768992487" lon="3.8193625255054333"><ele>34.0</ele><time>2026-04-12T10:07:38.975Z</time></trkpt><trkpt lat="43.6093040502732" lon="3.8193587018985706"><ele>34.0</ele><time>2026-04-12T10:07:40.975Z</time></trkpt><trkpt lat="43.6092028348939" lon="3.819375272215155"><ele>34.0</ele><time>2026-04-12T10:07:42.975Z</time></trkpt><trkpt lat="43.60909730367742" lon="3.8193902376442757"><ele>34.0</ele><time>2026-04-12T10:07:44.975Z</time></trkpt><trkpt lat="43.608997211598606" lon="3.819436921275756"><ele>34.0</ele><time>2026-04-12T10:07:46.975Z</time></trkpt><trkpt lat="43.608889422049636" lon="3.8194751695177254"><ele>34.0</ele><time>2026-04-12T10:07:48.975Z</time></trkpt><trkpt lat="43.608826671298196" lon="3.8194921424761703"><ele>34.0</ele><time>2026-04-12T10:07:49.975Z</time></trkpt><trkpt lat="43.608728660210815" lon="3.8195164427175388"><ele>34.0</ele><time>2026-04-12T10:07:51.975Z</time></trkpt><trkpt lat="43.60862703089611" lon="3.8195367675539984"><ele>34.0</ele><time>2026-04-12T10:07:53.975Z</time></trkpt><trkpt lat="43.60851262440358" lon="3.8195464514101034"><ele>34.0</ele><time>2026-04-12T10:07:55.975Z</time></trkpt><trkpt lat="43.60839363933624" lon="3.8195560370708"><ele>34.75</ele><time>2026-04-12T10:07:57.975Z</time></trkpt><trkpt lat="43.608273318808756" lon="3.8195419786757387"><ele>35.5</ele><time>2026-04-12T10:07:59.975Z</time></trkpt><trkpt lat="43.608153950036225" lon="3.819526984698243"><ele>36.25</ele><time>2026-04-12T10:08:01.975Z</time></trkpt><trkpt lat="43.60805184811961" lon="3.8194894829330477"><ele>37.0</ele><time>2026-04-12T10:08:03.975Z</time></trkpt><trkpt lat="43.60793729357149" lon="3.8194434038643577"><ele>37.0</ele><time>2026-04-12T10:08:05.975Z</time></trkpt><trkpt lat="43.60783014221532" lon="3.819382576420012"><ele>37.0</ele><time>2026-04-12T10:08:07.975Z</time></trkpt><trkpt lat="43.6077354207937" lon="3.8192717309767645"><ele>37.0</ele><time>2026-04-12T10:08:09.975Z</time></trkpt><trkpt lat="43.607677763040726" lon="3.8192083544000757"><ele>37.0</ele><time>2026-04-12T10:08:10.975Z</time></trkpt><trkpt lat="43.60757833698561" lon="3.8191236246473323"><ele>37.0</ele><time>2026-04-12T10:08:12.975Z</time></trkpt><trkpt lat="43.607474777783864" lon="3.8191371171007673"><ele>36.16666666666667</ele><time>2026-04-12T10:08:14.975Z</time></trkpt><trkpt lat="43.60740349822317" lon="3.8191296121001543"><ele>35.333333333333336</ele><time>2026-04-12T10:08:16.975Z</time></trkpt><trkpt lat="43.60733156951738" lon="3.8190469649631553"><ele>34.5</ele><time>2026-04-12T10:08:19.975Z</time></trkpt><trkpt lat="43.60731392827151" lon="3.8188969559703865"><ele>33.666666666666664</ele><time>2026-04-12T10:08:21.975Z</time></trkpt><trkpt lat="43.607293840231996" lon="3.8188047902464706"><ele>32.83333333333333</ele><time>2026-04-12T10:08:22.975Z</time></trkpt><trkpt lat="43.60727056938815" lon="3.8187190638225244"><ele>32.0</ele><time>2026-04-12T10:08:23.975Z</time></trkpt><trkpt lat="43.607232812713576" lon="3.818639947957785"><ele>32.0</ele><time>2026-04-12T10:08:24.975Z</time></trkpt><trkpt lat="43.60719360620417" lon="3.818570566806373"><ele>32.0</ele><time>2026-04-12T10:08:25.975Z</time></trkpt><trkpt lat="43.60711593084643" lon="3.8184486005920837"><ele>32.0</ele><time>2026-04-12T10:08:27.975Z</time></trkpt><trkpt lat="43.607050688489366" lon="3.818333151340551"><ele>32.0</ele><time>2026-04-12T10:08:29.975Z</time></trkpt><trkpt lat="43.607004565478356" lon="3.8182185511587763"><ele>32.0</ele><time>2026-04-12T10:08:31.975Z</time></trkpt><trkpt lat="43.60695249057354" lon="3.818116779882318"><ele>32.14285714285714</ele><time>2026-04-12T10:08:33.975Z</time></trkpt><trkpt lat="43.60692591384838" lon="3.818005169013568"><ele>32.285714285714285</ele><time>2026-04-12T10:08:35.975Z</time></trkpt><trkpt lat="43.606901073332345" lon="3.817908036194542"><ele>32.42857142857143</ele><time>2026-04-12T10:08:37.974Z</time></trkpt><trkpt lat="43.60683709492409" lon="3.817866797347818"><ele>32.57142857142857</ele><time>2026-04-12T10:08:39.974Z</time></trkpt><trkpt lat="43.606780707160446" lon="3.817807110367269"><ele>32.714285714285715</ele><time>2026-04-12T10:08:43.974Z</time></trkpt><trkpt lat="43.60678772368704" lon="3.817906907906447"><ele>32.857142857142854</ele><time>2026-04-12T10:09:04.974Z</time></trkpt><trkpt lat="43.60672724160201" lon="3.8179389949527143"><ele>33.0</ele><time>2026-04-12T10:09:15.974Z</time></trkpt><trkpt lat="43.60662431446092" lon="3.818059488165485"><ele>33.0</ele><time>2026-04-12T10:09:18.974Z</time></trkpt><trkpt lat="43.60653406366184" lon="3.818188446889536"><ele>33.0</ele><time>2026-04-12T10:09:20.975Z</time></trkpt><trkpt lat="43.606462164280494" lon="3.818286390836927"><ele>33.0</ele><time>2026-04-12T10:09:21.975Z</time></trkpt><trkpt lat="43.60641204811083" lon="3.8184069549299067"><ele>33.0</ele><time>2026-04-12T10:09:22.974Z</time></trkpt><trkpt lat="43.60641173348917" lon="3.818535058104971"><ele>33.0</ele><time>2026-04-12T10:09:24.975Z</time></trkpt><trkpt lat="43.606262868210024" lon="3.8185304064776444"><ele>33.0</ele><time>2026-04-12T10:09:42.975Z</time></trkpt><trkpt lat="43.6062071350265" lon="3.818484066968249"><ele>33.0</ele><time>2026-04-12T10:09:44.975Z</time></trkpt><trkpt lat="43.60615506391366" lon="3.8184162249217555"><ele>33.0</ele><time>2026-04-12T10:09:46.975Z</time></trkpt><trkpt lat="43.6060814992547" lon="3.818334103355607"><ele>33.0</ele><time>2026-04-12T10:09:48.975Z</time></trkpt><trkpt lat="43.60599819720474" lon="3.818253347679454"><ele>33.0</ele><time>2026-04-12T10:09:50.975Z</time></trkpt><trkpt lat="43.60591225372788" lon="3.8181637261348373"><ele>33.0</ele><time>2026-04-12T10:09:52.975Z</time></trkpt><trkpt lat="43.60581100914188" lon="3.8180848043342435"><ele>32.199999999999996</ele><time>2026-04-12T10:09:54.975Z</time></trkpt><trkpt lat="43.60572325192069" lon="3.817985193902801"><ele>31.4</ele><time>2026-04-12T10:09:56.975Z</time></trkpt><trkpt lat="43.60563634613401" lon="3.8178891892205225"><ele>30.599999999999998</ele><time>2026-04-12T10:09:58.974Z</time></trkpt><trkpt lat="43.60555579410764" lon="3.817796667434591"><ele>29.799999999999997</ele><time>2026-04-12T10:10:00.974Z</time></trkpt><trkpt lat="43.60546699333733" lon="3.817698923768945"><ele>29.0</ele><time>2026-04-12T10:10:02.974Z</time></trkpt><trkpt lat="43.60537571419755" lon="3.8175922089082106"><ele>28.799999999999997</ele><time>2026-04-12T10:10:04.974Z</time></trkpt><trkpt lat="43.60532772890543" lon="3.8175317161305595"><ele>28.599999999999998</ele><time>2026-04-12T10:10:05.974Z</time></trkpt><trkpt lat="43.605237875337075" lon="3.8174206596919245"><ele>28.4</ele><time>2026-04-12T10:10:07.974Z</time></trkpt><trkpt lat="43.60515604033025" lon="3.817318316313795"><ele>28.2</ele><time>2026-04-12T10:10:09.974Z</time></trkpt><trkpt lat="43.60507534901514" lon="3.8172270614256143"><ele>28.0</ele><time>2026-04-12T10:10:11.974Z</time></trkpt><trkpt lat="43.6049778402943" lon="3.8171174158425685"><ele>28.000000000000004</ele><time>2026-04-12T10:10:13.974Z</time></trkpt><trkpt lat="43.60492891925093" lon="3.817056224201966"><ele>28.0</ele><time>2026-04-12T10:10:14.974Z</time></trkpt><trkpt lat="43.60488023647353" lon="3.8170002281030078"><ele>28.0</ele><time>2026-04-12T10:10:15.974Z</time></trkpt><trkpt lat="43.60483052949944" lon="3.816940466727552"><ele>28.0</ele><time>2026-04-12T10:10:16.974Z</time></trkpt><trkpt lat="43.6047758270089" lon="3.8168801816003017"><ele>28.000000000000004</ele><time>2026-04-12T10:10:17.974Z</time></trkpt><trkpt lat="43.60472314180901" lon="3.816821483027871"><ele>28.0</ele><time>2026-04-12T10:10:18.974Z</time></trkpt><trkpt lat="43.604626544321334" lon="3.816707553034929"><ele>28.0</ele><time>2026-04-12T10:10:20.974Z</time></trkpt><trkpt lat="43.60453561164555" lon="3.816592398291065"><ele>28.0</ele><time>2026-04-12T10:10:22.974Z</time></trkpt><trkpt lat="43.60443676165361" lon="3.816503739529831"><ele>28.0</ele><time>2026-04-12T10:10:24.974Z</time></trkpt><trkpt lat="43.60433929544136" lon="3.8164397177982012"><ele>28.0</ele><time>2026-04-12T10:10:26.974Z</time></trkpt><trkpt lat="43.60424863289061" lon="3.8163659058843273"><ele>28.0</ele><time>2026-04-12T10:10:28.974Z</time></trkpt><trkpt lat="43.60423604026297" lon="3.8162142862077175"><ele>27.999999999999996</ele><time>2026-04-12T10:10:30.974Z</time></trkpt><trkpt lat="43.6043037612217" lon="3.8160982283072094"><ele>27.999999999999996</ele><time>2026-04-12T10:10:32.974Z</time></trkpt><trkpt lat="43.604375013941514" lon="3.8160046367732017"><ele>28.0</ele><time>2026-04-12T10:10:34.974Z</time></trkpt><trkpt lat="43.604414818879285" lon="3.815868984058652"><ele>28.0</ele><time>2026-04-12T10:10:36.974Z</time></trkpt><trkpt lat="43.604446786768115" lon="3.8157873792345796"><ele>28.0</ele><time>2026-04-12T10:10:38.974Z</time></trkpt><trkpt lat="43.60447898353124" lon="3.8156997229941583"><ele>28.0</ele><time>2026-04-12T10:10:40.974Z</time></trkpt><trkpt lat="43.604510852759674" lon="3.8156113770505367"><ele>28.0</ele><time>2026-04-12T10:10:42.974Z</time></trkpt><trkpt lat="43.60455924917241" lon="3.815538569698134"><ele>28.0</ele><time>2026-04-12T10:10:44.974Z</time></trkpt><trkpt lat="43.604596860045916" lon="3.8154493883169254"><ele>28.0</ele><time>2026-04-12T10:10:47.974Z</time></trkpt><trkpt lat="43.60465274962968" lon="3.815397432012519"><ele>28.0</ele><time>2026-04-12T10:12:38.977Z</time></trkpt><trkpt lat="43.60470999070229" lon="3.8153196184588665"><ele>28.0</ele><time>2026-04-12T10:12:41.977Z</time></trkpt><trkpt lat="43.60476926184304" lon="3.815230710678479"><ele>28.166666666666668</ele><time>2026-04-12T10:12:44.978Z</time></trkpt><trkpt lat="43.60482912460409" lon="3.8151224474535836"><ele>28.333333333333336</ele><time>2026-04-12T10:12:47.978Z</time></trkpt><trkpt lat="43.604878918322036" lon="3.8150478841809132"><ele>28.5</ele><time>2026-04-12T10:12:49.978Z</time></trkpt><trkpt lat="43.60493558145235" lon="3.8149848220399036"><ele>28.666666666666664</ele><time>2026-04-12T10:12:51.978Z</time></trkpt><trkpt lat="43.60499457763955" lon="3.814923058643019"><ele>28.833333333333332</ele><time>2026-04-12T10:12:53.978Z</time></trkpt><trkpt lat="43.60503506878636" lon="3.8148544720435495"><ele>29.0</ele><time>2026-04-12T10:12:55.978Z</time></trkpt><trkpt lat="43.60504482742615" lon="3.814751608530654"><ele>29.0</ele><time>2026-04-12T10:12:57.978Z</time></trkpt><trkpt lat="43.60500682194569" lon="3.814644153171706"><ele>29.0</ele><time>2026-04-12T10:12:59.978Z</time></trkpt><trkpt lat="43.60495495289824" lon="3.8145370389060305"><ele>29.0</ele><time>2026-04-12T10:13:01.978Z</time></trkpt><trkpt lat="43.60489833684136" lon="3.814423038750164"><ele>29.0</ele><time>2026-04-12T10:13:03.978Z</time></trkpt><trkpt lat="43.60482802135602" lon="3.814320776962709"><ele>29.0</ele><time>2026-04-12T10:13:05.978Z</time></trkpt><trkpt lat="43.60477293139961" lon="3.8142129837986154"><ele>29.499999999999996</ele><time>2026-04-12T10:13:07.979Z</time></trkpt><trkpt lat="43.6047138662193" lon="3.814113649311169"><ele>30.0</ele><time>2026-04-12T10:13:09.979Z</time></trkpt><trkpt lat="43.6046706603905" lon="3.8139965659690516"><ele>30.5</ele><time>2026-04-12T10:13:11.979Z</time></trkpt><trkpt lat="43.60462857632472" lon="3.813900217484341"><ele>31.0</ele><time>2026-04-12T10:13:13.979Z</time></trkpt><trkpt lat="43.60458064702022" lon="3.8138247993781476"><ele>31.499999999999996</ele><time>2026-04-12T10:13:15.979Z</time></trkpt><trkpt lat="43.604546635993486" lon="3.813732235522035"><ele>32.0</ele><time>2026-04-12T10:13:17.979Z</time></trkpt><trkpt lat="43.60449870517974" lon="3.813642204767926"><ele>31.999999999999996</ele><time>2026-04-12T10:13:19.979Z</time></trkpt><trkpt lat="43.604442407297995" lon="3.8135545174846146"><ele>32.0</ele><time>2026-04-12T10:13:21.979Z</time></trkpt><trkpt lat="43.604389549451945" lon="3.8134692965022703"><ele>32.0</ele><time>2026-04-12T10:13:23.979Z</time></trkpt><trkpt lat="43.60433772457801" lon="3.8133618798292783"><ele>32.0</ele><time>2026-04-12T10:13:25.979Z</time></trkpt><trkpt lat="43.60427574692226" lon="3.8132837437002522"><ele>31.999999999999996</ele><time>2026-04-12T10:13:27.979Z</time></trkpt><trkpt lat="43.60420596360016" lon="3.8132248557433486"><ele>32.0</ele><time>2026-04-12T10:13:29.979Z</time></trkpt><trkpt lat="43.604134024453494" lon="3.813184318077778"><ele>31.999999999999996</ele><time>2026-04-12T10:13:31.98Z</time></trkpt><trkpt lat="43.604078613600365" lon="3.8130942075771093"><ele>32.0</ele><time>2026-04-12T10:13:33.979Z</time></trkpt><trkpt lat="43.60403241380671" lon="3.8129982349187865"><ele>32.0</ele><time>2026-04-12T10:13:35.98Z</time></trkpt><trkpt lat="43.60399627293879" lon="3.812889161010934"><ele>32.0</ele><time>2026-04-12T10:13:37.98Z</time></trkpt><trkpt lat="43.603950639319535" lon="3.8127954996388818"><ele>31.999999999999996</ele><time>2026-04-12T10:13:39.98Z</time></trkpt><trkpt lat="43.6039049903898" lon="3.8126899928264883"><ele>32.0</ele><time>2026-04-12T10:13:41.98Z</time></trkpt><trkpt lat="43.60385291917977" lon="3.812601444256365"><ele>32.5</ele><time>2026-04-12T10:13:43.98Z</time></trkpt><trkpt lat="43.60380128582883" lon="3.8125032697264665"><ele>33.0</ele><time>2026-04-12T10:13:45.98Z</time></trkpt><trkpt lat="43.603741803492454" lon="3.8124064112022378"><ele>33.5</ele><time>2026-04-12T10:13:47.98Z</time></trkpt><trkpt lat="43.60368894829486" lon="3.8123135373286803"><ele>34.0</ele><time>2026-04-12T10:13:49.98Z</time></trkpt><trkpt lat="43.60364106199655" lon="3.812212992262614"><ele>34.5</ele><time>2026-04-12T10:13:51.98Z</time></trkpt><trkpt lat="43.603593168374154" lon="3.8121295576951866"><ele>35.0</ele><time>2026-04-12T10:13:53.98Z</time></trkpt><trkpt lat="43.60353796670449" lon="3.812021525320522"><ele>35.0</ele><time>2026-04-12T10:13:55.98Z</time></trkpt><trkpt lat="43.60347927273299" lon="3.8119082544519745"><ele>35.0</ele><time>2026-04-12T10:13:57.98Z</time></trkpt><trkpt lat="43.6034240062109" lon="3.811778865776586"><ele>35.0</ele><time>2026-04-12T10:13:59.98Z</time></trkpt><trkpt lat="43.60336346605897" lon="3.8116602839277287"><ele>35.0</ele><time>2026-04-12T10:14:01.98Z</time></trkpt><trkpt lat="43.603293530939325" lon="3.811546368103708"><ele>35.0</ele><time>2026-04-12T10:14:03.98Z</time></trkpt><trkpt lat="43.603229551602595" lon="3.8114235939007113"><ele>35.25</ele><time>2026-04-12T10:14:05.98Z</time></trkpt><trkpt lat="43.60316478987431" lon="3.811306085170047"><ele>35.5</ele><time>2026-04-12T10:14:07.98Z</time></trkpt><trkpt lat="43.60309714962882" lon="3.8111855094750706"><ele>35.75</ele><time>2026-04-12T10:14:09.98Z</time></trkpt><trkpt lat="43.60302312512476" lon="3.811056600351855"><ele>36.0</ele><time>2026-04-12T10:14:11.98Z</time></trkpt><trkpt lat="43.60296031790681" lon="3.8109248943557397"><ele>36.0</ele><time>2026-04-12T10:14:13.98Z</time></trkpt><trkpt lat="43.602878640155026" lon="3.810801572802188"><ele>36.0</ele><time>2026-04-12T10:14:15.98Z</time></trkpt><trkpt lat="43.602815785368435" lon="3.8106576420750766"><ele>36.0</ele><time>2026-04-12T10:14:17.98Z</time></trkpt><trkpt lat="43.60275252216636" lon="3.8105211178169647"><ele>36.0</ele><time>2026-04-12T10:14:19.98Z</time></trkpt><trkpt lat="43.60269184315023" lon="3.810389796253689"><ele>36.0</ele><time>2026-04-12T10:14:21.979Z</time></trkpt><trkpt lat="43.60263871573429" lon="3.810275322611314"><ele>36.0</ele><time>2026-04-12T10:14:23.979Z</time></trkpt><trkpt lat="43.60258698498479" lon="3.8101604800285322"><ele>36.0</ele><time>2026-04-12T10:14:25.979Z</time></trkpt><trkpt lat="43.602542856182744" lon="3.810038715434634"><ele>36.0</ele><time>2026-04-12T10:14:27.979Z</time></trkpt><trkpt lat="43.60248960182936" lon="3.8099208779743328"><ele>36.0</ele><time>2026-04-12T10:14:29.979Z</time></trkpt><trkpt lat="43.602419151854065" lon="3.8098248456770727"><ele>36.42857142857143</ele><time>2026-04-12T10:14:31.979Z</time></trkpt><trkpt lat="43.6023592573649" lon="3.8097487511344954"><ele>36.85714285714286</ele><time>2026-04-12T10:14:33.979Z</time></trkpt><trkpt lat="43.602308396048514" lon="3.809693231895142"><ele>37.28571428571429</ele><time>2026-04-12T10:14:35.979Z</time></trkpt><trkpt lat="43.602239591280785" lon="3.809666543231867"><ele>37.714285714285715</ele><time>2026-04-12T10:14:39.979Z</time></trkpt><trkpt lat="43.60216715919314" lon="3.8096386320708215"><ele>38.14285714285714</ele><time>2026-04-12T10:14:43.979Z</time></trkpt><trkpt lat="43.602106338379585" lon="3.8095744586679787"><ele>38.57142857142858</ele><time>2026-04-12T10:14:47.979Z</time></trkpt><trkpt lat="43.602077448045556" lon="3.809497071847173"><ele>39.0</ele><time>2026-04-12T10:14:49.979Z</time></trkpt><trkpt lat="43.60204671809405" lon="3.8094123796734904"><ele>39.2</ele><time>2026-04-12T10:14:51.979Z</time></trkpt><trkpt lat="43.60200832519048" lon="3.8093013685457393"><ele>39.4</ele><time>2026-04-12T10:14:53.979Z</time></trkpt><trkpt lat="43.601972782763305" lon="3.809174845700627"><ele>39.6</ele><time>2026-04-12T10:14:55.979Z</time></trkpt><trkpt lat="43.60191452157455" lon="3.8090512334301554"><ele>39.8</ele><time>2026-04-12T10:14:57.979Z</time></trkpt><trkpt lat="43.60184878909732" lon="3.808908594678999"><ele>40.0</ele><time>2026-04-12T10:14:59.979Z</time></trkpt><trkpt lat="43.60181194778325" lon="3.808751395326397"><ele>40.0</ele><time>2026-04-12T10:15:01.979Z</time></trkpt><trkpt lat="43.60175938105059" lon="3.8086263650615835"><ele>40.0</ele><time>2026-04-12T10:15:03.979Z</time></trkpt><trkpt lat="43.60169923662891" lon="3.808501143879078"><ele>40.0</ele><time>2026-04-12T10:15:05.979Z</time></trkpt><trkpt lat="43.60163262241033" lon="3.80837696150196"><ele>40.0</ele><time>2026-04-12T10:15:07.979Z</time></trkpt><trkpt lat="43.60156142669538" lon="3.8082495915433054"><ele>40.0</ele><time>2026-04-12T10:15:09.979Z</time></trkpt><trkpt lat="43.60149014794166" lon="3.8081115631970146"><ele>40.8</ele><time>2026-04-12T10:15:11.979Z</time></trkpt><trkpt lat="43.60141920126718" lon="3.8079789598051836"><ele>41.6</ele><time>2026-04-12T10:15:13.979Z</time></trkpt><trkpt lat="43.60134859713766" lon="3.8078587856289885"><ele>42.400000000000006</ele><time>2026-04-12T10:15:15.979Z</time></trkpt><trkpt lat="43.60129544811059" lon="3.8077581122207005"><ele>43.2</ele><time>2026-04-12T10:15:17.979Z</time></trkpt><trkpt lat="43.60123917697192" lon="3.8076668148092088"><ele>44.0</ele><time>2026-04-12T10:15:19.979Z</time></trkpt><trkpt lat="43.601194218297486" lon="3.8075823775599145"><ele>44.6</ele><time>2026-04-12T10:15:21.979Z</time></trkpt><trkpt lat="43.60113157530127" lon="3.8074750496108454"><ele>45.2</ele><time>2026-04-12T10:15:23.979Z</time></trkpt><trkpt lat="43.60107213647776" lon="3.807366294519228"><ele>45.800000000000004</ele><time>2026-04-12T10:15:25.979Z</time></trkpt><trkpt lat="43.601019233904196" lon="3.8072531116232624"><ele>46.400000000000006</ele><time>2026-04-12T10:15:27.979Z</time></trkpt><trkpt lat="43.600958869932555" lon="3.8071462173372206"><ele>47.0</ele><time>2026-04-12T10:15:29.979Z</time></trkpt><trkpt lat="43.600903118972475" lon="3.8070395410567524"><ele>47.0</ele><time>2026-04-12T10:15:31.979Z</time></trkpt><trkpt lat="43.60085286260382" lon="3.806920270538642"><ele>47.0</ele><time>2026-04-12T10:15:33.979Z</time></trkpt><trkpt lat="43.60078370668224" lon="3.80679208424834"><ele>47.0</ele><time>2026-04-12T10:15:35.979Z</time></trkpt><trkpt lat="43.600724977826864" lon="3.806686589567097"><ele>47.0</ele><time>2026-04-12T10:15:37.98Z</time></trkpt><trkpt lat="43.60066376342807" lon="3.8065671092422133"><ele>47.0</ele><time>2026-04-12T10:15:39.979Z</time></trkpt><trkpt lat="43.600606759354385" lon="3.806440515450604"><ele>47.8</ele><time>2026-04-12T10:15:41.98Z</time></trkpt><trkpt lat="43.60057477753429" lon="3.806299893132772"><ele>48.6</ele><time>2026-04-12T10:15:43.98Z</time></trkpt><trkpt lat="43.6005745753516" lon="3.8061611100600397"><ele>49.4</ele><time>2026-04-12T10:15:45.98Z</time></trkpt><trkpt lat="43.60054384311034" lon="3.8060451229820793"><ele>50.199999999999996</ele><time>2026-04-12T10:15:47.979Z</time></trkpt><trkpt lat="43.60047814230989" lon="3.8059525427774012"><ele>51.0</ele><time>2026-04-12T10:15:51.98Z</time></trkpt><trkpt lat="43.60045168701588" lon="3.8058560783117326"><ele>51.599999999999994</ele><time>2026-04-12T10:15:53.98Z</time></trkpt><trkpt lat="43.600399167514425" lon="3.8057265974724563"><ele>52.2</ele><time>2026-04-12T10:15:56.98Z</time></trkpt><trkpt lat="43.6003529586276" lon="3.8056160355045163"><ele>52.800000000000004</ele><time>2026-04-12T10:15:58.98Z</time></trkpt><trkpt lat="43.600300014330045" lon="3.8055069626110374"><ele>53.400000000000006</ele><time>2026-04-12T10:16:00.98Z</time></trkpt><trkpt lat="43.60024862659802" lon="3.805392789484602"><ele>54.0</ele><time>2026-04-12T10:16:02.98Z</time></trkpt><trkpt lat="43.600214307023656" lon="3.805271623509368"><ele>52.2</ele><time>2026-04-12T10:16:04.98Z</time></trkpt><trkpt lat="43.60017861961436" lon="3.8051314177428246"><ele>50.400000000000006</ele><time>2026-04-12T10:16:06.98Z</time></trkpt><trkpt lat="43.600137047142525" lon="3.8050020940130174"><ele>48.6</ele><time>2026-04-12T10:16:08.98Z</time></trkpt><trkpt lat="43.60008382881873" lon="3.8048727229063086"><ele>46.8</ele><time>2026-04-12T10:16:10.98Z</time></trkpt><trkpt lat="43.60004515210687" lon="3.8047768572139096"><ele>45.0</ele><time>2026-04-12T10:16:12.98Z</time></trkpt><trkpt lat="43.600067059844626" lon="3.80486635670332"><ele>45.0</ele><time>2026-04-12T10:16:25.98Z</time></trkpt><trkpt lat="43.60009310479385" lon="3.804951438774049"><ele>45.0</ele><time>2026-04-12T10:16:28.98Z</time></trkpt><trkpt lat="43.60014416044511" lon="3.8050517419170413"><ele>45.0</ele><time>2026-04-12T10:16:31.98Z</time></trkpt><trkpt lat="43.60015882195631" lon="3.8051504336990107"><ele>45.0</ele><time>2026-04-12T10:16:34.979Z</time></trkpt><trkpt lat="43.60019076848708" lon="3.8052495549379777"><ele>45.0</ele><time>2026-04-12T10:16:37.979Z</time></trkpt><trkpt lat="43.60022897816422" lon="3.8053320960483124"><ele>45.0</ele><time>2026-04-12T10:16:40.979Z</time></trkpt><trkpt lat="43.60017727901332" lon="3.8052294203922425"><ele>45.0</ele><time>2026-04-12T10:21:53.978Z</time></trkpt><trkpt lat="43.60015191501574" lon="3.8051495358207506"><ele>45.0</ele><time>2026-04-12T10:21:55.979Z</time></trkpt><trkpt lat="43.60013478724339" lon="3.805058122009013"><ele>45.0</ele><time>2026-04-12T10:21:57.98Z</time></trkpt><trkpt lat="43.6001069127143" lon="3.8049728433336107"><ele>45.0</ele><time>2026-04-12T10:21:59.979Z</time></trkpt><trkpt lat="43.600062700485054" lon="3.8048570670115853"><ele>45.0</ele><time>2026-04-12T10:22:02.979Z</time></trkpt><trkpt lat="43.60003610108853" lon="3.804769813160451"><ele>45.0</ele><time>2026-04-12T10:22:04.979Z</time></trkpt><trkpt lat="43.600010279215894" lon="3.8046848789145993"><ele>45.0</ele><time>2026-04-12T10:22:06.979Z</time></trkpt><trkpt lat="43.59998661487621" lon="3.804596122011678"><ele>45.0</ele><time>2026-04-12T10:22:08.979Z</time></trkpt><trkpt lat="43.59995996584279" lon="3.8044892956906664"><ele>45.0</ele><time>2026-04-12T10:22:10.979Z</time></trkpt><trkpt lat="43.59991993065757" lon="3.804364390483273"><ele>45.0</ele><time>2026-04-12T10:22:13.979Z</time></trkpt><trkpt lat="43.59989720441397" lon="3.8042668472538157"><ele>45.0</ele><time>2026-04-12T10:22:15.979Z</time></trkpt><trkpt lat="43.599885521315514" lon="3.8041593057793843"><ele>45.0</ele><time>2026-04-12T10:22:17.979Z</time></trkpt><trkpt lat="43.59986991410335" lon="3.8040621071107434"><ele>45.0</ele><time>2026-04-12T10:22:19.979Z</time></trkpt><trkpt lat="43.59983942906167" lon="3.803959228125743"><ele>45.5</ele><time>2026-04-12T10:22:21.979Z</time></trkpt><trkpt lat="43.5997823729393" lon="3.8038935586740252"><ele>46.0</ele><time>2026-04-12T10:22:23.979Z</time></trkpt><trkpt lat="43.59970549191704" lon="3.803836965803883"><ele>46.5</ele><time>2026-04-12T10:22:25.979Z</time></trkpt><trkpt lat="43.59969188808457" lon="3.803704641878157"><ele>47.0</ele><time>2026-04-12T10:22:27.979Z</time></trkpt><trkpt lat="43.599680937462296" lon="3.803590296758043"><ele>47.5</ele><time>2026-04-12T10:22:29.979Z</time></trkpt><trkpt lat="43.59965835150571" lon="3.803472151754651"><ele>48.0</ele><time>2026-04-12T10:22:31.979Z</time></trkpt><trkpt lat="43.5996442473899" lon="3.8033475201412323"><ele>48.333333333333336</ele><time>2026-04-12T10:22:33.979Z</time></trkpt><trkpt lat="43.59963219045375" lon="3.803228092480164"><ele>48.66666666666667</ele><time>2026-04-12T10:22:35.979Z</time></trkpt><trkpt lat="43.599624439163776" lon="3.8031112713544326"><ele>49.0</ele><time>2026-04-12T10:22:37.979Z</time></trkpt><trkpt lat="43.5996144905514" lon="3.8029932415488092"><ele>49.333333333333336</ele><time>2026-04-12T10:22:39.979Z</time></trkpt><trkpt lat="43.59959657561745" lon="3.8028802073888133"><ele>49.66666666666667</ele><time>2026-04-12T10:22:41.979Z</time></trkpt><trkpt lat="43.59958652965778" lon="3.802755228694524"><ele>50.0</ele><time>2026-04-12T10:22:43.978Z</time></trkpt><trkpt lat="43.59957377102844" lon="3.802621819214515"><ele>50.0</ele><time>2026-04-12T10:22:45.978Z</time></trkpt><trkpt lat="43.59956491255363" lon="3.802492801707461"><ele>50.0</ele><time>2026-04-12T10:22:47.978Z</time></trkpt><trkpt lat="43.59956274724134" lon="3.8023614412937543"><ele>50.0</ele><time>2026-04-12T10:22:49.978Z</time></trkpt><trkpt lat="43.59956585189497" lon="3.8022312735761417"><ele>50.0</ele><time>2026-04-12T10:22:51.978Z</time></trkpt><trkpt lat="43.59956909770466" lon="3.8021006826814165"><ele>50.0</ele><time>2026-04-12T10:22:53.978Z</time></trkpt><trkpt lat="43.59957684176837" lon="3.8019742708821602"><ele>50.00000000000001</ele><time>2026-04-12T10:22:55.978Z</time></trkpt><trkpt lat="43.59958708896411" lon="3.8018447967868596"><ele>50.0</ele><time>2026-04-12T10:22:57.978Z</time></trkpt><trkpt lat="43.5995911684816" lon="3.8017198788557605"><ele>50.0</ele><time>2026-04-12T10:22:59.978Z</time></trkpt><trkpt lat="43.59959574594651" lon="3.8015961258345725"><ele>50.0</ele><time>2026-04-12T10:23:01.978Z</time></trkpt><trkpt lat="43.599596609225664" lon="3.801487019336014"><ele>50.00000000000001</ele><time>2026-04-12T10:23:03.978Z</time></trkpt><trkpt lat="43.5996026391696" lon="3.8013585841511444"><ele>50.0</ele><time>2026-04-12T10:23:05.978Z</time></trkpt><trkpt lat="43.59961384056792" lon="3.8012340158844493"><ele>50.2</ele><time>2026-04-12T10:23:07.978Z</time></trkpt><trkpt lat="43.599628203347116" lon="3.801094583193307"><ele>50.4</ele><time>2026-04-12T10:23:09.978Z</time></trkpt><trkpt lat="43.59964748287291" lon="3.8009652408895396"><ele>50.599999999999994</ele><time>2026-04-12T10:23:11.978Z</time></trkpt><trkpt lat="43.59966885852919" lon="3.8008369143364606"><ele>50.8</ele><time>2026-04-12T10:23:13.978Z</time></trkpt><trkpt lat="43.599677549422395" lon="3.800702718418443"><ele>51.0</ele><time>2026-04-12T10:23:15.978Z</time></trkpt><trkpt lat="43.59969773601424" lon="3.800594198710646"><ele>51.0</ele><time>2026-04-12T10:23:17.978Z</time></trkpt><trkpt lat="43.59971041970268" lon="3.8004675471552747"><ele>51.0</ele><time>2026-04-12T10:23:19.978Z</time></trkpt><trkpt lat="43.5997582723438" lon="3.8003489639604147"><ele>51.0</ele><time>2026-04-12T10:23:21.978Z</time></trkpt><trkpt lat="43.59976985809461" lon="3.800213616192093"><ele>51.0</ele><time>2026-04-12T10:23:23.978Z</time></trkpt><trkpt lat="43.59979300134675" lon="3.8000854515901143"><ele>51.0</ele><time>2026-04-12T10:23:25.978Z</time></trkpt><trkpt lat="43.59982212359738" lon="3.7999594178841436"><ele>51.4</ele><time>2026-04-12T10:23:27.978Z</time></trkpt><trkpt lat="43.59985340638181" lon="3.799834504700155"><ele>51.8</ele><time>2026-04-12T10:23:29.978Z</time></trkpt><trkpt lat="43.599882161800906" lon="3.7997237729460673"><ele>52.199999999999996</ele><time>2026-04-12T10:23:31.978Z</time></trkpt><trkpt lat="43.599901351133504" lon="3.7996115230794087"><ele>52.599999999999994</ele><time>2026-04-12T10:23:33.978Z</time></trkpt><trkpt lat="43.59993287526378" lon="3.7994359844507555"><ele>53.0</ele><time>2026-04-12T10:23:35.978Z</time></trkpt><trkpt lat="43.59994949681181" lon="3.7993411878146275"><ele>52.66666666666667</ele><time>2026-04-12T10:23:37.978Z</time></trkpt><trkpt lat="43.59998066444743" lon="3.7992093120485735"><ele>52.333333333333336</ele><time>2026-04-12T10:23:39.978Z</time></trkpt><trkpt lat="43.60000703006122" lon="3.7990973586441394"><ele>52.0</ele><time>2026-04-12T10:23:41.978Z</time></trkpt><trkpt lat="43.60002752432099" lon="3.7989797614220646"><ele>51.66666666666667</ele><time>2026-04-12T10:23:43.978Z</time></trkpt><trkpt lat="43.60005198244942" lon="3.7988649329697926"><ele>51.333333333333336</ele><time>2026-04-12T10:23:45.978Z</time></trkpt><trkpt lat="43.60007778104351" lon="3.7987526214808973"><ele>51.0</ele><time>2026-04-12T10:23:47.978Z</time></trkpt><trkpt lat="43.600097105065856" lon="3.7986343161473517"><ele>51.0</ele><time>2026-04-12T10:23:49.978Z</time></trkpt><trkpt lat="43.60011927231881" lon="3.798527968558167"><ele>51.0</ele><time>2026-04-12T10:23:51.978Z</time></trkpt><trkpt lat="43.600135720258095" lon="3.7983953367399965"><ele>51.0</ele><time>2026-04-12T10:23:53.978Z</time></trkpt><trkpt lat="43.600163665658116" lon="3.798270998427836"><ele>51.0</ele><time>2026-04-12T10:23:55.978Z</time></trkpt><trkpt lat="43.60019261165922" lon="3.7981468699207754"><ele>51.0</ele><time>2026-04-12T10:23:57.978Z</time></trkpt><trkpt lat="43.60021866730021" lon="3.798022008679191"><ele>51.666666666666664</ele><time>2026-04-12T10:23:59.979Z</time></trkpt><trkpt lat="43.60026466916666" lon="3.797928597384312"><ele>52.33333333333333</ele><time>2026-04-12T10:24:01.978Z</time></trkpt><trkpt lat="43.60034529101018" lon="3.797877213367943"><ele>53.0</ele><time>2026-04-12T10:24:03.978Z</time></trkpt><trkpt lat="43.60041684484083" lon="3.797852454746102"><ele>53.666666666666664</ele><time>2026-04-12T10:24:06.978Z</time></trkpt><trkpt lat="43.60047733438585" lon="3.7977748825292545"><ele>54.33333333333333</ele><time>2026-04-12T10:24:09.979Z</time></trkpt><trkpt lat="43.60052744844867" lon="3.797706509167577"><ele>55.0</ele><time>2026-04-12T10:24:12.979Z</time></trkpt><trkpt lat="43.6005419981319" lon="3.7975908824962588"><ele>55.49999999999999</ele><time>2026-04-12T10:24:15.979Z</time></trkpt><trkpt lat="43.60054417103046" lon="3.7974907879588966"><ele>56.0</ele><time>2026-04-12T10:24:17.979Z</time></trkpt><trkpt lat="43.600547976012486" lon="3.7973776561223067"><ele>56.5</ele><time>2026-04-12T10:24:19.978Z</time></trkpt><trkpt lat="43.60056989760121" lon="3.797266206880626"><ele>57.0</ele><time>2026-04-12T10:24:22.978Z</time></trkpt><trkpt lat="43.60059841161936" lon="3.797178942087481"><ele>57.49999999999999</ele><time>2026-04-12T10:24:24.978Z</time></trkpt><trkpt lat="43.600633863073774" lon="3.797079846556705"><ele>58.0</ele><time>2026-04-12T10:24:26.978Z</time></trkpt><trkpt lat="43.600674927465306" lon="3.7969809599296935"><ele>58.0</ele><time>2026-04-12T10:24:28.978Z</time></trkpt><trkpt lat="43.60071991591461" lon="3.796867388950825"><ele>58.0</ele><time>2026-04-12T10:24:30.978Z</time></trkpt><trkpt lat="43.60077255235632" lon="3.796771627869749"><ele>58.0</ele><time>2026-04-12T10:24:32.978Z</time></trkpt><trkpt lat="43.600821810443" lon="3.7966601141148"><ele>58.0</ele><time>2026-04-12T10:24:34.978Z</time></trkpt><trkpt lat="43.60087962629565" lon="3.7965625693303955"><ele>58.0</ele><time>2026-04-12T10:24:36.978Z</time></trkpt><trkpt lat="43.60092481227294" lon="3.7964528874859385"><ele>57.99999999999999</ele><time>2026-04-12T10:24:38.978Z</time></trkpt><trkpt lat="43.60096676839552" lon="3.796342204127204"><ele>58.0</ele><time>2026-04-12T10:24:40.978Z</time></trkpt><trkpt lat="43.601030447057354" lon="3.796240844407748"><ele>58.0</ele><time>2026-04-12T10:24:42.978Z</time></trkpt><trkpt lat="43.601064966631924" lon="3.7961325955010055"><ele>58.0</ele><time>2026-04-12T10:24:44.978Z</time></trkpt><trkpt lat="43.60110376334358" lon="3.796023496266079"><ele>57.99999999999999</ele><time>2026-04-12T10:24:46.978Z</time></trkpt><trkpt lat="43.60114694184263" lon="3.7959205356630585"><ele>58.0</ele><time>2026-04-12T10:24:48.978Z</time></trkpt><trkpt lat="43.6011781168192" lon="3.7958344197448817"><ele>58.666666666666664</ele><time>2026-04-12T10:24:50.978Z</time></trkpt><trkpt lat="43.6012257076251" lon="3.7957422501235625"><ele>59.33333333333333</ele><time>2026-04-12T10:24:52.978Z</time></trkpt><trkpt lat="43.601296336405504" lon="3.795692635077805"><ele>60.0</ele><time>2026-04-12T10:24:54.978Z</time></trkpt><trkpt lat="43.60136911818579" lon="3.795641590376134"><ele>60.66666666666667</ele><time>2026-04-12T10:24:56.978Z</time></trkpt><trkpt lat="43.60143953686122" lon="3.7955672890570287"><ele>61.333333333333336</ele><time>2026-04-12T10:24:58.978Z</time></trkpt><trkpt lat="43.601504559445544" lon="3.7954804243412843"><ele>62.0</ele><time>2026-04-12T10:25:00.978Z</time></trkpt><trkpt lat="43.60156418327057" lon="3.7953821400528485"><ele>62.0</ele><time>2026-04-12T10:25:02.978Z</time></trkpt><trkpt lat="43.60162485954325" lon="3.7953010859620124"><ele>62.0</ele><time>2026-04-12T10:25:04.978Z</time></trkpt><trkpt lat="43.60168598649202" lon="3.795203927645846"><ele>62.0</ele><time>2026-04-12T10:25:06.978Z</time></trkpt><trkpt lat="43.60174925555572" lon="3.7951235478924517"><ele>62.0</ele><time>2026-04-12T10:25:08.978Z</time></trkpt><trkpt lat="43.60184419178247" lon="3.7950452417899485"><ele>62.0</ele><time>2026-04-12T10:25:10.978Z</time></trkpt><trkpt lat="43.60191131032667" lon="3.7949637897538584"><ele>62.0</ele><time>2026-04-12T10:25:12.978Z</time></trkpt><trkpt lat="43.601970808726215" lon="3.7948709989722187"><ele>62.0</ele><time>2026-04-12T10:25:14.978Z</time></trkpt><trkpt lat="43.602004444416714" lon="3.7947488585531715"><ele>62.0</ele><time>2026-04-12T10:25:16.978Z</time></trkpt><trkpt lat="43.6020565187655" lon="3.79463129477524"><ele>62.0</ele><time>2026-04-12T10:25:18.978Z</time></trkpt><trkpt lat="43.602135470482175" lon="3.7945636814257413"><ele>62.0</ele><time>2026-04-12T10:25:20.978Z</time></trkpt><trkpt lat="43.60221297107198" lon="3.7945003986328434"><ele>62.333333333333336</ele><time>2026-04-12T10:25:22.978Z</time></trkpt><trkpt lat="43.6022918216768" lon="3.794435703019512"><ele>62.66666666666667</ele><time>2026-04-12T10:25:24.978Z</time></trkpt><trkpt lat="43.602365102380496" lon="3.794384426984685"><ele>63.0</ele><time>2026-04-12T10:25:26.978Z</time></trkpt><trkpt lat="43.602436441604766" lon="3.794315989510933"><ele>63.33333333333333</ele><time>2026-04-12T10:25:28.978Z</time></trkpt><trkpt lat="43.602517063287955" lon="3.7942533020142784"><ele>63.666666666666664</ele><time>2026-04-12T10:25:30.978Z</time></trkpt><trkpt lat="43.602591489124656" lon="3.794180890770757"><ele>64.0</ele><time>2026-04-12T10:25:32.978Z</time></trkpt><trkpt lat="43.60266259645779" lon="3.7940982194245803"><ele>64.0</ele><time>2026-04-12T10:25:34.978Z</time></trkpt><trkpt lat="43.602735399861864" lon="3.7940447911189965"><ele>64.0</ele><time>2026-04-12T10:25:36.978Z</time></trkpt><trkpt lat="43.60282150668106" lon="3.7939840186811287"><ele>64.0</ele><time>2026-04-12T10:25:38.978Z</time></trkpt><trkpt lat="43.60290183300787" lon="3.793916658400081"><ele>64.0</ele><time>2026-04-12T10:25:40.977Z</time></trkpt><trkpt lat="43.602983208523874" lon="3.793855959202879"><ele>64.0</ele><time>2026-04-12T10:25:42.977Z</time></trkpt><trkpt lat="43.60305930935765" lon="3.793807056736963"><ele>64.33333333333333</ele><time>2026-04-12T10:25:44.977Z</time></trkpt><trkpt lat="43.603123906027726" lon="3.7937647529518137"><ele>64.66666666666666</ele><time>2026-04-12T10:25:46.977Z</time></trkpt><trkpt lat="43.60318990107661" lon="3.793712942480771"><ele>65.0</ele><time>2026-04-12T10:25:48.977Z</time></trkpt><trkpt lat="43.603259651585866" lon="3.7936484721982486"><ele>65.33333333333333</ele><time>2026-04-12T10:25:50.977Z</time></trkpt><trkpt lat="43.603324982524924" lon="3.793574727445983"><ele>65.66666666666667</ele><time>2026-04-12T10:25:52.977Z</time></trkpt><trkpt lat="43.603417693146014" lon="3.7935269827725855"><ele>66.0</ele><time>2026-04-12T10:25:54.977Z</time></trkpt><trkpt lat="43.60350057385557" lon="3.7934761401461516"><ele>66.0</ele><time>2026-04-12T10:25:56.977Z</time></trkpt><trkpt lat="43.6035754016313" lon="3.793405972348361"><ele>66.0</ele><time>2026-04-12T10:25:58.977Z</time></trkpt><trkpt lat="43.60364660945664" lon="3.793337951973586"><ele>66.0</ele><time>2026-04-12T10:26:00.977Z</time></trkpt><trkpt lat="43.60372676917993" lon="3.793264902556998"><ele>66.0</ele><time>2026-04-12T10:26:02.977Z</time></trkpt><trkpt lat="43.60379674528195" lon="3.793206326630421"><ele>66.0</ele><time>2026-04-12T10:26:04.977Z</time></trkpt><trkpt lat="43.60388708728532" lon="3.7931535056830223"><ele>66.6</ele><time>2026-04-12T10:26:06.978Z</time></trkpt><trkpt lat="43.60397624721224" lon="3.7930945599069963"><ele>67.19999999999999</ele><time>2026-04-12T10:26:08.979Z</time></trkpt><trkpt lat="43.60406441430741" lon="3.7930220905823573"><ele>67.80000000000001</ele><time>2026-04-12T10:26:10.978Z</time></trkpt><trkpt lat="43.604145242239674" lon="3.7929647543940366"><ele>68.4</ele><time>2026-04-12T10:26:12.978Z</time></trkpt><trkpt lat="43.60423449126643" lon="3.7929068828728973"><ele>69.0</ele><time>2026-04-12T10:26:14.978Z</time></trkpt><trkpt lat="43.604323581787646" lon="3.7928365552822805"><ele>69.0</ele><time>2026-04-12T10:26:16.978Z</time></trkpt><trkpt lat="43.604410097456054" lon="3.792776274255612"><ele>69.0</ele><time>2026-04-12T10:26:18.978Z</time></trkpt><trkpt lat="43.60447401149787" lon="3.7927182077047075"><ele>69.0</ele><time>2026-04-12T10:26:20.978Z</time></trkpt><trkpt lat="43.6045424797767" lon="3.792662954580989"><ele>69.0</ele><time>2026-04-12T10:26:22.978Z</time></trkpt><trkpt lat="43.60455030291767" lon="3.792561320754025"><ele>69.0</ele><time>2026-04-12T10:26:24.978Z</time></trkpt><trkpt lat="43.60450165424501" lon="3.792494817177686"><ele>69.0</ele><time>2026-04-12T10:26:26.978Z</time></trkpt><trkpt lat="43.60446468280577" lon="3.7924122632739525"><ele>69.0</ele><time>2026-04-12T10:26:28.978Z</time></trkpt><trkpt lat="43.60440482182701" lon="3.79231576143952"><ele>69.0</ele><time>2026-04-12T10:26:30.978Z</time></trkpt><trkpt lat="43.604337547641826" lon="3.792193092024547"><ele>69.0</ele><time>2026-04-12T10:26:32.978Z</time></trkpt><trkpt lat="43.60425662731105" lon="3.792102196896816"><ele>69.0</ele><time>2026-04-12T10:26:34.978Z</time></trkpt><trkpt lat="43.60418979224226" lon="3.7919793044101735"><ele>69.0</ele><time>2026-04-12T10:26:36.978Z</time></trkpt><trkpt lat="43.604125434457444" lon="3.7918532283035353"><ele>68.75</ele><time>2026-04-12T10:26:38.978Z</time></trkpt><trkpt lat="43.604058682679664" lon="3.791726099312401"><ele>68.5</ele><time>2026-04-12T10:26:40.978Z</time></trkpt><trkpt lat="43.60398621312455" lon="3.791599832255563"><ele>68.25</ele><time>2026-04-12T10:26:42.978Z</time></trkpt><trkpt lat="43.603919256488695" lon="3.7914666077562003"><ele>68.0</ele><time>2026-04-12T10:26:44.978Z</time></trkpt><trkpt lat="43.60383296261227" lon="3.7913545241217297"><ele>68.0</ele><time>2026-04-12T10:26:46.978Z</time></trkpt><trkpt lat="43.60374318139146" lon="3.7912484480547373"><ele>68.0</ele><time>2026-04-12T10:26:48.978Z</time></trkpt><trkpt lat="43.60369133068691" lon="3.791192194923219"><ele>68.0</ele><time>2026-04-12T10:26:49.978Z</time></trkpt><trkpt lat="43.60363500310063" lon="3.791146460405179"><ele>68.0</ele><time>2026-04-12T10:26:50.978Z</time></trkpt><trkpt lat="43.60357736958461" lon="3.791103853940596"><ele>68.0</ele><time>2026-04-12T10:26:51.978Z</time></trkpt><trkpt lat="43.60351902582017" lon="3.791057575163153"><ele>68.0</ele><time>2026-04-12T10:26:52.978Z</time></trkpt><trkpt lat="43.60345613987016" lon="3.7910231364266416"><ele>67.5</ele><time>2026-04-12T10:26:53.978Z</time></trkpt><trkpt lat="43.60339352124576" lon="3.790993555260734"><ele>67.0</ele><time>2026-04-12T10:26:54.978Z</time></trkpt><trkpt lat="43.603329186588724" lon="3.790963986186533"><ele>66.5</ele><time>2026-04-12T10:26:55.978Z</time></trkpt><trkpt lat="43.603264169294434" lon="3.7909362360901815"><ele>66.0</ele><time>2026-04-12T10:26:56.977Z</time></trkpt><trkpt lat="43.60319605993438" lon="3.7909049580774257"><ele>65.5</ele><time>2026-04-12T10:26:57.977Z</time></trkpt><trkpt lat="43.60307081103939" lon="3.790848110920283"><ele>65.0</ele><time>2026-04-12T10:26:59.977Z</time></trkpt><trkpt lat="43.60299688586286" lon="3.7908248920888146"><ele>65.00000000000001</ele><time>2026-04-12T10:27:00.977Z</time></trkpt><trkpt lat="43.602933273777836" lon="3.7907948704703727"><ele>65.0</ele><time>2026-04-12T10:27:01.977Z</time></trkpt><trkpt lat="43.602862753043624" lon="3.7907698195087796"><ele>65.0</ele><time>2026-04-12T10:27:02.977Z</time></trkpt><trkpt lat="43.60279689389127" lon="3.79072187016728"><ele>65.0</ele><time>2026-04-12T10:27:03.977Z</time></trkpt><trkpt lat="43.60277171606307" lon="3.79060605475191"><ele>65.0</ele><time>2026-04-12T10:27:04.977Z</time></trkpt><trkpt lat="43.60273332465109" lon="3.7905147172745055"><ele>65.00000000000001</ele><time>2026-04-12T10:27:05.977Z</time></trkpt><trkpt lat="43.602711147314764" lon="3.790423574742442"><ele>65.0</ele><time>2026-04-12T10:27:06.977Z</time></trkpt><trkpt lat="43.60269824564248" lon="3.790324146757779"><ele>64.33333333333334</ele><time>2026-04-12T10:27:07.977Z</time></trkpt><trkpt lat="43.60269293114635" lon="3.7902222841438737"><ele>63.66666666666667</ele><time>2026-04-12T10:27:08.977Z</time></trkpt><trkpt lat="43.602657548988454" lon="3.7901148330022525"><ele>63.0</ele><time>2026-04-12T10:27:09.977Z</time></trkpt><trkpt lat="43.60265798761374" lon="3.7900053017356288"><ele>62.33333333333333</ele><time>2026-04-12T10:27:10.977Z</time></trkpt><trkpt lat="43.60265574163349" lon="3.789900699914162"><ele>61.666666666666664</ele><time>2026-04-12T10:27:11.977Z</time></trkpt><trkpt lat="43.60264221248539" lon="3.7898052370589395"><ele>61.0</ele><time>2026-04-12T10:27:12.977Z</time></trkpt><trkpt lat="43.60263179612126" lon="3.7896967463005367"><ele>60.99999999999999</ele><time>2026-04-12T10:27:13.977Z</time></trkpt><trkpt lat="43.60261156733794" lon="3.7896037228615675"><ele>61.0</ele><time>2026-04-12T10:27:14.977Z</time></trkpt><trkpt lat="43.602585316583095" lon="3.7895045351637804"><ele>61.0</ele><time>2026-04-12T10:27:15.977Z</time></trkpt><trkpt lat="43.602556948930356" lon="3.7894119388817993"><ele>61.0</ele><time>2026-04-12T10:27:16.977Z</time></trkpt><trkpt lat="43.60252448164826" lon="3.7893212865893715"><ele>60.99999999999999</ele><time>2026-04-12T10:27:17.977Z</time></trkpt><trkpt lat="43.602497559388574" lon="3.789240588372218"><ele>61.0</ele><time>2026-04-12T10:27:18.977Z</time></trkpt><trkpt lat="43.60244738948305" lon="3.7890897957705665"><ele>61.0</ele><time>2026-04-12T10:27:20.977Z</time></trkpt><trkpt lat="43.6023874462994" lon="3.7889646014211573"><ele>60.99999999999999</ele><time>2026-04-12T10:27:22.977Z</time></trkpt><trkpt lat="43.602337345015165" lon="3.7888579858149654"><ele>60.99999999999999</ele><time>2026-04-12T10:27:24.977Z</time></trkpt><trkpt lat="43.60229255799444" lon="3.788736840623661"><ele>61.0</ele><time>2026-04-12T10:27:27.977Z</time></trkpt><trkpt lat="43.60225889446616" lon="3.788633091338346"><ele>61.0</ele><time>2026-04-12T10:27:29.977Z</time></trkpt><trkpt lat="43.60220732106278" lon="3.788549106968559"><ele>61.666666666666664</ele><time>2026-04-12T10:27:31.977Z</time></trkpt><trkpt lat="43.602155558292495" lon="3.788442574797671"><ele>62.33333333333333</ele><time>2026-04-12T10:27:33.977Z</time></trkpt><trkpt lat="43.602120532309755" lon="3.788340118113075"><ele>63.0</ele><time>2026-04-12T10:27:35.977Z</time></trkpt><trkpt lat="43.60206885439002" lon="3.788248948616875"><ele>63.66666666666667</ele><time>2026-04-12T10:27:37.977Z</time></trkpt><trkpt lat="43.602027444924076" lon="3.7881479801781097"><ele>64.33333333333334</ele><time>2026-04-12T10:27:39.977Z</time></trkpt><trkpt lat="43.60198316330742" lon="3.7880399964312086"><ele>65.0</ele><time>2026-04-12T10:27:41.977Z</time></trkpt><trkpt lat="43.601946281414" lon="3.78792502788079"><ele>65.0</ele><time>2026-04-12T10:27:43.977Z</time></trkpt><trkpt lat="43.60189496388078" lon="3.7878141561152288"><ele>65.0</ele><time>2026-04-12T10:27:45.977Z</time></trkpt><trkpt lat="43.60183694138986" lon="3.787712790656391"><ele>65.0</ele><time>2026-04-12T10:27:47.977Z</time></trkpt><trkpt lat="43.601791375354004" lon="3.787605911453364"><ele>65.0</ele><time>2026-04-12T10:27:49.977Z</time></trkpt><trkpt lat="43.60174221751101" lon="3.787476604126665"><ele>65.0</ele><time>2026-04-12T10:27:51.977Z</time></trkpt><trkpt lat="43.60168223160338" lon="3.787374523823564"><ele>65.33333333333334</ele><time>2026-04-12T10:27:53.977Z</time></trkpt><trkpt lat="43.60162985301429" lon="3.787281959942173"><ele>65.66666666666667</ele><time>2026-04-12T10:27:55.977Z</time></trkpt><trkpt lat="43.60157009155735" lon="3.7872024139580684"><ele>66.0</ele><time>2026-04-12T10:27:57.977Z</time></trkpt><trkpt lat="43.601519244619475" lon="3.787114008501177"><ele>66.33333333333333</ele><time>2026-04-12T10:27:59.977Z</time></trkpt><trkpt lat="43.601467118732494" lon="3.787039958153151"><ele>66.66666666666666</ele><time>2026-04-12T10:28:01.977Z</time></trkpt><trkpt lat="43.60142212947002" lon="3.786974017814471"><ele>67.0</ele><time>2026-04-12T10:28:03.977Z</time></trkpt><trkpt lat="43.60137416584144" lon="3.786903801297371"><ele>66.85714285714286</ele><time>2026-04-12T10:28:05.977Z</time></trkpt><trkpt lat="43.60132678403352" lon="3.786828984262826"><ele>66.71428571428571</ele><time>2026-04-12T10:28:07.977Z</time></trkpt><trkpt lat="43.60128222251468" lon="3.7867580520700694"><ele>66.57142857142857</ele><time>2026-04-12T10:28:09.977Z</time></trkpt><trkpt lat="43.60123239749705" lon="3.78670467725348"><ele>66.42857142857143</ele><time>2026-04-12T10:28:11.978Z</time></trkpt><trkpt lat="43.6011868209887" lon="3.786607236036264"><ele>66.28571428571429</ele><time>2026-04-12T10:28:13.978Z</time></trkpt><trkpt lat="43.60113803413374" lon="3.786525269062339"><ele>66.14285714285714</ele><time>2026-04-12T10:28:15.978Z</time></trkpt><trkpt lat="43.60108865628281" lon="3.78644241444169"><ele>66.0</ele><time>2026-04-12T10:28:17.978Z</time></trkpt><trkpt lat="43.60103681176496" lon="3.786360201588312"><ele>65.5</ele><time>2026-04-12T10:28:19.977Z</time></trkpt><trkpt lat="43.60098206992312" lon="3.7862654741202353"><ele>65.0</ele><time>2026-04-12T10:28:21.977Z</time></trkpt><trkpt lat="43.60093413158799" lon="3.786168722761785"><ele>64.5</ele><time>2026-04-12T10:28:23.979Z</time></trkpt><trkpt lat="43.60087292592956" lon="3.7860787457592133"><ele>64.0</ele><time>2026-04-12T10:28:25.978Z</time></trkpt><trkpt lat="43.60082443505989" lon="3.7859795155647986"><ele>63.5</ele><time>2026-04-12T10:28:27.978Z</time></trkpt><trkpt lat="43.60077068303369" lon="3.78586934185904"><ele>63.0</ele><time>2026-04-12T10:28:29.978Z</time></trkpt><trkpt lat="43.60071567596513" lon="3.785745870969559"><ele>63.0</ele><time>2026-04-12T10:28:31.978Z</time></trkpt><trkpt lat="43.6006250154948" lon="3.785657917333241"><ele>63.0</ele><time>2026-04-12T10:28:33.978Z</time></trkpt><trkpt lat="43.60058365716034" lon="3.785580552679142"><ele>63.0</ele><time>2026-04-12T10:28:34.978Z</time></trkpt><trkpt lat="43.600544899890785" lon="3.785499705593955"><ele>63.0</ele><time>2026-04-12T10:28:35.978Z</time></trkpt><trkpt lat="43.60050420195761" lon="3.7854137714835705"><ele>63.0</ele><time>2026-04-12T10:28:36.978Z</time></trkpt><trkpt lat="43.600451520598455" lon="3.7853260098252646"><ele>63.0</ele><time>2026-04-12T10:28:37.978Z</time></trkpt><trkpt lat="43.60039659160764" lon="3.7852267883785036"><ele>62.333333333333336</ele><time>2026-04-12T10:28:38.977Z</time></trkpt><trkpt lat="43.600337197415755" lon="3.785135343728977"><ele>61.66666666666667</ele><time>2026-04-12T10:28:39.977Z</time></trkpt><trkpt lat="43.60026153282571" lon="3.7850456212725776"><ele>61.0</ele><time>2026-04-12T10:28:40.977Z</time></trkpt><trkpt lat="43.600196104931165" lon="3.784945973074176"><ele>60.333333333333336</ele><time>2026-04-12T10:28:41.977Z</time></trkpt><trkpt lat="43.60015075885626" lon="3.7848398953184526"><ele>59.66666666666667</ele><time>2026-04-12T10:28:42.977Z</time></trkpt><trkpt lat="43.600099992323734" lon="3.784768702482005"><ele>59.0</ele><time>2026-04-12T10:28:43.977Z</time></trkpt><trkpt lat="43.6000502001553" lon="3.784708179011726"><ele>57.6</ele><time>2026-04-12T10:28:44.977Z</time></trkpt><trkpt lat="43.600004939251185" lon="3.784592558574616"><ele>56.2</ele><time>2026-04-12T10:28:46.977Z</time></trkpt><trkpt lat="43.59991806281952" lon="3.7845917019854878"><ele>54.800000000000004</ele><time>2026-04-12T10:28:49.977Z</time></trkpt><trkpt lat="43.59984614412469" lon="3.784666989969775"><ele>53.400000000000006</ele><time>2026-04-12T10:28:51.977Z</time></trkpt><trkpt lat="43.59975925690404" lon="3.7847323588007495"><ele>52.0</ele><time>2026-04-12T10:28:53.977Z</time></trkpt><trkpt lat="43.59966508703947" lon="3.7848267760003957"><ele>51.99999999999999</ele><time>2026-04-12T10:28:55.977Z</time></trkpt><trkpt lat="43.5995707015589" lon="3.7848764054864343"><ele>52.0</ele><time>2026-04-12T10:28:57.977Z</time></trkpt><trkpt lat="43.59948423335039" lon="3.7848841322516047"><ele>52.0</ele><time>2026-04-12T10:28:59.977Z</time></trkpt><trkpt lat="43.59937841105889" lon="3.784858824442841"><ele>52.0</ele><time>2026-04-12T10:29:02.977Z</time></trkpt><trkpt lat="43.599319823265" lon="3.7849204142965935"><ele>51.99999999999999</ele><time>2026-04-12T10:29:05.977Z</time></trkpt><trkpt lat="43.599268090128085" lon="3.7849841069063817"><ele>52.0</ele><time>2026-04-12T10:29:07.977Z</time></trkpt><trkpt lat="43.5992265866406" lon="3.7850903405892096"><ele>51.49999999999999</ele><time>2026-04-12T10:29:09.977Z</time></trkpt><trkpt lat="43.59914060086522" lon="3.7851683487861147"><ele>51.0</ele><time>2026-04-12T10:29:11.977Z</time></trkpt><trkpt lat="43.59907004408513" lon="3.7852097319078113"><ele>50.5</ele><time>2026-04-12T10:29:13.977Z</time></trkpt><trkpt lat="43.59902160117178" lon="3.7852955190291637"><ele>50.0</ele><time>2026-04-12T10:29:15.977Z</time></trkpt><trkpt lat="43.59898883307451" lon="3.7854192950891212"><ele>49.49999999999999</ele><time>2026-04-12T10:29:17.977Z</time></trkpt><trkpt lat="43.59893196476434" lon="3.7854804610466912"><ele>49.0</ele><time>2026-04-12T10:29:19.977Z</time></trkpt><trkpt lat="43.59889080534507" lon="3.785603806105603"><ele>49.83333333333333</ele><time>2026-04-12T10:29:22.977Z</time></trkpt><trkpt lat="43.598854512500075" lon="3.7856971613015418"><ele>50.666666666666664</ele><time>2026-04-12T10:29:25.977Z</time></trkpt><trkpt lat="43.59881973635917" lon="3.785805396240548"><ele>51.5</ele><time>2026-04-12T10:29:27.977Z</time></trkpt><trkpt lat="43.59874833413141" lon="3.785890988736838"><ele>52.33333333333333</ele><time>2026-04-12T10:29:29.977Z</time></trkpt><trkpt lat="43.59870994480241" lon="3.7859795263468383"><ele>53.166666666666664</ele><time>2026-04-12T10:29:31.977Z</time></trkpt><trkpt lat="43.59866157093546" lon="3.7860973715846966"><ele>54.0</ele><time>2026-04-12T10:29:33.977Z</time></trkpt><trkpt lat="43.59859658725162" lon="3.7861747888936654"><ele>54.0</ele><time>2026-04-12T10:29:35.977Z</time></trkpt><trkpt lat="43.598580918286906" lon="3.7862639925533026"><ele>54.0</ele><time>2026-04-12T10:29:37.977Z</time></trkpt><trkpt lat="43.59851975131049" lon="3.7863603747427446"><ele>54.0</ele><time>2026-04-12T10:29:39.977Z</time></trkpt><trkpt lat="43.59847510131139" lon="3.786458635192019"><ele>54.0</ele><time>2026-04-12T10:29:41.977Z</time></trkpt><trkpt lat="43.59840585532503" lon="3.7865386313436593"><ele>54.0</ele><time>2026-04-12T10:29:43.977Z</time></trkpt><trkpt lat="43.59836322205081" lon="3.78664512142279"><ele>54.0</ele><time>2026-04-12T10:29:45.977Z</time></trkpt><trkpt lat="43.598309770236696" lon="3.786703508043493"><ele>54.0</ele><time>2026-04-12T10:29:47.977Z</time></trkpt><trkpt lat="43.59823717591498" lon="3.7868208126426106"><ele>54.00000000000001</ele><time>2026-04-12T10:29:49.977Z</time></trkpt><trkpt lat="43.598175570129" lon="3.786910373523153"><ele>54.00000000000001</ele><time>2026-04-12T10:29:51.977Z</time></trkpt><trkpt lat="43.59808468730997" lon="3.787000008057502"><ele>54.0</ele><time>2026-04-12T10:29:53.977Z</time></trkpt><trkpt lat="43.59798781680916" lon="3.7871015015369602"><ele>54.0</ele><time>2026-04-12T10:29:55.977Z</time></trkpt><trkpt lat="43.59790272062117" lon="3.7872034077387355"><ele>53.833333333333336</ele><time>2026-04-12T10:29:57.977Z</time></trkpt><trkpt lat="43.59785840358108" lon="3.7872809455297314"><ele>53.66666666666667</ele><time>2026-04-12T10:29:59.976Z</time></trkpt><trkpt lat="43.59780205970215" lon="3.787361729035467"><ele>53.5</ele><time>2026-04-12T10:30:01.976Z</time></trkpt><trkpt lat="43.59773452328587" lon="3.7874083847228532"><ele>53.333333333333336</ele><time>2026-04-12T10:30:03.976Z</time></trkpt><trkpt lat="43.597675680421126" lon="3.787496782398328"><ele>53.16666666666667</ele><time>2026-04-12T10:30:06.976Z</time></trkpt><trkpt lat="43.597641832063815" lon="3.7876048796302717"><ele>53.0</ele><time>2026-04-12T10:30:08.976Z</time></trkpt><trkpt lat="43.59758144178093" lon="3.787673810210869"><ele>53.599999999999994</ele><time>2026-04-12T10:30:10.976Z</time></trkpt><trkpt lat="43.59750881976175" lon="3.7877743227046925"><ele>54.199999999999996</ele><time>2026-04-12T10:30:12.976Z</time></trkpt><trkpt lat="43.597435523480115" lon="3.7878499669226633"><ele>54.8</ele><time>2026-04-12T10:30:14.976Z</time></trkpt><trkpt lat="43.5973891968962" lon="3.7879482905255526"><ele>55.4</ele><time>2026-04-12T10:30:16.976Z</time></trkpt><trkpt lat="43.59729746271723" lon="3.788033811112705"><ele>56.0</ele><time>2026-04-12T10:30:18.977Z</time></trkpt><trkpt lat="43.59721701324425" lon="3.7881190364341824"><ele>56.0</ele><time>2026-04-12T10:30:20.978Z</time></trkpt><trkpt lat="43.59714028571906" lon="3.788226346130476"><ele>55.99999999999999</ele><time>2026-04-12T10:30:22.978Z</time></trkpt><trkpt lat="43.597035245310245" lon="3.788295947518489"><ele>55.99999999999999</ele><time>2026-04-12T10:30:24.978Z</time></trkpt><trkpt lat="43.59694949525202" lon="3.78840657480096"><ele>56.0</ele><time>2026-04-12T10:30:26.978Z</time></trkpt><trkpt lat="43.59687716247942" lon="3.7885004000048865"><ele>56.0</ele><time>2026-04-12T10:30:28.978Z</time></trkpt><trkpt lat="43.59679944227717" lon="3.78861280638906"><ele>55.25</ele><time>2026-04-12T10:30:30.977Z</time></trkpt><trkpt lat="43.596734612439185" lon="3.788707313294482"><ele>54.5</ele><time>2026-04-12T10:30:32.977Z</time></trkpt><trkpt lat="43.59663437190951" lon="3.788787723796448"><ele>53.75</ele><time>2026-04-12T10:30:34.977Z</time></trkpt><trkpt lat="43.59653905148624" lon="3.788886408543366"><ele>53.0</ele><time>2026-04-12T10:30:36.977Z</time></trkpt><trkpt lat="43.59642939538305" lon="3.788986640032741"><ele>53.0</ele><time>2026-04-12T10:30:38.977Z</time></trkpt><trkpt lat="43.59632929037905" lon="3.7890719259523595"><ele>53.0</ele><time>2026-04-12T10:30:40.977Z</time></trkpt><trkpt lat="43.596265238617896" lon="3.789096649355898"><ele>53.0</ele><time>2026-04-12T10:30:41.977Z</time></trkpt><trkpt lat="43.59614786385369" lon="3.7891623698655037"><ele>53.0</ele><time>2026-04-12T10:30:43.977Z</time></trkpt><trkpt lat="43.59608667344711" lon="3.7891881384862796"><ele>53.0</ele><time>2026-04-12T10:30:44.977Z</time></trkpt><trkpt lat="43.59599707983909" lon="3.78928669656266"><ele>52.25</ele><time>2026-04-12T10:30:46.977Z</time></trkpt><trkpt lat="43.59589576699008" lon="3.789382796008898"><ele>51.5</ele><time>2026-04-12T10:30:48.977Z</time></trkpt><trkpt lat="43.59579939063768" lon="3.789485906884085"><ele>50.75</ele><time>2026-04-12T10:30:50.977Z</time></trkpt><trkpt lat="43.59570039616048" lon="3.7895872914352964"><ele>50.0</ele><time>2026-04-12T10:30:52.977Z</time></trkpt><trkpt lat="43.595592689849845" lon="3.7896667941181397"><ele>50.0</ele><time>2026-04-12T10:30:54.977Z</time></trkpt><trkpt lat="43.59554109409717" lon="3.789721629183069"><ele>50.0</ele><time>2026-04-12T10:30:55.977Z</time></trkpt><trkpt lat="43.595447926749266" lon="3.789798158264392"><ele>50.0</ele><time>2026-04-12T10:30:57.977Z</time></trkpt><trkpt lat="43.59535623880117" lon="3.7899111290957217"><ele>50.0</ele><time>2026-04-12T10:30:59.977Z</time></trkpt><trkpt lat="43.59526181512681" lon="3.790038281252463"><ele>50.0</ele><time>2026-04-12T10:31:01.977Z</time></trkpt><trkpt lat="43.595202007667254" lon="3.7901042729912024"><ele>50.00000000000001</ele><time>2026-04-12T10:31:02.977Z</time></trkpt><trkpt lat="43.59514590260911" lon="3.790185770174423"><ele>50.0</ele><time>2026-04-12T10:31:03.977Z</time></trkpt><trkpt lat="43.5950825947617" lon="3.7902476853592124"><ele>50.0</ele><time>2026-04-12T10:31:04.977Z</time></trkpt><trkpt lat="43.5950070767568" lon="3.790305517488598"><ele>50.0</ele><time>2026-04-12T10:31:06.977Z</time></trkpt><trkpt lat="43.59492490039784" lon="3.7903693706018857"><ele>50.00000000000001</ele><time>2026-04-12T10:31:08.977Z</time></trkpt><trkpt lat="43.594852554914894" lon="3.7904503298013283"><ele>50.0</ele><time>2026-04-12T10:31:10.977Z</time></trkpt><trkpt lat="43.59476575919658" lon="3.790515649323342"><ele>50.0</ele><time>2026-04-12T10:31:12.977Z</time></trkpt><trkpt lat="43.59469235475587" lon="3.790607708404436"><ele>50.0</ele><time>2026-04-12T10:31:14.976Z</time></trkpt><trkpt lat="43.59462677348285" lon="3.7907226188867265"><ele>50.0</ele><time>2026-04-12T10:31:16.976Z</time></trkpt><trkpt lat="43.594599904625504" lon="3.7908037870100757"><ele>50.0</ele><time>2026-04-12T10:31:17.976Z</time></trkpt><trkpt lat="43.59454525359791" lon="3.790949574136287"><ele>50.0</ele><time>2026-04-12T10:31:19.976Z</time></trkpt><trkpt lat="43.5945180538298" lon="3.7910279648932836"><ele>49.6</ele><time>2026-04-12T10:31:20.976Z</time></trkpt><trkpt lat="43.594435247686825" lon="3.7911549948253227"><ele>49.2</ele><time>2026-04-12T10:31:22.976Z</time></trkpt><trkpt lat="43.59440031202292" lon="3.7912447830813716"><ele>48.8</ele><time>2026-04-12T10:31:23.976Z</time></trkpt><trkpt lat="43.59435896039779" lon="3.7913116993896425"><ele>48.4</ele><time>2026-04-12T10:31:24.976Z</time></trkpt><trkpt lat="43.59428837451967" lon="3.7914391197761694"><ele>48.0</ele><time>2026-04-12T10:31:26.976Z</time></trkpt><trkpt lat="43.59421685102503" lon="3.7915591284679055"><ele>48.0</ele><time>2026-04-12T10:31:28.976Z</time></trkpt><trkpt lat="43.594165416603325" lon="3.791673913969888"><ele>48.0</ele><time>2026-04-12T10:31:30.976Z</time></trkpt><trkpt lat="43.59413956465039" lon="3.791784061244473"><ele>48.0</ele><time>2026-04-12T10:31:32.976Z</time></trkpt><trkpt lat="43.59407504000761" lon="3.791895405391871"><ele>48.0</ele><time>2026-04-12T10:31:34.976Z</time></trkpt><trkpt lat="43.59400405234695" lon="3.791995633065413"><ele>48.0</ele><time>2026-04-12T10:31:36.976Z</time></trkpt><trkpt lat="43.59391356344752" lon="3.7920812793665344"><ele>48.4</ele><time>2026-04-12T10:31:38.976Z</time></trkpt><trkpt lat="43.593831928858435" lon="3.792179142787133"><ele>48.8</ele><time>2026-04-12T10:31:40.976Z</time></trkpt><trkpt lat="43.593742189918856" lon="3.7922733964881323"><ele>49.2</ele><time>2026-04-12T10:31:42.976Z</time></trkpt><trkpt lat="43.593663986569496" lon="3.7923648031408845"><ele>49.6</ele><time>2026-04-12T10:31:44.976Z</time></trkpt><trkpt lat="43.593569903783006" lon="3.792459310704821"><ele>50.0</ele><time>2026-04-12T10:31:46.976Z</time></trkpt><trkpt lat="43.593476010817895" lon="3.792529216075926"><ele>49.0</ele><time>2026-04-12T10:31:48.976Z</time></trkpt><trkpt lat="43.59338954041047" lon="3.792596652248732"><ele>48.0</ele><time>2026-04-12T10:31:50.976Z</time></trkpt><trkpt lat="43.59332295923281" lon="3.7926772673685956"><ele>47.0</ele><time>2026-04-12T10:31:52.976Z</time></trkpt><trkpt lat="43.59322603352923" lon="3.7926931535574617"><ele>46.0</ele><time>2026-04-12T10:31:54.976Z</time></trkpt><trkpt lat="43.59313695746055" lon="3.792779154269447"><ele>45.0</ele><time>2026-04-12T10:31:56.976Z</time></trkpt><trkpt lat="43.59307868317589" lon="3.7929272395358145"><ele>45.0</ele><time>2026-04-12T10:31:58.976Z</time></trkpt><trkpt lat="43.59300994636749" lon="3.7930332739228634"><ele>45.0</ele><time>2026-04-12T10:32:00.976Z</time></trkpt><trkpt lat="43.592894601999454" lon="3.793110998427923"><ele>45.0</ele><time>2026-04-12T10:32:02.976Z</time></trkpt><trkpt lat="43.5928494768472" lon="3.7931787542077835"><ele>45.0</ele><time>2026-04-12T10:32:03.976Z</time></trkpt><trkpt lat="43.592806515920486" lon="3.793267079339292"><ele>45.0</ele><time>2026-04-12T10:32:04.976Z</time></trkpt><trkpt lat="43.592761879107364" lon="3.793335408473702"><ele>45.0</ele><time>2026-04-12T10:32:05.976Z</time></trkpt><trkpt lat="43.59267633147816" lon="3.793459851847182"><ele>44.8</ele><time>2026-04-12T10:32:07.976Z</time></trkpt><trkpt lat="43.592595504085644" lon="3.793581857177377"><ele>44.6</ele><time>2026-04-12T10:32:09.976Z</time></trkpt><trkpt lat="43.59248638088499" lon="3.7936519124576296"><ele>44.400000000000006</ele><time>2026-04-12T10:32:11.976Z</time></trkpt><trkpt lat="43.59241486547656" lon="3.793656682464339"><ele>44.2</ele><time>2026-04-12T10:32:12.976Z</time></trkpt><trkpt lat="43.59230459896775" lon="3.793700716355964"><ele>44.0</ele><time>2026-04-12T10:32:14.976Z</time></trkpt><trkpt lat="43.59220584091457" lon="3.7937728708348475"><ele>44.0</ele><time>2026-04-12T10:32:16.976Z</time></trkpt><trkpt lat="43.59214430324039" lon="3.793903117074071"><ele>44.0</ele><time>2026-04-12T10:32:18.976Z</time></trkpt><trkpt lat="43.59210919755658" lon="3.7939813601330097"><ele>44.0</ele><time>2026-04-12T10:32:19.976Z</time></trkpt><trkpt lat="43.592058330188365" lon="3.7941252269060985"><ele>44.0</ele><time>2026-04-12T10:32:21.976Z</time></trkpt><trkpt lat="43.592036779555976" lon="3.794207895758807"><ele>44.0</ele><time>2026-04-12T10:32:22.978Z</time></trkpt><trkpt lat="43.59202250875834" lon="3.794293095790221"><ele>44.0</ele><time>2026-04-12T10:32:23.977Z</time></trkpt><trkpt lat="43.59197893060503" lon="3.794423856809989"><ele>43.2</ele><time>2026-04-12T10:32:25.977Z</time></trkpt><trkpt lat="43.591921679732074" lon="3.7945568651982042"><ele>42.400000000000006</ele><time>2026-04-12T10:32:27.977Z</time></trkpt><trkpt lat="43.59187551675016" lon="3.794701094301523"><ele>41.6</ele><time>2026-04-12T10:32:29.977Z</time></trkpt><trkpt lat="43.59184925336281" lon="3.794780337530397"><ele>40.8</ele><time>2026-04-12T10:32:30.977Z</time></trkpt><trkpt lat="43.59178893138907" lon="3.7949164381623106"><ele>40.0</ele><time>2026-04-12T10:32:32.977Z</time></trkpt><trkpt lat="43.59171793796355" lon="3.795052128037227"><ele>40.0</ele><time>2026-04-12T10:32:34.978Z</time></trkpt><trkpt lat="43.59167474107847" lon="3.7951171038708815"><ele>40.0</ele><time>2026-04-12T10:32:35.978Z</time></trkpt><trkpt lat="43.591613342243086" lon="3.7952414638632623"><ele>40.0</ele><time>2026-04-12T10:32:37.978Z</time></trkpt><trkpt lat="43.591567721779725" lon="3.79537134450144"><ele>40.0</ele><time>2026-04-12T10:32:39.978Z</time></trkpt><trkpt lat="43.59153341671501" lon="3.795489365737555"><ele>40.0</ele><time>2026-04-12T10:32:41.978Z</time></trkpt><trkpt lat="43.59148148748206" lon="3.7955937321687405"><ele>40.6</ele><time>2026-04-12T10:32:43.978Z</time></trkpt><trkpt lat="43.59144204610717" lon="3.7956720933553667"><ele>41.2</ele><time>2026-04-12T10:32:45.978Z</time></trkpt><trkpt lat="43.591384702555054" lon="3.795743926640084"><ele>41.8</ele><time>2026-04-12T10:32:47.978Z</time></trkpt><trkpt lat="43.5913170508088" lon="3.7958543770687334"><ele>42.4</ele><time>2026-04-12T10:32:49.978Z</time></trkpt><trkpt lat="43.591249535682756" lon="3.795977085786775"><ele>43.0</ele><time>2026-04-12T10:32:51.978Z</time></trkpt><trkpt lat="43.591181306082945" lon="3.796103430256721"><ele>42.8</ele><time>2026-04-12T10:32:53.978Z</time></trkpt><trkpt lat="43.59110602935771" lon="3.7962201763889736"><ele>42.599999999999994</ele><time>2026-04-12T10:32:55.978Z</time></trkpt><trkpt lat="43.591019501393795" lon="3.796308315131652"><ele>42.400000000000006</ele><time>2026-04-12T10:32:57.978Z</time></trkpt><trkpt lat="43.59093027659913" lon="3.7963973809753644"><ele>42.2</ele><time>2026-04-12T10:32:59.978Z</time></trkpt><trkpt lat="43.59083113800373" lon="3.796469209893224"><ele>42.0</ele><time>2026-04-12T10:33:01.978Z</time></trkpt><trkpt lat="43.590733599652" lon="3.7965449392806434"><ele>42.0</ele><time>2026-04-12T10:33:03.978Z</time></trkpt><trkpt lat="43.59062686170684" lon="3.7966145418180073"><ele>42.0</ele><time>2026-04-12T10:33:05.978Z</time></trkpt><trkpt lat="43.59052806024682" lon="3.796703350798504"><ele>42.0</ele><time>2026-04-12T10:33:07.978Z</time></trkpt><trkpt lat="43.590429375036436" lon="3.7967753168248333"><ele>42.0</ele><time>2026-04-12T10:33:09.978Z</time></trkpt><trkpt lat="43.59034121083401" lon="3.7968217805344144"><ele>42.0</ele><time>2026-04-12T10:33:11.978Z</time></trkpt><trkpt lat="43.590248125385564" lon="3.7968812742016436"><ele>42.0</ele><time>2026-04-12T10:33:13.978Z</time></trkpt><trkpt lat="43.590150445694036" lon="3.796939881079381"><ele>42.0</ele><time>2026-04-12T10:33:15.978Z</time></trkpt><trkpt lat="43.59007429729619" lon="3.7969978351727183"><ele>42.0</ele><time>2026-04-12T10:33:17.978Z</time></trkpt><trkpt lat="43.59000577303726" lon="3.797048033194624"><ele>42.0</ele><time>2026-04-12T10:33:19.978Z</time></trkpt><trkpt lat="43.58991124589775" lon="3.7970302489223604"><ele>42.0</ele><time>2026-04-12T10:33:21.978Z</time></trkpt><trkpt lat="43.58983979036492" lon="3.7969387377662525"><ele>41.5</ele><time>2026-04-12T10:33:23.978Z</time></trkpt><trkpt lat="43.58977687446092" lon="3.796818660643275"><ele>41.0</ele><time>2026-04-12T10:33:25.978Z</time></trkpt><trkpt lat="43.589722829674265" lon="3.7966653236817005"><ele>40.5</ele><time>2026-04-12T10:33:27.978Z</time></trkpt><trkpt lat="43.58972404694229" lon="3.7965764250707146"><ele>40.0</ele><time>2026-04-12T10:33:28.978Z</time></trkpt><trkpt lat="43.58974185555901" lon="3.7964825611550697"><ele>39.5</ele><time>2026-04-12T10:33:29.978Z</time></trkpt><trkpt lat="43.58977852976334" lon="3.796407919306585"><ele>39.0</ele><time>2026-04-12T10:33:30.978Z</time></trkpt><trkpt lat="43.58983353642141" lon="3.7963622374597388"><ele>39.0</ele><time>2026-04-12T10:33:31.978Z</time></trkpt><trkpt lat="43.58989273055368" lon="3.796325173869099"><ele>39.0</ele><time>2026-04-12T10:33:32.978Z</time></trkpt><trkpt lat="43.58999609329647" lon="3.7962461550599853"><ele>39.0</ele><time>2026-04-12T10:33:34.978Z</time></trkpt><trkpt lat="43.590086322813676" lon="3.7961566644405766"><ele>39.0</ele><time>2026-04-12T10:33:36.978Z</time></trkpt><trkpt lat="43.59017073924796" lon="3.796054269141653"><ele>39.0</ele><time>2026-04-12T10:33:38.978Z</time></trkpt><trkpt lat="43.59025946649075" lon="3.7959757381892705"><ele>39.0</ele><time>2026-04-12T10:33:40.978Z</time></trkpt><trkpt lat="43.590341380887345" lon="3.7958917387005853"><ele>39.0</ele><time>2026-04-12T10:33:42.978Z</time></trkpt><trkpt lat="43.59042092569025" lon="3.795813883810959"><ele>39.0</ele><time>2026-04-12T10:33:44.978Z</time></trkpt><trkpt lat="43.590481663352165" lon="3.795708115490711"><ele>39.0</ele><time>2026-04-12T10:33:46.978Z</time></trkpt><trkpt lat="43.59054094978141" lon="3.795580437683548"><ele>39.0</ele><time>2026-04-12T10:33:48.978Z</time></trkpt><trkpt lat="43.5905750411733" lon="3.795505672352594"><ele>39.0</ele><time>2026-04-12T10:33:49.978Z</time></trkpt><trkpt lat="43.59060971844496" lon="3.795427919779542"><ele>39.0</ele><time>2026-04-12T10:33:50.978Z</time></trkpt><trkpt lat="43.59066667017412" lon="3.795277893514995"><ele>39.0</ele><time>2026-04-12T10:33:52.978Z</time></trkpt><trkpt lat="43.59069758073583" lon="3.795201287305558"><ele>39.0</ele><time>2026-04-12T10:33:53.978Z</time></trkpt><trkpt lat="43.59075058315272" lon="3.79507443808992"><ele>39.0</ele><time>2026-04-12T10:33:55.978Z</time></trkpt><trkpt lat="43.5907971230883" lon="3.7949418755521953"><ele>38.2</ele><time>2026-04-12T10:33:57.978Z</time></trkpt><trkpt lat="43.59083385827221" lon="3.794830327536436"><ele>37.4</ele><time>2026-04-12T10:33:59.978Z</time></trkpt><trkpt lat="43.59086999410576" lon="3.7947166827065364"><ele>36.6</ele><time>2026-04-12T10:34:01.978Z</time></trkpt><trkpt lat="43.59090808254411" lon="3.794587011683189"><ele>35.8</ele><time>2026-04-12T10:34:03.978Z</time></trkpt><trkpt lat="43.590950270387076" lon="3.7944523429514665"><ele>35.0</ele><time>2026-04-12T10:34:05.978Z</time></trkpt><trkpt lat="43.59099491631281" lon="3.79429131824863"><ele>35.0</ele><time>2026-04-12T10:34:07.978Z</time></trkpt><trkpt lat="43.591029330444826" lon="3.7941288720381445"><ele>35.0</ele><time>2026-04-12T10:34:09.978Z</time></trkpt><trkpt lat="43.591048270492486" lon="3.7940424018039933"><ele>35.0</ele><time>2026-04-12T10:34:10.978Z</time></trkpt><trkpt lat="43.591087692689335" lon="3.793882358985968"><ele>35.0</ele><time>2026-04-12T10:34:12.978Z</time></trkpt><trkpt lat="43.591098345502516" lon="3.7937964065380894"><ele>35.0</ele><time>2026-04-12T10:34:13.978Z</time></trkpt><trkpt lat="43.59110125093751" lon="3.793697575744036"><ele>35.0</ele><time>2026-04-12T10:34:14.978Z</time></trkpt><trkpt lat="43.59108106159909" lon="3.793542406844837"><ele>35.166666666666664</ele><time>2026-04-12T10:34:16.978Z</time></trkpt><trkpt lat="43.59107604567374" lon="3.7933952638945505"><ele>35.33333333333333</ele><time>2026-04-12T10:34:18.978Z</time></trkpt><trkpt lat="43.591102680927136" lon="3.793270505847579"><ele>35.5</ele><time>2026-04-12T10:34:20.978Z</time></trkpt><trkpt lat="43.591176788756215" lon="3.7931967690322117"><ele>35.666666666666664</ele><time>2026-04-12T10:34:22.978Z</time></trkpt><trkpt lat="43.59123769796324" lon="3.793107266786357"><ele>35.833333333333336</ele><time>2026-04-12T10:34:24.977Z</time></trkpt><trkpt lat="43.5912714729962" lon="3.79303266451495"><ele>36.0</ele><time>2026-04-12T10:34:25.977Z</time></trkpt><trkpt lat="43.59134392701365" lon="3.7928929652718244"><ele>36.0</ele><time>2026-04-12T10:34:27.977Z</time></trkpt><trkpt lat="43.591381458155254" lon="3.792805451499284"><ele>36.0</ele><time>2026-04-12T10:34:28.979Z</time></trkpt><trkpt lat="43.59141681110203" lon="3.7927201285321006"><ele>36.0</ele><time>2026-04-12T10:34:29.978Z</time></trkpt><trkpt lat="43.59145464432072" lon="3.7926239319726704"><ele>36.0</ele><time>2026-04-12T10:34:30.978Z</time></trkpt><trkpt lat="43.591487399641146" lon="3.792535671646466"><ele>36.0</ele><time>2026-04-12T10:34:31.978Z</time></trkpt><trkpt lat="43.591545735472245" lon="3.79238599417833"><ele>36.0</ele><time>2026-04-12T10:34:33.978Z</time></trkpt><trkpt lat="43.59159728626713" lon="3.7922450992779244"><ele>36.2</ele><time>2026-04-12T10:34:35.978Z</time></trkpt><trkpt lat="43.591617413033134" lon="3.79208944981894"><ele>36.400000000000006</ele><time>2026-04-12T10:34:37.978Z</time></trkpt><trkpt lat="43.59164135549265" lon="3.7919649107945563"><ele>36.6</ele><time>2026-04-12T10:34:39.978Z</time></trkpt><trkpt lat="43.59163383535292" lon="3.79185338022941"><ele>36.800000000000004</ele><time>2026-04-12T10:34:41.978Z</time></trkpt><trkpt lat="43.591617326966784" lon="3.7917337502901245"><ele>37.0</ele><time>2026-04-12T10:34:44.978Z</time></trkpt><trkpt lat="43.59161191853208" lon="3.7916033548726285"><ele>38.0</ele><time>2026-04-12T10:34:47.978Z</time></trkpt><trkpt lat="43.59162451464826" lon="3.7914930390764483"><ele>39.0</ele><time>2026-04-12T10:34:49.978Z</time></trkpt><trkpt lat="43.591644781224765" lon="3.791369981503071"><ele>40.0</ele><time>2026-04-12T10:34:51.978Z</time></trkpt><trkpt lat="43.591648242745045" lon="3.791250179492697"><ele>41.0</ele><time>2026-04-12T10:34:53.978Z</time></trkpt><trkpt lat="43.59165873452863" lon="3.7911231734001"><ele>42.0</ele><time>2026-04-12T10:34:55.978Z</time></trkpt><trkpt lat="43.591681917918265" lon="3.790986179644638"><ele>42.2</ele><time>2026-04-12T10:34:57.978Z</time></trkpt><trkpt lat="43.59171156199009" lon="3.7908451276859085"><ele>42.400000000000006</ele><time>2026-04-12T10:34:59.978Z</time></trkpt><trkpt lat="43.59174500277247" lon="3.790694239305819"><ele>42.599999999999994</ele><time>2026-04-12T10:35:01.978Z</time></trkpt><trkpt lat="43.59177684627333" lon="3.7905485942299286"><ele>42.8</ele><time>2026-04-12T10:35:03.978Z</time></trkpt><trkpt lat="43.59181440505586" lon="3.7904006215835806"><ele>43.0</ele><time>2026-04-12T10:35:05.978Z</time></trkpt><trkpt lat="43.59186435994645" lon="3.7902567182174423"><ele>42.75</ele><time>2026-04-12T10:35:07.978Z</time></trkpt><trkpt lat="43.59187561295077" lon="3.790101833805204"><ele>42.5</ele><time>2026-04-12T10:35:09.978Z</time></trkpt><trkpt lat="43.59182963202604" lon="3.789965407226605"><ele>42.25</ele><time>2026-04-12T10:35:11.978Z</time></trkpt><trkpt lat="43.5917375782678" lon="3.7898602463956204"><ele>42.0</ele><time>2026-04-12T10:35:13.978Z</time></trkpt><trkpt lat="43.59166541545552" lon="3.789739473479143"><ele>42.0</ele><time>2026-04-12T10:35:15.978Z</time></trkpt><trkpt lat="43.591595987380245" lon="3.789623388500719"><ele>42.0</ele><time>2026-04-12T10:35:17.978Z</time></trkpt><trkpt lat="43.5915284369178" lon="3.789519627837234"><ele>42.0</ele><time>2026-04-12T10:35:19.978Z</time></trkpt><trkpt lat="43.59147147024043" lon="3.7894241665382915"><ele>42.0</ele><time>2026-04-12T10:35:21.978Z</time></trkpt><trkpt lat="43.59139929655102" lon="3.789293807526864"><ele>42.0</ele><time>2026-04-12T10:35:23.978Z</time></trkpt><trkpt lat="43.59134505524221" lon="3.78922873063916"><ele>42.0</ele><time>2026-04-12T10:35:26.978Z</time></trkpt><trkpt lat="43.59130418985355" lon="3.7893087027732792"><ele>42.0</ele><time>2026-04-12T10:37:56.977Z</time></trkpt><trkpt lat="43.591388189775145" lon="3.789355573629012"><ele>42.0</ele><time>2026-04-12T10:37:59.977Z</time></trkpt><trkpt lat="43.59146130112221" lon="3.7894245379498273"><ele>42.0</ele><time>2026-04-12T10:38:01.977Z</time></trkpt><trkpt lat="43.59152502310263" lon="3.7895317102241"><ele>42.0</ele><time>2026-04-12T10:38:03.977Z</time></trkpt><trkpt lat="43.591589019250726" lon="3.7896354604245857"><ele>42.0</ele><time>2026-04-12T10:38:05.977Z</time></trkpt><trkpt lat="43.5916502573108" lon="3.789733801957054"><ele>42.0</ele><time>2026-04-12T10:38:07.977Z</time></trkpt><trkpt lat="43.591713098411105" lon="3.7898389189191763"><ele>42.0</ele><time>2026-04-12T10:38:09.977Z</time></trkpt><trkpt lat="43.59177518606005" lon="3.7899447069935985"><ele>42.0</ele><time>2026-04-12T10:38:11.977Z</time></trkpt><trkpt lat="43.591820836452605" lon="3.7900611864918976"><ele>42.0</ele><time>2026-04-12T10:38:13.977Z</time></trkpt><trkpt lat="43.59187784781109" lon="3.7901563665128783"><ele>42.0</ele><time>2026-04-12T10:38:15.977Z</time></trkpt><trkpt lat="43.591883895696576" lon="3.7902690913837307"><ele>42.2</ele><time>2026-04-12T10:38:17.977Z</time></trkpt><trkpt lat="43.59185070046757" lon="3.7903782788207923"><ele>42.400000000000006</ele><time>2026-04-12T10:38:19.977Z</time></trkpt><trkpt lat="43.591819087913855" lon="3.7904805078495367"><ele>42.599999999999994</ele><time>2026-04-12T10:38:21.977Z</time></trkpt><trkpt lat="43.591786449440875" lon="3.790593760973673"><ele>42.8</ele><time>2026-04-12T10:38:23.977Z</time></trkpt><trkpt lat="43.59175236533648" lon="3.7907157060361563"><ele>43.0</ele><time>2026-04-12T10:38:25.977Z</time></trkpt><trkpt lat="43.59172462083586" lon="3.7908519013667297"><ele>43.0</ele><time>2026-04-12T10:38:27.977Z</time></trkpt><trkpt lat="43.59170069512599" lon="3.790989672686093"><ele>43.0</ele><time>2026-04-12T10:38:29.977Z</time></trkpt><trkpt lat="43.5916808862293" lon="3.791112882735892"><ele>43.0</ele><time>2026-04-12T10:38:31.977Z</time></trkpt><trkpt lat="43.59166211734093" lon="3.7912343699173956"><ele>43.0</ele><time>2026-04-12T10:38:33.977Z</time></trkpt><trkpt lat="43.59164538539845" lon="3.791355770587375"><ele>43.0</ele><time>2026-04-12T10:38:35.977Z</time></trkpt><trkpt lat="43.591630554541595" lon="3.791481782612522"><ele>42.85714285714286</ele><time>2026-04-12T10:38:37.977Z</time></trkpt><trkpt lat="43.591609430512015" lon="3.7916079541985224"><ele>42.714285714285715</ele><time>2026-04-12T10:38:39.977Z</time></trkpt><trkpt lat="43.591600086396745" lon="3.791712687137341"><ele>42.57142857142857</ele><time>2026-04-12T10:38:41.979Z</time></trkpt><trkpt lat="43.59160005297828" lon="3.791799959669099"><ele>42.42857142857143</ele><time>2026-04-12T10:38:45.979Z</time></trkpt><trkpt lat="43.59160901226664" lon="3.7919009348484036"><ele>42.285714285714285</ele><time>2026-04-12T10:38:50.979Z</time></trkpt><trkpt lat="43.59166098267399" lon="3.791962387387132"><ele>42.142857142857146</ele><time>2026-04-12T10:39:12.978Z</time></trkpt><trkpt lat="43.591637096754134" lon="3.7918747195946647"><ele>42.0</ele><time>2026-04-12T10:39:39.978Z</time></trkpt><trkpt lat="43.591622118055085" lon="3.7917540541671406"><ele>42.0</ele><time>2026-04-12T10:39:48.978Z</time></trkpt><trkpt lat="43.59161675731064" lon="3.791662539401465"><ele>42.0</ele><time>2026-04-12T10:39:50.978Z</time></trkpt><trkpt lat="43.59162181178429" lon="3.7915714057732552"><ele>42.0</ele><time>2026-04-12T10:39:52.978Z</time></trkpt><trkpt lat="43.591627578511954" lon="3.791409879756537"><ele>42.0</ele><time>2026-04-12T10:39:55.977Z</time></trkpt><trkpt lat="43.59163949959971" lon="3.7913072517007214"><ele>42.0</ele><time>2026-04-12T10:39:57.977Z</time></trkpt><trkpt lat="43.59164998463773" lon="3.7911993434023135"><ele>42.0</ele><time>2026-04-12T10:39:59.977Z</time></trkpt><trkpt lat="43.59167272983148" lon="3.7910840386682056"><ele>42.2</ele><time>2026-04-12T10:40:01.977Z</time></trkpt><trkpt lat="43.591684962411165" lon="3.790973771481451"><ele>42.400000000000006</ele><time>2026-04-12T10:40:03.977Z</time></trkpt><trkpt lat="43.59170399810584" lon="3.7908430303377134"><ele>42.599999999999994</ele><time>2026-04-12T10:40:05.977Z</time></trkpt><trkpt lat="43.59172072199862" lon="3.790708223774957"><ele>42.8</ele><time>2026-04-12T10:40:07.977Z</time></trkpt><trkpt lat="43.59176552089349" lon="3.790574526822029"><ele>43.0</ele><time>2026-04-12T10:40:09.977Z</time></trkpt><trkpt lat="43.59180660113117" lon="3.790449331414712"><ele>43.0</ele><time>2026-04-12T10:40:11.977Z</time></trkpt><trkpt lat="43.59184206539184" lon="3.7903173560430408"><ele>43.0</ele><time>2026-04-12T10:40:13.977Z</time></trkpt><trkpt lat="43.5918701653426" lon="3.790170548093597"><ele>43.0</ele><time>2026-04-12T10:40:15.977Z</time></trkpt><trkpt lat="43.59184190095145" lon="3.7900109406770244"><ele>43.0</ele><time>2026-04-12T10:40:17.977Z</time></trkpt><trkpt lat="43.591765807613484" lon="3.7899110304855754"><ele>43.0</ele><time>2026-04-12T10:40:19.977Z</time></trkpt><trkpt lat="43.59171295758796" lon="3.789849477514609"><ele>42.8</ele><time>2026-04-12T10:40:20.977Z</time></trkpt><trkpt lat="43.59167506117395" lon="3.7897626668019426"><ele>42.599999999999994</ele><time>2026-04-12T10:40:21.977Z</time></trkpt><trkpt lat="43.59163441443321" lon="3.7896852350251726"><ele>42.400000000000006</ele><time>2026-04-12T10:40:22.977Z</time></trkpt><trkpt lat="43.59155569346678" lon="3.7895542073631376"><ele>42.2</ele><time>2026-04-12T10:40:24.977Z</time></trkpt><trkpt lat="43.59147201753654" lon="3.7894297305106104"><ele>42.0</ele><time>2026-04-12T10:40:26.977Z</time></trkpt><trkpt lat="43.5913929651821" lon="3.7892981645420085"><ele>42.400000000000006</ele><time>2026-04-12T10:40:28.977Z</time></trkpt><trkpt lat="43.591315623004256" lon="3.789173225711735"><ele>42.800000000000004</ele><time>2026-04-12T10:40:30.977Z</time></trkpt><trkpt lat="43.59127994757224" lon="3.789033199828799"><ele>43.2</ele><time>2026-04-12T10:40:32.977Z</time></trkpt><trkpt lat="43.59128192606787" lon="3.7889388400271042"><ele>43.6</ele><time>2026-04-12T10:40:33.977Z</time></trkpt><trkpt lat="43.59128893581659" lon="3.788847776889153"><ele>44.0</ele><time>2026-04-12T10:40:34.977Z</time></trkpt><trkpt lat="43.59127896318434" lon="3.788682945524778"><ele>44.0</ele><time>2026-04-12T10:40:36.977Z</time></trkpt><trkpt lat="43.591315932015355" lon="3.788585747349813"><ele>44.0</ele><time>2026-04-12T10:40:37.977Z</time></trkpt><trkpt lat="43.591412397097464" lon="3.7884688354530938"><ele>44.0</ele><time>2026-04-12T10:40:39.977Z</time></trkpt><trkpt lat="43.59143218707558" lon="3.7883138949082724"><ele>44.0</ele><time>2026-04-12T10:40:41.977Z</time></trkpt><trkpt lat="43.591491262538554" lon="3.7881677760770245"><ele>44.0</ele><time>2026-04-12T10:40:43.977Z</time></trkpt><trkpt lat="43.59152186212688" lon="3.7880889235544344"><ele>44.25</ele><time>2026-04-12T10:40:44.977Z</time></trkpt><trkpt lat="43.59157292625615" lon="3.7879311043415496"><ele>44.5</ele><time>2026-04-12T10:40:46.978Z</time></trkpt><trkpt lat="43.59160937891485" lon="3.787784605612579"><ele>44.75</ele><time>2026-04-12T10:40:48.979Z</time></trkpt><trkpt lat="43.5916435078732" lon="3.7876212069504653"><ele>45.0</ele><time>2026-04-12T10:40:50.978Z</time></trkpt><trkpt lat="43.59166210274803" lon="3.787472766667306"><ele>45.0</ele><time>2026-04-12T10:40:52.978Z</time></trkpt><trkpt lat="43.59168125122874" lon="3.7873092399909862"><ele>45.0</ele><time>2026-04-12T10:40:54.978Z</time></trkpt><trkpt lat="43.591699382633884" lon="3.7871624801991763"><ele>45.0</ele><time>2026-04-12T10:40:56.978Z</time></trkpt><trkpt lat="43.591721678703706" lon="3.787079564687032"><ele>45.0</ele><time>2026-04-12T10:40:57.978Z</time></trkpt><trkpt lat="43.59176187708628" lon="3.7869309291270814"><ele>45.0</ele><time>2026-04-12T10:40:59.978Z</time></trkpt><trkpt lat="43.59180373417742" lon="3.7867866199108353"><ele>45.4</ele><time>2026-04-12T10:41:01.978Z</time></trkpt><trkpt lat="43.59184379494116" lon="3.786644592255207"><ele>45.8</ele><time>2026-04-12T10:41:03.978Z</time></trkpt><trkpt lat="43.59188283192118" lon="3.7865071841366365"><ele>46.2</ele><time>2026-04-12T10:41:05.978Z</time></trkpt><trkpt lat="43.59193179495512" lon="3.7863706849766934"><ele>46.6</ele><time>2026-04-12T10:41:07.978Z</time></trkpt><trkpt lat="43.59198097250265" lon="3.7862324523135023"><ele>47.0</ele><time>2026-04-12T10:41:09.978Z</time></trkpt><trkpt lat="43.59201884085026" lon="3.786081095586654"><ele>46.400000000000006</ele><time>2026-04-12T10:41:11.978Z</time></trkpt><trkpt lat="43.59205080292209" lon="3.7860041668035858"><ele>45.800000000000004</ele><time>2026-04-12T10:41:12.978Z</time></trkpt><trkpt lat="43.59209085718976" lon="3.7858545368002368"><ele>45.2</ele><time>2026-04-12T10:41:14.978Z</time></trkpt><trkpt lat="43.59213869773605" lon="3.7857052205080164"><ele>44.6</ele><time>2026-04-12T10:41:16.978Z</time></trkpt><trkpt lat="43.59218145001504" lon="3.7855543078838036"><ele>44.0</ele><time>2026-04-12T10:41:18.978Z</time></trkpt><trkpt lat="43.59221220432315" lon="3.7853992506064245"><ele>44.0</ele><time>2026-04-12T10:41:20.978Z</time></trkpt><trkpt lat="43.59222319470006" lon="3.7852323832982466"><ele>44.0</ele><time>2026-04-12T10:41:22.978Z</time></trkpt><trkpt lat="43.592233052616244" lon="3.785079843572312"><ele>44.0</ele><time>2026-04-12T10:41:24.978Z</time></trkpt><trkpt lat="43.5922413834146" lon="3.7849270533623303"><ele>44.0</ele><time>2026-04-12T10:41:26.978Z</time></trkpt><trkpt lat="43.59224494841818" lon="3.784772703736007"><ele>43.800000000000004</ele><time>2026-04-12T10:41:28.978Z</time></trkpt><trkpt lat="43.59224477485244" lon="3.78460759671387"><ele>43.6</ele><time>2026-04-12T10:41:30.978Z</time></trkpt><trkpt lat="43.5922907376909" lon="3.784543822245745"><ele>43.4</ele><time>2026-04-12T10:41:31.978Z</time></trkpt><trkpt lat="43.59231693810228" lon="3.7843993452393687"><ele>43.2</ele><time>2026-04-12T10:41:33.977Z</time></trkpt><trkpt lat="43.59234220846213" lon="3.7842460135070595"><ele>43.0</ele><time>2026-04-12T10:41:35.977Z</time></trkpt><trkpt lat="43.59234945709395" lon="3.784107529724272"><ele>43.5</ele><time>2026-04-12T10:41:37.977Z</time></trkpt><trkpt lat="43.5923748444116" lon="3.783949134356781"><ele>44.0</ele><time>2026-04-12T10:41:39.977Z</time></trkpt><trkpt lat="43.59239703284802" lon="3.783793831440333"><ele>44.5</ele><time>2026-04-12T10:41:41.977Z</time></trkpt><trkpt lat="43.592426558696026" lon="3.783642704701372"><ele>45.0</ele><time>2026-04-12T10:41:43.977Z</time></trkpt><trkpt lat="43.59244560599824" lon="3.7834921482981314"><ele>45.6</ele><time>2026-04-12T10:41:45.977Z</time></trkpt><trkpt lat="43.59246112056283" lon="3.783327034956739"><ele>46.2</ele><time>2026-04-12T10:41:47.977Z</time></trkpt><trkpt lat="43.59247155870762" lon="3.7831652004262057"><ele>46.8</ele><time>2026-04-12T10:41:49.977Z</time></trkpt><trkpt lat="43.592495199911376" lon="3.783084241910977"><ele>47.4</ele><time>2026-04-12T10:41:50.977Z</time></trkpt><trkpt lat="43.592491404423974" lon="3.7829228045500427"><ele>48.0</ele><time>2026-04-12T10:41:52.977Z</time></trkpt><trkpt lat="43.592522796008275" lon="3.7827720980817925"><ele>47.8</ele><time>2026-04-12T10:41:54.977Z</time></trkpt><trkpt lat="43.59252114067809" lon="3.782611810309936"><ele>47.599999999999994</ele><time>2026-04-12T10:41:56.977Z</time></trkpt><trkpt lat="43.59255605551233" lon="3.782460926866257"><ele>47.400000000000006</ele><time>2026-04-12T10:41:58.977Z</time></trkpt><trkpt lat="43.59258546652182" lon="3.7823114967952685"><ele>47.2</ele><time>2026-04-12T10:42:00.977Z</time></trkpt><trkpt lat="43.59257452817542" lon="3.782223818645058"><ele>47.0</ele><time>2026-04-12T10:42:01.977Z</time></trkpt><trkpt lat="43.59260872885078" lon="3.782078821056579"><ele>47.0</ele><time>2026-04-12T10:42:03.977Z</time></trkpt><trkpt lat="43.59264822009784" lon="3.781929363854462"><ele>47.0</ele><time>2026-04-12T10:42:05.977Z</time></trkpt><trkpt lat="43.592704899335054" lon="3.781788010622089"><ele>47.0</ele><time>2026-04-12T10:42:07.977Z</time></trkpt><trkpt lat="43.5927422638044" lon="3.7816572202203784"><ele>47.0</ele><time>2026-04-12T10:42:09.977Z</time></trkpt><trkpt lat="43.592749705985916" lon="3.781519692608324"><ele>47.0</ele><time>2026-04-12T10:42:11.977Z</time></trkpt><trkpt lat="43.59266060173929" lon="3.7814791506694907"><ele>47.2</ele><time>2026-04-12T10:42:13.977Z</time></trkpt><trkpt lat="43.59255458878567" lon="3.781429204614878"><ele>47.400000000000006</ele><time>2026-04-12T10:42:15.977Z</time></trkpt><trkpt lat="43.592447331546296" lon="3.781340915879399"><ele>47.599999999999994</ele><time>2026-04-12T10:42:17.977Z</time></trkpt><trkpt lat="43.59234013825368" lon="3.7812377297658233"><ele>47.8</ele><time>2026-04-12T10:42:19.977Z</time></trkpt><trkpt lat="43.59230069871697" lon="3.781169119413014"><ele>48.0</ele><time>2026-04-12T10:42:20.977Z</time></trkpt><trkpt lat="43.59218929448123" lon="3.781086195500822"><ele>47.833333333333336</ele><time>2026-04-12T10:42:22.977Z</time></trkpt><trkpt lat="43.5920957730602" lon="3.7809661517529642"><ele>47.666666666666664</ele><time>2026-04-12T10:42:24.977Z</time></trkpt><trkpt lat="43.592027574022616" lon="3.780956785434697"><ele>47.5</ele><time>2026-04-12T10:42:25.977Z</time></trkpt><trkpt lat="43.59197464613379" lon="3.7808947069920893"><ele>47.33333333333333</ele><time>2026-04-12T10:42:26.977Z</time></trkpt><trkpt lat="43.591920304908754" lon="3.7808468789468765"><ele>47.166666666666664</ele><time>2026-04-12T10:42:27.977Z</time></trkpt><trkpt lat="43.59186904793968" lon="3.7807918892920855"><ele>47.0</ele><time>2026-04-12T10:42:28.977Z</time></trkpt><trkpt lat="43.591820170657805" lon="3.7807321368294313"><ele>47.285714285714285</ele><time>2026-04-12T10:42:29.977Z</time></trkpt><trkpt lat="43.591770974372885" lon="3.78067635925498"><ele>47.57142857142857</ele><time>2026-04-12T10:42:30.977Z</time></trkpt><trkpt lat="43.591723777548545" lon="3.780615674844666"><ele>47.85714285714286</ele><time>2026-04-12T10:42:31.977Z</time></trkpt><trkpt lat="43.59167576542533" lon="3.780549217372882"><ele>48.14285714285714</ele><time>2026-04-12T10:42:32.977Z</time></trkpt><trkpt lat="43.59163357312509" lon="3.7804842041610542"><ele>48.42857142857143</ele><time>2026-04-12T10:42:33.977Z</time></trkpt><trkpt lat="43.5915889112117" lon="3.780418067189388"><ele>48.714285714285715</ele><time>2026-04-12T10:42:34.977Z</time></trkpt><trkpt lat="43.59150461047099" lon="3.7802948076493568"><ele>49.0</ele><time>2026-04-12T10:42:36.977Z</time></trkpt><trkpt lat="43.59146191394761" lon="3.7802218371821628"><ele>49.25</ele><time>2026-04-12T10:42:37.977Z</time></trkpt><trkpt lat="43.59138240603737" lon="3.7800915819111633"><ele>49.5</ele><time>2026-04-12T10:42:39.977Z</time></trkpt><trkpt lat="43.59130236256999" lon="3.7799642844474426"><ele>49.75</ele><time>2026-04-12T10:42:41.977Z</time></trkpt><trkpt lat="43.591219427398435" lon="3.7798427410592343"><ele>50.0</ele><time>2026-04-12T10:42:43.977Z</time></trkpt><trkpt lat="43.591138427237986" lon="3.7797117941939145"><ele>50.16666666666667</ele><time>2026-04-12T10:42:45.977Z</time></trkpt><trkpt lat="43.591098484075964" lon="3.7796431436997704"><ele>50.333333333333336</ele><time>2026-04-12T10:42:46.977Z</time></trkpt><trkpt lat="43.5910581928202" lon="3.779572254790049"><ele>50.5</ele><time>2026-04-12T10:42:47.977Z</time></trkpt><trkpt lat="43.59100835402572" lon="3.7795143686887016"><ele>50.66666666666667</ele><time>2026-04-12T10:42:48.977Z</time></trkpt><trkpt lat="43.59096274327218" lon="3.7794448435094585"><ele>50.833333333333336</ele><time>2026-04-12T10:42:49.977Z</time></trkpt><trkpt lat="43.590915621053355" lon="3.7793794243453536"><ele>51.0</ele><time>2026-04-12T10:42:50.977Z</time></trkpt><trkpt lat="43.590831387517845" lon="3.779242610332658"><ele>51.0</ele><time>2026-04-12T10:42:52.978Z</time></trkpt><trkpt lat="43.59078932716629" lon="3.7791693305439105"><ele>51.0</ele><time>2026-04-12T10:42:53.978Z</time></trkpt><trkpt lat="43.590727906824696" lon="3.779120319626113"><ele>51.0</ele><time>2026-04-12T10:42:54.978Z</time></trkpt><trkpt lat="43.59067932327886" lon="3.7790544658952854"><ele>51.0</ele><time>2026-04-12T10:42:55.978Z</time></trkpt><trkpt lat="43.5906321368182" lon="3.7789820874243127"><ele>51.0</ele><time>2026-04-12T10:42:56.978Z</time></trkpt><trkpt lat="43.59059061245243" lon="3.77891149257682"><ele>51.0</ele><time>2026-04-12T10:42:57.978Z</time></trkpt><trkpt lat="43.590537083137974" lon="3.778850163933395"><ele>51.0</ele><time>2026-04-12T10:42:58.978Z</time></trkpt><trkpt lat="43.59048624993219" lon="3.778785659508498"><ele>51.0</ele><time>2026-04-12T10:42:59.978Z</time></trkpt><trkpt lat="43.59043321309667" lon="3.7787276369662153"><ele>51.0</ele><time>2026-04-12T10:43:00.977Z</time></trkpt><trkpt lat="43.590376832330016" lon="3.7786764093528324"><ele>51.0</ele><time>2026-04-12T10:43:01.978Z</time></trkpt><trkpt lat="43.590324294229305" lon="3.778622096170058"><ele>51.0</ele><time>2026-04-12T10:43:02.978Z</time></trkpt><trkpt lat="43.59022491216925" lon="3.7785028901564806"><ele>51.0</ele><time>2026-04-12T10:43:04.978Z</time></trkpt><trkpt lat="43.590171271914656" lon="3.7784479210381012"><ele>51.0</ele><time>2026-04-12T10:43:05.978Z</time></trkpt><trkpt lat="43.590119887979526" lon="3.7783835591499284"><ele>50.285714285714285</ele><time>2026-04-12T10:43:06.978Z</time></trkpt><trkpt lat="43.590069361998445" lon="3.7783276711244285"><ele>49.57142857142857</ele><time>2026-04-12T10:43:07.978Z</time></trkpt><trkpt lat="43.590009573486135" lon="3.7782879842426382"><ele>48.85714285714286</ele><time>2026-04-12T10:43:08.978Z</time></trkpt><trkpt lat="43.58994932155707" lon="3.7782618129442445"><ele>48.14285714285714</ele><time>2026-04-12T10:43:09.978Z</time></trkpt><trkpt lat="43.58988265309412" lon="3.7782623649001508"><ele>47.42857142857142</ele><time>2026-04-12T10:43:10.978Z</time></trkpt><trkpt lat="43.589814390768915" lon="3.778261958156791"><ele>46.714285714285715</ele><time>2026-04-12T10:43:11.978Z</time></trkpt><trkpt lat="43.58974580142136" lon="3.7782442800148783"><ele>46.0</ele><time>2026-04-12T10:43:12.978Z</time></trkpt><trkpt lat="43.58967962025451" lon="3.778222874713691"><ele>46.0</ele><time>2026-04-12T10:43:13.978Z</time></trkpt><trkpt lat="43.5896126858086" lon="3.778202552180105"><ele>46.0</ele><time>2026-04-12T10:43:14.978Z</time></trkpt><trkpt lat="43.589556157751225" lon="3.7781614750650268"><ele>46.0</ele><time>2026-04-12T10:43:15.978Z</time></trkpt><trkpt lat="43.589507895917905" lon="3.77810258632421"><ele>46.0</ele><time>2026-04-12T10:43:16.978Z</time></trkpt><trkpt lat="43.58948140720332" lon="3.7780048094438836"><ele>46.0</ele><time>2026-04-12T10:43:17.978Z</time></trkpt><trkpt lat="43.58946433898572" lon="3.7779103837148518"><ele>46.0</ele><time>2026-04-12T10:43:18.978Z</time></trkpt><trkpt lat="43.589449441774754" lon="3.777819538961708"><ele>46.0</ele><time>2026-04-12T10:43:19.978Z</time></trkpt><trkpt lat="43.58941875291631" lon="3.777737841141566"><ele>46.285714285714285</ele><time>2026-04-12T10:43:20.978Z</time></trkpt><trkpt lat="43.58938240443041" lon="3.7776646809446075"><ele>46.57142857142857</ele><time>2026-04-12T10:43:21.978Z</time></trkpt><trkpt lat="43.58935729140536" lon="3.7775818908818675"><ele>46.857142857142854</ele><time>2026-04-12T10:43:22.978Z</time></trkpt><trkpt lat="43.58931674017207" lon="3.777512301392341"><ele>47.14285714285714</ele><time>2026-04-12T10:43:23.978Z</time></trkpt><trkpt lat="43.589276327156576" lon="3.7774453520365525"><ele>47.42857142857143</ele><time>2026-04-12T10:43:24.978Z</time></trkpt><trkpt lat="43.589239175646426" lon="3.777373647657904"><ele>47.71428571428571</ele><time>2026-04-12T10:43:25.978Z</time></trkpt><trkpt lat="43.58917248817974" lon="3.7772235980366675"><ele>48.0</ele><time>2026-04-12T10:43:27.978Z</time></trkpt><trkpt lat="43.589135026194164" lon="3.77715353886841"><ele>48.0</ele><time>2026-04-12T10:43:28.978Z</time></trkpt><trkpt lat="43.58906282334699" lon="3.7770086158141774"><ele>48.0</ele><time>2026-04-12T10:43:30.978Z</time></trkpt><trkpt lat="43.58898192505642" lon="3.7768838274031684"><ele>48.0</ele><time>2026-04-12T10:43:32.978Z</time></trkpt><trkpt lat="43.58890454899127" lon="3.7767441071974988"><ele>48.0</ele><time>2026-04-12T10:43:34.978Z</time></trkpt><trkpt lat="43.58885878027957" lon="3.7766836188749315"><ele>48.0</ele><time>2026-04-12T10:43:35.978Z</time></trkpt><trkpt lat="43.58880968245703" lon="3.7766180972043313"><ele>48.333333333333336</ele><time>2026-04-12T10:43:36.978Z</time></trkpt><trkpt lat="43.58873433238894" lon="3.7764901397390154"><ele>48.66666666666667</ele><time>2026-04-12T10:43:38.978Z</time></trkpt><trkpt lat="43.588655679320745" lon="3.776349550984936"><ele>49.0</ele><time>2026-04-12T10:43:40.977Z</time></trkpt><trkpt lat="43.58860564425233" lon="3.7762959752658993"><ele>49.333333333333336</ele><time>2026-04-12T10:43:41.977Z</time></trkpt><trkpt lat="43.58855244205005" lon="3.77624671579597"><ele>49.66666666666667</ele><time>2026-04-12T10:43:42.977Z</time></trkpt><trkpt lat="43.5884956396097" lon="3.7762085153915073"><ele>50.0</ele><time>2026-04-12T10:43:43.977Z</time></trkpt><trkpt lat="43.58844335457163" lon="3.776155546528149"><ele>49.42857142857143</ele><time>2026-04-12T10:43:44.977Z</time></trkpt><trkpt lat="43.588387987450446" lon="3.7761057704713923"><ele>48.85714285714286</ele><time>2026-04-12T10:43:45.977Z</time></trkpt><trkpt lat="43.588342577344875" lon="3.7760444566771936"><ele>48.28571428571429</ele><time>2026-04-12T10:43:46.977Z</time></trkpt><trkpt lat="43.58830128798337" lon="3.7759784067172633"><ele>47.714285714285715</ele><time>2026-04-12T10:43:47.977Z</time></trkpt><trkpt lat="43.5882553606927" lon="3.775904555126392"><ele>47.14285714285714</ele><time>2026-04-12T10:43:48.977Z</time></trkpt><trkpt lat="43.58821960555097" lon="3.7758304474652777"><ele>46.57142857142858</ele><time>2026-04-12T10:43:49.977Z</time></trkpt><trkpt lat="43.58817164039807" lon="3.775772383234672"><ele>46.0</ele><time>2026-04-12T10:43:50.977Z</time></trkpt><trkpt lat="43.58812546834785" lon="3.7757100245628843"><ele>46.0</ele><time>2026-04-12T10:43:51.977Z</time></trkpt><trkpt lat="43.58807938050033" lon="3.775642045353421"><ele>46.0</ele><time>2026-04-12T10:43:52.977Z</time></trkpt><trkpt lat="43.58802672322631" lon="3.7755725070377766"><ele>46.0</ele><time>2026-04-12T10:43:53.977Z</time></trkpt><trkpt lat="43.58798620378378" lon="3.775499538397134"><ele>46.0</ele><time>2026-04-12T10:43:54.977Z</time></trkpt><trkpt lat="43.58796845336096" lon="3.775397376228148"><ele>46.0</ele><time>2026-04-12T10:43:55.977Z</time></trkpt><trkpt lat="43.58792604011231" lon="3.7753305678389486"><ele>46.0</ele><time>2026-04-12T10:43:56.977Z</time></trkpt><trkpt lat="43.587883234894484" lon="3.7752622541159786"><ele>46.0</ele><time>2026-04-12T10:43:57.977Z</time></trkpt><trkpt lat="43.58784021608148" lon="3.7751935995219976"><ele>45.833333333333336</ele><time>2026-04-12T10:43:58.977Z</time></trkpt><trkpt lat="43.58779751984157" lon="3.775125459723637"><ele>45.66666666666667</ele><time>2026-04-12T10:43:59.977Z</time></trkpt><trkpt lat="43.587754247277196" lon="3.7750564001574634"><ele>45.5</ele><time>2026-04-12T10:44:00.977Z</time></trkpt><trkpt lat="43.58770883980205" lon="3.7749858171587136"><ele>45.333333333333336</ele><time>2026-04-12T10:44:01.977Z</time></trkpt><trkpt lat="43.58765010643834" lon="3.774933948022665"><ele>45.166666666666664</ele><time>2026-04-12T10:44:02.977Z</time></trkpt><trkpt lat="43.58756655470259" lon="3.774808911097163"><ele>45.0</ele><time>2026-04-12T10:44:04.977Z</time></trkpt><trkpt lat="43.58748570552366" lon="3.774687538356683"><ele>45.0</ele><time>2026-04-12T10:44:06.977Z</time></trkpt><trkpt lat="43.58740380455457" lon="3.774578411376214"><ele>45.0</ele><time>2026-04-12T10:44:08.977Z</time></trkpt><trkpt lat="43.58731836557492" lon="3.774558881429051"><ele>45.0</ele><time>2026-04-12T10:44:10.977Z</time></trkpt><trkpt lat="43.58724697056989" lon="3.774659063942448"><ele>45.0</ele><time>2026-04-12T10:44:12.977Z</time></trkpt><trkpt lat="43.587195626019145" lon="3.774803903688897"><ele>45.0</ele><time>2026-04-12T10:44:14.977Z</time></trkpt><trkpt lat="43.58712786725835" lon="3.7749370264965485"><ele>45.0</ele><time>2026-04-12T10:44:16.977Z</time></trkpt><trkpt lat="43.58702160333635" lon="3.774970632990241"><ele>45.0</ele><time>2026-04-12T10:44:18.977Z</time></trkpt><trkpt lat="43.586930882506095" lon="3.7749193882232657"><ele>45.0</ele><time>2026-04-12T10:44:20.977Z</time></trkpt><trkpt lat="43.58690776030869" lon="3.7747976826295044"><ele>45.0</ele><time>2026-04-12T10:44:22.977Z</time></trkpt><trkpt lat="43.58697305273906" lon="3.774686408752475"><ele>45.0</ele><time>2026-04-12T10:44:24.977Z</time></trkpt><trkpt lat="43.5870335074886" lon="3.7745513260280994"><ele>45.0</ele><time>2026-04-12T10:44:26.977Z</time></trkpt><trkpt lat="43.587073008174066" lon="3.77439952360819"><ele>45.0</ele><time>2026-04-12T10:44:28.977Z</time></trkpt><trkpt lat="43.58708582873518" lon="3.7743138419837337"><ele>45.0</ele><time>2026-04-12T10:44:29.977Z</time></trkpt><trkpt lat="43.5871125161319" lon="3.7742320112539502"><ele>45.0</ele><time>2026-04-12T10:44:30.977Z</time></trkpt><trkpt lat="43.58713828144907" lon="3.7741512259605288"><ele>45.0</ele><time>2026-04-12T10:44:31.977Z</time></trkpt><trkpt lat="43.58715605940847" lon="3.7740641975405436"><ele>45.0</ele><time>2026-04-12T10:44:32.977Z</time></trkpt><trkpt lat="43.58717559882251" lon="3.7739003145025976"><ele>45.0</ele><time>2026-04-12T10:44:34.977Z</time></trkpt><trkpt lat="43.58721205026066" lon="3.7737538373874053"><ele>45.0</ele><time>2026-04-12T10:44:36.977Z</time></trkpt><trkpt lat="43.58725468105374" lon="3.773604290821688"><ele>45.0</ele><time>2026-04-12T10:44:38.977Z</time></trkpt><trkpt lat="43.58728448978412" lon="3.7734482702573593"><ele>45.0</ele><time>2026-04-12T10:44:40.977Z</time></trkpt><trkpt lat="43.58729921125175" lon="3.7733626237205953"><ele>45.0</ele><time>2026-04-12T10:44:41.977Z</time></trkpt><trkpt lat="43.58732253263778" lon="3.773279526295907"><ele>45.0</ele><time>2026-04-12T10:44:42.977Z</time></trkpt><trkpt lat="43.587342659123024" lon="3.773191597605466"><ele>45.0</ele><time>2026-04-12T10:44:43.977Z</time></trkpt><trkpt lat="43.58737332075359" lon="3.7730279411326277"><ele>45.0</ele><time>2026-04-12T10:44:45.977Z</time></trkpt><trkpt lat="43.58739367792324" lon="3.772943253974388"><ele>45.0</ele><time>2026-04-12T10:44:46.977Z</time></trkpt><trkpt lat="43.587434947723814" lon="3.7727845417419554"><ele>45.0</ele><time>2026-04-12T10:44:48.977Z</time></trkpt><trkpt lat="43.58747431005401" lon="3.772617946508051"><ele>45.4</ele><time>2026-04-12T10:44:50.977Z</time></trkpt><trkpt lat="43.58748686016909" lon="3.7725322068580778"><ele>45.8</ele><time>2026-04-12T10:44:51.977Z</time></trkpt><trkpt lat="43.58755711026385" lon="3.7723811548465638"><ele>46.2</ele><time>2026-04-12T10:44:53.977Z</time></trkpt><trkpt lat="43.587593063345906" lon="3.7722217320214377"><ele>46.6</ele><time>2026-04-12T10:44:55.977Z</time></trkpt><trkpt lat="43.58762672537898" lon="3.772076949638472"><ele>47.0</ele><time>2026-04-12T10:44:57.977Z</time></trkpt><trkpt lat="43.58766236848971" lon="3.771921200878402"><ele>47.2</ele><time>2026-04-12T10:44:59.978Z</time></trkpt><trkpt lat="43.58769733551445" lon="3.7717640063140503"><ele>47.400000000000006</ele><time>2026-04-12T10:45:01.977Z</time></trkpt><trkpt lat="43.58773076114336" lon="3.7716137411759867"><ele>47.599999999999994</ele><time>2026-04-12T10:45:03.978Z</time></trkpt><trkpt lat="43.587764732367354" lon="3.7714610232481873"><ele>47.8</ele><time>2026-04-12T10:45:05.978Z</time></trkpt><trkpt lat="43.58779432282925" lon="3.7713279990951203"><ele>48.0</ele><time>2026-04-12T10:45:07.977Z</time></trkpt><trkpt lat="43.58782289708506" lon="3.7712035034722806"><ele>48.166666666666664</ele><time>2026-04-12T10:45:09.977Z</time></trkpt><trkpt lat="43.58784965107034" lon="3.7710869617686225"><ele>48.33333333333333</ele><time>2026-04-12T10:45:11.978Z</time></trkpt><trkpt lat="43.58787574320758" lon="3.77097330312099"><ele>48.5</ele><time>2026-04-12T10:45:13.977Z</time></trkpt><trkpt lat="43.58790058861935" lon="3.7708650752559496"><ele>48.666666666666664</ele><time>2026-04-12T10:45:15.977Z</time></trkpt><trkpt lat="43.58791262905862" lon="3.7707445249886815"><ele>48.83333333333333</ele><time>2026-04-12T10:45:17.977Z</time></trkpt><trkpt lat="43.58795251110105" lon="3.770638898086668"><ele>49.0</ele><time>2026-04-12T10:45:19.977Z</time></trkpt><trkpt lat="43.587928780877874" lon="3.7705445298852327"><ele>49.0</ele><time>2026-04-12T10:45:21.977Z</time></trkpt><trkpt lat="43.58799147793234" lon="3.7704798272197575"><ele>49.0</ele><time>2026-04-12T10:45:24.977Z</time></trkpt><trkpt lat="43.58801525114413" lon="3.770371623937896"><ele>49.0</ele><time>2026-04-12T10:45:26.977Z</time></trkpt><trkpt lat="43.58803620495084" lon="3.770233195727092"><ele>49.0</ele><time>2026-04-12T10:45:28.977Z</time></trkpt><trkpt lat="43.58805791505912" lon="3.7700895662658978"><ele>49.0</ele><time>2026-04-12T10:45:30.977Z</time></trkpt><trkpt lat="43.58809168377164" lon="3.769957649729431"><ele>48.83333333333333</ele><time>2026-04-12T10:45:32.977Z</time></trkpt><trkpt lat="43.58812410104322" lon="3.7698798769149082"><ele>48.666666666666664</ele><time>2026-04-12T10:45:33.977Z</time></trkpt><trkpt lat="43.588146842540134" lon="3.7697638987238853"><ele>48.5</ele><time>2026-04-12T10:45:35.977Z</time></trkpt><trkpt lat="43.58814434819731" lon="3.769675425531554"><ele>48.33333333333333</ele><time>2026-04-12T10:45:37.977Z</time></trkpt><trkpt lat="43.58817494693961" lon="3.7695803996279813"><ele>48.166666666666664</ele><time>2026-04-12T10:45:39.977Z</time></trkpt><trkpt lat="43.58820891329141" lon="3.769455339686776"><ele>48.0</ele><time>2026-04-12T10:45:41.977Z</time></trkpt><trkpt lat="43.58823354752355" lon="3.769295902073658"><ele>47.599999999999994</ele><time>2026-04-12T10:45:43.977Z</time></trkpt><trkpt lat="43.58825262738012" lon="3.7692091846229516"><ele>47.199999999999996</ele><time>2026-04-12T10:45:44.977Z</time></trkpt><trkpt lat="43.588281018636415" lon="3.769062282442382"><ele>46.8</ele><time>2026-04-12T10:45:46.977Z</time></trkpt><trkpt lat="43.588311011090816" lon="3.768900194816844"><ele>46.4</ele><time>2026-04-12T10:45:48.977Z</time></trkpt><trkpt lat="43.58833839603331" lon="3.7687497262390175"><ele>46.0</ele><time>2026-04-12T10:45:50.977Z</time></trkpt><trkpt lat="43.58837536302104" lon="3.7685952249681964"><ele>46.0</ele><time>2026-04-12T10:45:52.977Z</time></trkpt><trkpt lat="43.58840840177416" lon="3.7684627419094743"><ele>46.0</ele><time>2026-04-12T10:45:54.977Z</time></trkpt><trkpt lat="43.58843024719902" lon="3.7683347415984603"><ele>46.0</ele><time>2026-04-12T10:45:56.977Z</time></trkpt><trkpt lat="43.58844340246573" lon="3.768207998233981"><ele>46.0</ele><time>2026-04-12T10:45:58.977Z</time></trkpt><trkpt lat="43.588457925391" lon="3.768063107415902"><ele>46.0</ele><time>2026-04-12T10:46:00.977Z</time></trkpt><trkpt lat="43.58847466342248" lon="3.76793555922559"><ele>46.0</ele><time>2026-04-12T10:46:02.977Z</time></trkpt><trkpt lat="43.58848761894502" lon="3.767812989755554"><ele>46.0</ele><time>2026-04-12T10:46:04.977Z</time></trkpt><trkpt lat="43.58853504212755" lon="3.767706182678368"><ele>46.0</ele><time>2026-04-12T10:46:06.977Z</time></trkpt><trkpt lat="43.588526666281055" lon="3.7675870939092007"><ele>46.0</ele><time>2026-04-12T10:46:08.977Z</time></trkpt><trkpt lat="43.58849102998932" lon="3.7674732217359606"><ele>46.0</ele><time>2026-04-12T10:46:10.977Z</time></trkpt><trkpt lat="43.588494691269126" lon="3.7673201168749677"><ele>46.4</ele><time>2026-04-12T10:46:12.977Z</time></trkpt><trkpt lat="43.588472298522284" lon="3.767181707639189"><ele>46.8</ele><time>2026-04-12T10:46:14.977Z</time></trkpt><trkpt lat="43.58847007754534" lon="3.7670946618143373"><ele>47.199999999999996</ele><time>2026-04-12T10:46:15.977Z</time></trkpt><trkpt lat="43.58846401292511" lon="3.7669330544713455"><ele>47.599999999999994</ele><time>2026-04-12T10:46:17.977Z</time></trkpt><trkpt lat="43.588459749918115" lon="3.7667750225727725"><ele>48.0</ele><time>2026-04-12T10:46:19.977Z</time></trkpt><trkpt lat="43.588433131999516" lon="3.7666108253287343"><ele>48.2</ele><time>2026-04-12T10:46:21.977Z</time></trkpt><trkpt lat="43.58841463879899" lon="3.7665260608526947"><ele>48.4</ele><time>2026-04-12T10:46:22.977Z</time></trkpt><trkpt lat="43.58839685822459" lon="3.7663720921593344"><ele>48.6</ele><time>2026-04-12T10:46:24.977Z</time></trkpt><trkpt lat="43.588370051383436" lon="3.766289655280943"><ele>48.800000000000004</ele><time>2026-04-12T10:46:25.977Z</time></trkpt><trkpt lat="43.588315107290356" lon="3.7661402455066426"><ele>49.0</ele><time>2026-04-12T10:46:27.977Z</time></trkpt><trkpt lat="43.58826750982842" lon="3.765989583121442"><ele>49.0</ele><time>2026-04-12T10:46:29.977Z</time></trkpt><trkpt lat="43.58823075098271" lon="3.765915126228234"><ele>49.0</ele><time>2026-04-12T10:46:30.977Z</time></trkpt><trkpt lat="43.58820560062513" lon="3.765835146807778"><ele>49.0</ele><time>2026-04-12T10:46:31.977Z</time></trkpt><trkpt lat="43.588153975696876" lon="3.765682073948585"><ele>49.0</ele><time>2026-04-12T10:46:33.977Z</time></trkpt><trkpt lat="43.58809862542766" lon="3.765539357049995"><ele>49.0</ele><time>2026-04-12T10:46:35.976Z</time></trkpt><trkpt lat="43.58803719395254" lon="3.7653905219885844"><ele>49.0</ele><time>2026-04-12T10:46:37.976Z</time></trkpt><trkpt lat="43.58797502088725" lon="3.7652527349178038"><ele>49.0</ele><time>2026-04-12T10:46:39.976Z</time></trkpt><trkpt lat="43.58792012054547" lon="3.7651207680567493"><ele>49.0</ele><time>2026-04-12T10:46:41.976Z</time></trkpt><trkpt lat="43.58786159524072" lon="3.7649854357259342"><ele>49.0</ele><time>2026-04-12T10:46:43.976Z</time></trkpt><trkpt lat="43.58781140748912" lon="3.7648426498469"><ele>49.166666666666664</ele><time>2026-04-12T10:46:45.976Z</time></trkpt><trkpt lat="43.58774295777342" lon="3.764712491337756"><ele>49.33333333333333</ele><time>2026-04-12T10:46:47.976Z</time></trkpt><trkpt lat="43.58769558231962" lon="3.7646531215037946"><ele>49.5</ele><time>2026-04-12T10:46:48.976Z</time></trkpt><trkpt lat="43.58764450829232" lon="3.764502743726193"><ele>49.66666666666667</ele><time>2026-04-12T10:46:50.976Z</time></trkpt><trkpt lat="43.58761540171901" lon="3.7644249429406766"><ele>49.833333333333336</ele><time>2026-04-12T10:46:51.976Z</time></trkpt><trkpt lat="43.58757670161854" lon="3.764352627429215"><ele>50.0</ele><time>2026-04-12T10:46:52.976Z</time></trkpt><trkpt lat="43.58754050939254" lon="3.764272733631887"><ele>50.4</ele><time>2026-04-12T10:46:53.976Z</time></trkpt><trkpt lat="43.58748167695213" lon="3.7641308654330485"><ele>50.8</ele><time>2026-04-12T10:46:55.976Z</time></trkpt><trkpt lat="43.5874424368955" lon="3.7640608147207715"><ele>51.2</ele><time>2026-04-12T10:46:56.976Z</time></trkpt><trkpt lat="43.58738581832917" lon="3.7639248085847457"><ele>51.6</ele><time>2026-04-12T10:46:58.976Z</time></trkpt><trkpt lat="43.58735425072665" lon="3.7638477546180695"><ele>52.0</ele><time>2026-04-12T10:46:59.976Z</time></trkpt><trkpt lat="43.587290361161166" lon="3.7636981646364673"><ele>51.99999999999999</ele><time>2026-04-12T10:47:01.976Z</time></trkpt><trkpt lat="43.587259274023246" lon="3.763621260207135"><ele>52.0</ele><time>2026-04-12T10:47:02.976Z</time></trkpt><trkpt lat="43.58721475548926" lon="3.76355896726251"><ele>52.0</ele><time>2026-04-12T10:47:03.976Z</time></trkpt><trkpt lat="43.58718837813588" lon="3.763479327717722"><ele>52.0</ele><time>2026-04-12T10:47:04.977Z</time></trkpt><trkpt lat="43.58716088570864" lon="3.763399948978897"><ele>51.99999999999999</ele><time>2026-04-12T10:47:05.977Z</time></trkpt><trkpt lat="43.58709926581234" lon="3.7632639971271296"><ele>52.0</ele><time>2026-04-12T10:47:07.978Z</time></trkpt><trkpt lat="43.587040372963564" lon="3.7631309066959693"><ele>52.5</ele><time>2026-04-12T10:47:09.977Z</time></trkpt><trkpt lat="43.58705391875242" lon="3.7629638811953017"><ele>53.0</ele><time>2026-04-12T10:47:11.977Z</time></trkpt><trkpt lat="43.58702364632639" lon="3.762807447884817"><ele>53.5</ele><time>2026-04-12T10:47:13.977Z</time></trkpt><trkpt lat="43.586949584528604" lon="3.762668298589954"><ele>54.0</ele><time>2026-04-12T10:47:15.978Z</time></trkpt><trkpt lat="43.58686391448255" lon="3.762545352527605"><ele>53.0</ele><time>2026-04-12T10:47:17.977Z</time></trkpt><trkpt lat="43.58678559458219" lon="3.762433963390795"><ele>52.0</ele><time>2026-04-12T10:47:19.977Z</time></trkpt><trkpt lat="43.586717604661665" lon="3.7622917617013085"><ele>51.0</ele><time>2026-04-12T10:47:21.977Z</time></trkpt><trkpt lat="43.586651187899896" lon="3.762154942606512"><ele>50.0</ele><time>2026-04-12T10:47:23.977Z</time></trkpt><trkpt lat="43.586578953474465" lon="3.762010280086501"><ele>50.6</ele><time>2026-04-12T10:47:25.977Z</time></trkpt><trkpt lat="43.58651969022312" lon="3.7618584207197343"><ele>51.2</ele><time>2026-04-12T10:47:27.977Z</time></trkpt><trkpt lat="43.58646423018933" lon="3.7617188715867824"><ele>51.8</ele><time>2026-04-12T10:47:29.977Z</time></trkpt><trkpt lat="43.586390270283786" lon="3.7615983027463242"><ele>52.4</ele><time>2026-04-12T10:47:31.977Z</time></trkpt><trkpt lat="43.586354884548776" lon="3.7615230434150226"><ele>53.0</ele><time>2026-04-12T10:47:32.977Z</time></trkpt><trkpt lat="43.586291628848926" lon="3.7613923465901005"><ele>53.0</ele><time>2026-04-12T10:47:34.977Z</time></trkpt><trkpt lat="43.58626104415412" lon="3.7613163411162787"><ele>53.0</ele><time>2026-04-12T10:47:35.977Z</time></trkpt><trkpt lat="43.586200370262596" lon="3.761170066717686"><ele>53.0</ele><time>2026-04-12T10:47:37.977Z</time></trkpt><trkpt lat="43.58614289378788" lon="3.7610323864550965"><ele>53.0</ele><time>2026-04-12T10:47:39.977Z</time></trkpt><trkpt lat="43.58607352342117" lon="3.7608894284953447"><ele>53.0</ele><time>2026-04-12T10:47:41.977Z</time></trkpt><trkpt lat="43.586039797674715" lon="3.760815373001099"><ele>52.8</ele><time>2026-04-12T10:47:42.977Z</time></trkpt><trkpt lat="43.58599164122145" lon="3.7606837277080998"><ele>52.599999999999994</ele><time>2026-04-12T10:47:44.977Z</time></trkpt><trkpt lat="43.5859335202867" lon="3.760541780909117"><ele>52.400000000000006</ele><time>2026-04-12T10:47:46.977Z</time></trkpt><trkpt lat="43.58586531505937" lon="3.760411582539609"><ele>52.2</ele><time>2026-04-12T10:47:48.977Z</time></trkpt><trkpt lat="43.58579965021548" lon="3.7602970641518154"><ele>52.0</ele><time>2026-04-12T10:47:50.977Z</time></trkpt><trkpt lat="43.5857505775617" lon="3.760168758336019"><ele>52.400000000000006</ele><time>2026-04-12T10:47:52.977Z</time></trkpt><trkpt lat="43.58570505150091" lon="3.760040313106754"><ele>52.800000000000004</ele><time>2026-04-12T10:47:54.977Z</time></trkpt><trkpt lat="43.585676830146966" lon="3.7599619304701015"><ele>53.2</ele><time>2026-04-12T10:47:55.977Z</time></trkpt><trkpt lat="43.58561611080853" lon="3.7598237802948584"><ele>53.6</ele><time>2026-04-12T10:47:57.977Z</time></trkpt><trkpt lat="43.585547832539206" lon="3.759676481715108"><ele>54.0</ele><time>2026-04-12T10:47:59.977Z</time></trkpt><trkpt lat="43.5855176986775" lon="3.7595925155069576"><ele>54.0</ele><time>2026-04-12T10:48:00.977Z</time></trkpt><trkpt lat="43.58548978365287" lon="3.7595041254734185"><ele>54.0</ele><time>2026-04-12T10:48:01.977Z</time></trkpt><trkpt lat="43.5854181121752" lon="3.7593585679979555"><ele>54.0</ele><time>2026-04-12T10:48:03.977Z</time></trkpt><trkpt lat="43.58538899434078" lon="3.7592804290419983"><ele>54.0</ele><time>2026-04-12T10:48:04.977Z</time></trkpt><trkpt lat="43.585326545051835" lon="3.75913555260305"><ele>54.0</ele><time>2026-04-12T10:48:06.977Z</time></trkpt><trkpt lat="43.58529170761476" lon="3.7590624454376647"><ele>54.0</ele><time>2026-04-12T10:48:07.977Z</time></trkpt><trkpt lat="43.585254395948596" lon="3.758985150092142"><ele>53.833333333333336</ele><time>2026-04-12T10:48:08.977Z</time></trkpt><trkpt lat="43.58520877058451" lon="3.7589211828684066"><ele>53.66666666666667</ele><time>2026-04-12T10:48:09.977Z</time></trkpt><trkpt lat="43.5851761077755" lon="3.758756817385592"><ele>53.5</ele><time>2026-04-12T10:48:11.977Z</time></trkpt><trkpt lat="43.585159630540026" lon="3.7586705976863715"><ele>53.333333333333336</ele><time>2026-04-12T10:48:12.977Z</time></trkpt><trkpt lat="43.58512532787075" lon="3.758589621795988"><ele>53.16666666666667</ele><time>2026-04-12T10:48:13.977Z</time></trkpt><trkpt lat="43.58508660592823" lon="3.7585159223400506"><ele>53.0</ele><time>2026-04-12T10:48:14.977Z</time></trkpt><trkpt lat="43.585047791175114" lon="3.7584472076785014"><ele>53.4</ele><time>2026-04-12T10:48:15.977Z</time></trkpt><trkpt lat="43.58496431690721" lon="3.758325517295171"><ele>53.8</ele><time>2026-04-12T10:48:17.977Z</time></trkpt><trkpt lat="43.58492947321237" lon="3.7582520102672468"><ele>54.2</ele><time>2026-04-12T10:48:18.977Z</time></trkpt><trkpt lat="43.58485764294507" lon="3.758121429938432"><ele>54.6</ele><time>2026-04-12T10:48:20.977Z</time></trkpt><trkpt lat="43.58479271429521" lon="3.758006058964887"><ele>55.0</ele><time>2026-04-12T10:48:22.977Z</time></trkpt><trkpt lat="43.58473791473035" lon="3.7578548692353295"><ele>55.2</ele><time>2026-04-12T10:48:24.977Z</time></trkpt><trkpt lat="43.58474612588035" lon="3.7576821596891463"><ele>55.4</ele><time>2026-04-12T10:48:26.976Z</time></trkpt><trkpt lat="43.58475728268768" lon="3.7575863054248995"><ele>55.599999999999994</ele><time>2026-04-12T10:48:27.976Z</time></trkpt><trkpt lat="43.584641827010586" lon="3.7575035671199846"><ele>55.8</ele><time>2026-04-12T10:48:29.976Z</time></trkpt><trkpt lat="43.58456850460905" lon="3.757493428202282"><ele>56.0</ele><time>2026-04-12T10:48:30.976Z</time></trkpt><trkpt lat="43.58451621533423" lon="3.757439723914709"><ele>55.66666666666667</ele><time>2026-04-12T10:48:31.976Z</time></trkpt><trkpt lat="43.58448804652213" lon="3.7573462978756837"><ele>55.333333333333336</ele><time>2026-04-12T10:48:32.976Z</time></trkpt><trkpt lat="43.584455451887315" lon="3.757269975006397"><ele>55.0</ele><time>2026-04-12T10:48:33.976Z</time></trkpt><trkpt lat="43.58439167267906" lon="3.757132027486996"><ele>54.66666666666667</ele><time>2026-04-12T10:48:35.976Z</time></trkpt><trkpt lat="43.58435927737049" lon="3.75705590470124"><ele>54.333333333333336</ele><time>2026-04-12T10:48:36.976Z</time></trkpt><trkpt lat="43.584308014173764" lon="3.75690159042757"><ele>54.0</ele><time>2026-04-12T10:48:38.976Z</time></trkpt><trkpt lat="43.58425420699237" lon="3.756772630546377"><ele>54.0</ele><time>2026-04-12T10:48:40.976Z</time></trkpt><trkpt lat="43.584205772406705" lon="3.7566552175742296"><ele>54.00000000000001</ele><time>2026-04-12T10:48:42.976Z</time></trkpt><trkpt lat="43.58415655103388" lon="3.756540179893124"><ele>54.00000000000001</ele><time>2026-04-12T10:48:44.976Z</time></trkpt><trkpt lat="43.58411046356985" lon="3.7564188892936854"><ele>54.0</ele><time>2026-04-12T10:48:46.976Z</time></trkpt><trkpt lat="43.584072379815915" lon="3.75630486636007"><ele>54.0</ele><time>2026-04-12T10:48:48.976Z</time></trkpt><trkpt lat="43.584036500517755" lon="3.7562091561201747"><ele>54.0</ele><time>2026-04-12T10:48:50.976Z</time></trkpt><trkpt lat="43.58397787091331" lon="3.7561196156885046"><ele>54.0</ele><time>2026-04-12T10:48:52.976Z</time></trkpt><trkpt lat="43.58392963007102" lon="3.7560090510793342"><ele>54.0</ele><time>2026-04-12T10:48:54.976Z</time></trkpt><trkpt lat="43.58389317493089" lon="3.755889972752029"><ele>54.0</ele><time>2026-04-12T10:48:56.976Z</time></trkpt><trkpt lat="43.583847245053136" lon="3.7557925788670583"><ele>54.0</ele><time>2026-04-12T10:48:58.976Z</time></trkpt><trkpt lat="43.58379888120843" lon="3.755695395569297"><ele>54.0</ele><time>2026-04-12T10:49:00.976Z</time></trkpt><trkpt lat="43.583749736068874" lon="3.7555878474431763"><ele>54.0</ele><time>2026-04-12T10:49:02.976Z</time></trkpt><trkpt lat="43.58371176679596" lon="3.7554645593313576"><ele>54.00000000000001</ele><time>2026-04-12T10:49:04.976Z</time></trkpt><trkpt lat="43.58365587400311" lon="3.7553575333693856"><ele>54.00000000000001</ele><time>2026-04-12T10:49:06.976Z</time></trkpt><trkpt lat="43.58361379877166" lon="3.7552593927080435"><ele>54.0</ele><time>2026-04-12T10:49:08.976Z</time></trkpt><trkpt lat="43.58356799687992" lon="3.755146233723011"><ele>54.0</ele><time>2026-04-12T10:49:10.978Z</time></trkpt><trkpt lat="43.58350059454649" lon="3.7550287016503243"><ele>53.800000000000004</ele><time>2026-04-12T10:49:12.978Z</time></trkpt><trkpt lat="43.58344654176618" lon="3.7549124319709213"><ele>53.60000000000001</ele><time>2026-04-12T10:49:14.978Z</time></trkpt><trkpt lat="43.583409835307386" lon="3.7547870907536636"><ele>53.4</ele><time>2026-04-12T10:49:16.977Z</time></trkpt><trkpt lat="43.58333257378852" lon="3.754664423029085"><ele>53.2</ele><time>2026-04-12T10:49:18.978Z</time></trkpt><trkpt lat="43.58327438870344" lon="3.754540978604115"><ele>53.0</ele><time>2026-04-12T10:49:20.977Z</time></trkpt><trkpt lat="43.583215737118756" lon="3.7544345726632122"><ele>53.4</ele><time>2026-04-12T10:49:22.978Z</time></trkpt><trkpt lat="43.58316848987594" lon="3.754327716169834"><ele>53.8</ele><time>2026-04-12T10:49:24.977Z</time></trkpt><trkpt lat="43.58312678777622" lon="3.75422435882217"><ele>54.2</ele><time>2026-04-12T10:49:26.977Z</time></trkpt><trkpt lat="43.58306818266156" lon="3.754088647382756"><ele>54.6</ele><time>2026-04-12T10:49:28.977Z</time></trkpt><trkpt lat="43.58301077989288" lon="3.7539514139226013"><ele>55.0</ele><time>2026-04-12T10:49:30.977Z</time></trkpt><trkpt lat="43.582985028022456" lon="3.753864775219723"><ele>54.99999999999999</ele><time>2026-04-12T10:49:31.977Z</time></trkpt><trkpt lat="43.582920568723544" lon="3.753712041642112"><ele>55.0</ele><time>2026-04-12T10:49:33.977Z</time></trkpt><trkpt lat="43.58289398988862" lon="3.7536298310185465"><ele>55.0</ele><time>2026-04-12T10:49:34.977Z</time></trkpt><trkpt lat="43.58285436284499" lon="3.7535611499684065"><ele>55.0</ele><time>2026-04-12T10:49:35.977Z</time></trkpt><trkpt lat="43.58281845738325" lon="3.7534873856776243"><ele>54.99999999999999</ele><time>2026-04-12T10:49:36.977Z</time></trkpt><trkpt lat="43.58278578226063" lon="3.7534074396692065"><ele>55.0</ele><time>2026-04-12T10:49:37.977Z</time></trkpt><trkpt lat="43.5827503466595" lon="3.7533336303819995"><ele>54.83333333333333</ele><time>2026-04-12T10:49:38.977Z</time></trkpt><trkpt lat="43.58272424736599" lon="3.7532523544858525"><ele>54.666666666666664</ele><time>2026-04-12T10:49:39.977Z</time></trkpt><trkpt lat="43.58265354695764" lon="3.7531126221284"><ele>54.5</ele><time>2026-04-12T10:49:41.977Z</time></trkpt><trkpt lat="43.58262466849826" lon="3.7530297263079557"><ele>54.33333333333333</ele><time>2026-04-12T10:49:42.977Z</time></trkpt><trkpt lat="43.58255895517163" lon="3.7529018531893517"><ele>54.166666666666664</ele><time>2026-04-12T10:49:44.977Z</time></trkpt><trkpt lat="43.58252372646916" lon="3.752820436260574"><ele>54.0</ele><time>2026-04-12T10:49:45.977Z</time></trkpt><trkpt lat="43.58245839530695" lon="3.7526920032144986"><ele>54.333333333333336</ele><time>2026-04-12T10:49:47.977Z</time></trkpt><trkpt lat="43.58242735462161" lon="3.7526114965216517"><ele>54.66666666666667</ele><time>2026-04-12T10:49:48.977Z</time></trkpt><trkpt lat="43.58239782415361" lon="3.7525331234231234"><ele>55.0</ele><time>2026-04-12T10:49:49.977Z</time></trkpt><trkpt lat="43.58236532383129" lon="3.7524552132871785"><ele>55.333333333333336</ele><time>2026-04-12T10:49:50.977Z</time></trkpt><trkpt lat="43.5823087193537" lon="3.7523126596120027"><ele>55.66666666666667</ele><time>2026-04-12T10:49:52.977Z</time></trkpt><trkpt lat="43.58225481765891" lon="3.7521774463656965"><ele>56.0</ele><time>2026-04-12T10:49:54.977Z</time></trkpt><trkpt lat="43.58221839629505" lon="3.7521040355986646"><ele>56.0</ele><time>2026-04-12T10:49:55.977Z</time></trkpt><trkpt lat="43.58218535566788" lon="3.7520252105724037"><ele>55.99999999999999</ele><time>2026-04-12T10:49:56.977Z</time></trkpt><trkpt lat="43.58211613446954" lon="3.7518963841933335"><ele>55.99999999999999</ele><time>2026-04-12T10:49:58.977Z</time></trkpt><trkpt lat="43.58205960996953" lon="3.7517625433669544"><ele>56.0</ele><time>2026-04-12T10:50:00.977Z</time></trkpt><trkpt lat="43.58199298453505" lon="3.751613459130719"><ele>56.0</ele><time>2026-04-12T10:50:02.977Z</time></trkpt><trkpt lat="43.58192448341859" lon="3.751475031576894"><ele>56.199999999999996</ele><time>2026-04-12T10:50:04.977Z</time></trkpt><trkpt lat="43.58190350204189" lon="3.751390127760018"><ele>56.39999999999999</ele><time>2026-04-12T10:50:05.977Z</time></trkpt><trkpt lat="43.58183349898005" lon="3.751254467110016"><ele>56.6</ele><time>2026-04-12T10:50:07.977Z</time></trkpt><trkpt lat="43.58177582821274" lon="3.751104930217744"><ele>56.8</ele><time>2026-04-12T10:50:09.977Z</time></trkpt><trkpt lat="43.58172174899292" lon="3.7509648690726425"><ele>57.0</ele><time>2026-04-12T10:50:11.977Z</time></trkpt><trkpt lat="43.58166040597018" lon="3.750827137194598"><ele>57.6</ele><time>2026-04-12T10:50:13.976Z</time></trkpt><trkpt lat="43.58158711050392" lon="3.750697730599786"><ele>58.2</ele><time>2026-04-12T10:50:15.976Z</time></trkpt><trkpt lat="43.5815376091705" lon="3.7505593044116967"><ele>58.8</ele><time>2026-04-12T10:50:17.976Z</time></trkpt><trkpt lat="43.58147834696828" lon="3.7504358683781387"><ele>59.4</ele><time>2026-04-12T10:50:19.976Z</time></trkpt><trkpt lat="43.58142950529048" lon="3.750319258047026"><ele>60.0</ele><time>2026-04-12T10:50:21.976Z</time></trkpt><trkpt lat="43.58138206401561" lon="3.7502197429113413"><ele>60.166666666666664</ele><time>2026-04-12T10:50:23.976Z</time></trkpt><trkpt lat="43.58132164323278" lon="3.750112285404613"><ele>60.33333333333333</ele><time>2026-04-12T10:50:25.976Z</time></trkpt><trkpt lat="43.58125441839174" lon="3.7500238390239584"><ele>60.5</ele><time>2026-04-12T10:50:27.976Z</time></trkpt><trkpt lat="43.58118372380213" lon="3.750050211261691"><ele>60.666666666666664</ele><time>2026-04-12T10:50:29.976Z</time></trkpt><trkpt lat="43.58112580078677" lon="3.7499894191549177"><ele>60.83333333333333</ele><time>2026-04-12T10:50:33.976Z</time></trkpt><trkpt lat="43.581099517885086" lon="3.7498980727791973"><ele>61.0</ele><time>2026-04-12T10:51:04.976Z</time></trkpt><trkpt lat="43.58113689750519" lon="3.749823199343924"><ele>60.33333333333333</ele><time>2026-04-12T10:51:07.976Z</time></trkpt><trkpt lat="43.58113108625784" lon="3.749720872908533"><ele>59.666666666666664</ele><time>2026-04-12T10:51:09.976Z</time></trkpt><trkpt lat="43.581096113559305" lon="3.7496083045956077"><ele>59.0</ele><time>2026-04-12T10:51:11.976Z</time></trkpt><trkpt lat="43.58104913724351" lon="3.7495132713115265"><ele>58.33333333333333</ele><time>2026-04-12T10:51:13.976Z</time></trkpt><trkpt lat="43.58100692555704" lon="3.7494160300136095"><ele>57.666666666666664</ele><time>2026-04-12T10:51:15.976Z</time></trkpt><trkpt lat="43.5809521985219" lon="3.749318536924209"><ele>57.0</ele><time>2026-04-12T10:51:17.977Z</time></trkpt><trkpt lat="43.58090132008196" lon="3.7492214447519707"><ele>57.0</ele><time>2026-04-12T10:51:19.978Z</time></trkpt><trkpt lat="43.58084141700254" lon="3.7491142738857057"><ele>57.0</ele><time>2026-04-12T10:51:21.978Z</time></trkpt><trkpt lat="43.58081249272081" lon="3.7489965753815095"><ele>57.0</ele><time>2026-04-12T10:51:23.978Z</time></trkpt><trkpt lat="43.58077154032938" lon="3.7489051466677052"><ele>57.0</ele><time>2026-04-12T10:51:25.979Z</time></trkpt><trkpt lat="43.580690737224465" lon="3.74884222733564"><ele>57.0</ele><time>2026-04-12T10:51:27.978Z</time></trkpt><trkpt lat="43.58064714506222" lon="3.7487288480790544"><ele>57.0</ele><time>2026-04-12T10:51:29.979Z</time></trkpt><trkpt lat="43.58059755436026" lon="3.748632337232063"><ele>57.0</ele><time>2026-04-12T10:51:31.979Z</time></trkpt><trkpt lat="43.58054464367133" lon="3.748530402174052"><ele>57.0</ele><time>2026-04-12T10:51:33.979Z</time></trkpt><trkpt lat="43.58050146344502" lon="3.748437023911045"><ele>57.0</ele><time>2026-04-12T10:51:35.979Z</time></trkpt><trkpt lat="43.580453972958985" lon="3.748338894849167"><ele>57.0</ele><time>2026-04-12T10:51:37.979Z</time></trkpt><trkpt lat="43.58040951020696" lon="3.7482415295846505"><ele>57.0</ele><time>2026-04-12T10:51:39.979Z</time></trkpt><trkpt lat="43.580366601969594" lon="3.7481362300146817"><ele>57.166666666666664</ele><time>2026-04-12T10:51:41.979Z</time></trkpt><trkpt lat="43.58032533795731" lon="3.74804689235884"><ele>57.33333333333333</ele><time>2026-04-12T10:51:43.979Z</time></trkpt><trkpt lat="43.580276944271844" lon="3.7479616433193645"><ele>57.5</ele><time>2026-04-12T10:51:45.979Z</time></trkpt><trkpt lat="43.580234296824955" lon="3.747858417652108"><ele>57.666666666666664</ele><time>2026-04-12T10:51:47.979Z</time></trkpt><trkpt lat="43.58019490417197" lon="3.7477630949323117"><ele>57.83333333333333</ele><time>2026-04-12T10:51:49.979Z</time></trkpt><trkpt lat="43.58015648226015" lon="3.7476678232148277"><ele>58.0</ele><time>2026-04-12T10:51:51.979Z</time></trkpt><trkpt lat="43.58011637780234" lon="3.7475646413162615"><ele>58.0</ele><time>2026-04-12T10:51:53.979Z</time></trkpt><trkpt lat="43.580068595330864" lon="3.747451650701903"><ele>58.0</ele><time>2026-04-12T10:51:55.979Z</time></trkpt><trkpt lat="43.58002268179592" lon="3.7473513855943654"><ele>58.0</ele><time>2026-04-12T10:51:57.979Z</time></trkpt><trkpt lat="43.57998597896631" lon="3.747255375960655"><ele>58.0</ele><time>2026-04-12T10:51:59.979Z</time></trkpt><trkpt lat="43.579928410352196" lon="3.7471540910291594"><ele>58.0</ele><time>2026-04-12T10:52:01.979Z</time></trkpt><trkpt lat="43.57986892070402" lon="3.747034727931045"><ele>58.0</ele><time>2026-04-12T10:52:03.979Z</time></trkpt><trkpt lat="43.57980911183425" lon="3.7469146183734723"><ele>58.0</ele><time>2026-04-12T10:52:05.979Z</time></trkpt><trkpt lat="43.57975477655642" lon="3.7468005294455686"><ele>58.0</ele><time>2026-04-12T10:52:07.979Z</time></trkpt><trkpt lat="43.57970273505063" lon="3.7466907841922175"><ele>58.0</ele><time>2026-04-12T10:52:09.979Z</time></trkpt><trkpt lat="43.579650352720165" lon="3.7465840370008405"><ele>58.0</ele><time>2026-04-12T10:52:11.979Z</time></trkpt><trkpt lat="43.579598908782934" lon="3.7464788512887024"><ele>57.599999999999994</ele><time>2026-04-12T10:52:13.979Z</time></trkpt><trkpt lat="43.57953752653621" lon="3.746376310030976"><ele>57.199999999999996</ele><time>2026-04-12T10:52:15.979Z</time></trkpt><trkpt lat="43.579489364147136" lon="3.746260579152867"><ele>56.8</ele><time>2026-04-12T10:52:17.979Z</time></trkpt><trkpt lat="43.57944163043829" lon="3.7461573124053666"><ele>56.4</ele><time>2026-04-12T10:52:19.979Z</time></trkpt><trkpt lat="43.579391492075516" lon="3.746039549146421"><ele>56.0</ele><time>2026-04-12T10:52:21.979Z</time></trkpt><trkpt lat="43.579347022139764" lon="3.745944906970238"><ele>56.66666666666667</ele><time>2026-04-12T10:52:23.979Z</time></trkpt><trkpt lat="43.57930192244485" lon="3.7458356336750023"><ele>57.333333333333336</ele><time>2026-04-12T10:52:25.979Z</time></trkpt><trkpt lat="43.57927783215674" lon="3.7457287707589555"><ele>58.0</ele><time>2026-04-12T10:52:27.979Z</time></trkpt><trkpt lat="43.57925369563138" lon="3.745620829907063"><ele>58.66666666666667</ele><time>2026-04-12T10:52:29.979Z</time></trkpt><trkpt lat="43.57921766283506" lon="3.745543084427541"><ele>59.333333333333336</ele><time>2026-04-12T10:52:31.979Z</time></trkpt><trkpt lat="43.57919222671534" lon="3.745456192497987"><ele>60.0</ele><time>2026-04-12T10:52:33.979Z</time></trkpt><trkpt lat="43.57919855405074" lon="3.7453498956405196"><ele>60.0</ele><time>2026-04-12T10:52:35.979Z</time></trkpt><trkpt lat="43.579190796251915" lon="3.745247613359876"><ele>60.0</ele><time>2026-04-12T10:52:37.979Z</time></trkpt><trkpt lat="43.5791463821163" lon="3.745177121774721"><ele>60.0</ele><time>2026-04-12T10:52:39.979Z</time></trkpt><trkpt lat="43.57910916934512" lon="3.745089517880938"><ele>60.0</ele><time>2026-04-12T10:52:41.979Z</time></trkpt><trkpt lat="43.57906386073735" lon="3.74499520987738"><ele>60.0</ele><time>2026-04-12T10:52:43.979Z</time></trkpt><trkpt lat="43.57902064970026" lon="3.7448932552979097"><ele>60.0</ele><time>2026-04-12T10:52:45.979Z</time></trkpt><trkpt lat="43.57897295426043" lon="3.7447833668593886"><ele>60.5</ele><time>2026-04-12T10:52:47.979Z</time></trkpt><trkpt lat="43.57892210452211" lon="3.7446865705835646"><ele>61.0</ele><time>2026-04-12T10:52:49.979Z</time></trkpt><trkpt lat="43.57887453855776" lon="3.744589296171189"><ele>61.5</ele><time>2026-04-12T10:52:51.979Z</time></trkpt><trkpt lat="43.57882508068218" lon="3.7444878169103553"><ele>62.0</ele><time>2026-04-12T10:52:53.979Z</time></trkpt><trkpt lat="43.57877680565995" lon="3.7443880909592027"><ele>62.5</ele><time>2026-04-12T10:52:55.979Z</time></trkpt><trkpt lat="43.57873077947684" lon="3.744283574647519"><ele>63.0</ele><time>2026-04-12T10:52:57.979Z</time></trkpt><trkpt lat="43.57868304596936" lon="3.744197435326294"><ele>63.0</ele><time>2026-04-12T10:52:59.979Z</time></trkpt><trkpt lat="43.57864362178536" lon="3.744099288674154"><ele>63.0</ele><time>2026-04-12T10:53:01.978Z</time></trkpt><trkpt lat="43.57868752852698" lon="3.7440040818106537"><ele>63.0</ele><time>2026-04-12T10:53:03.978Z</time></trkpt><trkpt lat="43.57873094690069" lon="3.743915365349056"><ele>63.0</ele><time>2026-04-12T10:53:05.978Z</time></trkpt><trkpt lat="43.57877304217167" lon="3.7438198495843973"><ele>63.0</ele><time>2026-04-12T10:53:07.978Z</time></trkpt><trkpt lat="43.57883121637224" lon="3.7437398619837476"><ele>63.0</ele><time>2026-04-12T10:53:09.978Z</time></trkpt><trkpt lat="43.578885881262735" lon="3.743672308541375"><ele>64.33333333333333</ele><time>2026-04-12T10:53:11.978Z</time></trkpt><trkpt lat="43.57893807179999" lon="3.743598022450568"><ele>65.66666666666667</ele><time>2026-04-12T10:53:13.978Z</time></trkpt><trkpt lat="43.57900555902527" lon="3.7435309522953246"><ele>67.0</ele><time>2026-04-12T10:53:15.978Z</time></trkpt><trkpt lat="43.57909256928636" lon="3.743499706252426"><ele>68.33333333333334</ele><time>2026-04-12T10:53:17.978Z</time></trkpt><trkpt lat="43.57916913396363" lon="3.7435072668303735"><ele>69.66666666666667</ele><time>2026-04-12T10:53:19.978Z</time></trkpt><trkpt lat="43.57924411661596" lon="3.7435425424871083"><ele>71.0</ele><time>2026-04-12T10:53:21.978Z</time></trkpt><trkpt lat="43.579314928486546" lon="3.7436034696860374"><ele>71.0</ele><time>2026-04-12T10:53:23.979Z</time></trkpt><trkpt lat="43.579402438452604" lon="3.743674648780839"><ele>71.0</ele><time>2026-04-12T10:53:25.979Z</time></trkpt><trkpt lat="43.5794816577562" lon="3.743755451576469"><ele>71.0</ele><time>2026-04-12T10:53:27.98Z</time></trkpt><trkpt lat="43.57954976764823" lon="3.7438451612947965"><ele>71.0</ele><time>2026-04-12T10:53:29.979Z</time></trkpt><trkpt lat="43.57961895523106" lon="3.743943997264116"><ele>71.0</ele><time>2026-04-12T10:53:31.98Z</time></trkpt><trkpt lat="43.57969637429575" lon="3.7440430942798706"><ele>71.8</ele><time>2026-04-12T10:53:33.979Z</time></trkpt><trkpt lat="43.5797736979247" lon="3.7441547264411534"><ele>72.6</ele><time>2026-04-12T10:53:35.979Z</time></trkpt><trkpt lat="43.57985029687724" lon="3.744256960980743"><ele>73.4</ele><time>2026-04-12T10:53:37.979Z</time></trkpt><trkpt lat="43.579934865625624" lon="3.7443412047319757"><ele>74.2</ele><time>2026-04-12T10:53:39.979Z</time></trkpt><trkpt lat="43.57997452608276" lon="3.7444913258794768"><ele>75.0</ele><time>2026-04-12T10:53:41.979Z</time></trkpt><trkpt lat="43.57997314643903" lon="3.7445857088756562"><ele>75.0</ele><time>2026-04-12T10:53:42.979Z</time></trkpt><trkpt lat="43.5799856253877" lon="3.74475481130833"><ele>75.0</ele><time>2026-04-12T10:53:44.979Z</time></trkpt><trkpt lat="43.580002031412846" lon="3.7448464292311434"><ele>75.0</ele><time>2026-04-12T10:53:45.979Z</time></trkpt><trkpt lat="43.58002155989542" lon="3.7449342958239313"><ele>75.0</ele><time>2026-04-12T10:53:46.979Z</time></trkpt><trkpt lat="43.580057856367034" lon="3.74501477766762"><ele>75.0</ele><time>2026-04-12T10:53:47.979Z</time></trkpt><trkpt lat="43.58009323970061" lon="3.7450948291573334"><ele>75.0</ele><time>2026-04-12T10:53:48.979Z</time></trkpt><trkpt lat="43.580126198027735" lon="3.74517248897212"><ele>75.33333333333333</ele><time>2026-04-12T10:53:49.979Z</time></trkpt><trkpt lat="43.58019373241093" lon="3.7453095062644826"><ele>75.66666666666667</ele><time>2026-04-12T10:53:51.979Z</time></trkpt><trkpt lat="43.580240101409146" lon="3.7453704707609514"><ele>76.0</ele><time>2026-04-12T10:53:52.979Z</time></trkpt><trkpt lat="43.580299683239055" lon="3.7454029056527607"><ele>76.33333333333334</ele><time>2026-04-12T10:53:53.979Z</time></trkpt><trkpt lat="43.580392655399514" lon="3.7454293106395187"><ele>76.66666666666667</ele><time>2026-04-12T10:53:55.979Z</time></trkpt><trkpt lat="43.58048112264593" lon="3.745477424491134"><ele>77.0</ele><time>2026-04-12T10:53:57.979Z</time></trkpt><trkpt lat="43.58053298618703" lon="3.745570210001155"><ele>77.0</ele><time>2026-04-12T10:53:59.979Z</time></trkpt><trkpt lat="43.580596937850665" lon="3.745663858247777"><ele>77.0</ele><time>2026-04-12T10:54:01.979Z</time></trkpt><trkpt lat="43.58065820214379" lon="3.745783483404282"><ele>77.0</ele><time>2026-04-12T10:54:03.979Z</time></trkpt><trkpt lat="43.58067718105234" lon="3.7459488247138215"><ele>77.0</ele><time>2026-04-12T10:54:05.979Z</time></trkpt><trkpt lat="43.580642001246055" lon="3.7461060183796917"><ele>77.0</ele><time>2026-04-12T10:54:07.979Z</time></trkpt><trkpt lat="43.58062278287171" lon="3.746190585023559"><ele>76.0</ele><time>2026-04-12T10:54:08.979Z</time></trkpt><trkpt lat="43.58061012197528" lon="3.746278141056915"><ele>75.0</ele><time>2026-04-12T10:54:09.979Z</time></trkpt><trkpt lat="43.58058849787849" lon="3.746398010715781"><ele>74.0</ele><time>2026-04-12T10:54:11.979Z</time></trkpt><trkpt lat="43.58064706102903" lon="3.746464934533796"><ele>73.0</ele><time>2026-04-12T10:54:14.979Z</time></trkpt><trkpt lat="43.5807343206204" lon="3.7465078099345854"><ele>72.0</ele><time>2026-04-12T10:54:16.979Z</time></trkpt><trkpt lat="43.580802622113225" lon="3.7465206078099023"><ele>71.0</ele><time>2026-04-12T10:54:17.979Z</time></trkpt><trkpt lat="43.58079580578198" lon="3.746644392173545"><ele>71.0</ele><time>2026-04-12T10:54:20.978Z</time></trkpt><trkpt lat="43.58083406609071" lon="3.746714147915238"><ele>71.0</ele><time>2026-04-12T10:54:22.978Z</time></trkpt><trkpt lat="43.580875611081325" lon="3.7467829614722423"><ele>71.0</ele><time>2026-04-12T10:54:24.978Z</time></trkpt><trkpt lat="43.58093852656664" lon="3.746774513551717"><ele>71.0</ele><time>2026-04-12T10:54:26.978Z</time></trkpt></trkseg></trk></gpx>